<?xml version="1.0" encoding="UTF-8" standalone="no" ?>
<gpx xmlns="http://www.topografix.com/GPX/1/1" xmlns:xsi="http://www.w3.org/2001/XMLSchema-instance" xsi:schemaLocation="http://www.topografix.com/GPX/1/1 http://www.topografix.com/GPX/1/1/gpx.xsd" version="1.1" creator="VisuGPX - https://www.visugpx.com">
  <metadata>
    <name>TrameJuratienne</name>
    <desc><![CDATA[Parcourt des 58 kms à la tramjuratienne de 2015]]></desc>
  </metadata>
  <trk>
    <name><![CDATA[2015-06-28-01]]></name>
    <trkseg>
      <trkpt lat="46.57379" lon="5.95289">
        <ele>802.7</ele>
        <time>2015-06-28T05:42:33Z</time>
      </trkpt>
      <trkpt lat="46.57378" lon="5.95275">
        <ele>811</ele>
        <time>2015-06-28T05:42:35Z</time>
      </trkpt>
      <trkpt lat="46.57374" lon="5.95251">
        <ele>833</ele>
        <time>2015-06-28T05:42:39Z</time>
      </trkpt>
      <trkpt lat="46.57369" lon="5.95231">
        <ele>849</ele>
        <time>2015-06-28T05:42:43Z</time>
      </trkpt>
      <trkpt lat="46.57374" lon="5.95213">
        <ele>894</ele>
        <time>2015-06-28T05:43:07Z</time>
      </trkpt>
      <trkpt lat="46.57364" lon="5.95232">
        <ele>906</ele>
        <time>2015-06-28T05:43:56Z</time>
      </trkpt>
      <trkpt lat="46.57378" lon="5.95231">
        <ele>906.8</ele>
        <time>2015-06-28T05:44:01Z</time>
      </trkpt>
      <trkpt lat="46.57369" lon="5.95233">
        <ele>906.7</ele>
        <time>2015-06-28T05:44:05Z</time>
      </trkpt>
      <trkpt lat="46.57371" lon="5.95248">
        <ele>906.7</ele>
        <time>2015-06-28T05:44:07Z</time>
      </trkpt>
      <trkpt lat="46.57382" lon="5.95257">
        <ele>906.8</ele>
        <time>2015-06-28T05:44:09Z</time>
      </trkpt>
      <trkpt lat="46.57392" lon="5.95255">
        <ele>906.9</ele>
        <time>2015-06-28T05:44:12Z</time>
      </trkpt>
      <trkpt lat="46.57398" lon="5.95245">
        <ele>907</ele>
        <time>2015-06-28T05:44:16Z</time>
      </trkpt>
      <trkpt lat="46.57404" lon="5.95234">
        <ele>907.1</ele>
        <time>2015-06-28T05:44:22Z</time>
      </trkpt>
      <trkpt lat="46.57413" lon="5.9523">
        <ele>907.2</ele>
        <time>2015-06-28T05:44:31Z</time>
      </trkpt>
      <trkpt lat="46.57422" lon="5.95223">
        <ele>907.4</ele>
        <time>2015-06-28T05:44:38Z</time>
      </trkpt>
      <trkpt lat="46.57426" lon="5.95211">
        <ele>907.5</ele>
        <time>2015-06-28T05:45:01Z</time>
      </trkpt>
      <trkpt lat="46.57433" lon="5.95202">
        <ele>907.5</ele>
        <time>2015-06-28T05:45:18Z</time>
      </trkpt>
      <trkpt lat="46.57442" lon="5.95198">
        <ele>907.5</ele>
        <time>2015-06-28T05:45:27Z</time>
      </trkpt>
      <trkpt lat="46.57449" lon="5.95186">
        <ele>907.5</ele>
        <time>2015-06-28T05:45:36Z</time>
      </trkpt>
      <trkpt lat="46.57457" lon="5.95181">
        <ele>907.5</ele>
        <time>2015-06-28T05:45:41Z</time>
      </trkpt>
      <trkpt lat="46.57467" lon="5.95175">
        <ele>907.4</ele>
        <time>2015-06-28T05:45:45Z</time>
      </trkpt>
      <trkpt lat="46.57476" lon="5.95171">
        <ele>907.4</ele>
        <time>2015-06-28T05:45:49Z</time>
      </trkpt>
      <trkpt lat="46.57485" lon="5.95162">
        <ele>907.4</ele>
        <time>2015-06-28T05:45:53Z</time>
      </trkpt>
      <trkpt lat="46.57494" lon="5.95151">
        <ele>907.5</ele>
        <time>2015-06-28T05:45:58Z</time>
      </trkpt>
      <trkpt lat="46.57503" lon="5.95141">
        <ele>907.6</ele>
        <time>2015-06-28T05:46:02Z</time>
      </trkpt>
      <trkpt lat="46.57512" lon="5.95132">
        <ele>907.7</ele>
        <time>2015-06-28T05:46:06Z</time>
      </trkpt>
      <trkpt lat="46.5752" lon="5.95124">
        <ele>907.7</ele>
        <time>2015-06-28T05:46:09Z</time>
      </trkpt>
      <trkpt lat="46.57528" lon="5.95118">
        <ele>907.8</ele>
        <time>2015-06-28T05:46:12Z</time>
      </trkpt>
      <trkpt lat="46.57536" lon="5.95113">
        <ele>907.8</ele>
        <time>2015-06-28T05:46:15Z</time>
      </trkpt>
      <trkpt lat="46.57546" lon="5.95109">
        <ele>907.9</ele>
        <time>2015-06-28T05:46:19Z</time>
      </trkpt>
      <trkpt lat="46.57556" lon="5.95118">
        <ele>907.9</ele>
        <time>2015-06-28T05:46:23Z</time>
      </trkpt>
      <trkpt lat="46.57565" lon="5.95126">
        <ele>907.9</ele>
        <time>2015-06-28T05:46:26Z</time>
      </trkpt>
      <trkpt lat="46.57564" lon="5.95144">
        <ele>908</ele>
        <time>2015-06-28T05:46:30Z</time>
      </trkpt>
      <trkpt lat="46.57563" lon="5.9516">
        <ele>908</ele>
        <time>2015-06-28T05:46:33Z</time>
      </trkpt>
      <trkpt lat="46.57561" lon="5.95177">
        <ele>908.1</ele>
        <time>2015-06-28T05:46:36Z</time>
      </trkpt>
      <trkpt lat="46.57557" lon="5.95193">
        <ele>908.1</ele>
        <time>2015-06-28T05:46:39Z</time>
      </trkpt>
      <trkpt lat="46.57554" lon="5.95209">
        <ele>908.1</ele>
        <time>2015-06-28T05:46:42Z</time>
      </trkpt>
      <trkpt lat="46.57552" lon="5.95224">
        <ele>908.1</ele>
        <time>2015-06-28T05:46:45Z</time>
      </trkpt>
      <trkpt lat="46.5755" lon="5.9524">
        <ele>908.2</ele>
        <time>2015-06-28T05:46:48Z</time>
      </trkpt>
      <trkpt lat="46.5756" lon="5.95258">
        <ele>908.2</ele>
        <time>2015-06-28T05:46:51Z</time>
      </trkpt>
      <trkpt lat="46.57564" lon="5.9527">
        <ele>908.2</ele>
        <time>2015-06-28T05:46:53Z</time>
      </trkpt>
      <trkpt lat="46.5757" lon="5.95283">
        <ele>908.2</ele>
        <time>2015-06-28T05:46:55Z</time>
      </trkpt>
      <trkpt lat="46.57571" lon="5.95296">
        <ele>908.2</ele>
        <time>2015-06-28T05:46:58Z</time>
      </trkpt>
      <trkpt lat="46.57572" lon="5.95313">
        <ele>908.2</ele>
        <time>2015-06-28T05:47:02Z</time>
      </trkpt>
      <trkpt lat="46.57573" lon="5.95329">
        <ele>908.3</ele>
        <time>2015-06-28T05:47:06Z</time>
      </trkpt>
      <trkpt lat="46.57576" lon="5.95345">
        <ele>908.4</ele>
        <time>2015-06-28T05:47:10Z</time>
      </trkpt>
      <trkpt lat="46.5758" lon="5.9536">
        <ele>908.4</ele>
        <time>2015-06-28T05:47:13Z</time>
      </trkpt>
      <trkpt lat="46.57583" lon="5.95377">
        <ele>908.5</ele>
        <time>2015-06-28T05:47:16Z</time>
      </trkpt>
      <trkpt lat="46.57587" lon="5.95394">
        <ele>908.6</ele>
        <time>2015-06-28T05:47:19Z</time>
      </trkpt>
      <trkpt lat="46.57591" lon="5.95411">
        <ele>908.7</ele>
        <time>2015-06-28T05:47:22Z</time>
      </trkpt>
      <trkpt lat="46.57593" lon="5.95427">
        <ele>908.8</ele>
        <time>2015-06-28T05:47:25Z</time>
      </trkpt>
      <trkpt lat="46.57596" lon="5.95443">
        <ele>908.9</ele>
        <time>2015-06-28T05:47:28Z</time>
      </trkpt>
      <trkpt lat="46.57597" lon="5.95457">
        <ele>909</ele>
        <time>2015-06-28T05:47:30Z</time>
      </trkpt>
      <trkpt lat="46.57599" lon="5.9547">
        <ele>909.2</ele>
        <time>2015-06-28T05:47:32Z</time>
      </trkpt>
      <trkpt lat="46.57601" lon="5.95484">
        <ele>909.4</ele>
        <time>2015-06-28T05:47:34Z</time>
      </trkpt>
      <trkpt lat="46.57604" lon="5.95497">
        <ele>909.5</ele>
        <time>2015-06-28T05:47:36Z</time>
      </trkpt>
      <trkpt lat="46.57606" lon="5.95511">
        <ele>909.7</ele>
        <time>2015-06-28T05:47:38Z</time>
      </trkpt>
      <trkpt lat="46.57609" lon="5.95525">
        <ele>909.8</ele>
        <time>2015-06-28T05:47:40Z</time>
      </trkpt>
      <trkpt lat="46.57612" lon="5.9554">
        <ele>909.9</ele>
        <time>2015-06-28T05:47:42Z</time>
      </trkpt>
      <trkpt lat="46.57614" lon="5.95553">
        <ele>910</ele>
        <time>2015-06-28T05:47:44Z</time>
      </trkpt>
      <trkpt lat="46.57617" lon="5.95566">
        <ele>910</ele>
        <time>2015-06-28T05:47:46Z</time>
      </trkpt>
      <trkpt lat="46.5762" lon="5.9558">
        <ele>910.1</ele>
        <time>2015-06-28T05:47:48Z</time>
      </trkpt>
      <trkpt lat="46.57623" lon="5.95598">
        <ele>910.2</ele>
        <time>2015-06-28T05:47:51Z</time>
      </trkpt>
      <trkpt lat="46.57624" lon="5.95611">
        <ele>910.2</ele>
        <time>2015-06-28T05:47:53Z</time>
      </trkpt>
      <trkpt lat="46.57627" lon="5.95625">
        <ele>910.3</ele>
        <time>2015-06-28T05:47:55Z</time>
      </trkpt>
      <trkpt lat="46.57629" lon="5.95638">
        <ele>910.3</ele>
        <time>2015-06-28T05:47:57Z</time>
      </trkpt>
      <trkpt lat="46.57632" lon="5.95651">
        <ele>910.4</ele>
        <time>2015-06-28T05:47:59Z</time>
      </trkpt>
      <trkpt lat="46.57634" lon="5.95666">
        <ele>910.5</ele>
        <time>2015-06-28T05:48:02Z</time>
      </trkpt>
      <trkpt lat="46.57637" lon="5.95683">
        <ele>910.6</ele>
        <time>2015-06-28T05:48:05Z</time>
      </trkpt>
      <trkpt lat="46.57639" lon="5.95695">
        <ele>910.7</ele>
        <time>2015-06-28T05:48:07Z</time>
      </trkpt>
      <trkpt lat="46.57642" lon="5.95713">
        <ele>910.9</ele>
        <time>2015-06-28T05:48:10Z</time>
      </trkpt>
      <trkpt lat="46.57645" lon="5.9573">
        <ele>911.2</ele>
        <time>2015-06-28T05:48:13Z</time>
      </trkpt>
      <trkpt lat="46.57648" lon="5.95747">
        <ele>911.5</ele>
        <time>2015-06-28T05:48:16Z</time>
      </trkpt>
      <trkpt lat="46.57651" lon="5.95764">
        <ele>911.8</ele>
        <time>2015-06-28T05:48:19Z</time>
      </trkpt>
      <trkpt lat="46.57653" lon="5.95779">
        <ele>912</ele>
        <time>2015-06-28T05:48:22Z</time>
      </trkpt>
      <trkpt lat="46.57655" lon="5.95796">
        <ele>912.3</ele>
        <time>2015-06-28T05:48:25Z</time>
      </trkpt>
      <trkpt lat="46.57658" lon="5.95813">
        <ele>912.5</ele>
        <time>2015-06-28T05:48:28Z</time>
      </trkpt>
      <trkpt lat="46.57659" lon="5.95826">
        <ele>912.7</ele>
        <time>2015-06-28T05:48:30Z</time>
      </trkpt>
      <trkpt lat="46.57661" lon="5.9584">
        <ele>913</ele>
        <time>2015-06-28T05:48:32Z</time>
      </trkpt>
      <trkpt lat="46.57665" lon="5.95853">
        <ele>913.2</ele>
        <time>2015-06-28T05:48:34Z</time>
      </trkpt>
      <trkpt lat="46.57668" lon="5.95866">
        <ele>913.5</ele>
        <time>2015-06-28T05:48:36Z</time>
      </trkpt>
      <trkpt lat="46.5767" lon="5.9588">
        <ele>913.8</ele>
        <time>2015-06-28T05:48:38Z</time>
      </trkpt>
      <trkpt lat="46.57674" lon="5.95899">
        <ele>914.1</ele>
        <time>2015-06-28T05:48:41Z</time>
      </trkpt>
      <trkpt lat="46.57676" lon="5.95917">
        <ele>914.5</ele>
        <time>2015-06-28T05:48:44Z</time>
      </trkpt>
      <trkpt lat="46.57678" lon="5.9593">
        <ele>914.7</ele>
        <time>2015-06-28T05:48:46Z</time>
      </trkpt>
      <trkpt lat="46.5768" lon="5.95949">
        <ele>915</ele>
        <time>2015-06-28T05:48:49Z</time>
      </trkpt>
      <trkpt lat="46.5768" lon="5.95969">
        <ele>915.3</ele>
        <time>2015-06-28T05:48:52Z</time>
      </trkpt>
      <trkpt lat="46.57681" lon="5.95982">
        <ele>915.5</ele>
        <time>2015-06-28T05:48:54Z</time>
      </trkpt>
      <trkpt lat="46.5768" lon="5.96002">
        <ele>915.9</ele>
        <time>2015-06-28T05:48:57Z</time>
      </trkpt>
      <trkpt lat="46.57681" lon="5.96017">
        <ele>916.1</ele>
        <time>2015-06-28T05:48:59Z</time>
      </trkpt>
      <trkpt lat="46.57681" lon="5.96032">
        <ele>916.2</ele>
        <time>2015-06-28T05:49:01Z</time>
      </trkpt>
      <trkpt lat="46.57679" lon="5.9605">
        <ele>916.6</ele>
        <time>2015-06-28T05:49:04Z</time>
      </trkpt>
      <trkpt lat="46.57678" lon="5.96064">
        <ele>916.8</ele>
        <time>2015-06-28T05:49:06Z</time>
      </trkpt>
      <trkpt lat="46.57677" lon="5.96078">
        <ele>916.9</ele>
        <time>2015-06-28T05:49:08Z</time>
      </trkpt>
      <trkpt lat="46.57679" lon="5.96097">
        <ele>917.3</ele>
        <time>2015-06-28T05:49:11Z</time>
      </trkpt>
      <trkpt lat="46.5768" lon="5.96116">
        <ele>917.6</ele>
        <time>2015-06-28T05:49:14Z</time>
      </trkpt>
      <trkpt lat="46.57678" lon="5.96135">
        <ele>917.9</ele>
        <time>2015-06-28T05:49:17Z</time>
      </trkpt>
      <trkpt lat="46.57679" lon="5.96149">
        <ele>918.1</ele>
        <time>2015-06-28T05:49:19Z</time>
      </trkpt>
      <trkpt lat="46.57679" lon="5.96163">
        <ele>918.2</ele>
        <time>2015-06-28T05:49:21Z</time>
      </trkpt>
      <trkpt lat="46.57678" lon="5.96177">
        <ele>918.3</ele>
        <time>2015-06-28T05:49:23Z</time>
      </trkpt>
      <trkpt lat="46.57679" lon="5.9619">
        <ele>918.5</ele>
        <time>2015-06-28T05:49:25Z</time>
      </trkpt>
      <trkpt lat="46.57681" lon="5.96209">
        <ele>918.6</ele>
        <time>2015-06-28T05:49:28Z</time>
      </trkpt>
      <trkpt lat="46.57686" lon="5.96227">
        <ele>918.7</ele>
        <time>2015-06-28T05:49:31Z</time>
      </trkpt>
      <trkpt lat="46.57691" lon="5.96241">
        <ele>918.8</ele>
        <time>2015-06-28T05:49:33Z</time>
      </trkpt>
      <trkpt lat="46.57695" lon="5.96255">
        <ele>918.8</ele>
        <time>2015-06-28T05:49:35Z</time>
      </trkpt>
      <trkpt lat="46.57699" lon="5.9627">
        <ele>918.9</ele>
        <time>2015-06-28T05:49:37Z</time>
      </trkpt>
      <trkpt lat="46.57704" lon="5.96285">
        <ele>918.9</ele>
        <time>2015-06-28T05:49:39Z</time>
      </trkpt>
      <trkpt lat="46.57708" lon="5.963">
        <ele>918.9</ele>
        <time>2015-06-28T05:49:41Z</time>
      </trkpt>
      <trkpt lat="46.57711" lon="5.96315">
        <ele>919</ele>
        <time>2015-06-28T05:49:43Z</time>
      </trkpt>
      <trkpt lat="46.57715" lon="5.9633">
        <ele>919</ele>
        <time>2015-06-28T05:49:45Z</time>
      </trkpt>
      <trkpt lat="46.57719" lon="5.96345">
        <ele>919</ele>
        <time>2015-06-28T05:49:47Z</time>
      </trkpt>
      <trkpt lat="46.5772" lon="5.96359">
        <ele>918.9</ele>
        <time>2015-06-28T05:49:49Z</time>
      </trkpt>
      <trkpt lat="46.57724" lon="5.96374">
        <ele>918.9</ele>
        <time>2015-06-28T05:49:51Z</time>
      </trkpt>
      <trkpt lat="46.57727" lon="5.96389">
        <ele>918.8</ele>
        <time>2015-06-28T05:49:53Z</time>
      </trkpt>
      <trkpt lat="46.57729" lon="5.96403">
        <ele>918.7</ele>
        <time>2015-06-28T05:49:55Z</time>
      </trkpt>
      <trkpt lat="46.57733" lon="5.96418">
        <ele>918.6</ele>
        <time>2015-06-28T05:49:57Z</time>
      </trkpt>
      <trkpt lat="46.57736" lon="5.96432">
        <ele>918.4</ele>
        <time>2015-06-28T05:49:59Z</time>
      </trkpt>
      <trkpt lat="46.57741" lon="5.96447">
        <ele>918.3</ele>
        <time>2015-06-28T05:50:01Z</time>
      </trkpt>
      <trkpt lat="46.57745" lon="5.96461">
        <ele>918.2</ele>
        <time>2015-06-28T05:50:03Z</time>
      </trkpt>
      <trkpt lat="46.5775" lon="5.96477">
        <ele>918.1</ele>
        <time>2015-06-28T05:50:05Z</time>
      </trkpt>
      <trkpt lat="46.57756" lon="5.96492">
        <ele>917.9</ele>
        <time>2015-06-28T05:50:07Z</time>
      </trkpt>
      <trkpt lat="46.5776" lon="5.96507">
        <ele>917.8</ele>
        <time>2015-06-28T05:50:09Z</time>
      </trkpt>
      <trkpt lat="46.57764" lon="5.96521">
        <ele>917.5</ele>
        <time>2015-06-28T05:50:11Z</time>
      </trkpt>
      <trkpt lat="46.57766" lon="5.96535">
        <ele>917.3</ele>
        <time>2015-06-28T05:50:13Z</time>
      </trkpt>
      <trkpt lat="46.57763" lon="5.96549">
        <ele>917.1</ele>
        <time>2015-06-28T05:50:15Z</time>
      </trkpt>
      <trkpt lat="46.57763" lon="5.96562">
        <ele>916.8</ele>
        <time>2015-06-28T05:50:17Z</time>
      </trkpt>
      <trkpt lat="46.57767" lon="5.96574">
        <ele>916.5</ele>
        <time>2015-06-28T05:50:19Z</time>
      </trkpt>
      <trkpt lat="46.57775" lon="5.96581">
        <ele>916.2</ele>
        <time>2015-06-28T05:50:21Z</time>
      </trkpt>
      <trkpt lat="46.57785" lon="5.9658">
        <ele>915.9</ele>
        <time>2015-06-28T05:50:23Z</time>
      </trkpt>
      <trkpt lat="46.57795" lon="5.96574">
        <ele>915.6</ele>
        <time>2015-06-28T05:50:25Z</time>
      </trkpt>
      <trkpt lat="46.57806" lon="5.96572">
        <ele>915.2</ele>
        <time>2015-06-28T05:50:27Z</time>
      </trkpt>
      <trkpt lat="46.57816" lon="5.96577">
        <ele>914.9</ele>
        <time>2015-06-28T05:50:29Z</time>
      </trkpt>
      <trkpt lat="46.57827" lon="5.96585">
        <ele>914.7</ele>
        <time>2015-06-28T05:50:31Z</time>
      </trkpt>
      <trkpt lat="46.57837" lon="5.96598">
        <ele>914.4</ele>
        <time>2015-06-28T05:50:33Z</time>
      </trkpt>
      <trkpt lat="46.57846" lon="5.96613">
        <ele>914.1</ele>
        <time>2015-06-28T05:50:35Z</time>
      </trkpt>
      <trkpt lat="46.57853" lon="5.96629">
        <ele>913.8</ele>
        <time>2015-06-28T05:50:37Z</time>
      </trkpt>
      <trkpt lat="46.57859" lon="5.96647">
        <ele>913.5</ele>
        <time>2015-06-28T05:50:39Z</time>
      </trkpt>
      <trkpt lat="46.57861" lon="5.96667">
        <ele>913.1</ele>
        <time>2015-06-28T05:50:41Z</time>
      </trkpt>
      <trkpt lat="46.57862" lon="5.96688">
        <ele>912.7</ele>
        <time>2015-06-28T05:50:43Z</time>
      </trkpt>
      <trkpt lat="46.57862" lon="5.96709">
        <ele>912.4</ele>
        <time>2015-06-28T05:50:45Z</time>
      </trkpt>
      <trkpt lat="46.57859" lon="5.96731">
        <ele>911.9</ele>
        <time>2015-06-28T05:50:47Z</time>
      </trkpt>
      <trkpt lat="46.57857" lon="5.96753">
        <ele>911.5</ele>
        <time>2015-06-28T05:50:49Z</time>
      </trkpt>
      <trkpt lat="46.57855" lon="5.96771">
        <ele>911.1</ele>
        <time>2015-06-28T05:50:51Z</time>
      </trkpt>
      <trkpt lat="46.57853" lon="5.96788">
        <ele>910.7</ele>
        <time>2015-06-28T05:50:53Z</time>
      </trkpt>
      <trkpt lat="46.57851" lon="5.96806">
        <ele>910.2</ele>
        <time>2015-06-28T05:50:55Z</time>
      </trkpt>
      <trkpt lat="46.57849" lon="5.96825">
        <ele>909.7</ele>
        <time>2015-06-28T05:50:57Z</time>
      </trkpt>
      <trkpt lat="46.57846" lon="5.96841">
        <ele>909</ele>
        <time>2015-06-28T05:50:59Z</time>
      </trkpt>
      <trkpt lat="46.57843" lon="5.96857">
        <ele>908.5</ele>
        <time>2015-06-28T05:51:01Z</time>
      </trkpt>
      <trkpt lat="46.5784" lon="5.96874">
        <ele>907.8</ele>
        <time>2015-06-28T05:51:04Z</time>
      </trkpt>
      <trkpt lat="46.57846" lon="5.96892">
        <ele>907.1</ele>
        <time>2015-06-28T05:51:07Z</time>
      </trkpt>
      <trkpt lat="46.5785" lon="5.96905">
        <ele>906.6</ele>
        <time>2015-06-28T05:51:09Z</time>
      </trkpt>
      <trkpt lat="46.57854" lon="5.96921">
        <ele>905.9</ele>
        <time>2015-06-28T05:51:12Z</time>
      </trkpt>
      <trkpt lat="46.5786" lon="5.96932">
        <ele>905.4</ele>
        <time>2015-06-28T05:51:15Z</time>
      </trkpt>
      <trkpt lat="46.57866" lon="5.96944">
        <ele>904.9</ele>
        <time>2015-06-28T05:51:19Z</time>
      </trkpt>
      <trkpt lat="46.57872" lon="5.96954">
        <ele>904.6</ele>
        <time>2015-06-28T05:51:25Z</time>
      </trkpt>
      <trkpt lat="46.57878" lon="5.96966">
        <ele>905.2</ele>
        <time>2015-06-28T05:51:31Z</time>
      </trkpt>
      <trkpt lat="46.57884" lon="5.96977">
        <ele>905.9</ele>
        <time>2015-06-28T05:51:36Z</time>
      </trkpt>
      <trkpt lat="46.57891" lon="5.96987">
        <ele>906.9</ele>
        <time>2015-06-28T05:51:42Z</time>
      </trkpt>
      <trkpt lat="46.57897" lon="5.96997">
        <ele>907.9</ele>
        <time>2015-06-28T05:51:47Z</time>
      </trkpt>
      <trkpt lat="46.57904" lon="5.97006">
        <ele>908.6</ele>
        <time>2015-06-28T05:51:51Z</time>
      </trkpt>
      <trkpt lat="46.57911" lon="5.97016">
        <ele>909.3</ele>
        <time>2015-06-28T05:51:56Z</time>
      </trkpt>
      <trkpt lat="46.57918" lon="5.97026">
        <ele>910</ele>
        <time>2015-06-28T05:52:00Z</time>
      </trkpt>
      <trkpt lat="46.57927" lon="5.97041">
        <ele>910.6</ele>
        <time>2015-06-28T05:52:04Z</time>
      </trkpt>
      <trkpt lat="46.57933" lon="5.97053">
        <ele>910.8</ele>
        <time>2015-06-28T05:52:06Z</time>
      </trkpt>
      <trkpt lat="46.57941" lon="5.97067">
        <ele>911.2</ele>
        <time>2015-06-28T05:52:09Z</time>
      </trkpt>
      <trkpt lat="46.57947" lon="5.97081">
        <ele>911.5</ele>
        <time>2015-06-28T05:52:12Z</time>
      </trkpt>
      <trkpt lat="46.57954" lon="5.97093">
        <ele>911.7</ele>
        <time>2015-06-28T05:52:15Z</time>
      </trkpt>
      <trkpt lat="46.57962" lon="5.97108">
        <ele>912</ele>
        <time>2015-06-28T05:52:18Z</time>
      </trkpt>
      <trkpt lat="46.5797" lon="5.97125">
        <ele>912.1</ele>
        <time>2015-06-28T05:52:21Z</time>
      </trkpt>
      <trkpt lat="46.57977" lon="5.97137">
        <ele>912.2</ele>
        <time>2015-06-28T05:52:23Z</time>
      </trkpt>
      <trkpt lat="46.57983" lon="5.97149">
        <ele>912.3</ele>
        <time>2015-06-28T05:52:25Z</time>
      </trkpt>
      <trkpt lat="46.57989" lon="5.97163">
        <ele>912.5</ele>
        <time>2015-06-28T05:52:28Z</time>
      </trkpt>
      <trkpt lat="46.57996" lon="5.97174">
        <ele>912.7</ele>
        <time>2015-06-28T05:52:31Z</time>
      </trkpt>
      <trkpt lat="46.58002" lon="5.97182">
        <ele>912.9</ele>
        <time>2015-06-28T05:52:35Z</time>
      </trkpt>
      <trkpt lat="46.58009" lon="5.97197">
        <ele>913</ele>
        <time>2015-06-28T05:52:38Z</time>
      </trkpt>
      <trkpt lat="46.58017" lon="5.97208">
        <ele>913.2</ele>
        <time>2015-06-28T05:52:41Z</time>
      </trkpt>
      <trkpt lat="46.58025" lon="5.9722">
        <ele>913.3</ele>
        <time>2015-06-28T05:52:44Z</time>
      </trkpt>
      <trkpt lat="46.58032" lon="5.97229">
        <ele>913.6</ele>
        <time>2015-06-28T05:52:47Z</time>
      </trkpt>
      <trkpt lat="46.5804" lon="5.9724">
        <ele>913.8</ele>
        <time>2015-06-28T05:52:50Z</time>
      </trkpt>
      <trkpt lat="46.58049" lon="5.9725">
        <ele>913.9</ele>
        <time>2015-06-28T05:52:53Z</time>
      </trkpt>
      <trkpt lat="46.58056" lon="5.9726">
        <ele>914</ele>
        <time>2015-06-28T05:52:56Z</time>
      </trkpt>
      <trkpt lat="46.58065" lon="5.97274">
        <ele>914.1</ele>
        <time>2015-06-28T05:52:59Z</time>
      </trkpt>
      <trkpt lat="46.58073" lon="5.97286">
        <ele>914.3</ele>
        <time>2015-06-28T05:53:02Z</time>
      </trkpt>
      <trkpt lat="46.58083" lon="5.973">
        <ele>914.5</ele>
        <time>2015-06-28T05:53:06Z</time>
      </trkpt>
      <trkpt lat="46.58092" lon="5.97311">
        <ele>914.6</ele>
        <time>2015-06-28T05:53:09Z</time>
      </trkpt>
      <trkpt lat="46.58101" lon="5.97321">
        <ele>914.6</ele>
        <time>2015-06-28T05:53:11Z</time>
      </trkpt>
      <trkpt lat="46.58107" lon="5.97332">
        <ele>914.5</ele>
        <time>2015-06-28T05:53:13Z</time>
      </trkpt>
      <trkpt lat="46.58115" lon="5.97344">
        <ele>914.5</ele>
        <time>2015-06-28T05:53:15Z</time>
      </trkpt>
      <trkpt lat="46.58121" lon="5.97353">
        <ele>914.4</ele>
        <time>2015-06-28T05:53:17Z</time>
      </trkpt>
      <trkpt lat="46.58131" lon="5.97366">
        <ele>914.3</ele>
        <time>2015-06-28T05:53:20Z</time>
      </trkpt>
      <trkpt lat="46.58139" lon="5.97377">
        <ele>914.3</ele>
        <time>2015-06-28T05:53:23Z</time>
      </trkpt>
      <trkpt lat="46.58146" lon="5.97391">
        <ele>914.3</ele>
        <time>2015-06-28T05:53:26Z</time>
      </trkpt>
      <trkpt lat="46.5815" lon="5.97409">
        <ele>914.4</ele>
        <time>2015-06-28T05:53:29Z</time>
      </trkpt>
      <trkpt lat="46.58152" lon="5.97424">
        <ele>914.4</ele>
        <time>2015-06-28T05:53:31Z</time>
      </trkpt>
      <trkpt lat="46.58152" lon="5.97438">
        <ele>914.4</ele>
        <time>2015-06-28T05:53:33Z</time>
      </trkpt>
      <trkpt lat="46.58152" lon="5.97452">
        <ele>914.2</ele>
        <time>2015-06-28T05:53:35Z</time>
      </trkpt>
      <trkpt lat="46.58152" lon="5.97467">
        <ele>914.1</ele>
        <time>2015-06-28T05:53:37Z</time>
      </trkpt>
      <trkpt lat="46.58153" lon="5.97482">
        <ele>914</ele>
        <time>2015-06-28T05:53:39Z</time>
      </trkpt>
      <trkpt lat="46.58152" lon="5.97496">
        <ele>913.8</ele>
        <time>2015-06-28T05:53:41Z</time>
      </trkpt>
      <trkpt lat="46.58151" lon="5.97509">
        <ele>913.6</ele>
        <time>2015-06-28T05:53:43Z</time>
      </trkpt>
      <trkpt lat="46.5815" lon="5.97525">
        <ele>913.4</ele>
        <time>2015-06-28T05:53:45Z</time>
      </trkpt>
      <trkpt lat="46.58148" lon="5.9754">
        <ele>913.3</ele>
        <time>2015-06-28T05:53:47Z</time>
      </trkpt>
      <trkpt lat="46.58146" lon="5.97556">
        <ele>913.2</ele>
        <time>2015-06-28T05:53:49Z</time>
      </trkpt>
      <trkpt lat="46.58144" lon="5.97571">
        <ele>913.1</ele>
        <time>2015-06-28T05:53:51Z</time>
      </trkpt>
      <trkpt lat="46.58141" lon="5.97591">
        <ele>912.9</ele>
        <time>2015-06-28T05:53:54Z</time>
      </trkpt>
      <trkpt lat="46.58137" lon="5.97604">
        <ele>912.6</ele>
        <time>2015-06-28T05:53:56Z</time>
      </trkpt>
      <trkpt lat="46.58135" lon="5.97621">
        <ele>912.3</ele>
        <time>2015-06-28T05:53:58Z</time>
      </trkpt>
      <trkpt lat="46.58132" lon="5.97637">
        <ele>912.1</ele>
        <time>2015-06-28T05:54:00Z</time>
      </trkpt>
      <trkpt lat="46.5813" lon="5.97654">
        <ele>911.8</ele>
        <time>2015-06-28T05:54:02Z</time>
      </trkpt>
      <trkpt lat="46.58129" lon="5.97669">
        <ele>911.4</ele>
        <time>2015-06-28T05:54:04Z</time>
      </trkpt>
      <trkpt lat="46.58133" lon="5.97683">
        <ele>911.1</ele>
        <time>2015-06-28T05:54:06Z</time>
      </trkpt>
      <trkpt lat="46.58144" lon="5.97693">
        <ele>910.6</ele>
        <time>2015-06-28T05:54:08Z</time>
      </trkpt>
      <trkpt lat="46.58157" lon="5.97695">
        <ele>910.1</ele>
        <time>2015-06-28T05:54:10Z</time>
      </trkpt>
      <trkpt lat="46.5817" lon="5.97695">
        <ele>909.4</ele>
        <time>2015-06-28T05:54:12Z</time>
      </trkpt>
      <trkpt lat="46.58183" lon="5.97698">
        <ele>908.8</ele>
        <time>2015-06-28T05:54:14Z</time>
      </trkpt>
      <trkpt lat="46.58194" lon="5.97703">
        <ele>908.2</ele>
        <time>2015-06-28T05:54:16Z</time>
      </trkpt>
      <trkpt lat="46.58204" lon="5.97714">
        <ele>907.4</ele>
        <time>2015-06-28T05:54:18Z</time>
      </trkpt>
      <trkpt lat="46.58213" lon="5.97728">
        <ele>906.5</ele>
        <time>2015-06-28T05:54:20Z</time>
      </trkpt>
      <trkpt lat="46.5822" lon="5.97742">
        <ele>905.5</ele>
        <time>2015-06-28T05:54:22Z</time>
      </trkpt>
      <trkpt lat="46.58228" lon="5.97756">
        <ele>904.5</ele>
        <time>2015-06-28T05:54:24Z</time>
      </trkpt>
      <trkpt lat="46.58238" lon="5.97769">
        <ele>903.5</ele>
        <time>2015-06-28T05:54:26Z</time>
      </trkpt>
      <trkpt lat="46.5825" lon="5.97784">
        <ele>902.3</ele>
        <time>2015-06-28T05:54:28Z</time>
      </trkpt>
      <trkpt lat="46.58263" lon="5.97801">
        <ele>901</ele>
        <time>2015-06-28T05:54:30Z</time>
      </trkpt>
      <trkpt lat="46.58273" lon="5.97818">
        <ele>899.6</ele>
        <time>2015-06-28T05:54:32Z</time>
      </trkpt>
      <trkpt lat="46.58283" lon="5.97835">
        <ele>898.1</ele>
        <time>2015-06-28T05:54:34Z</time>
      </trkpt>
      <trkpt lat="46.58294" lon="5.97856">
        <ele>896.7</ele>
        <time>2015-06-28T05:54:36Z</time>
      </trkpt>
      <trkpt lat="46.583" lon="5.97866">
        <ele>896</ele>
        <time>2015-06-28T05:54:37Z</time>
      </trkpt>
      <trkpt lat="46.5831" lon="5.97887">
        <ele>894.6</ele>
        <time>2015-06-28T05:54:39Z</time>
      </trkpt>
      <trkpt lat="46.58322" lon="5.97904">
        <ele>893.2</ele>
        <time>2015-06-28T05:54:41Z</time>
      </trkpt>
      <trkpt lat="46.58329" lon="5.97914">
        <ele>892.5</ele>
        <time>2015-06-28T05:54:42Z</time>
      </trkpt>
      <trkpt lat="46.58342" lon="5.97922">
        <ele>891.2</ele>
        <time>2015-06-28T05:54:44Z</time>
      </trkpt>
      <trkpt lat="46.58355" lon="5.97933">
        <ele>889.9</ele>
        <time>2015-06-28T05:54:46Z</time>
      </trkpt>
      <trkpt lat="46.58363" lon="5.97946">
        <ele>888.8</ele>
        <time>2015-06-28T05:54:48Z</time>
      </trkpt>
      <trkpt lat="46.58367" lon="5.97964">
        <ele>887.7</ele>
        <time>2015-06-28T05:54:50Z</time>
      </trkpt>
      <trkpt lat="46.58367" lon="5.97984">
        <ele>886.7</ele>
        <time>2015-06-28T05:54:52Z</time>
      </trkpt>
      <trkpt lat="46.58367" lon="5.98002">
        <ele>885.6</ele>
        <time>2015-06-28T05:54:54Z</time>
      </trkpt>
      <trkpt lat="46.58366" lon="5.98019">
        <ele>884.1</ele>
        <time>2015-06-28T05:54:57Z</time>
      </trkpt>
      <trkpt lat="46.58375" lon="5.98035">
        <ele>882.8</ele>
        <time>2015-06-28T05:55:00Z</time>
      </trkpt>
      <trkpt lat="46.58384" lon="5.98044">
        <ele>882</ele>
        <time>2015-06-28T05:55:02Z</time>
      </trkpt>
      <trkpt lat="46.58392" lon="5.98055">
        <ele>881.3</ele>
        <time>2015-06-28T05:55:04Z</time>
      </trkpt>
      <trkpt lat="46.58401" lon="5.98066">
        <ele>880.7</ele>
        <time>2015-06-28T05:55:06Z</time>
      </trkpt>
      <trkpt lat="46.58409" lon="5.98076">
        <ele>880</ele>
        <time>2015-06-28T05:55:08Z</time>
      </trkpt>
      <trkpt lat="46.58418" lon="5.98086">
        <ele>879.5</ele>
        <time>2015-06-28T05:55:10Z</time>
      </trkpt>
      <trkpt lat="46.58426" lon="5.98097">
        <ele>879</ele>
        <time>2015-06-28T05:55:12Z</time>
      </trkpt>
      <trkpt lat="46.58434" lon="5.98109">
        <ele>878.6</ele>
        <time>2015-06-28T05:55:14Z</time>
      </trkpt>
      <trkpt lat="46.58442" lon="5.9812">
        <ele>878.2</ele>
        <time>2015-06-28T05:55:16Z</time>
      </trkpt>
      <trkpt lat="46.5845" lon="5.98132">
        <ele>877.9</ele>
        <time>2015-06-28T05:55:18Z</time>
      </trkpt>
      <trkpt lat="46.58457" lon="5.98142">
        <ele>877.6</ele>
        <time>2015-06-28T05:55:20Z</time>
      </trkpt>
      <trkpt lat="46.58465" lon="5.98151">
        <ele>877.4</ele>
        <time>2015-06-28T05:55:22Z</time>
      </trkpt>
      <trkpt lat="46.58473" lon="5.98162">
        <ele>877.2</ele>
        <time>2015-06-28T05:55:24Z</time>
      </trkpt>
      <trkpt lat="46.58482" lon="5.98174">
        <ele>877</ele>
        <time>2015-06-28T05:55:26Z</time>
      </trkpt>
      <trkpt lat="46.58492" lon="5.98186">
        <ele>876.8</ele>
        <time>2015-06-28T05:55:28Z</time>
      </trkpt>
      <trkpt lat="46.58502" lon="5.98199">
        <ele>876.7</ele>
        <time>2015-06-28T05:55:30Z</time>
      </trkpt>
      <trkpt lat="46.58514" lon="5.98212">
        <ele>876.5</ele>
        <time>2015-06-28T05:55:32Z</time>
      </trkpt>
      <trkpt lat="46.58525" lon="5.98225">
        <ele>876.3</ele>
        <time>2015-06-28T05:55:34Z</time>
      </trkpt>
      <trkpt lat="46.58537" lon="5.98239">
        <ele>876</ele>
        <time>2015-06-28T05:55:36Z</time>
      </trkpt>
      <trkpt lat="46.58549" lon="5.98252">
        <ele>875.7</ele>
        <time>2015-06-28T05:55:38Z</time>
      </trkpt>
      <trkpt lat="46.58559" lon="5.98263">
        <ele>875.3</ele>
        <time>2015-06-28T05:55:40Z</time>
      </trkpt>
      <trkpt lat="46.58563" lon="5.98278">
        <ele>874.8</ele>
        <time>2015-06-28T05:55:43Z</time>
      </trkpt>
      <trkpt lat="46.58555" lon="5.98286">
        <ele>874.1</ele>
        <time>2015-06-28T05:55:46Z</time>
      </trkpt>
      <trkpt lat="46.58544" lon="5.9829">
        <ele>873.6</ele>
        <time>2015-06-28T05:55:49Z</time>
      </trkpt>
      <trkpt lat="46.58536" lon="5.98298">
        <ele>873.1</ele>
        <time>2015-06-28T05:55:52Z</time>
      </trkpt>
      <trkpt lat="46.58528" lon="5.98307">
        <ele>872.8</ele>
        <time>2015-06-28T05:55:55Z</time>
      </trkpt>
      <trkpt lat="46.58522" lon="5.98316">
        <ele>872.5</ele>
        <time>2015-06-28T05:55:58Z</time>
      </trkpt>
      <trkpt lat="46.58515" lon="5.98329">
        <ele>872.3</ele>
        <time>2015-06-28T05:56:01Z</time>
      </trkpt>
      <trkpt lat="46.58509" lon="5.98344">
        <ele>872.2</ele>
        <time>2015-06-28T05:56:04Z</time>
      </trkpt>
      <trkpt lat="46.58505" lon="5.98359">
        <ele>872.1</ele>
        <time>2015-06-28T05:56:07Z</time>
      </trkpt>
      <trkpt lat="46.58497" lon="5.98372">
        <ele>872.1</ele>
        <time>2015-06-28T05:56:10Z</time>
      </trkpt>
      <trkpt lat="46.58494" lon="5.98385">
        <ele>872</ele>
        <time>2015-06-28T05:56:13Z</time>
      </trkpt>
      <trkpt lat="46.58492" lon="5.98401">
        <ele>872</ele>
        <time>2015-06-28T05:56:16Z</time>
      </trkpt>
      <trkpt lat="46.5849" lon="5.98416">
        <ele>872</ele>
        <time>2015-06-28T05:56:19Z</time>
      </trkpt>
      <trkpt lat="46.58486" lon="5.9843">
        <ele>872</ele>
        <time>2015-06-28T05:56:22Z</time>
      </trkpt>
      <trkpt lat="46.58485" lon="5.98444">
        <ele>872</ele>
        <time>2015-06-28T05:56:25Z</time>
      </trkpt>
      <trkpt lat="46.58487" lon="5.98457">
        <ele>872</ele>
        <time>2015-06-28T05:56:27Z</time>
      </trkpt>
      <trkpt lat="46.5849" lon="5.98471">
        <ele>872</ele>
        <time>2015-06-28T05:56:29Z</time>
      </trkpt>
      <trkpt lat="46.58493" lon="5.98486">
        <ele>872.1</ele>
        <time>2015-06-28T05:56:31Z</time>
      </trkpt>
      <trkpt lat="46.58496" lon="5.985">
        <ele>872.2</ele>
        <time>2015-06-28T05:56:33Z</time>
      </trkpt>
      <trkpt lat="46.585" lon="5.98513">
        <ele>872.3</ele>
        <time>2015-06-28T05:56:35Z</time>
      </trkpt>
      <trkpt lat="46.58504" lon="5.98525">
        <ele>872.4</ele>
        <time>2015-06-28T05:56:37Z</time>
      </trkpt>
      <trkpt lat="46.58511" lon="5.9854">
        <ele>872.6</ele>
        <time>2015-06-28T05:56:40Z</time>
      </trkpt>
      <trkpt lat="46.58518" lon="5.9855">
        <ele>872.9</ele>
        <time>2015-06-28T05:56:43Z</time>
      </trkpt>
      <trkpt lat="46.58526" lon="5.98561">
        <ele>873.2</ele>
        <time>2015-06-28T05:56:47Z</time>
      </trkpt>
      <trkpt lat="46.58535" lon="5.98571">
        <ele>873.5</ele>
        <time>2015-06-28T05:56:51Z</time>
      </trkpt>
      <trkpt lat="46.58543" lon="5.98575">
        <ele>873.9</ele>
        <time>2015-06-28T05:56:55Z</time>
      </trkpt>
      <trkpt lat="46.58552" lon="5.98578">
        <ele>874.5</ele>
        <time>2015-06-28T05:56:59Z</time>
      </trkpt>
      <trkpt lat="46.58562" lon="5.98585">
        <ele>875</ele>
        <time>2015-06-28T05:57:03Z</time>
      </trkpt>
      <trkpt lat="46.58574" lon="5.98586">
        <ele>875.4</ele>
        <time>2015-06-28T05:57:07Z</time>
      </trkpt>
      <trkpt lat="46.58584" lon="5.98587">
        <ele>875.7</ele>
        <time>2015-06-28T05:57:10Z</time>
      </trkpt>
      <trkpt lat="46.58594" lon="5.98588">
        <ele>876.1</ele>
        <time>2015-06-28T05:57:13Z</time>
      </trkpt>
      <trkpt lat="46.58603" lon="5.9859">
        <ele>876.4</ele>
        <time>2015-06-28T05:57:16Z</time>
      </trkpt>
      <trkpt lat="46.58613" lon="5.98595">
        <ele>876.9</ele>
        <time>2015-06-28T05:57:20Z</time>
      </trkpt>
      <trkpt lat="46.58614" lon="5.98608">
        <ele>877.3</ele>
        <time>2015-06-28T05:57:24Z</time>
      </trkpt>
      <trkpt lat="46.58609" lon="5.98619">
        <ele>877.7</ele>
        <time>2015-06-28T05:57:28Z</time>
      </trkpt>
      <trkpt lat="46.58602" lon="5.9863">
        <ele>878.4</ele>
        <time>2015-06-28T05:57:33Z</time>
      </trkpt>
      <trkpt lat="46.58593" lon="5.98634">
        <ele>879.5</ele>
        <time>2015-06-28T05:57:42Z</time>
      </trkpt>
      <trkpt lat="46.58585" lon="5.98639">
        <ele>882.7</ele>
        <time>2015-06-28T05:58:00Z</time>
      </trkpt>
      <trkpt lat="46.58575" lon="5.98638">
        <ele>883.7</ele>
        <time>2015-06-28T05:58:08Z</time>
      </trkpt>
      <trkpt lat="46.58565" lon="5.9864">
        <ele>884.3</ele>
        <time>2015-06-28T05:58:12Z</time>
      </trkpt>
      <trkpt lat="46.58556" lon="5.98645">
        <ele>884.8</ele>
        <time>2015-06-28T05:58:16Z</time>
      </trkpt>
      <trkpt lat="46.58546" lon="5.98645">
        <ele>885.5</ele>
        <time>2015-06-28T05:58:21Z</time>
      </trkpt>
      <trkpt lat="46.58536" lon="5.98641">
        <ele>886.3</ele>
        <time>2015-06-28T05:58:27Z</time>
      </trkpt>
      <trkpt lat="46.58526" lon="5.98638">
        <ele>887.1</ele>
        <time>2015-06-28T05:58:33Z</time>
      </trkpt>
      <trkpt lat="46.58511" lon="5.9864">
        <ele>887.7</ele>
        <time>2015-06-28T05:58:37Z</time>
      </trkpt>
      <trkpt lat="46.58501" lon="5.98639">
        <ele>888.1</ele>
        <time>2015-06-28T05:58:41Z</time>
      </trkpt>
      <trkpt lat="46.58491" lon="5.98641">
        <ele>888.4</ele>
        <time>2015-06-28T05:58:45Z</time>
      </trkpt>
      <trkpt lat="46.5848" lon="5.9864">
        <ele>888.8</ele>
        <time>2015-06-28T05:58:50Z</time>
      </trkpt>
      <trkpt lat="46.5847" lon="5.98639">
        <ele>889.3</ele>
        <time>2015-06-28T05:58:56Z</time>
      </trkpt>
      <trkpt lat="46.5846" lon="5.98636">
        <ele>889.7</ele>
        <time>2015-06-28T05:59:01Z</time>
      </trkpt>
      <trkpt lat="46.58451" lon="5.98634">
        <ele>890.2</ele>
        <time>2015-06-28T05:59:05Z</time>
      </trkpt>
      <trkpt lat="46.58442" lon="5.98636">
        <ele>890.7</ele>
        <time>2015-06-28T05:59:08Z</time>
      </trkpt>
      <trkpt lat="46.58431" lon="5.98641">
        <ele>891.2</ele>
        <time>2015-06-28T05:59:11Z</time>
      </trkpt>
      <trkpt lat="46.58417" lon="5.98645">
        <ele>891.6</ele>
        <time>2015-06-28T05:59:14Z</time>
      </trkpt>
      <trkpt lat="46.58408" lon="5.98647">
        <ele>892</ele>
        <time>2015-06-28T05:59:17Z</time>
      </trkpt>
      <trkpt lat="46.58398" lon="5.98648">
        <ele>892.4</ele>
        <time>2015-06-28T05:59:21Z</time>
      </trkpt>
      <trkpt lat="46.58386" lon="5.9865">
        <ele>893</ele>
        <time>2015-06-28T05:59:24Z</time>
      </trkpt>
      <trkpt lat="46.58374" lon="5.98654">
        <ele>893.4</ele>
        <time>2015-06-28T05:59:27Z</time>
      </trkpt>
      <trkpt lat="46.58363" lon="5.98658">
        <ele>894</ele>
        <time>2015-06-28T05:59:31Z</time>
      </trkpt>
      <trkpt lat="46.58354" lon="5.98662">
        <ele>894.4</ele>
        <time>2015-06-28T05:59:34Z</time>
      </trkpt>
      <trkpt lat="46.58345" lon="5.98666">
        <ele>894.8</ele>
        <time>2015-06-28T05:59:37Z</time>
      </trkpt>
      <trkpt lat="46.58336" lon="5.9867">
        <ele>895.3</ele>
        <time>2015-06-28T05:59:40Z</time>
      </trkpt>
      <trkpt lat="46.5833" lon="5.98681">
        <ele>895.7</ele>
        <time>2015-06-28T05:59:43Z</time>
      </trkpt>
      <trkpt lat="46.5832" lon="5.98698">
        <ele>896.1</ele>
        <time>2015-06-28T05:59:46Z</time>
      </trkpt>
      <trkpt lat="46.58311" lon="5.98708">
        <ele>896.2</ele>
        <time>2015-06-28T05:59:48Z</time>
      </trkpt>
      <trkpt lat="46.58303" lon="5.98703">
        <ele>896.4</ele>
        <time>2015-06-28T05:59:55Z</time>
      </trkpt>
      <trkpt lat="46.58293" lon="5.98701">
        <ele>897.1</ele>
        <time>2015-06-28T06:00:07Z</time>
      </trkpt>
      <trkpt lat="46.58286" lon="5.98694">
        <ele>898.6</ele>
        <time>2015-06-28T06:00:17Z</time>
      </trkpt>
      <trkpt lat="46.58276" lon="5.98698">
        <ele>899.9</ele>
        <time>2015-06-28T06:00:24Z</time>
      </trkpt>
      <trkpt lat="46.58268" lon="5.98703">
        <ele>901.1</ele>
        <time>2015-06-28T06:00:31Z</time>
      </trkpt>
      <trkpt lat="46.58258" lon="5.9871">
        <ele>903.4</ele>
        <time>2015-06-28T06:00:43Z</time>
      </trkpt>
      <trkpt lat="46.58248" lon="5.98705">
        <ele>904.3</ele>
        <time>2015-06-28T06:00:48Z</time>
      </trkpt>
      <trkpt lat="46.58238" lon="5.98697">
        <ele>905.1</ele>
        <time>2015-06-28T06:00:53Z</time>
      </trkpt>
      <trkpt lat="46.58229" lon="5.98695">
        <ele>905.6</ele>
        <time>2015-06-28T06:00:57Z</time>
      </trkpt>
      <trkpt lat="46.58219" lon="5.98696">
        <ele>906.2</ele>
        <time>2015-06-28T06:01:02Z</time>
      </trkpt>
      <trkpt lat="46.5821" lon="5.98693">
        <ele>906.7</ele>
        <time>2015-06-28T06:01:08Z</time>
      </trkpt>
      <trkpt lat="46.58201" lon="5.98687">
        <ele>907.6</ele>
        <time>2015-06-28T06:01:15Z</time>
      </trkpt>
      <trkpt lat="46.5819" lon="5.98681">
        <ele>908.1</ele>
        <time>2015-06-28T06:01:20Z</time>
      </trkpt>
      <trkpt lat="46.58181" lon="5.98676">
        <ele>908.7</ele>
        <time>2015-06-28T06:01:26Z</time>
      </trkpt>
      <trkpt lat="46.58169" lon="5.98676">
        <ele>909.4</ele>
        <time>2015-06-28T06:01:32Z</time>
      </trkpt>
      <trkpt lat="46.58165" lon="5.9869">
        <ele>910.3</ele>
        <time>2015-06-28T06:01:39Z</time>
      </trkpt>
      <trkpt lat="46.58167" lon="5.98703">
        <ele>911.4</ele>
        <time>2015-06-28T06:01:46Z</time>
      </trkpt>
      <trkpt lat="46.58169" lon="5.98716">
        <ele>912.3</ele>
        <time>2015-06-28T06:01:51Z</time>
      </trkpt>
      <trkpt lat="46.58173" lon="5.98728">
        <ele>913</ele>
        <time>2015-06-28T06:01:55Z</time>
      </trkpt>
      <trkpt lat="46.5818" lon="5.98739">
        <ele>913.8</ele>
        <time>2015-06-28T06:02:01Z</time>
      </trkpt>
      <trkpt lat="46.58188" lon="5.98747">
        <ele>914.7</ele>
        <time>2015-06-28T06:02:06Z</time>
      </trkpt>
      <trkpt lat="46.58197" lon="5.98755">
        <ele>915.9</ele>
        <time>2015-06-28T06:02:13Z</time>
      </trkpt>
      <trkpt lat="46.58204" lon="5.98764">
        <ele>917.2</ele>
        <time>2015-06-28T06:02:20Z</time>
      </trkpt>
      <trkpt lat="46.58213" lon="5.98773">
        <ele>918.9</ele>
        <time>2015-06-28T06:02:28Z</time>
      </trkpt>
      <trkpt lat="46.58218" lon="5.98785">
        <ele>920.4</ele>
        <time>2015-06-28T06:02:35Z</time>
      </trkpt>
      <trkpt lat="46.58221" lon="5.98798">
        <ele>922.2</ele>
        <time>2015-06-28T06:02:43Z</time>
      </trkpt>
      <trkpt lat="46.58215" lon="5.98811">
        <ele>923.8</ele>
        <time>2015-06-28T06:02:50Z</time>
      </trkpt>
      <trkpt lat="46.58208" lon="5.98822">
        <ele>925.2</ele>
        <time>2015-06-28T06:02:56Z</time>
      </trkpt>
      <trkpt lat="46.582" lon="5.98832">
        <ele>926.2</ele>
        <time>2015-06-28T06:03:01Z</time>
      </trkpt>
      <trkpt lat="46.58195" lon="5.98845">
        <ele>927</ele>
        <time>2015-06-28T06:03:05Z</time>
      </trkpt>
      <trkpt lat="46.58189" lon="5.98855">
        <ele>927.8</ele>
        <time>2015-06-28T06:03:10Z</time>
      </trkpt>
      <trkpt lat="46.58182" lon="5.98864">
        <ele>928.2</ele>
        <time>2015-06-28T06:03:13Z</time>
      </trkpt>
      <trkpt lat="46.58173" lon="5.98875">
        <ele>928.7</ele>
        <time>2015-06-28T06:03:17Z</time>
      </trkpt>
      <trkpt lat="46.58166" lon="5.98885">
        <ele>929.2</ele>
        <time>2015-06-28T06:03:20Z</time>
      </trkpt>
      <trkpt lat="46.58158" lon="5.98898">
        <ele>929.7</ele>
        <time>2015-06-28T06:03:23Z</time>
      </trkpt>
      <trkpt lat="46.58151" lon="5.98911">
        <ele>930.2</ele>
        <time>2015-06-28T06:03:27Z</time>
      </trkpt>
      <trkpt lat="46.58157" lon="5.98924">
        <ele>930.4</ele>
        <time>2015-06-28T06:03:30Z</time>
      </trkpt>
      <trkpt lat="46.58166" lon="5.98934">
        <ele>930.7</ele>
        <time>2015-06-28T06:03:33Z</time>
      </trkpt>
      <trkpt lat="46.58173" lon="5.98948">
        <ele>930.8</ele>
        <time>2015-06-28T06:03:35Z</time>
      </trkpt>
      <trkpt lat="46.5818" lon="5.9896">
        <ele>930.9</ele>
        <time>2015-06-28T06:03:38Z</time>
      </trkpt>
      <trkpt lat="46.58174" lon="5.98949">
        <ele>930.8</ele>
        <time>2015-06-28T06:03:46Z</time>
      </trkpt>
      <trkpt lat="46.58168" lon="5.98963">
        <ele>930.6</ele>
        <time>2015-06-28T06:03:51Z</time>
      </trkpt>
      <trkpt lat="46.58164" lon="5.98977">
        <ele>930.5</ele>
        <time>2015-06-28T06:03:56Z</time>
      </trkpt>
      <trkpt lat="46.58155" lon="5.98987">
        <ele>930.6</ele>
        <time>2015-06-28T06:04:00Z</time>
      </trkpt>
      <trkpt lat="46.58147" lon="5.98995">
        <ele>930.6</ele>
        <time>2015-06-28T06:04:03Z</time>
      </trkpt>
      <trkpt lat="46.58139" lon="5.99002">
        <ele>930.7</ele>
        <time>2015-06-28T06:04:06Z</time>
      </trkpt>
      <trkpt lat="46.5813" lon="5.99009">
        <ele>930.8</ele>
        <time>2015-06-28T06:04:09Z</time>
      </trkpt>
      <trkpt lat="46.58124" lon="5.99021">
        <ele>931</ele>
        <time>2015-06-28T06:04:13Z</time>
      </trkpt>
      <trkpt lat="46.58117" lon="5.99031">
        <ele>931.5</ele>
        <time>2015-06-28T06:04:18Z</time>
      </trkpt>
      <trkpt lat="46.58112" lon="5.99043">
        <ele>932.3</ele>
        <time>2015-06-28T06:04:24Z</time>
      </trkpt>
      <trkpt lat="46.58105" lon="5.99051">
        <ele>933.9</ele>
        <time>2015-06-28T06:04:31Z</time>
      </trkpt>
      <trkpt lat="46.58099" lon="5.99062">
        <ele>935.3</ele>
        <time>2015-06-28T06:04:37Z</time>
      </trkpt>
      <trkpt lat="46.5809" lon="5.99069">
        <ele>937</ele>
        <time>2015-06-28T06:04:46Z</time>
      </trkpt>
      <trkpt lat="46.58083" lon="5.99076">
        <ele>938.2</ele>
        <time>2015-06-28T06:04:52Z</time>
      </trkpt>
      <trkpt lat="46.58076" lon="5.99086">
        <ele>939.3</ele>
        <time>2015-06-28T06:04:57Z</time>
      </trkpt>
      <trkpt lat="46.5807" lon="5.99096">
        <ele>940.3</ele>
        <time>2015-06-28T06:05:02Z</time>
      </trkpt>
      <trkpt lat="46.58064" lon="5.99107">
        <ele>941.2</ele>
        <time>2015-06-28T06:05:07Z</time>
      </trkpt>
      <trkpt lat="46.58056" lon="5.99116">
        <ele>941.9</ele>
        <time>2015-06-28T06:05:12Z</time>
      </trkpt>
      <trkpt lat="46.5805" lon="5.99128">
        <ele>942.4</ele>
        <time>2015-06-28T06:05:16Z</time>
      </trkpt>
      <trkpt lat="46.58043" lon="5.99139">
        <ele>943</ele>
        <time>2015-06-28T06:05:20Z</time>
      </trkpt>
      <trkpt lat="46.58036" lon="5.99152">
        <ele>943.6</ele>
        <time>2015-06-28T06:05:24Z</time>
      </trkpt>
      <trkpt lat="46.58032" lon="5.99168">
        <ele>944</ele>
        <time>2015-06-28T06:05:28Z</time>
      </trkpt>
      <trkpt lat="46.58027" lon="5.99182">
        <ele>944.5</ele>
        <time>2015-06-28T06:05:32Z</time>
      </trkpt>
      <trkpt lat="46.58022" lon="5.99193">
        <ele>944.8</ele>
        <time>2015-06-28T06:05:35Z</time>
      </trkpt>
      <trkpt lat="46.58017" lon="5.99206">
        <ele>945.1</ele>
        <time>2015-06-28T06:05:38Z</time>
      </trkpt>
      <trkpt lat="46.58014" lon="5.99223">
        <ele>945.3</ele>
        <time>2015-06-28T06:05:41Z</time>
      </trkpt>
      <trkpt lat="46.58011" lon="5.99236">
        <ele>945.5</ele>
        <time>2015-06-28T06:05:44Z</time>
      </trkpt>
      <trkpt lat="46.58006" lon="5.99248">
        <ele>945.7</ele>
        <time>2015-06-28T06:05:47Z</time>
      </trkpt>
      <trkpt lat="46.57999" lon="5.99257">
        <ele>945.9</ele>
        <time>2015-06-28T06:05:50Z</time>
      </trkpt>
      <trkpt lat="46.57992" lon="5.99265">
        <ele>946.2</ele>
        <time>2015-06-28T06:05:53Z</time>
      </trkpt>
      <trkpt lat="46.57985" lon="5.99274">
        <ele>946.5</ele>
        <time>2015-06-28T06:05:56Z</time>
      </trkpt>
      <trkpt lat="46.57979" lon="5.99286">
        <ele>946.7</ele>
        <time>2015-06-28T06:05:59Z</time>
      </trkpt>
      <trkpt lat="46.5797" lon="5.99292">
        <ele>947</ele>
        <time>2015-06-28T06:06:02Z</time>
      </trkpt>
      <trkpt lat="46.57962" lon="5.99299">
        <ele>947.4</ele>
        <time>2015-06-28T06:06:05Z</time>
      </trkpt>
      <trkpt lat="46.57955" lon="5.99308">
        <ele>947.8</ele>
        <time>2015-06-28T06:06:09Z</time>
      </trkpt>
      <trkpt lat="46.57948" lon="5.99319">
        <ele>948.7</ele>
        <time>2015-06-28T06:06:15Z</time>
      </trkpt>
      <trkpt lat="46.57943" lon="5.99332">
        <ele>949.2</ele>
        <time>2015-06-28T06:06:20Z</time>
      </trkpt>
      <trkpt lat="46.57938" lon="5.99345">
        <ele>949.9</ele>
        <time>2015-06-28T06:06:25Z</time>
      </trkpt>
      <trkpt lat="46.57932" lon="5.99355">
        <ele>950.4</ele>
        <time>2015-06-28T06:06:29Z</time>
      </trkpt>
      <trkpt lat="46.57924" lon="5.99364">
        <ele>950.8</ele>
        <time>2015-06-28T06:06:33Z</time>
      </trkpt>
      <trkpt lat="46.57919" lon="5.99377">
        <ele>951.4</ele>
        <time>2015-06-28T06:06:37Z</time>
      </trkpt>
      <trkpt lat="46.57912" lon="5.99385">
        <ele>951.8</ele>
        <time>2015-06-28T06:06:40Z</time>
      </trkpt>
      <trkpt lat="46.57903" lon="5.99394">
        <ele>952.5</ele>
        <time>2015-06-28T06:06:45Z</time>
      </trkpt>
      <trkpt lat="46.57895" lon="5.99402">
        <ele>953.1</ele>
        <time>2015-06-28T06:06:49Z</time>
      </trkpt>
      <trkpt lat="46.57889" lon="5.99415">
        <ele>954.1</ele>
        <time>2015-06-28T06:06:55Z</time>
      </trkpt>
      <trkpt lat="46.57882" lon="5.99425">
        <ele>955</ele>
        <time>2015-06-28T06:07:00Z</time>
      </trkpt>
      <trkpt lat="46.57878" lon="5.99438">
        <ele>955.9</ele>
        <time>2015-06-28T06:07:05Z</time>
      </trkpt>
      <trkpt lat="46.57874" lon="5.9945">
        <ele>957.2</ele>
        <time>2015-06-28T06:07:11Z</time>
      </trkpt>
      <trkpt lat="46.57868" lon="5.99462">
        <ele>958.4</ele>
        <time>2015-06-28T06:07:18Z</time>
      </trkpt>
      <trkpt lat="46.57865" lon="5.99476">
        <ele>959.5</ele>
        <time>2015-06-28T06:07:23Z</time>
      </trkpt>
      <trkpt lat="46.57862" lon="5.9949">
        <ele>960.7</ele>
        <time>2015-06-28T06:07:29Z</time>
      </trkpt>
      <trkpt lat="46.5786" lon="5.99507">
        <ele>962.4</ele>
        <time>2015-06-28T06:07:36Z</time>
      </trkpt>
      <trkpt lat="46.57857" lon="5.99521">
        <ele>963.6</ele>
        <time>2015-06-28T06:07:42Z</time>
      </trkpt>
      <trkpt lat="46.57857" lon="5.99535">
        <ele>964.8</ele>
        <time>2015-06-28T06:07:48Z</time>
      </trkpt>
      <trkpt lat="46.57861" lon="5.99549">
        <ele>966</ele>
        <time>2015-06-28T06:07:54Z</time>
      </trkpt>
      <trkpt lat="46.57865" lon="5.99561">
        <ele>966.8</ele>
        <time>2015-06-28T06:07:58Z</time>
      </trkpt>
      <trkpt lat="46.57866" lon="5.99577">
        <ele>967.3</ele>
        <time>2015-06-28T06:08:01Z</time>
      </trkpt>
      <trkpt lat="46.5787" lon="5.99595">
        <ele>967.8</ele>
        <time>2015-06-28T06:08:05Z</time>
      </trkpt>
      <trkpt lat="46.57874" lon="5.99608">
        <ele>968.1</ele>
        <time>2015-06-28T06:08:07Z</time>
      </trkpt>
      <trkpt lat="46.57872" lon="5.99624">
        <ele>968.6</ele>
        <time>2015-06-28T06:08:11Z</time>
      </trkpt>
      <trkpt lat="46.57868" lon="5.99636">
        <ele>969</ele>
        <time>2015-06-28T06:08:15Z</time>
      </trkpt>
      <trkpt lat="46.57866" lon="5.9965">
        <ele>969.3</ele>
        <time>2015-06-28T06:08:19Z</time>
      </trkpt>
      <trkpt lat="46.57863" lon="5.99663">
        <ele>969.6</ele>
        <time>2015-06-28T06:08:23Z</time>
      </trkpt>
      <trkpt lat="46.5786" lon="5.99679">
        <ele>970.3</ele>
        <time>2015-06-28T06:08:29Z</time>
      </trkpt>
      <trkpt lat="46.57858" lon="5.99691">
        <ele>970.9</ele>
        <time>2015-06-28T06:08:34Z</time>
      </trkpt>
      <trkpt lat="46.57855" lon="5.99704">
        <ele>971.3</ele>
        <time>2015-06-28T06:08:37Z</time>
      </trkpt>
      <trkpt lat="46.57855" lon="5.99718">
        <ele>971.5</ele>
        <time>2015-06-28T06:08:39Z</time>
      </trkpt>
      <trkpt lat="46.57853" lon="5.99731">
        <ele>971.8</ele>
        <time>2015-06-28T06:08:42Z</time>
      </trkpt>
      <trkpt lat="46.57852" lon="5.99747">
        <ele>972.1</ele>
        <time>2015-06-28T06:08:45Z</time>
      </trkpt>
      <trkpt lat="46.5785" lon="5.99763">
        <ele>972.5</ele>
        <time>2015-06-28T06:08:49Z</time>
      </trkpt>
      <trkpt lat="46.57848" lon="5.99779">
        <ele>972.7</ele>
        <time>2015-06-28T06:08:52Z</time>
      </trkpt>
      <trkpt lat="46.57844" lon="5.99794">
        <ele>972.9</ele>
        <time>2015-06-28T06:08:55Z</time>
      </trkpt>
      <trkpt lat="46.5784" lon="5.99807">
        <ele>973</ele>
        <time>2015-06-28T06:08:57Z</time>
      </trkpt>
      <trkpt lat="46.57837" lon="5.9982">
        <ele>973.1</ele>
        <time>2015-06-28T06:08:59Z</time>
      </trkpt>
      <trkpt lat="46.57833" lon="5.99834">
        <ele>973.2</ele>
        <time>2015-06-28T06:09:01Z</time>
      </trkpt>
      <trkpt lat="46.57829" lon="5.99849">
        <ele>973.2</ele>
        <time>2015-06-28T06:09:03Z</time>
      </trkpt>
      <trkpt lat="46.57824" lon="5.99863">
        <ele>973.2</ele>
        <time>2015-06-28T06:09:05Z</time>
      </trkpt>
      <trkpt lat="46.57819" lon="5.99875">
        <ele>973.2</ele>
        <time>2015-06-28T06:09:07Z</time>
      </trkpt>
      <trkpt lat="46.57812" lon="5.99887">
        <ele>973.1</ele>
        <time>2015-06-28T06:09:10Z</time>
      </trkpt>
      <trkpt lat="46.57803" lon="5.99896">
        <ele>972.9</ele>
        <time>2015-06-28T06:09:13Z</time>
      </trkpt>
      <trkpt lat="46.57794" lon="5.99904">
        <ele>972.7</ele>
        <time>2015-06-28T06:09:17Z</time>
      </trkpt>
      <trkpt lat="46.57785" lon="5.9991">
        <ele>972.6</ele>
        <time>2015-06-28T06:09:20Z</time>
      </trkpt>
      <trkpt lat="46.57777" lon="5.99918">
        <ele>972.6</ele>
        <time>2015-06-28T06:09:23Z</time>
      </trkpt>
      <trkpt lat="46.57772" lon="5.99931">
        <ele>972.5</ele>
        <time>2015-06-28T06:09:27Z</time>
      </trkpt>
      <trkpt lat="46.5777" lon="5.99944">
        <ele>972.4</ele>
        <time>2015-06-28T06:09:30Z</time>
      </trkpt>
      <trkpt lat="46.57768" lon="5.9996">
        <ele>972.4</ele>
        <time>2015-06-28T06:09:33Z</time>
      </trkpt>
      <trkpt lat="46.57767" lon="5.99976">
        <ele>972.5</ele>
        <time>2015-06-28T06:09:37Z</time>
      </trkpt>
      <trkpt lat="46.57767" lon="5.99992">
        <ele>972.6</ele>
        <time>2015-06-28T06:09:41Z</time>
      </trkpt>
      <trkpt lat="46.57766" lon="6.00011">
        <ele>972.8</ele>
        <time>2015-06-28T06:09:45Z</time>
      </trkpt>
      <trkpt lat="46.57765" lon="6.00027">
        <ele>973</ele>
        <time>2015-06-28T06:09:48Z</time>
      </trkpt>
      <trkpt lat="46.57764" lon="6.00043">
        <ele>973.2</ele>
        <time>2015-06-28T06:09:51Z</time>
      </trkpt>
      <trkpt lat="46.57761" lon="6.00058">
        <ele>973.3</ele>
        <time>2015-06-28T06:09:54Z</time>
      </trkpt>
      <trkpt lat="46.57759" lon="6.00072">
        <ele>973.4</ele>
        <time>2015-06-28T06:09:56Z</time>
      </trkpt>
      <trkpt lat="46.57755" lon="6.00086">
        <ele>973.6</ele>
        <time>2015-06-28T06:09:59Z</time>
      </trkpt>
      <trkpt lat="46.57749" lon="6.00099">
        <ele>974</ele>
        <time>2015-06-28T06:10:03Z</time>
      </trkpt>
      <trkpt lat="46.57744" lon="6.00111">
        <ele>974.3</ele>
        <time>2015-06-28T06:10:06Z</time>
      </trkpt>
      <trkpt lat="46.57739" lon="6.00126">
        <ele>974.7</ele>
        <time>2015-06-28T06:10:10Z</time>
      </trkpt>
      <trkpt lat="46.57736" lon="6.0014">
        <ele>975</ele>
        <time>2015-06-28T06:10:13Z</time>
      </trkpt>
      <trkpt lat="46.57731" lon="6.00156">
        <ele>975.4</ele>
        <time>2015-06-28T06:10:17Z</time>
      </trkpt>
      <trkpt lat="46.57729" lon="6.0017">
        <ele>976</ele>
        <time>2015-06-28T06:10:22Z</time>
      </trkpt>
      <trkpt lat="46.57729" lon="6.00189">
        <ele>976.4</ele>
        <time>2015-06-28T06:10:26Z</time>
      </trkpt>
      <trkpt lat="46.57733" lon="6.00206">
        <ele>976.9</ele>
        <time>2015-06-28T06:10:31Z</time>
      </trkpt>
      <trkpt lat="46.57736" lon="6.00223">
        <ele>978.6</ele>
        <time>2015-06-28T06:10:44Z</time>
      </trkpt>
      <trkpt lat="46.57739" lon="6.00236">
        <ele>979.2</ele>
        <time>2015-06-28T06:10:48Z</time>
      </trkpt>
      <trkpt lat="46.57742" lon="6.0025">
        <ele>979.9</ele>
        <time>2015-06-28T06:10:53Z</time>
      </trkpt>
      <trkpt lat="46.57747" lon="6.00266">
        <ele>980.6</ele>
        <time>2015-06-28T06:10:57Z</time>
      </trkpt>
      <trkpt lat="46.57751" lon="6.00279">
        <ele>981.1</ele>
        <time>2015-06-28T06:11:00Z</time>
      </trkpt>
      <trkpt lat="46.57752" lon="6.00293">
        <ele>981.2</ele>
        <time>2015-06-28T06:11:01Z</time>
      </trkpt>
      <trkpt lat="46.57754" lon="6.00307">
        <ele>981.9</ele>
        <time>2015-06-28T06:11:05Z</time>
      </trkpt>
      <trkpt lat="46.57757" lon="6.00321">
        <ele>983</ele>
        <time>2015-06-28T06:11:11Z</time>
      </trkpt>
      <trkpt lat="46.57756" lon="6.00335">
        <ele>984.1</ele>
        <time>2015-06-28T06:11:18Z</time>
      </trkpt>
      <trkpt lat="46.57756" lon="6.00348">
        <ele>985.1</ele>
        <time>2015-06-28T06:11:25Z</time>
      </trkpt>
      <trkpt lat="46.57754" lon="6.00361">
        <ele>985.9</ele>
        <time>2015-06-28T06:11:31Z</time>
      </trkpt>
      <trkpt lat="46.57754" lon="6.00374">
        <ele>986.3</ele>
        <time>2015-06-28T06:11:34Z</time>
      </trkpt>
      <trkpt lat="46.57753" lon="6.00388">
        <ele>987.6</ele>
        <time>2015-06-28T06:11:41Z</time>
      </trkpt>
      <trkpt lat="46.57755" lon="6.00402">
        <ele>988.7</ele>
        <time>2015-06-28T06:11:47Z</time>
      </trkpt>
      <trkpt lat="46.5776" lon="6.00415">
        <ele>989.7</ele>
        <time>2015-06-28T06:11:54Z</time>
      </trkpt>
      <trkpt lat="46.57761" lon="6.00431">
        <ele>990.4</ele>
        <time>2015-06-28T06:12:00Z</time>
      </trkpt>
      <trkpt lat="46.57763" lon="6.00446">
        <ele>991.2</ele>
        <time>2015-06-28T06:12:06Z</time>
      </trkpt>
      <trkpt lat="46.57768" lon="6.00458">
        <ele>991.6</ele>
        <time>2015-06-28T06:12:10Z</time>
      </trkpt>
      <trkpt lat="46.5777" lon="6.00472">
        <ele>992.2</ele>
        <time>2015-06-28T06:12:16Z</time>
      </trkpt>
      <trkpt lat="46.57772" lon="6.00485">
        <ele>992.5</ele>
        <time>2015-06-28T06:12:20Z</time>
      </trkpt>
      <trkpt lat="46.57769" lon="6.00501">
        <ele>992.8</ele>
        <time>2015-06-28T06:12:25Z</time>
      </trkpt>
      <trkpt lat="46.57767" lon="6.00515">
        <ele>993</ele>
        <time>2015-06-28T06:12:29Z</time>
      </trkpt>
      <trkpt lat="46.57766" lon="6.0053">
        <ele>993.1</ele>
        <time>2015-06-28T06:12:34Z</time>
      </trkpt>
      <trkpt lat="46.57766" lon="6.00545">
        <ele>993.2</ele>
        <time>2015-06-28T06:12:38Z</time>
      </trkpt>
      <trkpt lat="46.57765" lon="6.00562">
        <ele>993.3</ele>
        <time>2015-06-28T06:12:41Z</time>
      </trkpt>
      <trkpt lat="46.57765" lon="6.00576">
        <ele>993.3</ele>
        <time>2015-06-28T06:12:43Z</time>
      </trkpt>
      <trkpt lat="46.57765" lon="6.00594">
        <ele>993.3</ele>
        <time>2015-06-28T06:12:45Z</time>
      </trkpt>
      <trkpt lat="46.57762" lon="6.00615">
        <ele>993.3</ele>
        <time>2015-06-28T06:12:47Z</time>
      </trkpt>
      <trkpt lat="46.5776" lon="6.00636">
        <ele>993.3</ele>
        <time>2015-06-28T06:12:49Z</time>
      </trkpt>
      <trkpt lat="46.57755" lon="6.00656">
        <ele>993.3</ele>
        <time>2015-06-28T06:12:51Z</time>
      </trkpt>
      <trkpt lat="46.57749" lon="6.00676">
        <ele>993.2</ele>
        <time>2015-06-28T06:12:53Z</time>
      </trkpt>
      <trkpt lat="46.57742" lon="6.00692">
        <ele>993</ele>
        <time>2015-06-28T06:12:55Z</time>
      </trkpt>
      <trkpt lat="46.57736" lon="6.00707">
        <ele>992.7</ele>
        <time>2015-06-28T06:12:57Z</time>
      </trkpt>
      <trkpt lat="46.57729" lon="6.00725">
        <ele>992.2</ele>
        <time>2015-06-28T06:12:59Z</time>
      </trkpt>
      <trkpt lat="46.57724" lon="6.00742">
        <ele>991.7</ele>
        <time>2015-06-28T06:13:01Z</time>
      </trkpt>
      <trkpt lat="46.5772" lon="6.00756">
        <ele>991.2</ele>
        <time>2015-06-28T06:13:03Z</time>
      </trkpt>
      <trkpt lat="46.57716" lon="6.00772">
        <ele>989.7</ele>
        <time>2015-06-28T06:13:08Z</time>
      </trkpt>
      <trkpt lat="46.57711" lon="6.00783">
        <ele>988.8</ele>
        <time>2015-06-28T06:13:11Z</time>
      </trkpt>
      <trkpt lat="46.57704" lon="6.00797">
        <ele>987.9</ele>
        <time>2015-06-28T06:13:14Z</time>
      </trkpt>
      <trkpt lat="46.57699" lon="6.00812">
        <ele>987.2</ele>
        <time>2015-06-28T06:13:17Z</time>
      </trkpt>
      <trkpt lat="46.57694" lon="6.00827">
        <ele>986.6</ele>
        <time>2015-06-28T06:13:20Z</time>
      </trkpt>
      <trkpt lat="46.57689" lon="6.00838">
        <ele>986.3</ele>
        <time>2015-06-28T06:13:22Z</time>
      </trkpt>
      <trkpt lat="46.57684" lon="6.00852">
        <ele>985.9</ele>
        <time>2015-06-28T06:13:24Z</time>
      </trkpt>
      <trkpt lat="46.57679" lon="6.00864">
        <ele>985.6</ele>
        <time>2015-06-28T06:13:26Z</time>
      </trkpt>
      <trkpt lat="46.57673" lon="6.00878">
        <ele>985</ele>
        <time>2015-06-28T06:13:29Z</time>
      </trkpt>
      <trkpt lat="46.57668" lon="6.00894">
        <ele>984.3</ele>
        <time>2015-06-28T06:13:32Z</time>
      </trkpt>
      <trkpt lat="46.57664" lon="6.00907">
        <ele>983.9</ele>
        <time>2015-06-28T06:13:34Z</time>
      </trkpt>
      <trkpt lat="46.57658" lon="6.00925">
        <ele>983.2</ele>
        <time>2015-06-28T06:13:37Z</time>
      </trkpt>
      <trkpt lat="46.57652" lon="6.00942">
        <ele>982.6</ele>
        <time>2015-06-28T06:13:40Z</time>
      </trkpt>
      <trkpt lat="46.57647" lon="6.0096">
        <ele>982</ele>
        <time>2015-06-28T06:13:43Z</time>
      </trkpt>
      <trkpt lat="46.57642" lon="6.00975">
        <ele>981.6</ele>
        <time>2015-06-28T06:13:46Z</time>
      </trkpt>
      <trkpt lat="46.57637" lon="6.00987">
        <ele>981.1</ele>
        <time>2015-06-28T06:13:49Z</time>
      </trkpt>
      <trkpt lat="46.5763" lon="6.00999">
        <ele>980.5</ele>
        <time>2015-06-28T06:13:53Z</time>
      </trkpt>
      <trkpt lat="46.57626" lon="6.01012">
        <ele>979.9</ele>
        <time>2015-06-28T06:14:00Z</time>
      </trkpt>
      <trkpt lat="46.5762" lon="6.01023">
        <ele>981.2</ele>
        <time>2015-06-28T06:14:14Z</time>
      </trkpt>
      <trkpt lat="46.57611" lon="6.01031">
        <ele>982.5</ele>
        <time>2015-06-28T06:14:21Z</time>
      </trkpt>
      <trkpt lat="46.57606" lon="6.01044">
        <ele>983.9</ele>
        <time>2015-06-28T06:14:28Z</time>
      </trkpt>
      <trkpt lat="46.57604" lon="6.01058">
        <ele>984.9</ele>
        <time>2015-06-28T06:14:34Z</time>
      </trkpt>
      <trkpt lat="46.57601" lon="6.01073">
        <ele>985.9</ele>
        <time>2015-06-28T06:14:40Z</time>
      </trkpt>
      <trkpt lat="46.576" lon="6.01088">
        <ele>986.5</ele>
        <time>2015-06-28T06:14:45Z</time>
      </trkpt>
      <trkpt lat="46.57599" lon="6.01102">
        <ele>987</ele>
        <time>2015-06-28T06:14:49Z</time>
      </trkpt>
      <trkpt lat="46.57594" lon="6.01114">
        <ele>987.4</ele>
        <time>2015-06-28T06:14:53Z</time>
      </trkpt>
      <trkpt lat="46.57588" lon="6.01125">
        <ele>987.8</ele>
        <time>2015-06-28T06:14:57Z</time>
      </trkpt>
      <trkpt lat="46.57584" lon="6.01137">
        <ele>988.3</ele>
        <time>2015-06-28T06:15:02Z</time>
      </trkpt>
      <trkpt lat="46.57578" lon="6.01148">
        <ele>988.8</ele>
        <time>2015-06-28T06:15:07Z</time>
      </trkpt>
      <trkpt lat="46.57572" lon="6.01161">
        <ele>989.3</ele>
        <time>2015-06-28T06:15:11Z</time>
      </trkpt>
      <trkpt lat="46.57568" lon="6.01173">
        <ele>989.8</ele>
        <time>2015-06-28T06:15:15Z</time>
      </trkpt>
      <trkpt lat="46.57563" lon="6.01185">
        <ele>990.4</ele>
        <time>2015-06-28T06:15:20Z</time>
      </trkpt>
      <trkpt lat="46.57561" lon="6.01197">
        <ele>991</ele>
        <time>2015-06-28T06:15:25Z</time>
      </trkpt>
      <trkpt lat="46.57559" lon="6.01211">
        <ele>991.9</ele>
        <time>2015-06-28T06:15:31Z</time>
      </trkpt>
      <trkpt lat="46.5756" lon="6.01226">
        <ele>992.6</ele>
        <time>2015-06-28T06:15:36Z</time>
      </trkpt>
      <trkpt lat="46.57563" lon="6.01243">
        <ele>993.3</ele>
        <time>2015-06-28T06:15:41Z</time>
      </trkpt>
      <trkpt lat="46.57564" lon="6.01258">
        <ele>993.9</ele>
        <time>2015-06-28T06:15:45Z</time>
      </trkpt>
      <trkpt lat="46.57564" lon="6.01272">
        <ele>994.4</ele>
        <time>2015-06-28T06:15:49Z</time>
      </trkpt>
      <trkpt lat="46.57562" lon="6.01288">
        <ele>994.8</ele>
        <time>2015-06-28T06:15:53Z</time>
      </trkpt>
      <trkpt lat="46.57559" lon="6.01303">
        <ele>995.2</ele>
        <time>2015-06-28T06:15:57Z</time>
      </trkpt>
      <trkpt lat="46.57554" lon="6.01316">
        <ele>995.6</ele>
        <time>2015-06-28T06:16:01Z</time>
      </trkpt>
      <trkpt lat="46.57548" lon="6.01328">
        <ele>996.2</ele>
        <time>2015-06-28T06:16:06Z</time>
      </trkpt>
      <trkpt lat="46.57544" lon="6.01342">
        <ele>997</ele>
        <time>2015-06-28T06:16:11Z</time>
      </trkpt>
      <trkpt lat="46.57542" lon="6.01356">
        <ele>997.6</ele>
        <time>2015-06-28T06:16:15Z</time>
      </trkpt>
      <trkpt lat="46.5754" lon="6.0137">
        <ele>998.3</ele>
        <time>2015-06-28T06:16:20Z</time>
      </trkpt>
      <trkpt lat="46.57536" lon="6.01383">
        <ele>999</ele>
        <time>2015-06-28T06:16:25Z</time>
      </trkpt>
      <trkpt lat="46.5753" lon="6.01395">
        <ele>999.7</ele>
        <time>2015-06-28T06:16:30Z</time>
      </trkpt>
      <trkpt lat="46.57525" lon="6.01406">
        <ele>1000.5</ele>
        <time>2015-06-28T06:16:35Z</time>
      </trkpt>
      <trkpt lat="46.5752" lon="6.01419">
        <ele>1001.5</ele>
        <time>2015-06-28T06:16:41Z</time>
      </trkpt>
      <trkpt lat="46.57516" lon="6.01433">
        <ele>1002.1</ele>
        <time>2015-06-28T06:16:45Z</time>
      </trkpt>
      <trkpt lat="46.5751" lon="6.01446">
        <ele>1002.9</ele>
        <time>2015-06-28T06:16:50Z</time>
      </trkpt>
      <trkpt lat="46.57501" lon="6.01454">
        <ele>1003.6</ele>
        <time>2015-06-28T06:16:55Z</time>
      </trkpt>
      <trkpt lat="46.57492" lon="6.01457">
        <ele>1004.3</ele>
        <time>2015-06-28T06:17:00Z</time>
      </trkpt>
      <trkpt lat="46.57482" lon="6.01459">
        <ele>1004.9</ele>
        <time>2015-06-28T06:17:05Z</time>
      </trkpt>
      <trkpt lat="46.57474" lon="6.01466">
        <ele>1006</ele>
        <time>2015-06-28T06:17:11Z</time>
      </trkpt>
      <trkpt lat="46.57466" lon="6.01476">
        <ele>1007.4</ele>
        <time>2015-06-28T06:17:18Z</time>
      </trkpt>
      <trkpt lat="46.57457" lon="6.01482">
        <ele>1008.6</ele>
        <time>2015-06-28T06:17:26Z</time>
      </trkpt>
      <trkpt lat="46.57447" lon="6.01488">
        <ele>1009.9</ele>
        <time>2015-06-28T06:17:34Z</time>
      </trkpt>
      <trkpt lat="46.57438" lon="6.01496">
        <ele>1010.5</ele>
        <time>2015-06-28T06:17:38Z</time>
      </trkpt>
      <trkpt lat="46.5743" lon="6.01503">
        <ele>1011</ele>
        <time>2015-06-28T06:17:42Z</time>
      </trkpt>
      <trkpt lat="46.57417" lon="6.01506">
        <ele>1011.2</ele>
        <time>2015-06-28T06:17:45Z</time>
      </trkpt>
      <trkpt lat="46.57409" lon="6.0151">
        <ele>1011.4</ele>
        <time>2015-06-28T06:17:47Z</time>
      </trkpt>
      <trkpt lat="46.574" lon="6.01513">
        <ele>1011.5</ele>
        <time>2015-06-28T06:17:49Z</time>
      </trkpt>
      <trkpt lat="46.57391" lon="6.0152">
        <ele>1011.8</ele>
        <time>2015-06-28T06:17:54Z</time>
      </trkpt>
      <trkpt lat="46.57381" lon="6.01532">
        <ele>1012.2</ele>
        <time>2015-06-28T06:17:58Z</time>
      </trkpt>
      <trkpt lat="46.57374" lon="6.0154">
        <ele>1012.4</ele>
        <time>2015-06-28T06:18:00Z</time>
      </trkpt>
      <trkpt lat="46.57366" lon="6.0155">
        <ele>1012.4</ele>
        <time>2015-06-28T06:18:02Z</time>
      </trkpt>
      <trkpt lat="46.57357" lon="6.0156">
        <ele>1012.4</ele>
        <time>2015-06-28T06:18:04Z</time>
      </trkpt>
      <trkpt lat="46.57347" lon="6.01571">
        <ele>1012.3</ele>
        <time>2015-06-28T06:18:06Z</time>
      </trkpt>
      <trkpt lat="46.57337" lon="6.01579">
        <ele>1012.2</ele>
        <time>2015-06-28T06:18:08Z</time>
      </trkpt>
      <trkpt lat="46.57328" lon="6.01589">
        <ele>1012</ele>
        <time>2015-06-28T06:18:11Z</time>
      </trkpt>
      <trkpt lat="46.5732" lon="6.01598">
        <ele>1011.8</ele>
        <time>2015-06-28T06:18:14Z</time>
      </trkpt>
      <trkpt lat="46.57311" lon="6.01604">
        <ele>1011.6</ele>
        <time>2015-06-28T06:18:17Z</time>
      </trkpt>
      <trkpt lat="46.57302" lon="6.01609">
        <ele>1011.4</ele>
        <time>2015-06-28T06:18:20Z</time>
      </trkpt>
      <trkpt lat="46.57294" lon="6.01618">
        <ele>1011.2</ele>
        <time>2015-06-28T06:18:23Z</time>
      </trkpt>
      <trkpt lat="46.57281" lon="6.01628">
        <ele>1011</ele>
        <time>2015-06-28T06:18:26Z</time>
      </trkpt>
      <trkpt lat="46.57271" lon="6.01635">
        <ele>1010.9</ele>
        <time>2015-06-28T06:18:28Z</time>
      </trkpt>
      <trkpt lat="46.57263" lon="6.01642">
        <ele>1010.8</ele>
        <time>2015-06-28T06:18:30Z</time>
      </trkpt>
      <trkpt lat="46.57255" lon="6.01652">
        <ele>1010.6</ele>
        <time>2015-06-28T06:18:32Z</time>
      </trkpt>
      <trkpt lat="46.57247" lon="6.01661">
        <ele>1010.4</ele>
        <time>2015-06-28T06:18:34Z</time>
      </trkpt>
      <trkpt lat="46.57238" lon="6.01671">
        <ele>1009.9</ele>
        <time>2015-06-28T06:18:36Z</time>
      </trkpt>
      <trkpt lat="46.57229" lon="6.01679">
        <ele>1009.5</ele>
        <time>2015-06-28T06:18:38Z</time>
      </trkpt>
      <trkpt lat="46.57219" lon="6.0169">
        <ele>1009.1</ele>
        <time>2015-06-28T06:18:41Z</time>
      </trkpt>
      <trkpt lat="46.5721" lon="6.01703">
        <ele>1008.9</ele>
        <time>2015-06-28T06:18:44Z</time>
      </trkpt>
      <trkpt lat="46.57204" lon="6.01713">
        <ele>1008.7</ele>
        <time>2015-06-28T06:18:46Z</time>
      </trkpt>
      <trkpt lat="46.57196" lon="6.01725">
        <ele>1008.7</ele>
        <time>2015-06-28T06:18:48Z</time>
      </trkpt>
      <trkpt lat="46.57187" lon="6.0174">
        <ele>1008.6</ele>
        <time>2015-06-28T06:18:51Z</time>
      </trkpt>
      <trkpt lat="46.57179" lon="6.01752">
        <ele>1008.6</ele>
        <time>2015-06-28T06:18:53Z</time>
      </trkpt>
      <trkpt lat="46.57169" lon="6.01764">
        <ele>1008.6</ele>
        <time>2015-06-28T06:18:55Z</time>
      </trkpt>
      <trkpt lat="46.57159" lon="6.01775">
        <ele>1008.6</ele>
        <time>2015-06-28T06:18:57Z</time>
      </trkpt>
      <trkpt lat="46.57149" lon="6.01787">
        <ele>1008.5</ele>
        <time>2015-06-28T06:18:59Z</time>
      </trkpt>
      <trkpt lat="46.57139" lon="6.01797">
        <ele>1008.4</ele>
        <time>2015-06-28T06:19:01Z</time>
      </trkpt>
      <trkpt lat="46.57127" lon="6.01803">
        <ele>1008.2</ele>
        <time>2015-06-28T06:19:03Z</time>
      </trkpt>
      <trkpt lat="46.57117" lon="6.01813">
        <ele>1008.1</ele>
        <time>2015-06-28T06:19:05Z</time>
      </trkpt>
      <trkpt lat="46.5711" lon="6.01825">
        <ele>1007.7</ele>
        <time>2015-06-28T06:19:07Z</time>
      </trkpt>
      <trkpt lat="46.57105" lon="6.01839">
        <ele>1007.3</ele>
        <time>2015-06-28T06:19:09Z</time>
      </trkpt>
      <trkpt lat="46.57103" lon="6.01856">
        <ele>1007</ele>
        <time>2015-06-28T06:19:11Z</time>
      </trkpt>
      <trkpt lat="46.57101" lon="6.01873">
        <ele>1006.7</ele>
        <time>2015-06-28T06:19:13Z</time>
      </trkpt>
      <trkpt lat="46.57099" lon="6.01891">
        <ele>1006.5</ele>
        <time>2015-06-28T06:19:15Z</time>
      </trkpt>
      <trkpt lat="46.57096" lon="6.0191">
        <ele>1006.3</ele>
        <time>2015-06-28T06:19:17Z</time>
      </trkpt>
      <trkpt lat="46.57095" lon="6.01928">
        <ele>1006.1</ele>
        <time>2015-06-28T06:19:19Z</time>
      </trkpt>
      <trkpt lat="46.57093" lon="6.01941">
        <ele>1005.9</ele>
        <time>2015-06-28T06:19:21Z</time>
      </trkpt>
      <trkpt lat="46.57083" lon="6.01951">
        <ele>1005.5</ele>
        <time>2015-06-28T06:19:24Z</time>
      </trkpt>
      <trkpt lat="46.57073" lon="6.0196">
        <ele>1005.2</ele>
        <time>2015-06-28T06:19:27Z</time>
      </trkpt>
      <trkpt lat="46.57064" lon="6.01966">
        <ele>1005</ele>
        <time>2015-06-28T06:19:29Z</time>
      </trkpt>
      <trkpt lat="46.57055" lon="6.01978">
        <ele>1004.9</ele>
        <time>2015-06-28T06:19:31Z</time>
      </trkpt>
      <trkpt lat="46.57045" lon="6.01993">
        <ele>1004.7</ele>
        <time>2015-06-28T06:19:33Z</time>
      </trkpt>
      <trkpt lat="46.57037" lon="6.02006">
        <ele>1004.3</ele>
        <time>2015-06-28T06:19:35Z</time>
      </trkpt>
      <trkpt lat="46.57031" lon="6.0202">
        <ele>1004</ele>
        <time>2015-06-28T06:19:37Z</time>
      </trkpt>
      <trkpt lat="46.57024" lon="6.02034">
        <ele>1003.7</ele>
        <time>2015-06-28T06:19:39Z</time>
      </trkpt>
      <trkpt lat="46.57018" lon="6.02046">
        <ele>1003.5</ele>
        <time>2015-06-28T06:19:41Z</time>
      </trkpt>
      <trkpt lat="46.57013" lon="6.02058">
        <ele>1003.3</ele>
        <time>2015-06-28T06:19:43Z</time>
      </trkpt>
      <trkpt lat="46.57008" lon="6.02071">
        <ele>1003.1</ele>
        <time>2015-06-28T06:19:45Z</time>
      </trkpt>
      <trkpt lat="46.57003" lon="6.02082">
        <ele>1002.9</ele>
        <time>2015-06-28T06:19:47Z</time>
      </trkpt>
      <trkpt lat="46.56998" lon="6.02092">
        <ele>1002.8</ele>
        <time>2015-06-28T06:19:49Z</time>
      </trkpt>
      <trkpt lat="46.56992" lon="6.02109">
        <ele>1002.6</ele>
        <time>2015-06-28T06:19:52Z</time>
      </trkpt>
      <trkpt lat="46.56985" lon="6.02126">
        <ele>1002.5</ele>
        <time>2015-06-28T06:19:55Z</time>
      </trkpt>
      <trkpt lat="46.5698" lon="6.02138">
        <ele>1002.4</ele>
        <time>2015-06-28T06:19:57Z</time>
      </trkpt>
      <trkpt lat="46.56973" lon="6.02151">
        <ele>1002.4</ele>
        <time>2015-06-28T06:19:59Z</time>
      </trkpt>
      <trkpt lat="46.56968" lon="6.02164">
        <ele>1002.4</ele>
        <time>2015-06-28T06:20:01Z</time>
      </trkpt>
      <trkpt lat="46.56969" lon="6.02177">
        <ele>1002.3</ele>
        <time>2015-06-28T06:20:03Z</time>
      </trkpt>
      <trkpt lat="46.56967" lon="6.02192">
        <ele>1002.3</ele>
        <time>2015-06-28T06:20:05Z</time>
      </trkpt>
      <trkpt lat="46.56963" lon="6.02207">
        <ele>1002.3</ele>
        <time>2015-06-28T06:20:07Z</time>
      </trkpt>
      <trkpt lat="46.56958" lon="6.0222">
        <ele>1002.2</ele>
        <time>2015-06-28T06:20:09Z</time>
      </trkpt>
      <trkpt lat="46.56954" lon="6.02234">
        <ele>1002.2</ele>
        <time>2015-06-28T06:20:11Z</time>
      </trkpt>
      <trkpt lat="46.56952" lon="6.02249">
        <ele>1002.1</ele>
        <time>2015-06-28T06:20:13Z</time>
      </trkpt>
      <trkpt lat="46.56951" lon="6.02265">
        <ele>1002.1</ele>
        <time>2015-06-28T06:20:15Z</time>
      </trkpt>
      <trkpt lat="46.5695" lon="6.02282">
        <ele>1002</ele>
        <time>2015-06-28T06:20:17Z</time>
      </trkpt>
      <trkpt lat="46.5695" lon="6.02301">
        <ele>1002</ele>
        <time>2015-06-28T06:20:19Z</time>
      </trkpt>
      <trkpt lat="46.5695" lon="6.0232">
        <ele>1001.9</ele>
        <time>2015-06-28T06:20:21Z</time>
      </trkpt>
      <trkpt lat="46.56946" lon="6.02333">
        <ele>1001.7</ele>
        <time>2015-06-28T06:20:23Z</time>
      </trkpt>
      <trkpt lat="46.56941" lon="6.02345">
        <ele>1001.4</ele>
        <time>2015-06-28T06:20:25Z</time>
      </trkpt>
      <trkpt lat="46.56937" lon="6.02364">
        <ele>1000.9</ele>
        <time>2015-06-28T06:20:28Z</time>
      </trkpt>
      <trkpt lat="46.56942" lon="6.02381">
        <ele>1000.5</ele>
        <time>2015-06-28T06:20:30Z</time>
      </trkpt>
      <trkpt lat="46.56945" lon="6.024">
        <ele>1000.1</ele>
        <time>2015-06-28T06:20:32Z</time>
      </trkpt>
      <trkpt lat="46.56948" lon="6.02418">
        <ele>999.7</ele>
        <time>2015-06-28T06:20:34Z</time>
      </trkpt>
      <trkpt lat="46.5695" lon="6.02436">
        <ele>999.2</ele>
        <time>2015-06-28T06:20:36Z</time>
      </trkpt>
      <trkpt lat="46.56953" lon="6.02454">
        <ele>998.7</ele>
        <time>2015-06-28T06:20:38Z</time>
      </trkpt>
      <trkpt lat="46.56956" lon="6.02473">
        <ele>998.3</ele>
        <time>2015-06-28T06:20:40Z</time>
      </trkpt>
      <trkpt lat="46.56959" lon="6.02491">
        <ele>997.9</ele>
        <time>2015-06-28T06:20:42Z</time>
      </trkpt>
      <trkpt lat="46.56963" lon="6.02509">
        <ele>997.5</ele>
        <time>2015-06-28T06:20:44Z</time>
      </trkpt>
      <trkpt lat="46.56966" lon="6.02529">
        <ele>997.1</ele>
        <time>2015-06-28T06:20:46Z</time>
      </trkpt>
      <trkpt lat="46.5697" lon="6.0255">
        <ele>996.8</ele>
        <time>2015-06-28T06:20:48Z</time>
      </trkpt>
      <trkpt lat="46.56974" lon="6.02571">
        <ele>996.4</ele>
        <time>2015-06-28T06:20:50Z</time>
      </trkpt>
      <trkpt lat="46.56978" lon="6.02592">
        <ele>996.1</ele>
        <time>2015-06-28T06:20:52Z</time>
      </trkpt>
      <trkpt lat="46.56982" lon="6.02616">
        <ele>995.5</ele>
        <time>2015-06-28T06:20:54Z</time>
      </trkpt>
      <trkpt lat="46.56987" lon="6.02639">
        <ele>995</ele>
        <time>2015-06-28T06:20:56Z</time>
      </trkpt>
      <trkpt lat="46.5699" lon="6.02651">
        <ele>994.8</ele>
        <time>2015-06-28T06:20:57Z</time>
      </trkpt>
      <trkpt lat="46.56992" lon="6.02664">
        <ele>994.6</ele>
        <time>2015-06-28T06:20:58Z</time>
      </trkpt>
      <trkpt lat="46.56995" lon="6.02677">
        <ele>994.3</ele>
        <time>2015-06-28T06:20:59Z</time>
      </trkpt>
      <trkpt lat="46.56998" lon="6.0269">
        <ele>994.1</ele>
        <time>2015-06-28T06:21:00Z</time>
      </trkpt>
      <trkpt lat="46.57" lon="6.02703">
        <ele>993.8</ele>
        <time>2015-06-28T06:21:01Z</time>
      </trkpt>
      <trkpt lat="46.57003" lon="6.02716">
        <ele>993.4</ele>
        <time>2015-06-28T06:21:02Z</time>
      </trkpt>
      <trkpt lat="46.57009" lon="6.0274">
        <ele>992.8</ele>
        <time>2015-06-28T06:21:04Z</time>
      </trkpt>
      <trkpt lat="46.57011" lon="6.02753">
        <ele>992.5</ele>
        <time>2015-06-28T06:21:05Z</time>
      </trkpt>
      <trkpt lat="46.57014" lon="6.02766">
        <ele>992.2</ele>
        <time>2015-06-28T06:21:06Z</time>
      </trkpt>
      <trkpt lat="46.57016" lon="6.02778">
        <ele>991.9</ele>
        <time>2015-06-28T06:21:07Z</time>
      </trkpt>
      <trkpt lat="46.57019" lon="6.02791">
        <ele>991.5</ele>
        <time>2015-06-28T06:21:08Z</time>
      </trkpt>
      <trkpt lat="46.57022" lon="6.02804">
        <ele>991.1</ele>
        <time>2015-06-28T06:21:09Z</time>
      </trkpt>
      <trkpt lat="46.57027" lon="6.02829">
        <ele>990.4</ele>
        <time>2015-06-28T06:21:11Z</time>
      </trkpt>
      <trkpt lat="46.57032" lon="6.02853">
        <ele>989.7</ele>
        <time>2015-06-28T06:21:13Z</time>
      </trkpt>
      <trkpt lat="46.57038" lon="6.02877">
        <ele>989</ele>
        <time>2015-06-28T06:21:15Z</time>
      </trkpt>
      <trkpt lat="46.57042" lon="6.02895">
        <ele>988.3</ele>
        <time>2015-06-28T06:21:17Z</time>
      </trkpt>
      <trkpt lat="46.57047" lon="6.0291">
        <ele>987.5</ele>
        <time>2015-06-28T06:21:19Z</time>
      </trkpt>
      <trkpt lat="46.57058" lon="6.02916">
        <ele>986.4</ele>
        <time>2015-06-28T06:21:22Z</time>
      </trkpt>
      <trkpt lat="46.5707" lon="6.02917">
        <ele>985.6</ele>
        <time>2015-06-28T06:21:25Z</time>
      </trkpt>
      <trkpt lat="46.57083" lon="6.0292">
        <ele>984.9</ele>
        <time>2015-06-28T06:21:28Z</time>
      </trkpt>
      <trkpt lat="46.57095" lon="6.02925">
        <ele>984.4</ele>
        <time>2015-06-28T06:21:31Z</time>
      </trkpt>
      <trkpt lat="46.57103" lon="6.0294">
        <ele>984</ele>
        <time>2015-06-28T06:21:34Z</time>
      </trkpt>
      <trkpt lat="46.57109" lon="6.02956">
        <ele>983.7</ele>
        <time>2015-06-28T06:21:37Z</time>
      </trkpt>
      <trkpt lat="46.57118" lon="6.02968">
        <ele>983.7</ele>
        <time>2015-06-28T06:21:40Z</time>
      </trkpt>
      <trkpt lat="46.57128" lon="6.02976">
        <ele>983.8</ele>
        <time>2015-06-28T06:21:43Z</time>
      </trkpt>
      <trkpt lat="46.57135" lon="6.02984">
        <ele>984</ele>
        <time>2015-06-28T06:21:46Z</time>
      </trkpt>
      <trkpt lat="46.57142" lon="6.02993">
        <ele>984.4</ele>
        <time>2015-06-28T06:21:49Z</time>
      </trkpt>
      <trkpt lat="46.57149" lon="6.03002">
        <ele>984.8</ele>
        <time>2015-06-28T06:21:52Z</time>
      </trkpt>
      <trkpt lat="46.57159" lon="6.03008">
        <ele>985.5</ele>
        <time>2015-06-28T06:21:56Z</time>
      </trkpt>
      <trkpt lat="46.57168" lon="6.03012">
        <ele>986.4</ele>
        <time>2015-06-28T06:22:00Z</time>
      </trkpt>
      <trkpt lat="46.57178" lon="6.03016">
        <ele>987.4</ele>
        <time>2015-06-28T06:22:05Z</time>
      </trkpt>
      <trkpt lat="46.57189" lon="6.0302">
        <ele>988.5</ele>
        <time>2015-06-28T06:22:10Z</time>
      </trkpt>
      <trkpt lat="46.57199" lon="6.03024">
        <ele>989.7</ele>
        <time>2015-06-28T06:22:15Z</time>
      </trkpt>
      <trkpt lat="46.57209" lon="6.03027">
        <ele>990.8</ele>
        <time>2015-06-28T06:22:20Z</time>
      </trkpt>
      <trkpt lat="46.57217" lon="6.03032">
        <ele>991.9</ele>
        <time>2015-06-28T06:22:25Z</time>
      </trkpt>
      <trkpt lat="46.57227" lon="6.03034">
        <ele>993</ele>
        <time>2015-06-28T06:22:30Z</time>
      </trkpt>
      <trkpt lat="46.57238" lon="6.03035">
        <ele>994</ele>
        <time>2015-06-28T06:22:35Z</time>
      </trkpt>
      <trkpt lat="46.57248" lon="6.0304">
        <ele>994.9</ele>
        <time>2015-06-28T06:22:40Z</time>
      </trkpt>
      <trkpt lat="46.57256" lon="6.03049">
        <ele>995.7</ele>
        <time>2015-06-28T06:22:44Z</time>
      </trkpt>
      <trkpt lat="46.57264" lon="6.0306">
        <ele>996.4</ele>
        <time>2015-06-28T06:22:48Z</time>
      </trkpt>
      <trkpt lat="46.57269" lon="6.03073">
        <ele>997</ele>
        <time>2015-06-28T06:22:52Z</time>
      </trkpt>
      <trkpt lat="46.57272" lon="6.0309">
        <ele>997.6</ele>
        <time>2015-06-28T06:22:56Z</time>
      </trkpt>
      <trkpt lat="46.57276" lon="6.03103">
        <ele>998</ele>
        <time>2015-06-28T06:22:59Z</time>
      </trkpt>
      <trkpt lat="46.57282" lon="6.03117">
        <ele>998.4</ele>
        <time>2015-06-28T06:23:02Z</time>
      </trkpt>
      <trkpt lat="46.57288" lon="6.03128">
        <ele>998.8</ele>
        <time>2015-06-28T06:23:05Z</time>
      </trkpt>
      <trkpt lat="46.57296" lon="6.03137">
        <ele>999.1</ele>
        <time>2015-06-28T06:23:08Z</time>
      </trkpt>
      <trkpt lat="46.57304" lon="6.03145">
        <ele>999.4</ele>
        <time>2015-06-28T06:23:11Z</time>
      </trkpt>
      <trkpt lat="46.57313" lon="6.03155">
        <ele>999.7</ele>
        <time>2015-06-28T06:23:14Z</time>
      </trkpt>
      <trkpt lat="46.57318" lon="6.03166">
        <ele>999.9</ele>
        <time>2015-06-28T06:23:16Z</time>
      </trkpt>
      <trkpt lat="46.57321" lon="6.03181">
        <ele>1000</ele>
        <time>2015-06-28T06:23:18Z</time>
      </trkpt>
      <trkpt lat="46.57323" lon="6.03199">
        <ele>1000.2</ele>
        <time>2015-06-28T06:23:20Z</time>
      </trkpt>
      <trkpt lat="46.57321" lon="6.03219">
        <ele>1000.3</ele>
        <time>2015-06-28T06:23:22Z</time>
      </trkpt>
      <trkpt lat="46.57318" lon="6.0324">
        <ele>1000.3</ele>
        <time>2015-06-28T06:23:24Z</time>
      </trkpt>
      <trkpt lat="46.57313" lon="6.03264">
        <ele>1000.2</ele>
        <time>2015-06-28T06:23:26Z</time>
      </trkpt>
      <trkpt lat="46.57309" lon="6.03287">
        <ele>1000</ele>
        <time>2015-06-28T06:23:28Z</time>
      </trkpt>
      <trkpt lat="46.57307" lon="6.03307">
        <ele>999.8</ele>
        <time>2015-06-28T06:23:30Z</time>
      </trkpt>
      <trkpt lat="46.57306" lon="6.03323">
        <ele>999.4</ele>
        <time>2015-06-28T06:23:32Z</time>
      </trkpt>
      <trkpt lat="46.57305" lon="6.03339">
        <ele>999</ele>
        <time>2015-06-28T06:23:34Z</time>
      </trkpt>
      <trkpt lat="46.57308" lon="6.03354">
        <ele>998.4</ele>
        <time>2015-06-28T06:23:36Z</time>
      </trkpt>
      <trkpt lat="46.57314" lon="6.03369">
        <ele>997.9</ele>
        <time>2015-06-28T06:23:38Z</time>
      </trkpt>
      <trkpt lat="46.57322" lon="6.03384">
        <ele>997.4</ele>
        <time>2015-06-28T06:23:40Z</time>
      </trkpt>
      <trkpt lat="46.5733" lon="6.03398">
        <ele>996.8</ele>
        <time>2015-06-28T06:23:42Z</time>
      </trkpt>
      <trkpt lat="46.57336" lon="6.03412">
        <ele>996.3</ele>
        <time>2015-06-28T06:23:44Z</time>
      </trkpt>
      <trkpt lat="46.57343" lon="6.03426">
        <ele>995.8</ele>
        <time>2015-06-28T06:23:46Z</time>
      </trkpt>
      <trkpt lat="46.57349" lon="6.03439">
        <ele>995.3</ele>
        <time>2015-06-28T06:23:48Z</time>
      </trkpt>
      <trkpt lat="46.5735" lon="6.03453">
        <ele>994.8</ele>
        <time>2015-06-28T06:23:50Z</time>
      </trkpt>
      <trkpt lat="46.57342" lon="6.03466">
        <ele>994.5</ele>
        <time>2015-06-28T06:23:52Z</time>
      </trkpt>
      <trkpt lat="46.57332" lon="6.03473">
        <ele>994.1</ele>
        <time>2015-06-28T06:23:54Z</time>
      </trkpt>
      <trkpt lat="46.57323" lon="6.03484">
        <ele>993.7</ele>
        <time>2015-06-28T06:23:57Z</time>
      </trkpt>
      <trkpt lat="46.57316" lon="6.03493">
        <ele>993.4</ele>
        <time>2015-06-28T06:24:00Z</time>
      </trkpt>
      <trkpt lat="46.5731" lon="6.03503">
        <ele>993.2</ele>
        <time>2015-06-28T06:24:03Z</time>
      </trkpt>
      <trkpt lat="46.57303" lon="6.03515">
        <ele>993.2</ele>
        <time>2015-06-28T06:24:07Z</time>
      </trkpt>
      <trkpt lat="46.57297" lon="6.03527">
        <ele>993.3</ele>
        <time>2015-06-28T06:24:11Z</time>
      </trkpt>
      <trkpt lat="46.57291" lon="6.03539">
        <ele>993.6</ele>
        <time>2015-06-28T06:24:15Z</time>
      </trkpt>
      <trkpt lat="46.57284" lon="6.0355">
        <ele>994</ele>
        <time>2015-06-28T06:24:19Z</time>
      </trkpt>
      <trkpt lat="46.57278" lon="6.0356">
        <ele>994.5</ele>
        <time>2015-06-28T06:24:23Z</time>
      </trkpt>
      <trkpt lat="46.57272" lon="6.03571">
        <ele>995</ele>
        <time>2015-06-28T06:24:27Z</time>
      </trkpt>
      <trkpt lat="46.57266" lon="6.03582">
        <ele>995.7</ele>
        <time>2015-06-28T06:24:31Z</time>
      </trkpt>
      <trkpt lat="46.5726" lon="6.03594">
        <ele>996.4</ele>
        <time>2015-06-28T06:24:35Z</time>
      </trkpt>
      <trkpt lat="46.57253" lon="6.03606">
        <ele>997</ele>
        <time>2015-06-28T06:24:39Z</time>
      </trkpt>
      <trkpt lat="46.57246" lon="6.0362">
        <ele>997.5</ele>
        <time>2015-06-28T06:24:43Z</time>
      </trkpt>
      <trkpt lat="46.57239" lon="6.03634">
        <ele>998</ele>
        <time>2015-06-28T06:24:47Z</time>
      </trkpt>
      <trkpt lat="46.57231" lon="6.03645">
        <ele>998.8</ele>
        <time>2015-06-28T06:24:52Z</time>
      </trkpt>
      <trkpt lat="46.57223" lon="6.03654">
        <ele>999.3</ele>
        <time>2015-06-28T06:24:56Z</time>
      </trkpt>
      <trkpt lat="46.57216" lon="6.03666">
        <ele>999.8</ele>
        <time>2015-06-28T06:25:00Z</time>
      </trkpt>
      <trkpt lat="46.57211" lon="6.03678">
        <ele>1000.4</ele>
        <time>2015-06-28T06:25:04Z</time>
      </trkpt>
      <trkpt lat="46.57204" lon="6.0369">
        <ele>1001.1</ele>
        <time>2015-06-28T06:25:09Z</time>
      </trkpt>
      <trkpt lat="46.57197" lon="6.03701">
        <ele>1001.9</ele>
        <time>2015-06-28T06:25:14Z</time>
      </trkpt>
      <trkpt lat="46.57191" lon="6.03711">
        <ele>1002.8</ele>
        <time>2015-06-28T06:25:19Z</time>
      </trkpt>
      <trkpt lat="46.57185" lon="6.03722">
        <ele>1003.9</ele>
        <time>2015-06-28T06:25:25Z</time>
      </trkpt>
      <trkpt lat="46.57179" lon="6.03732">
        <ele>1005</ele>
        <time>2015-06-28T06:25:31Z</time>
      </trkpt>
      <trkpt lat="46.57173" lon="6.03743">
        <ele>1006.2</ele>
        <time>2015-06-28T06:25:37Z</time>
      </trkpt>
      <trkpt lat="46.57168" lon="6.03755">
        <ele>1007.4</ele>
        <time>2015-06-28T06:25:44Z</time>
      </trkpt>
      <trkpt lat="46.57162" lon="6.03767">
        <ele>1008.6</ele>
        <time>2015-06-28T06:25:51Z</time>
      </trkpt>
      <trkpt lat="46.57157" lon="6.0378">
        <ele>1009.9</ele>
        <time>2015-06-28T06:25:58Z</time>
      </trkpt>
      <trkpt lat="46.57151" lon="6.0379">
        <ele>1011.4</ele>
        <time>2015-06-28T06:26:05Z</time>
      </trkpt>
      <trkpt lat="46.57144" lon="6.03801">
        <ele>1012.9</ele>
        <time>2015-06-28T06:26:12Z</time>
      </trkpt>
      <trkpt lat="46.57137" lon="6.03811">
        <ele>1014.4</ele>
        <time>2015-06-28T06:26:19Z</time>
      </trkpt>
      <trkpt lat="46.5713" lon="6.03822">
        <ele>1015.5</ele>
        <time>2015-06-28T06:26:25Z</time>
      </trkpt>
      <trkpt lat="46.57125" lon="6.03835">
        <ele>1016.7</ele>
        <time>2015-06-28T06:26:31Z</time>
      </trkpt>
      <trkpt lat="46.57119" lon="6.03847">
        <ele>1017.7</ele>
        <time>2015-06-28T06:26:37Z</time>
      </trkpt>
      <trkpt lat="46.57111" lon="6.03858">
        <ele>1018.6</ele>
        <time>2015-06-28T06:26:43Z</time>
      </trkpt>
      <trkpt lat="46.57106" lon="6.03869">
        <ele>1019.4</ele>
        <time>2015-06-28T06:26:48Z</time>
      </trkpt>
      <trkpt lat="46.57101" lon="6.03879">
        <ele>1020.1</ele>
        <time>2015-06-28T06:26:53Z</time>
      </trkpt>
      <trkpt lat="46.57094" lon="6.03891">
        <ele>1021</ele>
        <time>2015-06-28T06:26:59Z</time>
      </trkpt>
      <trkpt lat="46.57088" lon="6.03901">
        <ele>1021.7</ele>
        <time>2015-06-28T06:27:04Z</time>
      </trkpt>
      <trkpt lat="46.57082" lon="6.03912">
        <ele>1022.4</ele>
        <time>2015-06-28T06:27:09Z</time>
      </trkpt>
      <trkpt lat="46.57076" lon="6.03924">
        <ele>1023.3</ele>
        <time>2015-06-28T06:27:15Z</time>
      </trkpt>
      <trkpt lat="46.5707" lon="6.03933">
        <ele>1024.1</ele>
        <time>2015-06-28T06:27:20Z</time>
      </trkpt>
      <trkpt lat="46.57064" lon="6.03944">
        <ele>1024.9</ele>
        <time>2015-06-28T06:27:25Z</time>
      </trkpt>
      <trkpt lat="46.57057" lon="6.03955">
        <ele>1025.7</ele>
        <time>2015-06-28T06:27:31Z</time>
      </trkpt>
      <trkpt lat="46.5705" lon="6.03964">
        <ele>1026.4</ele>
        <time>2015-06-28T06:27:36Z</time>
      </trkpt>
      <trkpt lat="46.57045" lon="6.03975">
        <ele>1027.1</ele>
        <time>2015-06-28T06:27:41Z</time>
      </trkpt>
      <trkpt lat="46.57038" lon="6.03986">
        <ele>1028.1</ele>
        <time>2015-06-28T06:27:47Z</time>
      </trkpt>
      <trkpt lat="46.57033" lon="6.03997">
        <ele>1029.2</ele>
        <time>2015-06-28T06:27:53Z</time>
      </trkpt>
      <trkpt lat="46.57028" lon="6.04008">
        <ele>1030.3</ele>
        <time>2015-06-28T06:27:59Z</time>
      </trkpt>
      <trkpt lat="46.57022" lon="6.04019">
        <ele>1031.5</ele>
        <time>2015-06-28T06:28:06Z</time>
      </trkpt>
      <trkpt lat="46.57014" lon="6.04026">
        <ele>1033.2</ele>
        <time>2015-06-28T06:28:14Z</time>
      </trkpt>
      <trkpt lat="46.57009" lon="6.04038">
        <ele>1034.4</ele>
        <time>2015-06-28T06:28:20Z</time>
      </trkpt>
      <trkpt lat="46.57003" lon="6.04049">
        <ele>1035.9</ele>
        <time>2015-06-28T06:28:27Z</time>
      </trkpt>
      <trkpt lat="46.56997" lon="6.0406">
        <ele>1036.8</ele>
        <time>2015-06-28T06:28:32Z</time>
      </trkpt>
      <trkpt lat="46.56988" lon="6.04069">
        <ele>1037.9</ele>
        <time>2015-06-28T06:28:38Z</time>
      </trkpt>
      <trkpt lat="46.5698" lon="6.04079">
        <ele>1038.7</ele>
        <time>2015-06-28T06:28:43Z</time>
      </trkpt>
      <trkpt lat="46.56973" lon="6.04087">
        <ele>1039.5</ele>
        <time>2015-06-28T06:28:48Z</time>
      </trkpt>
      <trkpt lat="46.56966" lon="6.04097">
        <ele>1040</ele>
        <time>2015-06-28T06:28:52Z</time>
      </trkpt>
      <trkpt lat="46.56957" lon="6.04108">
        <ele>1040.7</ele>
        <time>2015-06-28T06:28:57Z</time>
      </trkpt>
      <trkpt lat="46.56948" lon="6.04118">
        <ele>1041.4</ele>
        <time>2015-06-28T06:29:01Z</time>
      </trkpt>
      <trkpt lat="46.56942" lon="6.04131">
        <ele>1041.9</ele>
        <time>2015-06-28T06:29:05Z</time>
      </trkpt>
      <trkpt lat="46.56937" lon="6.04142">
        <ele>1042.3</ele>
        <time>2015-06-28T06:29:08Z</time>
      </trkpt>
      <trkpt lat="46.5693" lon="6.04154">
        <ele>1042.8</ele>
        <time>2015-06-28T06:29:12Z</time>
      </trkpt>
      <trkpt lat="46.56925" lon="6.04166">
        <ele>1043.5</ele>
        <time>2015-06-28T06:29:18Z</time>
      </trkpt>
      <trkpt lat="46.56919" lon="6.04177">
        <ele>1044.2</ele>
        <time>2015-06-28T06:29:24Z</time>
      </trkpt>
      <trkpt lat="46.56914" lon="6.04188">
        <ele>1044.8</ele>
        <time>2015-06-28T06:29:29Z</time>
      </trkpt>
      <trkpt lat="46.56908" lon="6.04201">
        <ele>1045.5</ele>
        <time>2015-06-28T06:29:34Z</time>
      </trkpt>
      <trkpt lat="46.56902" lon="6.04212">
        <ele>1046.1</ele>
        <time>2015-06-28T06:29:39Z</time>
      </trkpt>
      <trkpt lat="46.56896" lon="6.04222">
        <ele>1046.4</ele>
        <time>2015-06-28T06:29:44Z</time>
      </trkpt>
      <trkpt lat="46.5689" lon="6.04236">
        <ele>1046.9</ele>
        <time>2015-06-28T06:29:49Z</time>
      </trkpt>
      <trkpt lat="46.56884" lon="6.04248">
        <ele>1047.4</ele>
        <time>2015-06-28T06:29:53Z</time>
      </trkpt>
      <trkpt lat="46.56885" lon="6.04264">
        <ele>1048</ele>
        <time>2015-06-28T06:29:59Z</time>
      </trkpt>
      <trkpt lat="46.56889" lon="6.04276">
        <ele>1048.4</ele>
        <time>2015-06-28T06:30:04Z</time>
      </trkpt>
      <trkpt lat="46.56897" lon="6.04288">
        <ele>1048.7</ele>
        <time>2015-06-28T06:30:09Z</time>
      </trkpt>
      <trkpt lat="46.56905" lon="6.04298">
        <ele>1049.1</ele>
        <time>2015-06-28T06:30:13Z</time>
      </trkpt>
      <trkpt lat="46.56913" lon="6.04305">
        <ele>1049.7</ele>
        <time>2015-06-28T06:30:19Z</time>
      </trkpt>
      <trkpt lat="46.56921" lon="6.04313">
        <ele>1050.1</ele>
        <time>2015-06-28T06:30:24Z</time>
      </trkpt>
      <trkpt lat="46.56929" lon="6.0432">
        <ele>1050.6</ele>
        <time>2015-06-28T06:30:31Z</time>
      </trkpt>
      <trkpt lat="46.56935" lon="6.04335">
        <ele>1051</ele>
        <time>2015-06-28T06:30:36Z</time>
      </trkpt>
      <trkpt lat="46.56941" lon="6.04349">
        <ele>1051.2</ele>
        <time>2015-06-28T06:30:40Z</time>
      </trkpt>
      <trkpt lat="46.56947" lon="6.04362">
        <ele>1051.4</ele>
        <time>2015-06-28T06:30:44Z</time>
      </trkpt>
      <trkpt lat="46.56953" lon="6.04372">
        <ele>1051.4</ele>
        <time>2015-06-28T06:30:47Z</time>
      </trkpt>
      <trkpt lat="46.56956" lon="6.04386">
        <ele>1050.9</ele>
        <time>2015-06-28T06:30:56Z</time>
      </trkpt>
      <trkpt lat="46.56964" lon="6.04396">
        <ele>1050.7</ele>
        <time>2015-06-28T06:31:00Z</time>
      </trkpt>
      <trkpt lat="46.5697" lon="6.04408">
        <ele>1050.5</ele>
        <time>2015-06-28T06:31:03Z</time>
      </trkpt>
      <trkpt lat="46.5698" lon="6.04427">
        <ele>1050.4</ele>
        <time>2015-06-28T06:31:06Z</time>
      </trkpt>
      <trkpt lat="46.56988" lon="6.04439">
        <ele>1050.4</ele>
        <time>2015-06-28T06:31:08Z</time>
      </trkpt>
      <trkpt lat="46.56995" lon="6.04447">
        <ele>1050.3</ele>
        <time>2015-06-28T06:31:10Z</time>
      </trkpt>
      <trkpt lat="46.57006" lon="6.04453">
        <ele>1050.2</ele>
        <time>2015-06-28T06:31:13Z</time>
      </trkpt>
      <trkpt lat="46.57018" lon="6.04452">
        <ele>1050.2</ele>
        <time>2015-06-28T06:31:16Z</time>
      </trkpt>
      <trkpt lat="46.57027" lon="6.04452">
        <ele>1050.1</ele>
        <time>2015-06-28T06:31:18Z</time>
      </trkpt>
      <trkpt lat="46.57039" lon="6.0446">
        <ele>1050</ele>
        <time>2015-06-28T06:31:21Z</time>
      </trkpt>
      <trkpt lat="46.57045" lon="6.04473">
        <ele>1049.9</ele>
        <time>2015-06-28T06:31:23Z</time>
      </trkpt>
      <trkpt lat="46.57049" lon="6.04487">
        <ele>1049.7</ele>
        <time>2015-06-28T06:31:25Z</time>
      </trkpt>
      <trkpt lat="46.57053" lon="6.04504">
        <ele>1049.5</ele>
        <time>2015-06-28T06:31:27Z</time>
      </trkpt>
      <trkpt lat="46.57061" lon="6.04522">
        <ele>1049.2</ele>
        <time>2015-06-28T06:31:29Z</time>
      </trkpt>
      <trkpt lat="46.57069" lon="6.04539">
        <ele>1048.9</ele>
        <time>2015-06-28T06:31:31Z</time>
      </trkpt>
      <trkpt lat="46.57077" lon="6.04556">
        <ele>1048.6</ele>
        <time>2015-06-28T06:31:33Z</time>
      </trkpt>
      <trkpt lat="46.57084" lon="6.04575">
        <ele>1048.3</ele>
        <time>2015-06-28T06:31:35Z</time>
      </trkpt>
      <trkpt lat="46.57093" lon="6.04591">
        <ele>1047.9</ele>
        <time>2015-06-28T06:31:37Z</time>
      </trkpt>
      <trkpt lat="46.57103" lon="6.04609">
        <ele>1047.5</ele>
        <time>2015-06-28T06:31:39Z</time>
      </trkpt>
      <trkpt lat="46.57114" lon="6.04626">
        <ele>1047</ele>
        <time>2015-06-28T06:31:41Z</time>
      </trkpt>
      <trkpt lat="46.57125" lon="6.04644">
        <ele>1046.5</ele>
        <time>2015-06-28T06:31:43Z</time>
      </trkpt>
      <trkpt lat="46.57135" lon="6.04658">
        <ele>1046</ele>
        <time>2015-06-28T06:31:45Z</time>
      </trkpt>
      <trkpt lat="46.57147" lon="6.04669">
        <ele>1045.4</ele>
        <time>2015-06-28T06:31:47Z</time>
      </trkpt>
      <trkpt lat="46.57158" lon="6.04679">
        <ele>1044.8</ele>
        <time>2015-06-28T06:31:49Z</time>
      </trkpt>
      <trkpt lat="46.57168" lon="6.04689">
        <ele>1044.4</ele>
        <time>2015-06-28T06:31:51Z</time>
      </trkpt>
      <trkpt lat="46.5718" lon="6.04698">
        <ele>1043.8</ele>
        <time>2015-06-28T06:31:53Z</time>
      </trkpt>
      <trkpt lat="46.57192" lon="6.0471">
        <ele>1043.3</ele>
        <time>2015-06-28T06:31:55Z</time>
      </trkpt>
      <trkpt lat="46.57203" lon="6.04723">
        <ele>1042.9</ele>
        <time>2015-06-28T06:31:57Z</time>
      </trkpt>
      <trkpt lat="46.57212" lon="6.04733">
        <ele>1042.4</ele>
        <time>2015-06-28T06:31:59Z</time>
      </trkpt>
      <trkpt lat="46.57221" lon="6.04744">
        <ele>1042</ele>
        <time>2015-06-28T06:32:01Z</time>
      </trkpt>
      <trkpt lat="46.57229" lon="6.04755">
        <ele>1041.5</ele>
        <time>2015-06-28T06:32:03Z</time>
      </trkpt>
      <trkpt lat="46.57239" lon="6.04768">
        <ele>1041.1</ele>
        <time>2015-06-28T06:32:05Z</time>
      </trkpt>
      <trkpt lat="46.5725" lon="6.04779">
        <ele>1040.6</ele>
        <time>2015-06-28T06:32:07Z</time>
      </trkpt>
      <trkpt lat="46.57262" lon="6.04788">
        <ele>1040.1</ele>
        <time>2015-06-28T06:32:09Z</time>
      </trkpt>
      <trkpt lat="46.57273" lon="6.04798">
        <ele>1039.4</ele>
        <time>2015-06-28T06:32:11Z</time>
      </trkpt>
      <trkpt lat="46.57284" lon="6.04809">
        <ele>1038.9</ele>
        <time>2015-06-28T06:32:13Z</time>
      </trkpt>
      <trkpt lat="46.57294" lon="6.04818">
        <ele>1038.4</ele>
        <time>2015-06-28T06:32:15Z</time>
      </trkpt>
      <trkpt lat="46.57304" lon="6.04829">
        <ele>1038</ele>
        <time>2015-06-28T06:32:17Z</time>
      </trkpt>
      <trkpt lat="46.57315" lon="6.04839">
        <ele>1037.6</ele>
        <time>2015-06-28T06:32:19Z</time>
      </trkpt>
      <trkpt lat="46.57327" lon="6.04846">
        <ele>1037.2</ele>
        <time>2015-06-28T06:32:21Z</time>
      </trkpt>
      <trkpt lat="46.5734" lon="6.04844">
        <ele>1036.8</ele>
        <time>2015-06-28T06:32:23Z</time>
      </trkpt>
      <trkpt lat="46.57353" lon="6.04841">
        <ele>1036.5</ele>
        <time>2015-06-28T06:32:25Z</time>
      </trkpt>
      <trkpt lat="46.57365" lon="6.04839">
        <ele>1036.2</ele>
        <time>2015-06-28T06:32:27Z</time>
      </trkpt>
      <trkpt lat="46.57376" lon="6.0484">
        <ele>1035.8</ele>
        <time>2015-06-28T06:32:29Z</time>
      </trkpt>
      <trkpt lat="46.57388" lon="6.04845">
        <ele>1035.5</ele>
        <time>2015-06-28T06:32:31Z</time>
      </trkpt>
      <trkpt lat="46.574" lon="6.0485">
        <ele>1034.9</ele>
        <time>2015-06-28T06:32:33Z</time>
      </trkpt>
      <trkpt lat="46.57413" lon="6.04857">
        <ele>1034.5</ele>
        <time>2015-06-28T06:32:35Z</time>
      </trkpt>
      <trkpt lat="46.57426" lon="6.04867">
        <ele>1034</ele>
        <time>2015-06-28T06:32:37Z</time>
      </trkpt>
      <trkpt lat="46.57439" lon="6.04881">
        <ele>1033.5</ele>
        <time>2015-06-28T06:32:39Z</time>
      </trkpt>
      <trkpt lat="46.5745" lon="6.04899">
        <ele>1032.9</ele>
        <time>2015-06-28T06:32:41Z</time>
      </trkpt>
      <trkpt lat="46.57463" lon="6.04913">
        <ele>1032.1</ele>
        <time>2015-06-28T06:32:43Z</time>
      </trkpt>
      <trkpt lat="46.57478" lon="6.04924">
        <ele>1031.4</ele>
        <time>2015-06-28T06:32:45Z</time>
      </trkpt>
      <trkpt lat="46.57493" lon="6.04937">
        <ele>1030.6</ele>
        <time>2015-06-28T06:32:47Z</time>
      </trkpt>
      <trkpt lat="46.57507" lon="6.04948">
        <ele>1029.8</ele>
        <time>2015-06-28T06:32:49Z</time>
      </trkpt>
      <trkpt lat="46.5752" lon="6.04956">
        <ele>1028.9</ele>
        <time>2015-06-28T06:32:51Z</time>
      </trkpt>
      <trkpt lat="46.5753" lon="6.04968">
        <ele>1028.2</ele>
        <time>2015-06-28T06:32:53Z</time>
      </trkpt>
      <trkpt lat="46.5754" lon="6.04978">
        <ele>1027.4</ele>
        <time>2015-06-28T06:32:55Z</time>
      </trkpt>
      <trkpt lat="46.57547" lon="6.04987">
        <ele>1026.6</ele>
        <time>2015-06-28T06:32:57Z</time>
      </trkpt>
      <trkpt lat="46.57557" lon="6.04997">
        <ele>1025.7</ele>
        <time>2015-06-28T06:33:00Z</time>
      </trkpt>
      <trkpt lat="46.57566" lon="6.05008">
        <ele>1024.9</ele>
        <time>2015-06-28T06:33:03Z</time>
      </trkpt>
      <trkpt lat="46.57574" lon="6.05018">
        <ele>1024.3</ele>
        <time>2015-06-28T06:33:06Z</time>
      </trkpt>
      <trkpt lat="46.57583" lon="6.05028">
        <ele>1023.7</ele>
        <time>2015-06-28T06:33:09Z</time>
      </trkpt>
      <trkpt lat="46.57591" lon="6.05038">
        <ele>1023.4</ele>
        <time>2015-06-28T06:33:12Z</time>
      </trkpt>
      <trkpt lat="46.57597" lon="6.05048">
        <ele>1023.3</ele>
        <time>2015-06-28T06:33:15Z</time>
      </trkpt>
      <trkpt lat="46.57604" lon="6.05058">
        <ele>1023.2</ele>
        <time>2015-06-28T06:33:18Z</time>
      </trkpt>
      <trkpt lat="46.57612" lon="6.05069">
        <ele>1023.1</ele>
        <time>2015-06-28T06:33:21Z</time>
      </trkpt>
      <trkpt lat="46.57619" lon="6.05077">
        <ele>1023.2</ele>
        <time>2015-06-28T06:33:24Z</time>
      </trkpt>
      <trkpt lat="46.57627" lon="6.05086">
        <ele>1023.3</ele>
        <time>2015-06-28T06:33:27Z</time>
      </trkpt>
      <trkpt lat="46.57635" lon="6.05093">
        <ele>1023.5</ele>
        <time>2015-06-28T06:33:30Z</time>
      </trkpt>
      <trkpt lat="46.57644" lon="6.05098">
        <ele>1023.6</ele>
        <time>2015-06-28T06:33:33Z</time>
      </trkpt>
      <trkpt lat="46.57654" lon="6.05105">
        <ele>1023.8</ele>
        <time>2015-06-28T06:33:37Z</time>
      </trkpt>
      <trkpt lat="46.57663" lon="6.0511">
        <ele>1024.3</ele>
        <time>2015-06-28T06:33:42Z</time>
      </trkpt>
      <trkpt lat="46.5767" lon="6.05119">
        <ele>1024.6</ele>
        <time>2015-06-28T06:33:46Z</time>
      </trkpt>
      <trkpt lat="46.57676" lon="6.05131">
        <ele>1025.4</ele>
        <time>2015-06-28T06:33:53Z</time>
      </trkpt>
      <trkpt lat="46.57682" lon="6.05143">
        <ele>1026.1</ele>
        <time>2015-06-28T06:33:58Z</time>
      </trkpt>
      <trkpt lat="46.57689" lon="6.05153">
        <ele>1027.1</ele>
        <time>2015-06-28T06:34:04Z</time>
      </trkpt>
      <trkpt lat="46.57696" lon="6.05164">
        <ele>1027.8</ele>
        <time>2015-06-28T06:34:09Z</time>
      </trkpt>
      <trkpt lat="46.57703" lon="6.05172">
        <ele>1028.5</ele>
        <time>2015-06-28T06:34:13Z</time>
      </trkpt>
      <trkpt lat="46.57711" lon="6.05181">
        <ele>1029.5</ele>
        <time>2015-06-28T06:34:19Z</time>
      </trkpt>
      <trkpt lat="46.57721" lon="6.05185">
        <ele>1030.8</ele>
        <time>2015-06-28T06:34:26Z</time>
      </trkpt>
      <trkpt lat="46.5773" lon="6.05183">
        <ele>1032.3</ele>
        <time>2015-06-28T06:34:34Z</time>
      </trkpt>
      <trkpt lat="46.57739" lon="6.05183">
        <ele>1033.7</ele>
        <time>2015-06-28T06:34:41Z</time>
      </trkpt>
      <trkpt lat="46.57748" lon="6.0519">
        <ele>1035.1</ele>
        <time>2015-06-28T06:34:48Z</time>
      </trkpt>
      <trkpt lat="46.57754" lon="6.052">
        <ele>1036.5</ele>
        <time>2015-06-28T06:34:55Z</time>
      </trkpt>
      <trkpt lat="46.57762" lon="6.05208">
        <ele>1037.8</ele>
        <time>2015-06-28T06:35:02Z</time>
      </trkpt>
      <trkpt lat="46.57771" lon="6.05215">
        <ele>1039.1</ele>
        <time>2015-06-28T06:35:09Z</time>
      </trkpt>
      <trkpt lat="46.5778" lon="6.0522">
        <ele>1040.1</ele>
        <time>2015-06-28T06:35:15Z</time>
      </trkpt>
      <trkpt lat="46.57789" lon="6.05225">
        <ele>1041.2</ele>
        <time>2015-06-28T06:35:21Z</time>
      </trkpt>
      <trkpt lat="46.57798" lon="6.05228">
        <ele>1042.2</ele>
        <time>2015-06-28T06:35:27Z</time>
      </trkpt>
      <trkpt lat="46.57807" lon="6.05233">
        <ele>1043.1</ele>
        <time>2015-06-28T06:35:33Z</time>
      </trkpt>
      <trkpt lat="46.57817" lon="6.05239">
        <ele>1044</ele>
        <time>2015-06-28T06:35:39Z</time>
      </trkpt>
      <trkpt lat="46.57826" lon="6.05243">
        <ele>1044.6</ele>
        <time>2015-06-28T06:35:43Z</time>
      </trkpt>
      <trkpt lat="46.57836" lon="6.05244">
        <ele>1045</ele>
        <time>2015-06-28T06:35:46Z</time>
      </trkpt>
      <trkpt lat="46.57848" lon="6.05246">
        <ele>1045.3</ele>
        <time>2015-06-28T06:35:49Z</time>
      </trkpt>
      <trkpt lat="46.57858" lon="6.0525">
        <ele>1045.6</ele>
        <time>2015-06-28T06:35:52Z</time>
      </trkpt>
      <trkpt lat="46.57868" lon="6.05258">
        <ele>1045.7</ele>
        <time>2015-06-28T06:35:55Z</time>
      </trkpt>
      <trkpt lat="46.57876" lon="6.05268">
        <ele>1045.8</ele>
        <time>2015-06-28T06:35:58Z</time>
      </trkpt>
      <trkpt lat="46.57884" lon="6.05277">
        <ele>1045.8</ele>
        <time>2015-06-28T06:36:01Z</time>
      </trkpt>
      <trkpt lat="46.57894" lon="6.05282">
        <ele>1045.8</ele>
        <time>2015-06-28T06:36:04Z</time>
      </trkpt>
      <trkpt lat="46.57898" lon="6.05296">
        <ele>1046.2</ele>
        <time>2015-06-28T06:36:09Z</time>
      </trkpt>
      <trkpt lat="46.57899" lon="6.0531">
        <ele>1046.3</ele>
        <time>2015-06-28T06:36:13Z</time>
      </trkpt>
      <trkpt lat="46.579" lon="6.05323">
        <ele>1046.5</ele>
        <time>2015-06-28T06:36:17Z</time>
      </trkpt>
      <trkpt lat="46.57899" lon="6.05338">
        <ele>1046.7</ele>
        <time>2015-06-28T06:36:21Z</time>
      </trkpt>
      <trkpt lat="46.57895" lon="6.05353">
        <ele>1046.9</ele>
        <time>2015-06-28T06:36:26Z</time>
      </trkpt>
      <trkpt lat="46.57892" lon="6.05366">
        <ele>1047</ele>
        <time>2015-06-28T06:36:30Z</time>
      </trkpt>
      <trkpt lat="46.57893" lon="6.05382">
        <ele>1047.4</ele>
        <time>2015-06-28T06:36:35Z</time>
      </trkpt>
      <trkpt lat="46.57894" lon="6.05398">
        <ele>1047.8</ele>
        <time>2015-06-28T06:36:40Z</time>
      </trkpt>
      <trkpt lat="46.57891" lon="6.05411">
        <ele>1048.1</ele>
        <time>2015-06-28T06:36:44Z</time>
      </trkpt>
      <trkpt lat="46.57889" lon="6.05425">
        <ele>1048.6</ele>
        <time>2015-06-28T06:36:49Z</time>
      </trkpt>
      <trkpt lat="46.57889" lon="6.0544">
        <ele>1049.1</ele>
        <time>2015-06-28T06:36:54Z</time>
      </trkpt>
      <trkpt lat="46.57891" lon="6.05453">
        <ele>1049.5</ele>
        <time>2015-06-28T06:36:58Z</time>
      </trkpt>
      <trkpt lat="46.57894" lon="6.05468">
        <ele>1049.9</ele>
        <time>2015-06-28T06:37:03Z</time>
      </trkpt>
      <trkpt lat="46.57897" lon="6.0548">
        <ele>1050.3</ele>
        <time>2015-06-28T06:37:08Z</time>
      </trkpt>
      <trkpt lat="46.57904" lon="6.05492">
        <ele>1051.2</ele>
        <time>2015-06-28T06:37:14Z</time>
      </trkpt>
      <trkpt lat="46.5791" lon="6.05503">
        <ele>1052</ele>
        <time>2015-06-28T06:37:19Z</time>
      </trkpt>
      <trkpt lat="46.57916" lon="6.05515">
        <ele>1053</ele>
        <time>2015-06-28T06:37:24Z</time>
      </trkpt>
      <trkpt lat="46.57923" lon="6.05523">
        <ele>1053.8</ele>
        <time>2015-06-28T06:37:29Z</time>
      </trkpt>
      <trkpt lat="46.57931" lon="6.05534">
        <ele>1054.7</ele>
        <time>2015-06-28T06:37:34Z</time>
      </trkpt>
      <trkpt lat="46.57938" lon="6.05548">
        <ele>1055.5</ele>
        <time>2015-06-28T06:37:39Z</time>
      </trkpt>
      <trkpt lat="46.57942" lon="6.0556">
        <ele>1056.3</ele>
        <time>2015-06-28T06:37:44Z</time>
      </trkpt>
      <trkpt lat="46.57947" lon="6.05573">
        <ele>1057</ele>
        <time>2015-06-28T06:37:49Z</time>
      </trkpt>
      <trkpt lat="46.57946" lon="6.05588">
        <ele>1057.9</ele>
        <time>2015-06-28T06:37:54Z</time>
      </trkpt>
      <trkpt lat="46.57948" lon="6.05601">
        <ele>1058.6</ele>
        <time>2015-06-28T06:37:59Z</time>
      </trkpt>
      <trkpt lat="46.57951" lon="6.05615">
        <ele>1059.3</ele>
        <time>2015-06-28T06:38:04Z</time>
      </trkpt>
      <trkpt lat="46.57955" lon="6.05626">
        <ele>1059.8</ele>
        <time>2015-06-28T06:38:09Z</time>
      </trkpt>
      <trkpt lat="46.57961" lon="6.05639">
        <ele>1060.2</ele>
        <time>2015-06-28T06:38:13Z</time>
      </trkpt>
      <trkpt lat="46.57966" lon="6.05651">
        <ele>1060.7</ele>
        <time>2015-06-28T06:38:17Z</time>
      </trkpt>
      <trkpt lat="46.5797" lon="6.05665">
        <ele>1061</ele>
        <time>2015-06-28T06:38:20Z</time>
      </trkpt>
      <trkpt lat="46.57974" lon="6.05679">
        <ele>1061.3</ele>
        <time>2015-06-28T06:38:23Z</time>
      </trkpt>
      <trkpt lat="46.57979" lon="6.05694">
        <ele>1061.8</ele>
        <time>2015-06-28T06:38:28Z</time>
      </trkpt>
      <trkpt lat="46.57982" lon="6.05708">
        <ele>1062.3</ele>
        <time>2015-06-28T06:38:32Z</time>
      </trkpt>
      <trkpt lat="46.57983" lon="6.05722">
        <ele>1062.7</ele>
        <time>2015-06-28T06:38:36Z</time>
      </trkpt>
      <trkpt lat="46.57981" lon="6.05738">
        <ele>1063</ele>
        <time>2015-06-28T06:38:40Z</time>
      </trkpt>
      <trkpt lat="46.57978" lon="6.05753">
        <ele>1063.5</ele>
        <time>2015-06-28T06:38:44Z</time>
      </trkpt>
      <trkpt lat="46.57974" lon="6.05765">
        <ele>1064</ele>
        <time>2015-06-28T06:38:48Z</time>
      </trkpt>
      <trkpt lat="46.57974" lon="6.05781">
        <ele>1064.4</ele>
        <time>2015-06-28T06:38:51Z</time>
      </trkpt>
      <trkpt lat="46.57975" lon="6.05795">
        <ele>1064.8</ele>
        <time>2015-06-28T06:38:54Z</time>
      </trkpt>
      <trkpt lat="46.57977" lon="6.05814">
        <ele>1065</ele>
        <time>2015-06-28T06:38:57Z</time>
      </trkpt>
      <trkpt lat="46.57979" lon="6.05831">
        <ele>1065.1</ele>
        <time>2015-06-28T06:39:00Z</time>
      </trkpt>
      <trkpt lat="46.5798" lon="6.05846">
        <ele>1065.1</ele>
        <time>2015-06-28T06:39:03Z</time>
      </trkpt>
      <trkpt lat="46.57981" lon="6.0586">
        <ele>1065.1</ele>
        <time>2015-06-28T06:39:06Z</time>
      </trkpt>
      <trkpt lat="46.5798" lon="6.05876">
        <ele>1065</ele>
        <time>2015-06-28T06:39:10Z</time>
      </trkpt>
      <trkpt lat="46.5798" lon="6.0589">
        <ele>1064.9</ele>
        <time>2015-06-28T06:39:13Z</time>
      </trkpt>
      <trkpt lat="46.57977" lon="6.05904">
        <ele>1064.9</ele>
        <time>2015-06-28T06:39:17Z</time>
      </trkpt>
      <trkpt lat="46.57973" lon="6.05917">
        <ele>1064.8</ele>
        <time>2015-06-28T06:39:20Z</time>
      </trkpt>
      <trkpt lat="46.57969" lon="6.05931">
        <ele>1064.8</ele>
        <time>2015-06-28T06:39:24Z</time>
      </trkpt>
      <trkpt lat="46.57965" lon="6.05943">
        <ele>1065</ele>
        <time>2015-06-28T06:39:29Z</time>
      </trkpt>
      <trkpt lat="46.57964" lon="6.05959">
        <ele>1065.6</ele>
        <time>2015-06-28T06:39:35Z</time>
      </trkpt>
      <trkpt lat="46.57962" lon="6.05973">
        <ele>1066</ele>
        <time>2015-06-28T06:39:39Z</time>
      </trkpt>
      <trkpt lat="46.57962" lon="6.05988">
        <ele>1066.6</ele>
        <time>2015-06-28T06:39:44Z</time>
      </trkpt>
      <trkpt lat="46.57965" lon="6.06002">
        <ele>1067.6</ele>
        <time>2015-06-28T06:39:50Z</time>
      </trkpt>
      <trkpt lat="46.57971" lon="6.06012">
        <ele>1068.6</ele>
        <time>2015-06-28T06:39:57Z</time>
      </trkpt>
      <trkpt lat="46.57976" lon="6.06025">
        <ele>1069.4</ele>
        <time>2015-06-28T06:40:02Z</time>
      </trkpt>
      <trkpt lat="46.57977" lon="6.06039">
        <ele>1070.2</ele>
        <time>2015-06-28T06:40:07Z</time>
      </trkpt>
      <trkpt lat="46.57977" lon="6.06054">
        <ele>1071.3</ele>
        <time>2015-06-28T06:40:12Z</time>
      </trkpt>
      <trkpt lat="46.57978" lon="6.06069">
        <ele>1072.2</ele>
        <time>2015-06-28T06:40:17Z</time>
      </trkpt>
      <trkpt lat="46.5798" lon="6.06082">
        <ele>1073</ele>
        <time>2015-06-28T06:40:22Z</time>
      </trkpt>
      <trkpt lat="46.57984" lon="6.06096">
        <ele>1073.9</ele>
        <time>2015-06-28T06:40:28Z</time>
      </trkpt>
      <trkpt lat="46.57983" lon="6.06109">
        <ele>1074.7</ele>
        <time>2015-06-28T06:40:33Z</time>
      </trkpt>
      <trkpt lat="46.5798" lon="6.06122">
        <ele>1075.4</ele>
        <time>2015-06-28T06:40:39Z</time>
      </trkpt>
      <trkpt lat="46.57982" lon="6.06137">
        <ele>1076.6</ele>
        <time>2015-06-28T06:40:47Z</time>
      </trkpt>
      <trkpt lat="46.57982" lon="6.06152">
        <ele>1077.6</ele>
        <time>2015-06-28T06:40:53Z</time>
      </trkpt>
      <trkpt lat="46.57982" lon="6.06166">
        <ele>1078.4</ele>
        <time>2015-06-28T06:40:58Z</time>
      </trkpt>
      <trkpt lat="46.5798" lon="6.0618">
        <ele>1079.1</ele>
        <time>2015-06-28T06:41:03Z</time>
      </trkpt>
      <trkpt lat="46.57975" lon="6.06193">
        <ele>1079.7</ele>
        <time>2015-06-28T06:41:08Z</time>
      </trkpt>
      <trkpt lat="46.57971" lon="6.06205">
        <ele>1080.1</ele>
        <time>2015-06-28T06:41:12Z</time>
      </trkpt>
      <trkpt lat="46.57967" lon="6.06221">
        <ele>1080.6</ele>
        <time>2015-06-28T06:41:16Z</time>
      </trkpt>
      <trkpt lat="46.57962" lon="6.06232">
        <ele>1080.9</ele>
        <time>2015-06-28T06:41:19Z</time>
      </trkpt>
      <trkpt lat="46.57958" lon="6.06244">
        <ele>1081.2</ele>
        <time>2015-06-28T06:41:22Z</time>
      </trkpt>
      <trkpt lat="46.57952" lon="6.06261">
        <ele>1081.6</ele>
        <time>2015-06-28T06:41:26Z</time>
      </trkpt>
      <trkpt lat="46.5795" lon="6.06277">
        <ele>1081.8</ele>
        <time>2015-06-28T06:41:30Z</time>
      </trkpt>
      <trkpt lat="46.5795" lon="6.06291">
        <ele>1082.1</ele>
        <time>2015-06-28T06:41:34Z</time>
      </trkpt>
      <trkpt lat="46.57953" lon="6.06307">
        <ele>1082.5</ele>
        <time>2015-06-28T06:41:39Z</time>
      </trkpt>
      <trkpt lat="46.57958" lon="6.0632">
        <ele>1082.9</ele>
        <time>2015-06-28T06:41:43Z</time>
      </trkpt>
      <trkpt lat="46.57963" lon="6.06334">
        <ele>1083.3</ele>
        <time>2015-06-28T06:41:47Z</time>
      </trkpt>
      <trkpt lat="46.5797" lon="6.06347">
        <ele>1083.7</ele>
        <time>2015-06-28T06:41:51Z</time>
      </trkpt>
      <trkpt lat="46.57978" lon="6.06359">
        <ele>1084.2</ele>
        <time>2015-06-28T06:41:56Z</time>
      </trkpt>
      <trkpt lat="46.57985" lon="6.06372">
        <ele>1084.5</ele>
        <time>2015-06-28T06:41:59Z</time>
      </trkpt>
      <trkpt lat="46.57992" lon="6.06385">
        <ele>1084.8</ele>
        <time>2015-06-28T06:42:03Z</time>
      </trkpt>
      <trkpt lat="46.57996" lon="6.06399">
        <ele>1085.2</ele>
        <time>2015-06-28T06:42:06Z</time>
      </trkpt>
      <trkpt lat="46.58" lon="6.06412">
        <ele>1085.6</ele>
        <time>2015-06-28T06:42:11Z</time>
      </trkpt>
      <trkpt lat="46.57999" lon="6.06425">
        <ele>1085.9</ele>
        <time>2015-06-28T06:42:17Z</time>
      </trkpt>
      <trkpt lat="46.58" lon="6.06438">
        <ele>1086.3</ele>
        <time>2015-06-28T06:42:23Z</time>
      </trkpt>
      <trkpt lat="46.58004" lon="6.06452">
        <ele>1087</ele>
        <time>2015-06-28T06:42:30Z</time>
      </trkpt>
      <trkpt lat="46.58002" lon="6.06466">
        <ele>1087.7</ele>
        <time>2015-06-28T06:42:35Z</time>
      </trkpt>
      <trkpt lat="46.58" lon="6.06481">
        <ele>1088.4</ele>
        <time>2015-06-28T06:42:40Z</time>
      </trkpt>
      <trkpt lat="46.57998" lon="6.06493">
        <ele>1089.3</ele>
        <time>2015-06-28T06:42:45Z</time>
      </trkpt>
      <trkpt lat="46.57996" lon="6.06507">
        <ele>1089.8</ele>
        <time>2015-06-28T06:42:50Z</time>
      </trkpt>
      <trkpt lat="46.57997" lon="6.0652">
        <ele>1090.3</ele>
        <time>2015-06-28T06:42:56Z</time>
      </trkpt>
      <trkpt lat="46.57994" lon="6.06534">
        <ele>1090.9</ele>
        <time>2015-06-28T06:43:01Z</time>
      </trkpt>
      <trkpt lat="46.57993" lon="6.0655">
        <ele>1091.3</ele>
        <time>2015-06-28T06:43:05Z</time>
      </trkpt>
      <trkpt lat="46.5799" lon="6.06569">
        <ele>1091.6</ele>
        <time>2015-06-28T06:43:08Z</time>
      </trkpt>
      <trkpt lat="46.57986" lon="6.06581">
        <ele>1091.8</ele>
        <time>2015-06-28T06:43:10Z</time>
      </trkpt>
      <trkpt lat="46.57982" lon="6.06593">
        <ele>1092</ele>
        <time>2015-06-28T06:43:12Z</time>
      </trkpt>
      <trkpt lat="46.57976" lon="6.06604">
        <ele>1092.2</ele>
        <time>2015-06-28T06:43:15Z</time>
      </trkpt>
      <trkpt lat="46.5797" lon="6.06616">
        <ele>1092.6</ele>
        <time>2015-06-28T06:43:20Z</time>
      </trkpt>
      <trkpt lat="46.57967" lon="6.0663">
        <ele>1092.8</ele>
        <time>2015-06-28T06:43:25Z</time>
      </trkpt>
      <trkpt lat="46.57964" lon="6.06644">
        <ele>1093.1</ele>
        <time>2015-06-28T06:43:30Z</time>
      </trkpt>
      <trkpt lat="46.5796" lon="6.06658">
        <ele>1093.6</ele>
        <time>2015-06-28T06:43:35Z</time>
      </trkpt>
      <trkpt lat="46.57959" lon="6.06672">
        <ele>1094.1</ele>
        <time>2015-06-28T06:43:40Z</time>
      </trkpt>
      <trkpt lat="46.57956" lon="6.06687">
        <ele>1094.6</ele>
        <time>2015-06-28T06:43:46Z</time>
      </trkpt>
      <trkpt lat="46.57953" lon="6.067">
        <ele>1095.2</ele>
        <time>2015-06-28T06:43:51Z</time>
      </trkpt>
      <trkpt lat="46.57949" lon="6.06714">
        <ele>1096</ele>
        <time>2015-06-28T06:43:57Z</time>
      </trkpt>
      <trkpt lat="46.57945" lon="6.06728">
        <ele>1096.9</ele>
        <time>2015-06-28T06:44:02Z</time>
      </trkpt>
      <trkpt lat="46.57941" lon="6.06741">
        <ele>1097.3</ele>
        <time>2015-06-28T06:44:05Z</time>
      </trkpt>
      <trkpt lat="46.57939" lon="6.06758">
        <ele>1097.8</ele>
        <time>2015-06-28T06:44:09Z</time>
      </trkpt>
      <trkpt lat="46.57936" lon="6.06771">
        <ele>1098.3</ele>
        <time>2015-06-28T06:44:13Z</time>
      </trkpt>
      <trkpt lat="46.5793" lon="6.06783">
        <ele>1098.6</ele>
        <time>2015-06-28T06:44:17Z</time>
      </trkpt>
      <trkpt lat="46.5792" lon="6.06791">
        <ele>1099.1</ele>
        <time>2015-06-28T06:44:21Z</time>
      </trkpt>
      <trkpt lat="46.57908" lon="6.06799">
        <ele>1099.5</ele>
        <time>2015-06-28T06:44:25Z</time>
      </trkpt>
      <trkpt lat="46.57899" lon="6.06803">
        <ele>1099.5</ele>
        <time>2015-06-28T06:44:28Z</time>
      </trkpt>
      <trkpt lat="46.57889" lon="6.06798">
        <ele>1099.6</ele>
        <time>2015-06-28T06:44:33Z</time>
      </trkpt>
      <trkpt lat="46.5788" lon="6.06794">
        <ele>1099.5</ele>
        <time>2015-06-28T06:44:38Z</time>
      </trkpt>
      <trkpt lat="46.57872" lon="6.06789">
        <ele>1099.6</ele>
        <time>2015-06-28T06:44:43Z</time>
      </trkpt>
      <trkpt lat="46.57862" lon="6.06786">
        <ele>1100</ele>
        <time>2015-06-28T06:44:53Z</time>
      </trkpt>
      <trkpt lat="46.57853" lon="6.0678">
        <ele>1100.7</ele>
        <time>2015-06-28T06:45:01Z</time>
      </trkpt>
      <trkpt lat="46.57844" lon="6.06776">
        <ele>1101</ele>
        <time>2015-06-28T06:45:03Z</time>
      </trkpt>
      <trkpt lat="46.57834" lon="6.06776">
        <ele>1101.6</ele>
        <time>2015-06-28T06:45:08Z</time>
      </trkpt>
      <trkpt lat="46.57823" lon="6.06782">
        <ele>1102</ele>
        <time>2015-06-28T06:45:12Z</time>
      </trkpt>
      <trkpt lat="46.57814" lon="6.06791">
        <ele>1102.3</ele>
        <time>2015-06-28T06:45:15Z</time>
      </trkpt>
      <trkpt lat="46.5781" lon="6.06804">
        <ele>1102.6</ele>
        <time>2015-06-28T06:45:19Z</time>
      </trkpt>
      <trkpt lat="46.57804" lon="6.06816">
        <ele>1102.6</ele>
        <time>2015-06-28T06:45:24Z</time>
      </trkpt>
      <trkpt lat="46.57793" lon="6.06817">
        <ele>1102.6</ele>
        <time>2015-06-28T06:45:30Z</time>
      </trkpt>
      <trkpt lat="46.57784" lon="6.06823">
        <ele>1102.7</ele>
        <time>2015-06-28T06:45:35Z</time>
      </trkpt>
      <trkpt lat="46.57774" lon="6.06828">
        <ele>1102.8</ele>
        <time>2015-06-28T06:45:42Z</time>
      </trkpt>
      <trkpt lat="46.57765" lon="6.06822">
        <ele>1103</ele>
        <time>2015-06-28T06:45:49Z</time>
      </trkpt>
      <trkpt lat="46.57759" lon="6.06811">
        <ele>1103.2</ele>
        <time>2015-06-28T06:45:58Z</time>
      </trkpt>
      <trkpt lat="46.57752" lon="6.06801">
        <ele>1103.5</ele>
        <time>2015-06-28T06:46:03Z</time>
      </trkpt>
      <trkpt lat="46.57742" lon="6.06794">
        <ele>1104</ele>
        <time>2015-06-28T06:46:08Z</time>
      </trkpt>
      <trkpt lat="46.57737" lon="6.06783">
        <ele>1104.4</ele>
        <time>2015-06-28T06:46:14Z</time>
      </trkpt>
      <trkpt lat="46.57729" lon="6.06772">
        <ele>1104.9</ele>
        <time>2015-06-28T06:46:21Z</time>
      </trkpt>
      <trkpt lat="46.57721" lon="6.06764">
        <ele>1105.2</ele>
        <time>2015-06-28T06:46:25Z</time>
      </trkpt>
      <trkpt lat="46.57714" lon="6.06755">
        <ele>1106</ele>
        <time>2015-06-28T06:46:35Z</time>
      </trkpt>
      <trkpt lat="46.57705" lon="6.06752">
        <ele>1106.4</ele>
        <time>2015-06-28T06:46:46Z</time>
      </trkpt>
      <trkpt lat="46.577" lon="6.06741">
        <ele>1106.4</ele>
        <time>2015-06-28T06:46:52Z</time>
      </trkpt>
      <trkpt lat="46.57692" lon="6.06728">
        <ele>1106.6</ele>
        <time>2015-06-28T06:46:57Z</time>
      </trkpt>
      <trkpt lat="46.57682" lon="6.06722">
        <ele>1106.8</ele>
        <time>2015-06-28T06:47:00Z</time>
      </trkpt>
      <trkpt lat="46.57673" lon="6.06714">
        <ele>1107</ele>
        <time>2015-06-28T06:47:04Z</time>
      </trkpt>
      <trkpt lat="46.57662" lon="6.0671">
        <ele>1107.2</ele>
        <time>2015-06-28T06:47:08Z</time>
      </trkpt>
      <trkpt lat="46.57653" lon="6.06712">
        <ele>1107.4</ele>
        <time>2015-06-28T06:47:11Z</time>
      </trkpt>
      <trkpt lat="46.57643" lon="6.06712">
        <ele>1107.6</ele>
        <time>2015-06-28T06:47:14Z</time>
      </trkpt>
      <trkpt lat="46.57634" lon="6.06714">
        <ele>1108</ele>
        <time>2015-06-28T06:47:17Z</time>
      </trkpt>
      <trkpt lat="46.57622" lon="6.06716">
        <ele>1108</ele>
        <time>2015-06-28T06:47:21Z</time>
      </trkpt>
      <trkpt lat="46.57611" lon="6.06721">
        <ele>1108</ele>
        <time>2015-06-28T06:47:24Z</time>
      </trkpt>
      <trkpt lat="46.57602" lon="6.06723">
        <ele>1108</ele>
        <time>2015-06-28T06:47:27Z</time>
      </trkpt>
      <trkpt lat="46.57593" lon="6.06729">
        <ele>1108.4</ele>
        <time>2015-06-28T06:47:32Z</time>
      </trkpt>
      <trkpt lat="46.57583" lon="6.06736">
        <ele>1109</ele>
        <time>2015-06-28T06:47:37Z</time>
      </trkpt>
      <trkpt lat="46.57575" lon="6.06742">
        <ele>1109.6</ele>
        <time>2015-06-28T06:47:42Z</time>
      </trkpt>
      <trkpt lat="46.57565" lon="6.06748">
        <ele>1110.1</ele>
        <time>2015-06-28T06:47:47Z</time>
      </trkpt>
      <trkpt lat="46.57555" lon="6.0675">
        <ele>1110.6</ele>
        <time>2015-06-28T06:47:51Z</time>
      </trkpt>
      <trkpt lat="46.57545" lon="6.06751">
        <ele>1111</ele>
        <time>2015-06-28T06:47:55Z</time>
      </trkpt>
      <trkpt lat="46.57535" lon="6.06753">
        <ele>1111.2</ele>
        <time>2015-06-28T06:47:58Z</time>
      </trkpt>
      <trkpt lat="46.57524" lon="6.06753">
        <ele>1111.4</ele>
        <time>2015-06-28T06:48:01Z</time>
      </trkpt>
      <trkpt lat="46.57514" lon="6.06756">
        <ele>1111.7</ele>
        <time>2015-06-28T06:48:05Z</time>
      </trkpt>
      <trkpt lat="46.57504" lon="6.06755">
        <ele>1112</ele>
        <time>2015-06-28T06:48:09Z</time>
      </trkpt>
      <trkpt lat="46.57494" lon="6.06751">
        <ele>1112.3</ele>
        <time>2015-06-28T06:48:13Z</time>
      </trkpt>
      <trkpt lat="46.57483" lon="6.0675">
        <ele>1112.5</ele>
        <time>2015-06-28T06:48:17Z</time>
      </trkpt>
      <trkpt lat="46.57473" lon="6.06748">
        <ele>1112.9</ele>
        <time>2015-06-28T06:48:22Z</time>
      </trkpt>
      <trkpt lat="46.57463" lon="6.06745">
        <ele>1113.2</ele>
        <time>2015-06-28T06:48:26Z</time>
      </trkpt>
      <trkpt lat="46.57454" lon="6.06737">
        <ele>1113.6</ele>
        <time>2015-06-28T06:48:31Z</time>
      </trkpt>
      <trkpt lat="46.57449" lon="6.06726">
        <ele>1114.1</ele>
        <time>2015-06-28T06:48:39Z</time>
      </trkpt>
      <trkpt lat="46.57444" lon="6.06714">
        <ele>1114.4</ele>
        <time>2015-06-28T06:48:43Z</time>
      </trkpt>
      <trkpt lat="46.57438" lon="6.06703">
        <ele>1114.7</ele>
        <time>2015-06-28T06:48:46Z</time>
      </trkpt>
      <trkpt lat="46.57428" lon="6.06695">
        <ele>1114.8</ele>
        <time>2015-06-28T06:48:49Z</time>
      </trkpt>
      <trkpt lat="46.57418" lon="6.06692">
        <ele>1115</ele>
        <time>2015-06-28T06:48:51Z</time>
      </trkpt>
      <trkpt lat="46.57408" lon="6.06688">
        <ele>1115</ele>
        <time>2015-06-28T06:48:53Z</time>
      </trkpt>
      <trkpt lat="46.57398" lon="6.0668">
        <ele>1115</ele>
        <time>2015-06-28T06:48:54Z</time>
      </trkpt>
      <trkpt lat="46.57362" lon="6.06654">
        <ele>1114</ele>
        <time>2015-06-28T06:48:59Z</time>
      </trkpt>
      <trkpt lat="46.57349" lon="6.06643">
        <ele>1113.9</ele>
        <time>2015-06-28T06:49:04Z</time>
      </trkpt>
      <trkpt lat="46.57335" lon="6.06639">
        <ele>1113.6</ele>
        <time>2015-06-28T06:49:07Z</time>
      </trkpt>
      <trkpt lat="46.57325" lon="6.06635">
        <ele>1113.4</ele>
        <time>2015-06-28T06:49:09Z</time>
      </trkpt>
      <trkpt lat="46.57314" lon="6.0663">
        <ele>1113.2</ele>
        <time>2015-06-28T06:49:12Z</time>
      </trkpt>
      <trkpt lat="46.57304" lon="6.06627">
        <ele>1113.1</ele>
        <time>2015-06-28T06:49:15Z</time>
      </trkpt>
      <trkpt lat="46.57293" lon="6.06625">
        <ele>1113</ele>
        <time>2015-06-28T06:49:19Z</time>
      </trkpt>
      <trkpt lat="46.57282" lon="6.06629">
        <ele>1113</ele>
        <time>2015-06-28T06:49:23Z</time>
      </trkpt>
      <trkpt lat="46.57271" lon="6.06637">
        <ele>1113.1</ele>
        <time>2015-06-28T06:49:26Z</time>
      </trkpt>
      <trkpt lat="46.57262" lon="6.06644">
        <ele>1113.1</ele>
        <time>2015-06-28T06:49:28Z</time>
      </trkpt>
      <trkpt lat="46.57252" lon="6.0665">
        <ele>1113</ele>
        <time>2015-06-28T06:49:30Z</time>
      </trkpt>
      <trkpt lat="46.57242" lon="6.06657">
        <ele>1113</ele>
        <time>2015-06-28T06:49:32Z</time>
      </trkpt>
      <trkpt lat="46.57232" lon="6.06664">
        <ele>1112.9</ele>
        <time>2015-06-28T06:49:34Z</time>
      </trkpt>
      <trkpt lat="46.57223" lon="6.06671">
        <ele>1112.6</ele>
        <time>2015-06-28T06:49:37Z</time>
      </trkpt>
      <trkpt lat="46.57214" lon="6.06677">
        <ele>1111.7</ele>
        <time>2015-06-28T06:49:41Z</time>
      </trkpt>
      <trkpt lat="46.57206" lon="6.06684">
        <ele>1110.1</ele>
        <time>2015-06-28T06:49:48Z</time>
      </trkpt>
      <trkpt lat="46.57195" lon="6.06691">
        <ele>1109</ele>
        <time>2015-06-28T06:49:53Z</time>
      </trkpt>
      <trkpt lat="46.57185" lon="6.06699">
        <ele>1108.3</ele>
        <time>2015-06-28T06:49:57Z</time>
      </trkpt>
      <trkpt lat="46.57177" lon="6.06706">
        <ele>1107.9</ele>
        <time>2015-06-28T06:50:02Z</time>
      </trkpt>
      <trkpt lat="46.57168" lon="6.0671">
        <ele>1107.6</ele>
        <time>2015-06-28T06:50:08Z</time>
      </trkpt>
      <trkpt lat="46.57157" lon="6.06714">
        <ele>1107.6</ele>
        <time>2015-06-28T06:50:12Z</time>
      </trkpt>
      <trkpt lat="46.57148" lon="6.06715">
        <ele>1107.7</ele>
        <time>2015-06-28T06:50:16Z</time>
      </trkpt>
      <trkpt lat="46.57139" lon="6.0671">
        <ele>1107.9</ele>
        <time>2015-06-28T06:50:23Z</time>
      </trkpt>
      <trkpt lat="46.57128" lon="6.06703">
        <ele>1108.3</ele>
        <time>2015-06-28T06:50:28Z</time>
      </trkpt>
      <trkpt lat="46.57117" lon="6.06698">
        <ele>1108.6</ele>
        <time>2015-06-28T06:50:31Z</time>
      </trkpt>
      <trkpt lat="46.57107" lon="6.06694">
        <ele>1108.9</ele>
        <time>2015-06-28T06:50:35Z</time>
      </trkpt>
      <trkpt lat="46.57097" lon="6.06693">
        <ele>1109.2</ele>
        <time>2015-06-28T06:50:39Z</time>
      </trkpt>
      <trkpt lat="46.57085" lon="6.06691">
        <ele>1109.4</ele>
        <time>2015-06-28T06:50:43Z</time>
      </trkpt>
      <trkpt lat="46.57075" lon="6.0669">
        <ele>1109.5</ele>
        <time>2015-06-28T06:50:46Z</time>
      </trkpt>
      <trkpt lat="46.57066" lon="6.06691">
        <ele>1109.6</ele>
        <time>2015-06-28T06:50:49Z</time>
      </trkpt>
      <trkpt lat="46.57056" lon="6.06688">
        <ele>1109.7</ele>
        <time>2015-06-28T06:50:54Z</time>
      </trkpt>
      <trkpt lat="46.57043" lon="6.06683">
        <ele>1109.8</ele>
        <time>2015-06-28T06:50:58Z</time>
      </trkpt>
      <trkpt lat="46.57033" lon="6.06683">
        <ele>1109.8</ele>
        <time>2015-06-28T06:51:00Z</time>
      </trkpt>
      <trkpt lat="46.57023" lon="6.06684">
        <ele>1109.8</ele>
        <time>2015-06-28T06:51:03Z</time>
      </trkpt>
      <trkpt lat="46.57012" lon="6.06682">
        <ele>1109.8</ele>
        <time>2015-06-28T06:51:06Z</time>
      </trkpt>
      <trkpt lat="46.57002" lon="6.06684">
        <ele>1109.8</ele>
        <time>2015-06-28T06:51:10Z</time>
      </trkpt>
      <trkpt lat="46.56993" lon="6.06686">
        <ele>1109.8</ele>
        <time>2015-06-28T06:51:14Z</time>
      </trkpt>
      <trkpt lat="46.56982" lon="6.0669">
        <ele>1109.8</ele>
        <time>2015-06-28T06:51:17Z</time>
      </trkpt>
      <trkpt lat="46.56972" lon="6.06697">
        <ele>1109.8</ele>
        <time>2015-06-28T06:51:21Z</time>
      </trkpt>
      <trkpt lat="46.56962" lon="6.06698">
        <ele>1109.8</ele>
        <time>2015-06-28T06:51:25Z</time>
      </trkpt>
      <trkpt lat="46.5695" lon="6.06702">
        <ele>1109.8</ele>
        <time>2015-06-28T06:51:29Z</time>
      </trkpt>
      <trkpt lat="46.56941" lon="6.0671">
        <ele>1109.6</ele>
        <time>2015-06-28T06:51:36Z</time>
      </trkpt>
      <trkpt lat="46.56931" lon="6.06721">
        <ele>1109.4</ele>
        <time>2015-06-28T06:51:39Z</time>
      </trkpt>
      <trkpt lat="46.56922" lon="6.0673">
        <ele>1109.3</ele>
        <time>2015-06-28T06:51:42Z</time>
      </trkpt>
      <trkpt lat="46.56914" lon="6.0674">
        <ele>1108.9</ele>
        <time>2015-06-28T06:51:47Z</time>
      </trkpt>
      <trkpt lat="46.56907" lon="6.06751">
        <ele>1108.8</ele>
        <time>2015-06-28T06:51:50Z</time>
      </trkpt>
      <trkpt lat="46.56899" lon="6.06763">
        <ele>1108.6</ele>
        <time>2015-06-28T06:51:53Z</time>
      </trkpt>
      <trkpt lat="46.56892" lon="6.06774">
        <ele>1108.6</ele>
        <time>2015-06-28T06:51:56Z</time>
      </trkpt>
      <trkpt lat="46.56884" lon="6.06784">
        <ele>1108.6</ele>
        <time>2015-06-28T06:52:00Z</time>
      </trkpt>
      <trkpt lat="46.56874" lon="6.06794">
        <ele>1108.7</ele>
        <time>2015-06-28T06:52:04Z</time>
      </trkpt>
      <trkpt lat="46.56867" lon="6.06801">
        <ele>1108.8</ele>
        <time>2015-06-28T06:52:07Z</time>
      </trkpt>
      <trkpt lat="46.56857" lon="6.0681">
        <ele>1108.9</ele>
        <time>2015-06-28T06:52:10Z</time>
      </trkpt>
      <trkpt lat="46.56847" lon="6.06823">
        <ele>1108.9</ele>
        <time>2015-06-28T06:52:13Z</time>
      </trkpt>
      <trkpt lat="46.5684" lon="6.06836">
        <ele>1109</ele>
        <time>2015-06-28T06:52:16Z</time>
      </trkpt>
      <trkpt lat="46.56829" lon="6.06836">
        <ele>1108.5</ele>
        <time>2015-06-28T06:52:20Z</time>
      </trkpt>
      <trkpt lat="46.56821" lon="6.0682">
        <ele>1107.6</ele>
        <time>2015-06-28T06:52:23Z</time>
      </trkpt>
      <trkpt lat="46.56814" lon="6.06811">
        <ele>1107</ele>
        <time>2015-06-28T06:52:25Z</time>
      </trkpt>
      <trkpt lat="46.56806" lon="6.06802">
        <ele>1106.5</ele>
        <time>2015-06-28T06:52:27Z</time>
      </trkpt>
      <trkpt lat="46.56794" lon="6.06795">
        <ele>1105.9</ele>
        <time>2015-06-28T06:52:30Z</time>
      </trkpt>
      <trkpt lat="46.56785" lon="6.06787">
        <ele>1105</ele>
        <time>2015-06-28T06:52:33Z</time>
      </trkpt>
      <trkpt lat="46.56775" lon="6.06786">
        <ele>1103.5</ele>
        <time>2015-06-28T06:52:37Z</time>
      </trkpt>
      <trkpt lat="46.56769" lon="6.068">
        <ele>1101.9</ele>
        <time>2015-06-28T06:52:41Z</time>
      </trkpt>
      <trkpt lat="46.56761" lon="6.0681">
        <ele>1100.4</ele>
        <time>2015-06-28T06:52:45Z</time>
      </trkpt>
      <trkpt lat="46.56752" lon="6.06813">
        <ele>1099.2</ele>
        <time>2015-06-28T06:52:49Z</time>
      </trkpt>
      <trkpt lat="46.5674" lon="6.06817">
        <ele>1098.2</ele>
        <time>2015-06-28T06:52:53Z</time>
      </trkpt>
      <trkpt lat="46.56729" lon="6.06823">
        <ele>1097.3</ele>
        <time>2015-06-28T06:52:57Z</time>
      </trkpt>
      <trkpt lat="46.5672" lon="6.06829">
        <ele>1096.7</ele>
        <time>2015-06-28T06:53:00Z</time>
      </trkpt>
      <trkpt lat="46.56709" lon="6.06835">
        <ele>1096.3</ele>
        <time>2015-06-28T06:53:03Z</time>
      </trkpt>
      <trkpt lat="46.56697" lon="6.0684">
        <ele>1095.9</ele>
        <time>2015-06-28T06:53:06Z</time>
      </trkpt>
      <trkpt lat="46.56687" lon="6.06844">
        <ele>1095.6</ele>
        <time>2015-06-28T06:53:09Z</time>
      </trkpt>
      <trkpt lat="46.56677" lon="6.06848">
        <ele>1095.4</ele>
        <time>2015-06-28T06:53:12Z</time>
      </trkpt>
      <trkpt lat="46.56667" lon="6.06851">
        <ele>1095.2</ele>
        <time>2015-06-28T06:53:15Z</time>
      </trkpt>
      <trkpt lat="46.56657" lon="6.06851">
        <ele>1095</ele>
        <time>2015-06-28T06:53:18Z</time>
      </trkpt>
      <trkpt lat="46.56646" lon="6.06851">
        <ele>1094.8</ele>
        <time>2015-06-28T06:53:21Z</time>
      </trkpt>
      <trkpt lat="46.56636" lon="6.06847">
        <ele>1094.7</ele>
        <time>2015-06-28T06:53:24Z</time>
      </trkpt>
      <trkpt lat="46.56628" lon="6.06842">
        <ele>1094.6</ele>
        <time>2015-06-28T06:53:27Z</time>
      </trkpt>
      <trkpt lat="46.56618" lon="6.0684">
        <ele>1094.6</ele>
        <time>2015-06-28T06:53:30Z</time>
      </trkpt>
      <trkpt lat="46.56608" lon="6.06839">
        <ele>1094.7</ele>
        <time>2015-06-28T06:53:34Z</time>
      </trkpt>
      <trkpt lat="46.56598" lon="6.06843">
        <ele>1094.8</ele>
        <time>2015-06-28T06:53:39Z</time>
      </trkpt>
      <trkpt lat="46.56591" lon="6.06854">
        <ele>1094.7</ele>
        <time>2015-06-28T06:53:43Z</time>
      </trkpt>
      <trkpt lat="46.56582" lon="6.06861">
        <ele>1094.6</ele>
        <time>2015-06-28T06:53:48Z</time>
      </trkpt>
      <trkpt lat="46.56573" lon="6.06867">
        <ele>1094.6</ele>
        <time>2015-06-28T06:53:53Z</time>
      </trkpt>
      <trkpt lat="46.56559" lon="6.06872">
        <ele>1094.5</ele>
        <time>2015-06-28T06:53:57Z</time>
      </trkpt>
      <trkpt lat="46.56546" lon="6.06883">
        <ele>1094.5</ele>
        <time>2015-06-28T06:53:59Z</time>
      </trkpt>
      <trkpt lat="46.5654" lon="6.06893">
        <ele>1094.5</ele>
        <time>2015-06-28T06:54:01Z</time>
      </trkpt>
      <trkpt lat="46.56526" lon="6.06906">
        <ele>1094.5</ele>
        <time>2015-06-28T06:54:04Z</time>
      </trkpt>
      <trkpt lat="46.56517" lon="6.06914">
        <ele>1094.5</ele>
        <time>2015-06-28T06:54:06Z</time>
      </trkpt>
      <trkpt lat="46.56509" lon="6.06927">
        <ele>1094.5</ele>
        <time>2015-06-28T06:54:09Z</time>
      </trkpt>
      <trkpt lat="46.5651" lon="6.06942">
        <ele>1094.5</ele>
        <time>2015-06-28T06:54:12Z</time>
      </trkpt>
      <trkpt lat="46.56517" lon="6.06955">
        <ele>1094.5</ele>
        <time>2015-06-28T06:54:15Z</time>
      </trkpt>
      <trkpt lat="46.56526" lon="6.06968">
        <ele>1094.5</ele>
        <time>2015-06-28T06:54:18Z</time>
      </trkpt>
      <trkpt lat="46.56534" lon="6.06979">
        <ele>1094.4</ele>
        <time>2015-06-28T06:54:21Z</time>
      </trkpt>
      <trkpt lat="46.56543" lon="6.0699">
        <ele>1094.5</ele>
        <time>2015-06-28T06:54:24Z</time>
      </trkpt>
      <trkpt lat="46.56552" lon="6.07002">
        <ele>1094.6</ele>
        <time>2015-06-28T06:54:27Z</time>
      </trkpt>
      <trkpt lat="46.56562" lon="6.07015">
        <ele>1094.7</ele>
        <time>2015-06-28T06:54:30Z</time>
      </trkpt>
      <trkpt lat="46.56568" lon="6.07024">
        <ele>1094.8</ele>
        <time>2015-06-28T06:54:32Z</time>
      </trkpt>
      <trkpt lat="46.56575" lon="6.07034">
        <ele>1094.8</ele>
        <time>2015-06-28T06:54:34Z</time>
      </trkpt>
      <trkpt lat="46.56582" lon="6.07044">
        <ele>1094.9</ele>
        <time>2015-06-28T06:54:36Z</time>
      </trkpt>
      <trkpt lat="46.5659" lon="6.07055">
        <ele>1094.7</ele>
        <time>2015-06-28T06:54:38Z</time>
      </trkpt>
      <trkpt lat="46.56596" lon="6.07065">
        <ele>1094.7</ele>
        <time>2015-06-28T06:54:40Z</time>
      </trkpt>
      <trkpt lat="46.56603" lon="6.07075">
        <ele>1094.7</ele>
        <time>2015-06-28T06:54:42Z</time>
      </trkpt>
      <trkpt lat="46.5661" lon="6.07086">
        <ele>1094.8</ele>
        <time>2015-06-28T06:54:44Z</time>
      </trkpt>
      <trkpt lat="46.56617" lon="6.07097">
        <ele>1094.8</ele>
        <time>2015-06-28T06:54:46Z</time>
      </trkpt>
      <trkpt lat="46.56623" lon="6.07108">
        <ele>1094.8</ele>
        <time>2015-06-28T06:54:48Z</time>
      </trkpt>
      <trkpt lat="46.5663" lon="6.07118">
        <ele>1094.9</ele>
        <time>2015-06-28T06:54:50Z</time>
      </trkpt>
      <trkpt lat="46.56636" lon="6.07128">
        <ele>1094.9</ele>
        <time>2015-06-28T06:54:52Z</time>
      </trkpt>
      <trkpt lat="46.56642" lon="6.07138">
        <ele>1094.9</ele>
        <time>2015-06-28T06:54:54Z</time>
      </trkpt>
      <trkpt lat="46.56652" lon="6.07152">
        <ele>1094.9</ele>
        <time>2015-06-28T06:54:57Z</time>
      </trkpt>
      <trkpt lat="46.56661" lon="6.07163">
        <ele>1095</ele>
        <time>2015-06-28T06:55:00Z</time>
      </trkpt>
      <trkpt lat="46.5667" lon="6.07173">
        <ele>1095</ele>
        <time>2015-06-28T06:55:03Z</time>
      </trkpt>
      <trkpt lat="46.56679" lon="6.07182">
        <ele>1095.1</ele>
        <time>2015-06-28T06:55:06Z</time>
      </trkpt>
      <trkpt lat="46.56687" lon="6.07191">
        <ele>1095.2</ele>
        <time>2015-06-28T06:55:09Z</time>
      </trkpt>
      <trkpt lat="46.56694" lon="6.07199">
        <ele>1095.3</ele>
        <time>2015-06-28T06:55:12Z</time>
      </trkpt>
      <trkpt lat="46.56702" lon="6.07207">
        <ele>1095.5</ele>
        <time>2015-06-28T06:55:15Z</time>
      </trkpt>
      <trkpt lat="46.56709" lon="6.07214">
        <ele>1095.7</ele>
        <time>2015-06-28T06:55:18Z</time>
      </trkpt>
      <trkpt lat="46.56717" lon="6.07222">
        <ele>1095.9</ele>
        <time>2015-06-28T06:55:21Z</time>
      </trkpt>
      <trkpt lat="46.56724" lon="6.07232">
        <ele>1096.5</ele>
        <time>2015-06-28T06:55:25Z</time>
      </trkpt>
      <trkpt lat="46.56727" lon="6.07245">
        <ele>1097</ele>
        <time>2015-06-28T06:55:29Z</time>
      </trkpt>
      <trkpt lat="46.56724" lon="6.07258">
        <ele>1097.7</ele>
        <time>2015-06-28T06:55:33Z</time>
      </trkpt>
      <trkpt lat="46.56719" lon="6.07271">
        <ele>1098.5</ele>
        <time>2015-06-28T06:55:37Z</time>
      </trkpt>
      <trkpt lat="46.56716" lon="6.07285">
        <ele>1099.3</ele>
        <time>2015-06-28T06:55:41Z</time>
      </trkpt>
      <trkpt lat="46.56713" lon="6.07298">
        <ele>1100.1</ele>
        <time>2015-06-28T06:55:45Z</time>
      </trkpt>
      <trkpt lat="46.5671" lon="6.07312">
        <ele>1101.3</ele>
        <time>2015-06-28T06:55:50Z</time>
      </trkpt>
      <trkpt lat="46.56708" lon="6.07325">
        <ele>1102.3</ele>
        <time>2015-06-28T06:55:55Z</time>
      </trkpt>
      <trkpt lat="46.56706" lon="6.0734">
        <ele>1103.3</ele>
        <time>2015-06-28T06:56:00Z</time>
      </trkpt>
      <trkpt lat="46.56705" lon="6.07355">
        <ele>1104.1</ele>
        <time>2015-06-28T06:56:05Z</time>
      </trkpt>
      <trkpt lat="46.56704" lon="6.0737">
        <ele>1104.9</ele>
        <time>2015-06-28T06:56:10Z</time>
      </trkpt>
      <trkpt lat="46.56704" lon="6.07383">
        <ele>1105.7</ele>
        <time>2015-06-28T06:56:15Z</time>
      </trkpt>
      <trkpt lat="46.56704" lon="6.07397">
        <ele>1106.2</ele>
        <time>2015-06-28T06:56:20Z</time>
      </trkpt>
      <trkpt lat="46.56706" lon="6.07412">
        <ele>1106.8</ele>
        <time>2015-06-28T06:56:25Z</time>
      </trkpt>
      <trkpt lat="46.56708" lon="6.07426">
        <ele>1107.4</ele>
        <time>2015-06-28T06:56:30Z</time>
      </trkpt>
      <trkpt lat="46.56711" lon="6.0744">
        <ele>1108.2</ele>
        <time>2015-06-28T06:56:35Z</time>
      </trkpt>
      <trkpt lat="46.56715" lon="6.07454">
        <ele>1108.9</ele>
        <time>2015-06-28T06:56:40Z</time>
      </trkpt>
      <trkpt lat="46.56719" lon="6.07465">
        <ele>1109.7</ele>
        <time>2015-06-28T06:56:45Z</time>
      </trkpt>
      <trkpt lat="46.56726" lon="6.07474">
        <ele>1110.3</ele>
        <time>2015-06-28T06:56:49Z</time>
      </trkpt>
      <trkpt lat="46.56735" lon="6.07484">
        <ele>1111.1</ele>
        <time>2015-06-28T06:56:54Z</time>
      </trkpt>
      <trkpt lat="46.56742" lon="6.07495">
        <ele>1111.9</ele>
        <time>2015-06-28T06:56:59Z</time>
      </trkpt>
      <trkpt lat="46.56749" lon="6.07504">
        <ele>1112.4</ele>
        <time>2015-06-28T06:57:03Z</time>
      </trkpt>
      <trkpt lat="46.56756" lon="6.07514">
        <ele>1112.9</ele>
        <time>2015-06-28T06:57:07Z</time>
      </trkpt>
      <trkpt lat="46.56764" lon="6.07525">
        <ele>1113.6</ele>
        <time>2015-06-28T06:57:12Z</time>
      </trkpt>
      <trkpt lat="46.56772" lon="6.07533">
        <ele>1114.3</ele>
        <time>2015-06-28T06:57:16Z</time>
      </trkpt>
      <trkpt lat="46.5678" lon="6.07545">
        <ele>1114.9</ele>
        <time>2015-06-28T06:57:20Z</time>
      </trkpt>
      <trkpt lat="46.56787" lon="6.07555">
        <ele>1115.4</ele>
        <time>2015-06-28T06:57:25Z</time>
      </trkpt>
      <trkpt lat="46.56793" lon="6.07565">
        <ele>1115.7</ele>
        <time>2015-06-28T06:57:29Z</time>
      </trkpt>
      <trkpt lat="46.568" lon="6.07573">
        <ele>1116</ele>
        <time>2015-06-28T06:57:32Z</time>
      </trkpt>
      <trkpt lat="46.56808" lon="6.07581">
        <ele>1116.2</ele>
        <time>2015-06-28T06:57:35Z</time>
      </trkpt>
      <trkpt lat="46.56816" lon="6.07589">
        <ele>1116.4</ele>
        <time>2015-06-28T06:57:38Z</time>
      </trkpt>
      <trkpt lat="46.56827" lon="6.07599">
        <ele>1116.6</ele>
        <time>2015-06-28T06:57:41Z</time>
      </trkpt>
      <trkpt lat="46.56834" lon="6.07607">
        <ele>1116.7</ele>
        <time>2015-06-28T06:57:43Z</time>
      </trkpt>
      <trkpt lat="46.56846" lon="6.07613">
        <ele>1116.9</ele>
        <time>2015-06-28T06:57:46Z</time>
      </trkpt>
      <trkpt lat="46.56856" lon="6.07618">
        <ele>1117.1</ele>
        <time>2015-06-28T06:57:50Z</time>
      </trkpt>
      <trkpt lat="46.56866" lon="6.07623">
        <ele>1117.4</ele>
        <time>2015-06-28T06:57:54Z</time>
      </trkpt>
      <trkpt lat="46.56875" lon="6.07629">
        <ele>1117.6</ele>
        <time>2015-06-28T06:57:58Z</time>
      </trkpt>
      <trkpt lat="46.56886" lon="6.07631">
        <ele>1117.8</ele>
        <time>2015-06-28T06:58:01Z</time>
      </trkpt>
      <trkpt lat="46.56895" lon="6.07637">
        <ele>1118.1</ele>
        <time>2015-06-28T06:58:05Z</time>
      </trkpt>
      <trkpt lat="46.56904" lon="6.07643">
        <ele>1118.2</ele>
        <time>2015-06-28T06:58:08Z</time>
      </trkpt>
      <trkpt lat="46.56912" lon="6.07649">
        <ele>1118.3</ele>
        <time>2015-06-28T06:58:11Z</time>
      </trkpt>
      <trkpt lat="46.56922" lon="6.07662">
        <ele>1118.3</ele>
        <time>2015-06-28T06:58:14Z</time>
      </trkpt>
      <trkpt lat="46.5693" lon="6.07668">
        <ele>1118.4</ele>
        <time>2015-06-28T06:58:16Z</time>
      </trkpt>
      <trkpt lat="46.56941" lon="6.07676">
        <ele>1118.4</ele>
        <time>2015-06-28T06:58:19Z</time>
      </trkpt>
      <trkpt lat="46.5695" lon="6.0768">
        <ele>1118.2</ele>
        <time>2015-06-28T06:58:21Z</time>
      </trkpt>
      <trkpt lat="46.5696" lon="6.07686">
        <ele>1118.1</ele>
        <time>2015-06-28T06:58:24Z</time>
      </trkpt>
      <trkpt lat="46.56969" lon="6.07691">
        <ele>1118</ele>
        <time>2015-06-28T06:58:27Z</time>
      </trkpt>
      <trkpt lat="46.56982" lon="6.07698">
        <ele>1117.9</ele>
        <time>2015-06-28T06:58:30Z</time>
      </trkpt>
      <trkpt lat="46.56991" lon="6.077">
        <ele>1117.8</ele>
        <time>2015-06-28T06:58:32Z</time>
      </trkpt>
      <trkpt lat="46.57002" lon="6.07703">
        <ele>1117.7</ele>
        <time>2015-06-28T06:58:35Z</time>
      </trkpt>
      <trkpt lat="46.57011" lon="6.07711">
        <ele>1117.8</ele>
        <time>2015-06-28T06:58:39Z</time>
      </trkpt>
      <trkpt lat="46.57018" lon="6.07719">
        <ele>1117.9</ele>
        <time>2015-06-28T06:58:42Z</time>
      </trkpt>
      <trkpt lat="46.57028" lon="6.07727">
        <ele>1118</ele>
        <time>2015-06-28T06:58:45Z</time>
      </trkpt>
      <trkpt lat="46.57036" lon="6.07734">
        <ele>1118</ele>
        <time>2015-06-28T06:58:48Z</time>
      </trkpt>
      <trkpt lat="46.57044" lon="6.07742">
        <ele>1118.1</ele>
        <time>2015-06-28T06:58:51Z</time>
      </trkpt>
      <trkpt lat="46.57053" lon="6.0775">
        <ele>1118.2</ele>
        <time>2015-06-28T06:58:54Z</time>
      </trkpt>
      <trkpt lat="46.57062" lon="6.07759">
        <ele>1118.3</ele>
        <time>2015-06-28T06:58:57Z</time>
      </trkpt>
      <trkpt lat="46.57071" lon="6.07767">
        <ele>1118.4</ele>
        <time>2015-06-28T06:59:00Z</time>
      </trkpt>
      <trkpt lat="46.57075" lon="6.07779">
        <ele>1118.4</ele>
        <time>2015-06-28T06:59:03Z</time>
      </trkpt>
      <trkpt lat="46.57083" lon="6.07791">
        <ele>1118.5</ele>
        <time>2015-06-28T06:59:06Z</time>
      </trkpt>
      <trkpt lat="46.5709" lon="6.07804">
        <ele>1118.5</ele>
        <time>2015-06-28T06:59:09Z</time>
      </trkpt>
      <trkpt lat="46.57092" lon="6.07817">
        <ele>1118.3</ele>
        <time>2015-06-28T06:59:14Z</time>
      </trkpt>
      <trkpt lat="46.57083" lon="6.07813">
        <ele>1117.4</ele>
        <time>2015-06-28T06:59:20Z</time>
      </trkpt>
      <trkpt lat="46.57074" lon="6.07808">
        <ele>1116.2</ele>
        <time>2015-06-28T06:59:24Z</time>
      </trkpt>
      <trkpt lat="46.57066" lon="6.07802">
        <ele>1114.9</ele>
        <time>2015-06-28T06:59:27Z</time>
      </trkpt>
      <trkpt lat="46.57055" lon="6.07797">
        <ele>1113</ele>
        <time>2015-06-28T06:59:31Z</time>
      </trkpt>
      <trkpt lat="46.57045" lon="6.07789">
        <ele>1111.6</ele>
        <time>2015-06-28T06:59:34Z</time>
      </trkpt>
      <trkpt lat="46.57033" lon="6.07782">
        <ele>1110.3</ele>
        <time>2015-06-28T06:59:37Z</time>
      </trkpt>
      <trkpt lat="46.57023" lon="6.0778">
        <ele>1109.6</ele>
        <time>2015-06-28T06:59:39Z</time>
      </trkpt>
      <trkpt lat="46.57013" lon="6.07776">
        <ele>1108.9</ele>
        <time>2015-06-28T06:59:41Z</time>
      </trkpt>
      <trkpt lat="46.57003" lon="6.07772">
        <ele>1108.2</ele>
        <time>2015-06-28T06:59:43Z</time>
      </trkpt>
      <trkpt lat="46.56989" lon="6.07765">
        <ele>1107.6</ele>
        <time>2015-06-28T06:59:45Z</time>
      </trkpt>
      <trkpt lat="46.56976" lon="6.07759">
        <ele>1107.1</ele>
        <time>2015-06-28T06:59:47Z</time>
      </trkpt>
      <trkpt lat="46.56966" lon="6.07756">
        <ele>1106.6</ele>
        <time>2015-06-28T06:59:49Z</time>
      </trkpt>
      <trkpt lat="46.56956" lon="6.07752">
        <ele>1106.2</ele>
        <time>2015-06-28T06:59:51Z</time>
      </trkpt>
      <trkpt lat="46.56946" lon="6.07747">
        <ele>1105.8</ele>
        <time>2015-06-28T06:59:53Z</time>
      </trkpt>
      <trkpt lat="46.56938" lon="6.07741">
        <ele>1105.5</ele>
        <time>2015-06-28T06:59:55Z</time>
      </trkpt>
      <trkpt lat="46.56928" lon="6.07735">
        <ele>1105.1</ele>
        <time>2015-06-28T06:59:57Z</time>
      </trkpt>
      <trkpt lat="46.56919" lon="6.07728">
        <ele>1104.7</ele>
        <time>2015-06-28T06:59:59Z</time>
      </trkpt>
      <trkpt lat="46.56907" lon="6.07722">
        <ele>1104.2</ele>
        <time>2015-06-28T07:00:01Z</time>
      </trkpt>
      <trkpt lat="46.56895" lon="6.07717">
        <ele>1103.8</ele>
        <time>2015-06-28T07:00:03Z</time>
      </trkpt>
      <trkpt lat="46.56881" lon="6.07717">
        <ele>1103.5</ele>
        <time>2015-06-28T07:00:05Z</time>
      </trkpt>
      <trkpt lat="46.56867" lon="6.07721">
        <ele>1103.2</ele>
        <time>2015-06-28T07:00:07Z</time>
      </trkpt>
      <trkpt lat="46.56853" lon="6.07731">
        <ele>1102.9</ele>
        <time>2015-06-28T07:00:09Z</time>
      </trkpt>
      <trkpt lat="46.5684" lon="6.07743">
        <ele>1102.5</ele>
        <time>2015-06-28T07:00:11Z</time>
      </trkpt>
      <trkpt lat="46.5683" lon="6.07755">
        <ele>1102.1</ele>
        <time>2015-06-28T07:00:13Z</time>
      </trkpt>
      <trkpt lat="46.56821" lon="6.07767">
        <ele>1101.8</ele>
        <time>2015-06-28T07:00:15Z</time>
      </trkpt>
      <trkpt lat="46.5681" lon="6.07781">
        <ele>1101.5</ele>
        <time>2015-06-28T07:00:17Z</time>
      </trkpt>
      <trkpt lat="46.56801" lon="6.07792">
        <ele>1101.3</ele>
        <time>2015-06-28T07:00:19Z</time>
      </trkpt>
      <trkpt lat="46.56793" lon="6.07802">
        <ele>1101</ele>
        <time>2015-06-28T07:00:21Z</time>
      </trkpt>
      <trkpt lat="46.56786" lon="6.07813">
        <ele>1100.8</ele>
        <time>2015-06-28T07:00:23Z</time>
      </trkpt>
      <trkpt lat="46.56778" lon="6.07825">
        <ele>1100.6</ele>
        <time>2015-06-28T07:00:25Z</time>
      </trkpt>
      <trkpt lat="46.56771" lon="6.07837">
        <ele>1100.5</ele>
        <time>2015-06-28T07:00:27Z</time>
      </trkpt>
      <trkpt lat="46.56763" lon="6.07849">
        <ele>1100.3</ele>
        <time>2015-06-28T07:00:29Z</time>
      </trkpt>
      <trkpt lat="46.56755" lon="6.0786">
        <ele>1100.1</ele>
        <time>2015-06-28T07:00:31Z</time>
      </trkpt>
      <trkpt lat="46.56748" lon="6.07871">
        <ele>1099.9</ele>
        <time>2015-06-28T07:00:33Z</time>
      </trkpt>
      <trkpt lat="46.56739" lon="6.07883">
        <ele>1099.7</ele>
        <time>2015-06-28T07:00:35Z</time>
      </trkpt>
      <trkpt lat="46.56731" lon="6.07894">
        <ele>1099.5</ele>
        <time>2015-06-28T07:00:37Z</time>
      </trkpt>
      <trkpt lat="46.56724" lon="6.07905">
        <ele>1099.3</ele>
        <time>2015-06-28T07:00:39Z</time>
      </trkpt>
      <trkpt lat="46.56717" lon="6.07917">
        <ele>1099.1</ele>
        <time>2015-06-28T07:00:41Z</time>
      </trkpt>
      <trkpt lat="46.5671" lon="6.07928">
        <ele>1098.9</ele>
        <time>2015-06-28T07:00:43Z</time>
      </trkpt>
      <trkpt lat="46.56702" lon="6.07938">
        <ele>1098.8</ele>
        <time>2015-06-28T07:00:45Z</time>
      </trkpt>
      <trkpt lat="46.56695" lon="6.07948">
        <ele>1098.6</ele>
        <time>2015-06-28T07:00:47Z</time>
      </trkpt>
      <trkpt lat="46.56696" lon="6.07967">
        <ele>1098.4</ele>
        <time>2015-06-28T07:00:50Z</time>
      </trkpt>
      <trkpt lat="46.56703" lon="6.07981">
        <ele>1098.1</ele>
        <time>2015-06-28T07:00:52Z</time>
      </trkpt>
      <trkpt lat="46.56711" lon="6.07994">
        <ele>1097.8</ele>
        <time>2015-06-28T07:00:54Z</time>
      </trkpt>
      <trkpt lat="46.56719" lon="6.08007">
        <ele>1097.6</ele>
        <time>2015-06-28T07:00:56Z</time>
      </trkpt>
      <trkpt lat="46.56726" lon="6.08023">
        <ele>1097.3</ele>
        <time>2015-06-28T07:00:58Z</time>
      </trkpt>
      <trkpt lat="46.56731" lon="6.08041">
        <ele>1097.1</ele>
        <time>2015-06-28T07:01:00Z</time>
      </trkpt>
      <trkpt lat="46.56733" lon="6.08062">
        <ele>1096.8</ele>
        <time>2015-06-28T07:01:02Z</time>
      </trkpt>
      <trkpt lat="46.56731" lon="6.08082">
        <ele>1096.5</ele>
        <time>2015-06-28T07:01:04Z</time>
      </trkpt>
      <trkpt lat="46.56727" lon="6.08103">
        <ele>1096.2</ele>
        <time>2015-06-28T07:01:06Z</time>
      </trkpt>
      <trkpt lat="46.5672" lon="6.08122">
        <ele>1095.9</ele>
        <time>2015-06-28T07:01:08Z</time>
      </trkpt>
      <trkpt lat="46.56713" lon="6.08139">
        <ele>1095.4</ele>
        <time>2015-06-28T07:01:10Z</time>
      </trkpt>
      <trkpt lat="46.56705" lon="6.08153">
        <ele>1095</ele>
        <time>2015-06-28T07:01:12Z</time>
      </trkpt>
      <trkpt lat="46.56699" lon="6.08165">
        <ele>1094.6</ele>
        <time>2015-06-28T07:01:14Z</time>
      </trkpt>
      <trkpt lat="46.56694" lon="6.08177">
        <ele>1094.3</ele>
        <time>2015-06-28T07:01:16Z</time>
      </trkpt>
      <trkpt lat="46.5669" lon="6.08189">
        <ele>1094</ele>
        <time>2015-06-28T07:01:18Z</time>
      </trkpt>
      <trkpt lat="46.56685" lon="6.08206">
        <ele>1093.8</ele>
        <time>2015-06-28T07:01:21Z</time>
      </trkpt>
      <trkpt lat="46.56681" lon="6.08222">
        <ele>1093.7</ele>
        <time>2015-06-28T07:01:24Z</time>
      </trkpt>
      <trkpt lat="46.56677" lon="6.08238">
        <ele>1093.6</ele>
        <time>2015-06-28T07:01:27Z</time>
      </trkpt>
      <trkpt lat="46.56672" lon="6.08253">
        <ele>1093.5</ele>
        <time>2015-06-28T07:01:30Z</time>
      </trkpt>
      <trkpt lat="46.56667" lon="6.08269">
        <ele>1093.5</ele>
        <time>2015-06-28T07:01:33Z</time>
      </trkpt>
      <trkpt lat="46.56662" lon="6.08283">
        <ele>1093.7</ele>
        <time>2015-06-28T07:01:36Z</time>
      </trkpt>
      <trkpt lat="46.56657" lon="6.08297">
        <ele>1093.8</ele>
        <time>2015-06-28T07:01:39Z</time>
      </trkpt>
      <trkpt lat="46.56651" lon="6.0831">
        <ele>1094</ele>
        <time>2015-06-28T07:01:42Z</time>
      </trkpt>
      <trkpt lat="46.56646" lon="6.08323">
        <ele>1094.2</ele>
        <time>2015-06-28T07:01:45Z</time>
      </trkpt>
      <trkpt lat="46.5664" lon="6.08335">
        <ele>1094.5</ele>
        <time>2015-06-28T07:01:48Z</time>
      </trkpt>
      <trkpt lat="46.56635" lon="6.08348">
        <ele>1094.8</ele>
        <time>2015-06-28T07:01:51Z</time>
      </trkpt>
      <trkpt lat="46.5663" lon="6.0836">
        <ele>1095.1</ele>
        <time>2015-06-28T07:01:54Z</time>
      </trkpt>
      <trkpt lat="46.56624" lon="6.08372">
        <ele>1095.6</ele>
        <time>2015-06-28T07:01:57Z</time>
      </trkpt>
      <trkpt lat="46.56619" lon="6.08385">
        <ele>1096.1</ele>
        <time>2015-06-28T07:02:00Z</time>
      </trkpt>
      <trkpt lat="46.56615" lon="6.08398">
        <ele>1096.5</ele>
        <time>2015-06-28T07:02:03Z</time>
      </trkpt>
      <trkpt lat="46.5661" lon="6.08412">
        <ele>1096.9</ele>
        <time>2015-06-28T07:02:06Z</time>
      </trkpt>
      <trkpt lat="46.56607" lon="6.08426">
        <ele>1097.2</ele>
        <time>2015-06-28T07:02:09Z</time>
      </trkpt>
      <trkpt lat="46.56604" lon="6.0844">
        <ele>1097.5</ele>
        <time>2015-06-28T07:02:12Z</time>
      </trkpt>
      <trkpt lat="46.56603" lon="6.08454">
        <ele>1097.9</ele>
        <time>2015-06-28T07:02:15Z</time>
      </trkpt>
      <trkpt lat="46.56604" lon="6.08469">
        <ele>1098.1</ele>
        <time>2015-06-28T07:02:18Z</time>
      </trkpt>
      <trkpt lat="46.56605" lon="6.08488">
        <ele>1098.3</ele>
        <time>2015-06-28T07:02:21Z</time>
      </trkpt>
      <trkpt lat="46.56607" lon="6.08502">
        <ele>1098.6</ele>
        <time>2015-06-28T07:02:23Z</time>
      </trkpt>
      <trkpt lat="46.56609" lon="6.08517">
        <ele>1098.7</ele>
        <time>2015-06-28T07:02:25Z</time>
      </trkpt>
      <trkpt lat="46.56613" lon="6.08532">
        <ele>1098.9</ele>
        <time>2015-06-28T07:02:27Z</time>
      </trkpt>
      <trkpt lat="46.56618" lon="6.08547">
        <ele>1099</ele>
        <time>2015-06-28T07:02:29Z</time>
      </trkpt>
      <trkpt lat="46.56624" lon="6.08561">
        <ele>1099.1</ele>
        <time>2015-06-28T07:02:31Z</time>
      </trkpt>
      <trkpt lat="46.56629" lon="6.08575">
        <ele>1099.1</ele>
        <time>2015-06-28T07:02:33Z</time>
      </trkpt>
      <trkpt lat="46.56635" lon="6.08589">
        <ele>1099</ele>
        <time>2015-06-28T07:02:35Z</time>
      </trkpt>
      <trkpt lat="46.56642" lon="6.08603">
        <ele>1098.9</ele>
        <time>2015-06-28T07:02:37Z</time>
      </trkpt>
      <trkpt lat="46.56648" lon="6.08618">
        <ele>1098.8</ele>
        <time>2015-06-28T07:02:39Z</time>
      </trkpt>
      <trkpt lat="46.56654" lon="6.08633">
        <ele>1098.6</ele>
        <time>2015-06-28T07:02:41Z</time>
      </trkpt>
      <trkpt lat="46.5666" lon="6.08648">
        <ele>1098.4</ele>
        <time>2015-06-28T07:02:43Z</time>
      </trkpt>
      <trkpt lat="46.56665" lon="6.08663">
        <ele>1098.2</ele>
        <time>2015-06-28T07:02:45Z</time>
      </trkpt>
      <trkpt lat="46.5667" lon="6.08677">
        <ele>1098.1</ele>
        <time>2015-06-28T07:02:47Z</time>
      </trkpt>
      <trkpt lat="46.56676" lon="6.0869">
        <ele>1098</ele>
        <time>2015-06-28T07:02:49Z</time>
      </trkpt>
      <trkpt lat="46.56681" lon="6.08702">
        <ele>1097.9</ele>
        <time>2015-06-28T07:02:51Z</time>
      </trkpt>
      <trkpt lat="46.56686" lon="6.08713">
        <ele>1097.9</ele>
        <time>2015-06-28T07:02:53Z</time>
      </trkpt>
      <trkpt lat="46.5669" lon="6.08726">
        <ele>1097.8</ele>
        <time>2015-06-28T07:02:55Z</time>
      </trkpt>
      <trkpt lat="46.56695" lon="6.08739">
        <ele>1097.7</ele>
        <time>2015-06-28T07:02:57Z</time>
      </trkpt>
      <trkpt lat="46.567" lon="6.0875">
        <ele>1097.7</ele>
        <time>2015-06-28T07:02:59Z</time>
      </trkpt>
      <trkpt lat="46.56704" lon="6.08762">
        <ele>1097.6</ele>
        <time>2015-06-28T07:03:01Z</time>
      </trkpt>
      <trkpt lat="46.56709" lon="6.08778">
        <ele>1097.6</ele>
        <time>2015-06-28T07:03:04Z</time>
      </trkpt>
      <trkpt lat="46.56714" lon="6.08793">
        <ele>1097.5</ele>
        <time>2015-06-28T07:03:07Z</time>
      </trkpt>
      <trkpt lat="46.56719" lon="6.08808">
        <ele>1097.5</ele>
        <time>2015-06-28T07:03:10Z</time>
      </trkpt>
      <trkpt lat="46.56724" lon="6.08822">
        <ele>1097.6</ele>
        <time>2015-06-28T07:03:13Z</time>
      </trkpt>
      <trkpt lat="46.56729" lon="6.08836">
        <ele>1097.7</ele>
        <time>2015-06-28T07:03:16Z</time>
      </trkpt>
      <trkpt lat="46.56733" lon="6.0885">
        <ele>1097.8</ele>
        <time>2015-06-28T07:03:19Z</time>
      </trkpt>
      <trkpt lat="46.56739" lon="6.08864">
        <ele>1098</ele>
        <time>2015-06-28T07:03:22Z</time>
      </trkpt>
      <trkpt lat="46.56744" lon="6.08878">
        <ele>1098.2</ele>
        <time>2015-06-28T07:03:25Z</time>
      </trkpt>
      <trkpt lat="46.56748" lon="6.08892">
        <ele>1098.5</ele>
        <time>2015-06-28T07:03:28Z</time>
      </trkpt>
      <trkpt lat="46.56754" lon="6.08904">
        <ele>1098.8</ele>
        <time>2015-06-28T07:03:31Z</time>
      </trkpt>
      <trkpt lat="46.56761" lon="6.08914">
        <ele>1099.2</ele>
        <time>2015-06-28T07:03:34Z</time>
      </trkpt>
      <trkpt lat="46.56768" lon="6.08923">
        <ele>1099.6</ele>
        <time>2015-06-28T07:03:37Z</time>
      </trkpt>
      <trkpt lat="46.56777" lon="6.0893">
        <ele>1099.9</ele>
        <time>2015-06-28T07:03:40Z</time>
      </trkpt>
      <trkpt lat="46.56786" lon="6.08938">
        <ele>1100.2</ele>
        <time>2015-06-28T07:03:43Z</time>
      </trkpt>
      <trkpt lat="46.56793" lon="6.08949">
        <ele>1100.6</ele>
        <time>2015-06-28T07:03:46Z</time>
      </trkpt>
      <trkpt lat="46.56798" lon="6.08962">
        <ele>1100.9</ele>
        <time>2015-06-28T07:03:49Z</time>
      </trkpt>
      <trkpt lat="46.56803" lon="6.08976">
        <ele>1101.1</ele>
        <time>2015-06-28T07:03:52Z</time>
      </trkpt>
      <trkpt lat="46.56809" lon="6.08991">
        <ele>1101.4</ele>
        <time>2015-06-28T07:03:55Z</time>
      </trkpt>
      <trkpt lat="46.56814" lon="6.09005">
        <ele>1101.7</ele>
        <time>2015-06-28T07:03:58Z</time>
      </trkpt>
      <trkpt lat="46.56819" lon="6.09021">
        <ele>1102</ele>
        <time>2015-06-28T07:04:01Z</time>
      </trkpt>
      <trkpt lat="46.56825" lon="6.09036">
        <ele>1102.2</ele>
        <time>2015-06-28T07:04:04Z</time>
      </trkpt>
      <trkpt lat="46.56831" lon="6.0905">
        <ele>1102.4</ele>
        <time>2015-06-28T07:04:07Z</time>
      </trkpt>
      <trkpt lat="46.56837" lon="6.09065">
        <ele>1102.6</ele>
        <time>2015-06-28T07:04:10Z</time>
      </trkpt>
      <trkpt lat="46.56843" lon="6.09079">
        <ele>1102.7</ele>
        <time>2015-06-28T07:04:13Z</time>
      </trkpt>
      <trkpt lat="46.56849" lon="6.09094">
        <ele>1102.9</ele>
        <time>2015-06-28T07:04:16Z</time>
      </trkpt>
      <trkpt lat="46.56854" lon="6.09107">
        <ele>1103</ele>
        <time>2015-06-28T07:04:19Z</time>
      </trkpt>
      <trkpt lat="46.56862" lon="6.0912">
        <ele>1103.2</ele>
        <time>2015-06-28T07:04:22Z</time>
      </trkpt>
      <trkpt lat="46.56868" lon="6.09131">
        <ele>1103.3</ele>
        <time>2015-06-28T07:04:24Z</time>
      </trkpt>
      <trkpt lat="46.56875" lon="6.09143">
        <ele>1103.5</ele>
        <time>2015-06-28T07:04:26Z</time>
      </trkpt>
      <trkpt lat="46.56884" lon="6.09155">
        <ele>1103.7</ele>
        <time>2015-06-28T07:04:28Z</time>
      </trkpt>
      <trkpt lat="46.56893" lon="6.09168">
        <ele>1103.8</ele>
        <time>2015-06-28T07:04:30Z</time>
      </trkpt>
      <trkpt lat="46.56901" lon="6.09181">
        <ele>1103.7</ele>
        <time>2015-06-28T07:04:32Z</time>
      </trkpt>
      <trkpt lat="46.56912" lon="6.09193">
        <ele>1103.7</ele>
        <time>2015-06-28T07:04:34Z</time>
      </trkpt>
      <trkpt lat="46.56921" lon="6.09201">
        <ele>1103.7</ele>
        <time>2015-06-28T07:04:36Z</time>
      </trkpt>
      <trkpt lat="46.56933" lon="6.09207">
        <ele>1103.7</ele>
        <time>2015-06-28T07:04:38Z</time>
      </trkpt>
      <trkpt lat="46.56944" lon="6.09212">
        <ele>1103.6</ele>
        <time>2015-06-28T07:04:40Z</time>
      </trkpt>
      <trkpt lat="46.56953" lon="6.09215">
        <ele>1103.4</ele>
        <time>2015-06-28T07:04:42Z</time>
      </trkpt>
      <trkpt lat="46.56966" lon="6.0922">
        <ele>1103.1</ele>
        <time>2015-06-28T07:04:45Z</time>
      </trkpt>
      <trkpt lat="46.56975" lon="6.09224">
        <ele>1103</ele>
        <time>2015-06-28T07:04:47Z</time>
      </trkpt>
      <trkpt lat="46.56983" lon="6.09229">
        <ele>1102.8</ele>
        <time>2015-06-28T07:04:49Z</time>
      </trkpt>
      <trkpt lat="46.56992" lon="6.09235">
        <ele>1102.6</ele>
        <time>2015-06-28T07:04:51Z</time>
      </trkpt>
      <trkpt lat="46.57003" lon="6.09244">
        <ele>1102.5</ele>
        <time>2015-06-28T07:04:53Z</time>
      </trkpt>
      <trkpt lat="46.57015" lon="6.09253">
        <ele>1102.3</ele>
        <time>2015-06-28T07:04:55Z</time>
      </trkpt>
      <trkpt lat="46.57027" lon="6.09268">
        <ele>1102.1</ele>
        <time>2015-06-28T07:04:57Z</time>
      </trkpt>
      <trkpt lat="46.57033" lon="6.09284">
        <ele>1101.8</ele>
        <time>2015-06-28T07:04:59Z</time>
      </trkpt>
      <trkpt lat="46.57041" lon="6.09297">
        <ele>1101.4</ele>
        <time>2015-06-28T07:05:01Z</time>
      </trkpt>
      <trkpt lat="46.5705" lon="6.09307">
        <ele>1101</ele>
        <time>2015-06-28T07:05:03Z</time>
      </trkpt>
      <trkpt lat="46.57059" lon="6.09318">
        <ele>1100.7</ele>
        <time>2015-06-28T07:05:05Z</time>
      </trkpt>
      <trkpt lat="46.57066" lon="6.09329">
        <ele>1100.4</ele>
        <time>2015-06-28T07:05:07Z</time>
      </trkpt>
      <trkpt lat="46.57076" lon="6.0934">
        <ele>1100.1</ele>
        <time>2015-06-28T07:05:09Z</time>
      </trkpt>
      <trkpt lat="46.57083" lon="6.0935">
        <ele>1099.8</ele>
        <time>2015-06-28T07:05:11Z</time>
      </trkpt>
      <trkpt lat="46.57091" lon="6.0936">
        <ele>1099.6</ele>
        <time>2015-06-28T07:05:13Z</time>
      </trkpt>
      <trkpt lat="46.57098" lon="6.09369">
        <ele>1099.5</ele>
        <time>2015-06-28T07:05:15Z</time>
      </trkpt>
      <trkpt lat="46.57107" lon="6.0938">
        <ele>1099.4</ele>
        <time>2015-06-28T07:05:18Z</time>
      </trkpt>
      <trkpt lat="46.57116" lon="6.0939">
        <ele>1099.4</ele>
        <time>2015-06-28T07:05:21Z</time>
      </trkpt>
      <trkpt lat="46.57124" lon="6.094">
        <ele>1099.4</ele>
        <time>2015-06-28T07:05:24Z</time>
      </trkpt>
      <trkpt lat="46.57132" lon="6.09409">
        <ele>1099.4</ele>
        <time>2015-06-28T07:05:27Z</time>
      </trkpt>
      <trkpt lat="46.57141" lon="6.09419">
        <ele>1099.5</ele>
        <time>2015-06-28T07:05:30Z</time>
      </trkpt>
      <trkpt lat="46.5715" lon="6.09428">
        <ele>1099.6</ele>
        <time>2015-06-28T07:05:33Z</time>
      </trkpt>
      <trkpt lat="46.57157" lon="6.09436">
        <ele>1099.8</ele>
        <time>2015-06-28T07:05:36Z</time>
      </trkpt>
      <trkpt lat="46.57165" lon="6.09444">
        <ele>1100.1</ele>
        <time>2015-06-28T07:05:40Z</time>
      </trkpt>
      <trkpt lat="46.57175" lon="6.0945">
        <ele>1100.6</ele>
        <time>2015-06-28T07:05:45Z</time>
      </trkpt>
      <trkpt lat="46.57183" lon="6.09458">
        <ele>1101.4</ele>
        <time>2015-06-28T07:05:51Z</time>
      </trkpt>
      <trkpt lat="46.57192" lon="6.09466">
        <ele>1102.4</ele>
        <time>2015-06-28T07:05:57Z</time>
      </trkpt>
      <trkpt lat="46.57199" lon="6.09476">
        <ele>1103.4</ele>
        <time>2015-06-28T07:06:03Z</time>
      </trkpt>
      <trkpt lat="46.57205" lon="6.09486">
        <ele>1104.5</ele>
        <time>2015-06-28T07:06:09Z</time>
      </trkpt>
      <trkpt lat="46.5721" lon="6.09499">
        <ele>1105.5</ele>
        <time>2015-06-28T07:06:15Z</time>
      </trkpt>
      <trkpt lat="46.57215" lon="6.09513">
        <ele>1106.4</ele>
        <time>2015-06-28T07:06:20Z</time>
      </trkpt>
      <trkpt lat="46.5722" lon="6.09526">
        <ele>1107.2</ele>
        <time>2015-06-28T07:06:24Z</time>
      </trkpt>
      <trkpt lat="46.57225" lon="6.09542">
        <ele>1107.9</ele>
        <time>2015-06-28T07:06:28Z</time>
      </trkpt>
      <trkpt lat="46.5723" lon="6.09555">
        <ele>1108.4</ele>
        <time>2015-06-28T07:06:32Z</time>
      </trkpt>
      <trkpt lat="46.57235" lon="6.09565">
        <ele>1108.9</ele>
        <time>2015-06-28T07:06:36Z</time>
      </trkpt>
      <trkpt lat="46.57242" lon="6.09575">
        <ele>1109.6</ele>
        <time>2015-06-28T07:06:41Z</time>
      </trkpt>
      <trkpt lat="46.57248" lon="6.09588">
        <ele>1110.2</ele>
        <time>2015-06-28T07:06:46Z</time>
      </trkpt>
      <trkpt lat="46.57253" lon="6.09599">
        <ele>1110.6</ele>
        <time>2015-06-28T07:06:50Z</time>
      </trkpt>
      <trkpt lat="46.57259" lon="6.09612">
        <ele>1111</ele>
        <time>2015-06-28T07:06:54Z</time>
      </trkpt>
      <trkpt lat="46.57264" lon="6.09622">
        <ele>1111.4</ele>
        <time>2015-06-28T07:06:58Z</time>
      </trkpt>
      <trkpt lat="46.57268" lon="6.09635">
        <ele>1111.6</ele>
        <time>2015-06-28T07:07:01Z</time>
      </trkpt>
      <trkpt lat="46.57273" lon="6.09651">
        <ele>1112</ele>
        <time>2015-06-28T07:07:05Z</time>
      </trkpt>
      <trkpt lat="46.57277" lon="6.09663">
        <ele>1112.2</ele>
        <time>2015-06-28T07:07:08Z</time>
      </trkpt>
      <trkpt lat="46.57282" lon="6.09675">
        <ele>1112.5</ele>
        <time>2015-06-28T07:07:11Z</time>
      </trkpt>
      <trkpt lat="46.57288" lon="6.09687">
        <ele>1112.8</ele>
        <time>2015-06-28T07:07:14Z</time>
      </trkpt>
      <trkpt lat="46.57291" lon="6.09701">
        <ele>1113</ele>
        <time>2015-06-28T07:07:17Z</time>
      </trkpt>
      <trkpt lat="46.57294" lon="6.09714">
        <ele>1113.1</ele>
        <time>2015-06-28T07:07:20Z</time>
      </trkpt>
      <trkpt lat="46.57297" lon="6.09727">
        <ele>1113.4</ele>
        <time>2015-06-28T07:07:23Z</time>
      </trkpt>
      <trkpt lat="46.57304" lon="6.09741">
        <ele>1113.8</ele>
        <time>2015-06-28T07:07:27Z</time>
      </trkpt>
      <trkpt lat="46.57312" lon="6.0975">
        <ele>1114.1</ele>
        <time>2015-06-28T07:07:30Z</time>
      </trkpt>
      <trkpt lat="46.57325" lon="6.09754">
        <ele>1114.4</ele>
        <time>2015-06-28T07:07:33Z</time>
      </trkpt>
      <trkpt lat="46.57335" lon="6.09759">
        <ele>1114.7</ele>
        <time>2015-06-28T07:07:36Z</time>
      </trkpt>
      <trkpt lat="46.57344" lon="6.09763">
        <ele>1114.9</ele>
        <time>2015-06-28T07:07:39Z</time>
      </trkpt>
      <trkpt lat="46.57355" lon="6.09764">
        <ele>1115</ele>
        <time>2015-06-28T07:07:42Z</time>
      </trkpt>
      <trkpt lat="46.57365" lon="6.09765">
        <ele>1115.2</ele>
        <time>2015-06-28T07:07:45Z</time>
      </trkpt>
      <trkpt lat="46.57376" lon="6.09766">
        <ele>1115.3</ele>
        <time>2015-06-28T07:07:48Z</time>
      </trkpt>
      <trkpt lat="46.57385" lon="6.09768">
        <ele>1115.5</ele>
        <time>2015-06-28T07:07:51Z</time>
      </trkpt>
      <trkpt lat="46.57396" lon="6.09772">
        <ele>1115.8</ele>
        <time>2015-06-28T07:07:55Z</time>
      </trkpt>
      <trkpt lat="46.57408" lon="6.09777">
        <ele>1116.2</ele>
        <time>2015-06-28T07:07:59Z</time>
      </trkpt>
      <trkpt lat="46.57417" lon="6.09781">
        <ele>1116.6</ele>
        <time>2015-06-28T07:08:03Z</time>
      </trkpt>
      <trkpt lat="46.57427" lon="6.09786">
        <ele>1117</ele>
        <time>2015-06-28T07:08:08Z</time>
      </trkpt>
      <trkpt lat="46.57437" lon="6.0979">
        <ele>1117.6</ele>
        <time>2015-06-28T07:08:12Z</time>
      </trkpt>
      <trkpt lat="46.57447" lon="6.09794">
        <ele>1118.2</ele>
        <time>2015-06-28T07:08:16Z</time>
      </trkpt>
      <trkpt lat="46.57457" lon="6.09799">
        <ele>1118.7</ele>
        <time>2015-06-28T07:08:21Z</time>
      </trkpt>
      <trkpt lat="46.57467" lon="6.09806">
        <ele>1119.2</ele>
        <time>2015-06-28T07:08:26Z</time>
      </trkpt>
      <trkpt lat="46.57474" lon="6.09816">
        <ele>1119.8</ele>
        <time>2015-06-28T07:08:31Z</time>
      </trkpt>
      <trkpt lat="46.57478" lon="6.09831">
        <ele>1120.4</ele>
        <time>2015-06-28T07:08:36Z</time>
      </trkpt>
      <trkpt lat="46.57478" lon="6.09847">
        <ele>1121</ele>
        <time>2015-06-28T07:08:40Z</time>
      </trkpt>
      <trkpt lat="46.57477" lon="6.0986">
        <ele>1121.5</ele>
        <time>2015-06-28T07:08:44Z</time>
      </trkpt>
      <trkpt lat="46.57476" lon="6.09875">
        <ele>1122</ele>
        <time>2015-06-28T07:08:48Z</time>
      </trkpt>
      <trkpt lat="46.57477" lon="6.09892">
        <ele>1122.3</ele>
        <time>2015-06-28T07:08:52Z</time>
      </trkpt>
      <trkpt lat="46.5748" lon="6.09905">
        <ele>1122.5</ele>
        <time>2015-06-28T07:08:55Z</time>
      </trkpt>
      <trkpt lat="46.57484" lon="6.0992">
        <ele>1122.7</ele>
        <time>2015-06-28T07:08:58Z</time>
      </trkpt>
      <trkpt lat="46.57488" lon="6.09931">
        <ele>1122.9</ele>
        <time>2015-06-28T07:09:01Z</time>
      </trkpt>
      <trkpt lat="46.57492" lon="6.09944">
        <ele>1123.2</ele>
        <time>2015-06-28T07:09:04Z</time>
      </trkpt>
      <trkpt lat="46.57496" lon="6.09955">
        <ele>1123.4</ele>
        <time>2015-06-28T07:09:07Z</time>
      </trkpt>
      <trkpt lat="46.57501" lon="6.0997">
        <ele>1123.8</ele>
        <time>2015-06-28T07:09:11Z</time>
      </trkpt>
      <trkpt lat="46.57505" lon="6.09985">
        <ele>1124.2</ele>
        <time>2015-06-28T07:09:15Z</time>
      </trkpt>
      <trkpt lat="46.57509" lon="6.09999">
        <ele>1124.6</ele>
        <time>2015-06-28T07:09:18Z</time>
      </trkpt>
      <trkpt lat="46.57512" lon="6.10012">
        <ele>1125.1</ele>
        <time>2015-06-28T07:09:21Z</time>
      </trkpt>
      <trkpt lat="46.57516" lon="6.10025">
        <ele>1125.5</ele>
        <time>2015-06-28T07:09:24Z</time>
      </trkpt>
      <trkpt lat="46.57519" lon="6.10041">
        <ele>1126</ele>
        <time>2015-06-28T07:09:28Z</time>
      </trkpt>
      <trkpt lat="46.57522" lon="6.10055">
        <ele>1126.5</ele>
        <time>2015-06-28T07:09:31Z</time>
      </trkpt>
      <trkpt lat="46.57522" lon="6.10068">
        <ele>1127</ele>
        <time>2015-06-28T07:09:34Z</time>
      </trkpt>
      <trkpt lat="46.57516" lon="6.10082">
        <ele>1127.7</ele>
        <time>2015-06-28T07:09:38Z</time>
      </trkpt>
      <trkpt lat="46.57514" lon="6.10099">
        <ele>1128.2</ele>
        <time>2015-06-28T07:09:41Z</time>
      </trkpt>
      <trkpt lat="46.57512" lon="6.10113">
        <ele>1128.7</ele>
        <time>2015-06-28T07:09:44Z</time>
      </trkpt>
      <trkpt lat="46.57513" lon="6.10128">
        <ele>1129.1</ele>
        <time>2015-06-28T07:09:47Z</time>
      </trkpt>
      <trkpt lat="46.57516" lon="6.10143">
        <ele>1129.4</ele>
        <time>2015-06-28T07:09:50Z</time>
      </trkpt>
      <trkpt lat="46.57521" lon="6.10156">
        <ele>1129.8</ele>
        <time>2015-06-28T07:09:53Z</time>
      </trkpt>
      <trkpt lat="46.57525" lon="6.1017">
        <ele>1130.3</ele>
        <time>2015-06-28T07:09:57Z</time>
      </trkpt>
      <trkpt lat="46.57529" lon="6.10186">
        <ele>1130.8</ele>
        <time>2015-06-28T07:10:01Z</time>
      </trkpt>
      <trkpt lat="46.5753" lon="6.102">
        <ele>1131.1</ele>
        <time>2015-06-28T07:10:04Z</time>
      </trkpt>
      <trkpt lat="46.57531" lon="6.10215">
        <ele>1131.6</ele>
        <time>2015-06-28T07:10:07Z</time>
      </trkpt>
      <trkpt lat="46.57533" lon="6.10232">
        <ele>1131.9</ele>
        <time>2015-06-28T07:10:10Z</time>
      </trkpt>
      <trkpt lat="46.57536" lon="6.10246">
        <ele>1132.1</ele>
        <time>2015-06-28T07:10:12Z</time>
      </trkpt>
      <trkpt lat="46.57542" lon="6.10261">
        <ele>1132.3</ele>
        <time>2015-06-28T07:10:14Z</time>
      </trkpt>
      <trkpt lat="46.5755" lon="6.10274">
        <ele>1132.5</ele>
        <time>2015-06-28T07:10:16Z</time>
      </trkpt>
      <trkpt lat="46.5756" lon="6.10287">
        <ele>1132.6</ele>
        <time>2015-06-28T07:10:18Z</time>
      </trkpt>
      <trkpt lat="46.57571" lon="6.10297">
        <ele>1132.7</ele>
        <time>2015-06-28T07:10:20Z</time>
      </trkpt>
      <trkpt lat="46.57583" lon="6.10308">
        <ele>1132.7</ele>
        <time>2015-06-28T07:10:22Z</time>
      </trkpt>
      <trkpt lat="46.57593" lon="6.10317">
        <ele>1132.7</ele>
        <time>2015-06-28T07:10:24Z</time>
      </trkpt>
      <trkpt lat="46.57603" lon="6.10324">
        <ele>1132.6</ele>
        <time>2015-06-28T07:10:26Z</time>
      </trkpt>
      <trkpt lat="46.57614" lon="6.10333">
        <ele>1132.5</ele>
        <time>2015-06-28T07:10:29Z</time>
      </trkpt>
      <trkpt lat="46.57622" lon="6.1034">
        <ele>1132.5</ele>
        <time>2015-06-28T07:10:32Z</time>
      </trkpt>
      <trkpt lat="46.57632" lon="6.10345">
        <ele>1132.6</ele>
        <time>2015-06-28T07:10:35Z</time>
      </trkpt>
      <trkpt lat="46.57641" lon="6.10352">
        <ele>1132.7</ele>
        <time>2015-06-28T07:10:38Z</time>
      </trkpt>
      <trkpt lat="46.57651" lon="6.10362">
        <ele>1132.8</ele>
        <time>2015-06-28T07:10:41Z</time>
      </trkpt>
      <trkpt lat="46.57659" lon="6.10373">
        <ele>1133.2</ele>
        <time>2015-06-28T07:10:44Z</time>
      </trkpt>
      <trkpt lat="46.57666" lon="6.10385">
        <ele>1133.6</ele>
        <time>2015-06-28T07:10:47Z</time>
      </trkpt>
      <trkpt lat="46.57674" lon="6.10395">
        <ele>1133.9</ele>
        <time>2015-06-28T07:10:50Z</time>
      </trkpt>
      <trkpt lat="46.57682" lon="6.10405">
        <ele>1134.3</ele>
        <time>2015-06-28T07:10:53Z</time>
      </trkpt>
      <trkpt lat="46.57691" lon="6.10417">
        <ele>1134.6</ele>
        <time>2015-06-28T07:10:56Z</time>
      </trkpt>
      <trkpt lat="46.57697" lon="6.10426">
        <ele>1134.8</ele>
        <time>2015-06-28T07:10:58Z</time>
      </trkpt>
      <trkpt lat="46.57703" lon="6.10437">
        <ele>1135</ele>
        <time>2015-06-28T07:11:00Z</time>
      </trkpt>
      <trkpt lat="46.57709" lon="6.10448">
        <ele>1135.2</ele>
        <time>2015-06-28T07:11:02Z</time>
      </trkpt>
      <trkpt lat="46.57716" lon="6.10459">
        <ele>1135.4</ele>
        <time>2015-06-28T07:11:04Z</time>
      </trkpt>
      <trkpt lat="46.57724" lon="6.10472">
        <ele>1135.5</ele>
        <time>2015-06-28T07:11:06Z</time>
      </trkpt>
      <trkpt lat="46.57731" lon="6.10484">
        <ele>1135.6</ele>
        <time>2015-06-28T07:11:08Z</time>
      </trkpt>
      <trkpt lat="46.57738" lon="6.10495">
        <ele>1135.7</ele>
        <time>2015-06-28T07:11:10Z</time>
      </trkpt>
      <trkpt lat="46.57746" lon="6.10507">
        <ele>1135.8</ele>
        <time>2015-06-28T07:11:12Z</time>
      </trkpt>
      <trkpt lat="46.57755" lon="6.10519">
        <ele>1135.9</ele>
        <time>2015-06-28T07:11:14Z</time>
      </trkpt>
      <trkpt lat="46.57764" lon="6.10532">
        <ele>1136</ele>
        <time>2015-06-28T07:11:16Z</time>
      </trkpt>
      <trkpt lat="46.57774" lon="6.10545">
        <ele>1136</ele>
        <time>2015-06-28T07:11:18Z</time>
      </trkpt>
      <trkpt lat="46.57785" lon="6.1056">
        <ele>1135.9</ele>
        <time>2015-06-28T07:11:20Z</time>
      </trkpt>
      <trkpt lat="46.57799" lon="6.10572">
        <ele>1135.8</ele>
        <time>2015-06-28T07:11:22Z</time>
      </trkpt>
      <trkpt lat="46.57815" lon="6.1058">
        <ele>1135.6</ele>
        <time>2015-06-28T07:11:24Z</time>
      </trkpt>
      <trkpt lat="46.57832" lon="6.10586">
        <ele>1135.4</ele>
        <time>2015-06-28T07:11:26Z</time>
      </trkpt>
      <trkpt lat="46.5785" lon="6.1059">
        <ele>1135.1</ele>
        <time>2015-06-28T07:11:28Z</time>
      </trkpt>
      <trkpt lat="46.57867" lon="6.10589">
        <ele>1134.7</ele>
        <time>2015-06-28T07:11:30Z</time>
      </trkpt>
      <trkpt lat="46.57883" lon="6.10582">
        <ele>1134.2</ele>
        <time>2015-06-28T07:11:32Z</time>
      </trkpt>
      <trkpt lat="46.57892" lon="6.10576">
        <ele>1134</ele>
        <time>2015-06-28T07:11:33Z</time>
      </trkpt>
      <trkpt lat="46.57901" lon="6.1057">
        <ele>1133.8</ele>
        <time>2015-06-28T07:11:34Z</time>
      </trkpt>
      <trkpt lat="46.57909" lon="6.10566">
        <ele>1133.5</ele>
        <time>2015-06-28T07:11:35Z</time>
      </trkpt>
      <trkpt lat="46.57927" lon="6.10563">
        <ele>1133</ele>
        <time>2015-06-28T07:11:37Z</time>
      </trkpt>
      <trkpt lat="46.57937" lon="6.10563">
        <ele>1132.8</ele>
        <time>2015-06-28T07:11:38Z</time>
      </trkpt>
      <trkpt lat="46.57946" lon="6.10562">
        <ele>1132.5</ele>
        <time>2015-06-28T07:11:39Z</time>
      </trkpt>
      <trkpt lat="46.57956" lon="6.10562">
        <ele>1132.2</ele>
        <time>2015-06-28T07:11:40Z</time>
      </trkpt>
      <trkpt lat="46.57968" lon="6.1056">
        <ele>1132</ele>
        <time>2015-06-28T07:11:41Z</time>
      </trkpt>
      <trkpt lat="46.5798" lon="6.10558">
        <ele>1131.7</ele>
        <time>2015-06-28T07:11:42Z</time>
      </trkpt>
      <trkpt lat="46.57992" lon="6.10558">
        <ele>1131.4</ele>
        <time>2015-06-28T07:11:43Z</time>
      </trkpt>
      <trkpt lat="46.58004" lon="6.10558">
        <ele>1131</ele>
        <time>2015-06-28T07:11:44Z</time>
      </trkpt>
      <trkpt lat="46.58015" lon="6.10559">
        <ele>1130.6</ele>
        <time>2015-06-28T07:11:45Z</time>
      </trkpt>
      <trkpt lat="46.58027" lon="6.10561">
        <ele>1130.2</ele>
        <time>2015-06-28T07:11:46Z</time>
      </trkpt>
      <trkpt lat="46.58038" lon="6.10563">
        <ele>1129.8</ele>
        <time>2015-06-28T07:11:47Z</time>
      </trkpt>
      <trkpt lat="46.58048" lon="6.10565">
        <ele>1129.5</ele>
        <time>2015-06-28T07:11:48Z</time>
      </trkpt>
      <trkpt lat="46.58058" lon="6.10569">
        <ele>1129.1</ele>
        <time>2015-06-28T07:11:49Z</time>
      </trkpt>
      <trkpt lat="46.58067" lon="6.10575">
        <ele>1128.8</ele>
        <time>2015-06-28T07:11:50Z</time>
      </trkpt>
      <trkpt lat="46.58075" lon="6.10582">
        <ele>1128.5</ele>
        <time>2015-06-28T07:11:51Z</time>
      </trkpt>
      <trkpt lat="46.58082" lon="6.10591">
        <ele>1128.1</ele>
        <time>2015-06-28T07:11:52Z</time>
      </trkpt>
      <trkpt lat="46.58088" lon="6.106">
        <ele>1127.8</ele>
        <time>2015-06-28T07:11:53Z</time>
      </trkpt>
      <trkpt lat="46.58095" lon="6.10609">
        <ele>1127.5</ele>
        <time>2015-06-28T07:11:54Z</time>
      </trkpt>
      <trkpt lat="46.58107" lon="6.10623">
        <ele>1126.8</ele>
        <time>2015-06-28T07:11:56Z</time>
      </trkpt>
      <trkpt lat="46.58117" lon="6.10637">
        <ele>1126.3</ele>
        <time>2015-06-28T07:11:58Z</time>
      </trkpt>
      <trkpt lat="46.58127" lon="6.10649">
        <ele>1125.8</ele>
        <time>2015-06-28T07:12:00Z</time>
      </trkpt>
      <trkpt lat="46.58136" lon="6.10659">
        <ele>1125.5</ele>
        <time>2015-06-28T07:12:02Z</time>
      </trkpt>
      <trkpt lat="46.58144" lon="6.10669">
        <ele>1125.2</ele>
        <time>2015-06-28T07:12:04Z</time>
      </trkpt>
      <trkpt lat="46.58152" lon="6.10678">
        <ele>1124.9</ele>
        <time>2015-06-28T07:12:06Z</time>
      </trkpt>
      <trkpt lat="46.58162" lon="6.1069">
        <ele>1124.7</ele>
        <time>2015-06-28T07:12:09Z</time>
      </trkpt>
      <trkpt lat="46.58172" lon="6.10702">
        <ele>1124.7</ele>
        <time>2015-06-28T07:12:12Z</time>
      </trkpt>
      <trkpt lat="46.58183" lon="6.10712">
        <ele>1124.7</ele>
        <time>2015-06-28T07:12:15Z</time>
      </trkpt>
      <trkpt lat="46.58195" lon="6.10722">
        <ele>1124.9</ele>
        <time>2015-06-28T07:12:18Z</time>
      </trkpt>
      <trkpt lat="46.58204" lon="6.10728">
        <ele>1124.8</ele>
        <time>2015-06-28T07:12:20Z</time>
      </trkpt>
      <trkpt lat="46.58213" lon="6.10735">
        <ele>1124.7</ele>
        <time>2015-06-28T07:12:22Z</time>
      </trkpt>
      <trkpt lat="46.58224" lon="6.10742">
        <ele>1124.6</ele>
        <time>2015-06-28T07:12:24Z</time>
      </trkpt>
      <trkpt lat="46.58236" lon="6.10748">
        <ele>1124.6</ele>
        <time>2015-06-28T07:12:26Z</time>
      </trkpt>
      <trkpt lat="46.58251" lon="6.10752">
        <ele>1124.5</ele>
        <time>2015-06-28T07:12:28Z</time>
      </trkpt>
      <trkpt lat="46.58266" lon="6.1075">
        <ele>1124.6</ele>
        <time>2015-06-28T07:12:30Z</time>
      </trkpt>
      <trkpt lat="46.58281" lon="6.10746">
        <ele>1124.6</ele>
        <time>2015-06-28T07:12:32Z</time>
      </trkpt>
      <trkpt lat="46.58296" lon="6.1074">
        <ele>1124.6</ele>
        <time>2015-06-28T07:12:34Z</time>
      </trkpt>
      <trkpt lat="46.58311" lon="6.10732">
        <ele>1124.6</ele>
        <time>2015-06-28T07:12:36Z</time>
      </trkpt>
      <trkpt lat="46.58325" lon="6.10723">
        <ele>1124.7</ele>
        <time>2015-06-28T07:12:38Z</time>
      </trkpt>
      <trkpt lat="46.58339" lon="6.10714">
        <ele>1124.5</ele>
        <time>2015-06-28T07:12:40Z</time>
      </trkpt>
      <trkpt lat="46.58353" lon="6.10703">
        <ele>1124.4</ele>
        <time>2015-06-28T07:12:42Z</time>
      </trkpt>
      <trkpt lat="46.58364" lon="6.10691">
        <ele>1124.3</ele>
        <time>2015-06-28T07:12:44Z</time>
      </trkpt>
      <trkpt lat="46.58375" lon="6.10678">
        <ele>1124.2</ele>
        <time>2015-06-28T07:12:46Z</time>
      </trkpt>
      <trkpt lat="46.58384" lon="6.10664">
        <ele>1124.1</ele>
        <time>2015-06-28T07:12:48Z</time>
      </trkpt>
      <trkpt lat="46.58392" lon="6.10648">
        <ele>1124</ele>
        <time>2015-06-28T07:12:50Z</time>
      </trkpt>
      <trkpt lat="46.58398" lon="6.1063">
        <ele>1123.9</ele>
        <time>2015-06-28T07:12:52Z</time>
      </trkpt>
      <trkpt lat="46.58403" lon="6.10612">
        <ele>1123.9</ele>
        <time>2015-06-28T07:12:54Z</time>
      </trkpt>
      <trkpt lat="46.58407" lon="6.10593">
        <ele>1123.8</ele>
        <time>2015-06-28T07:12:56Z</time>
      </trkpt>
      <trkpt lat="46.58411" lon="6.10574">
        <ele>1123.7</ele>
        <time>2015-06-28T07:12:58Z</time>
      </trkpt>
      <trkpt lat="46.58414" lon="6.10552">
        <ele>1123.7</ele>
        <time>2015-06-28T07:13:00Z</time>
      </trkpt>
      <trkpt lat="46.58417" lon="6.10532">
        <ele>1123.6</ele>
        <time>2015-06-28T07:13:02Z</time>
      </trkpt>
      <trkpt lat="46.5842" lon="6.1051">
        <ele>1123.5</ele>
        <time>2015-06-28T07:13:04Z</time>
      </trkpt>
      <trkpt lat="46.58421" lon="6.10488">
        <ele>1123.5</ele>
        <time>2015-06-28T07:13:06Z</time>
      </trkpt>
      <trkpt lat="46.58422" lon="6.10465">
        <ele>1123.4</ele>
        <time>2015-06-28T07:13:08Z</time>
      </trkpt>
      <trkpt lat="46.58424" lon="6.10442">
        <ele>1123.3</ele>
        <time>2015-06-28T07:13:10Z</time>
      </trkpt>
      <trkpt lat="46.5843" lon="6.10419">
        <ele>1123.2</ele>
        <time>2015-06-28T07:13:12Z</time>
      </trkpt>
      <trkpt lat="46.5844" lon="6.104">
        <ele>1123</ele>
        <time>2015-06-28T07:13:14Z</time>
      </trkpt>
      <trkpt lat="46.58455" lon="6.10387">
        <ele>1122.8</ele>
        <time>2015-06-28T07:13:16Z</time>
      </trkpt>
      <trkpt lat="46.58469" lon="6.10378">
        <ele>1122.6</ele>
        <time>2015-06-28T07:13:18Z</time>
      </trkpt>
      <trkpt lat="46.58483" lon="6.10371">
        <ele>1122.4</ele>
        <time>2015-06-28T07:13:20Z</time>
      </trkpt>
      <trkpt lat="46.58496" lon="6.10363">
        <ele>1122.3</ele>
        <time>2015-06-28T07:13:22Z</time>
      </trkpt>
      <trkpt lat="46.58508" lon="6.10351">
        <ele>1122.1</ele>
        <time>2015-06-28T07:13:24Z</time>
      </trkpt>
      <trkpt lat="46.58519" lon="6.10336">
        <ele>1121.9</ele>
        <time>2015-06-28T07:13:26Z</time>
      </trkpt>
      <trkpt lat="46.5853" lon="6.10318">
        <ele>1121.7</ele>
        <time>2015-06-28T07:13:28Z</time>
      </trkpt>
      <trkpt lat="46.58541" lon="6.10298">
        <ele>1121.4</ele>
        <time>2015-06-28T07:13:30Z</time>
      </trkpt>
      <trkpt lat="46.58552" lon="6.10278">
        <ele>1121</ele>
        <time>2015-06-28T07:13:32Z</time>
      </trkpt>
      <trkpt lat="46.58558" lon="6.10267">
        <ele>1120.7</ele>
        <time>2015-06-28T07:13:33Z</time>
      </trkpt>
      <trkpt lat="46.58564" lon="6.10256">
        <ele>1120.5</ele>
        <time>2015-06-28T07:13:34Z</time>
      </trkpt>
      <trkpt lat="46.5857" lon="6.10246">
        <ele>1120.3</ele>
        <time>2015-06-28T07:13:35Z</time>
      </trkpt>
      <trkpt lat="46.58581" lon="6.10226">
        <ele>1119.7</ele>
        <time>2015-06-28T07:13:37Z</time>
      </trkpt>
      <trkpt lat="46.58592" lon="6.10207">
        <ele>1119.1</ele>
        <time>2015-06-28T07:13:39Z</time>
      </trkpt>
      <trkpt lat="46.58602" lon="6.10188">
        <ele>1118.6</ele>
        <time>2015-06-28T07:13:41Z</time>
      </trkpt>
      <trkpt lat="46.58612" lon="6.10172">
        <ele>1118</ele>
        <time>2015-06-28T07:13:43Z</time>
      </trkpt>
      <trkpt lat="46.58624" lon="6.10169">
        <ele>1117.2</ele>
        <time>2015-06-28T07:13:45Z</time>
      </trkpt>
      <trkpt lat="46.58632" lon="6.10183">
        <ele>1116.5</ele>
        <time>2015-06-28T07:13:47Z</time>
      </trkpt>
      <trkpt lat="46.58637" lon="6.10201">
        <ele>1115.9</ele>
        <time>2015-06-28T07:13:49Z</time>
      </trkpt>
      <trkpt lat="46.58643" lon="6.10218">
        <ele>1115.2</ele>
        <time>2015-06-28T07:13:51Z</time>
      </trkpt>
      <trkpt lat="46.58651" lon="6.10234">
        <ele>1114.6</ele>
        <time>2015-06-28T07:13:53Z</time>
      </trkpt>
      <trkpt lat="46.5866" lon="6.10249">
        <ele>1114.1</ele>
        <time>2015-06-28T07:13:55Z</time>
      </trkpt>
      <trkpt lat="46.58671" lon="6.10263">
        <ele>1113.5</ele>
        <time>2015-06-28T07:13:57Z</time>
      </trkpt>
      <trkpt lat="46.58683" lon="6.10275">
        <ele>1113</ele>
        <time>2015-06-28T07:13:59Z</time>
      </trkpt>
      <trkpt lat="46.58696" lon="6.10287">
        <ele>1112.6</ele>
        <time>2015-06-28T07:14:01Z</time>
      </trkpt>
      <trkpt lat="46.5871" lon="6.103">
        <ele>1112.1</ele>
        <time>2015-06-28T07:14:03Z</time>
      </trkpt>
      <trkpt lat="46.58725" lon="6.10313">
        <ele>1111.7</ele>
        <time>2015-06-28T07:14:05Z</time>
      </trkpt>
      <trkpt lat="46.5874" lon="6.10326">
        <ele>1111.2</ele>
        <time>2015-06-28T07:14:07Z</time>
      </trkpt>
      <trkpt lat="46.58755" lon="6.1034">
        <ele>1110.7</ele>
        <time>2015-06-28T07:14:09Z</time>
      </trkpt>
      <trkpt lat="46.58763" lon="6.10346">
        <ele>1110.5</ele>
        <time>2015-06-28T07:14:10Z</time>
      </trkpt>
      <trkpt lat="46.58771" lon="6.10353">
        <ele>1110.2</ele>
        <time>2015-06-28T07:14:11Z</time>
      </trkpt>
      <trkpt lat="46.5878" lon="6.1036">
        <ele>1110</ele>
        <time>2015-06-28T07:14:12Z</time>
      </trkpt>
      <trkpt lat="46.58789" lon="6.10367">
        <ele>1109.8</ele>
        <time>2015-06-28T07:14:13Z</time>
      </trkpt>
      <trkpt lat="46.58798" lon="6.10373">
        <ele>1109.5</ele>
        <time>2015-06-28T07:14:14Z</time>
      </trkpt>
      <trkpt lat="46.58808" lon="6.10379">
        <ele>1109.2</ele>
        <time>2015-06-28T07:14:15Z</time>
      </trkpt>
      <trkpt lat="46.58817" lon="6.10385">
        <ele>1108.9</ele>
        <time>2015-06-28T07:14:16Z</time>
      </trkpt>
      <trkpt lat="46.58827" lon="6.1039">
        <ele>1108.5</ele>
        <time>2015-06-28T07:14:17Z</time>
      </trkpt>
      <trkpt lat="46.58837" lon="6.10394">
        <ele>1108.2</ele>
        <time>2015-06-28T07:14:18Z</time>
      </trkpt>
      <trkpt lat="46.58847" lon="6.10397">
        <ele>1107.9</ele>
        <time>2015-06-28T07:14:19Z</time>
      </trkpt>
      <trkpt lat="46.58856" lon="6.10401">
        <ele>1107.6</ele>
        <time>2015-06-28T07:14:20Z</time>
      </trkpt>
      <trkpt lat="46.58866" lon="6.10404">
        <ele>1107.3</ele>
        <time>2015-06-28T07:14:21Z</time>
      </trkpt>
      <trkpt lat="46.58875" lon="6.10407">
        <ele>1107</ele>
        <time>2015-06-28T07:14:22Z</time>
      </trkpt>
      <trkpt lat="46.58884" lon="6.1041">
        <ele>1106.6</ele>
        <time>2015-06-28T07:14:23Z</time>
      </trkpt>
      <trkpt lat="46.589" lon="6.10416">
        <ele>1105.9</ele>
        <time>2015-06-28T07:14:25Z</time>
      </trkpt>
      <trkpt lat="46.58917" lon="6.10422">
        <ele>1105.2</ele>
        <time>2015-06-28T07:14:27Z</time>
      </trkpt>
      <trkpt lat="46.58933" lon="6.10429">
        <ele>1104.5</ele>
        <time>2015-06-28T07:14:29Z</time>
      </trkpt>
      <trkpt lat="46.58948" lon="6.10441">
        <ele>1103.9</ele>
        <time>2015-06-28T07:14:31Z</time>
      </trkpt>
      <trkpt lat="46.58962" lon="6.10454">
        <ele>1103.4</ele>
        <time>2015-06-28T07:14:33Z</time>
      </trkpt>
      <trkpt lat="46.58975" lon="6.10468">
        <ele>1102.8</ele>
        <time>2015-06-28T07:14:35Z</time>
      </trkpt>
      <trkpt lat="46.5899" lon="6.10483">
        <ele>1102.3</ele>
        <time>2015-06-28T07:14:37Z</time>
      </trkpt>
      <trkpt lat="46.59004" lon="6.10496">
        <ele>1101.8</ele>
        <time>2015-06-28T07:14:39Z</time>
      </trkpt>
      <trkpt lat="46.59017" lon="6.10509">
        <ele>1101.3</ele>
        <time>2015-06-28T07:14:41Z</time>
      </trkpt>
      <trkpt lat="46.59032" lon="6.10521">
        <ele>1100.8</ele>
        <time>2015-06-28T07:14:43Z</time>
      </trkpt>
      <trkpt lat="46.59048" lon="6.10529">
        <ele>1100.3</ele>
        <time>2015-06-28T07:14:45Z</time>
      </trkpt>
      <trkpt lat="46.59064" lon="6.10536">
        <ele>1099.5</ele>
        <time>2015-06-28T07:14:47Z</time>
      </trkpt>
      <trkpt lat="46.59078" lon="6.10546">
        <ele>1098.8</ele>
        <time>2015-06-28T07:14:49Z</time>
      </trkpt>
      <trkpt lat="46.59094" lon="6.10556">
        <ele>1098.2</ele>
        <time>2015-06-28T07:14:51Z</time>
      </trkpt>
      <trkpt lat="46.59109" lon="6.10564">
        <ele>1097.7</ele>
        <time>2015-06-28T07:14:53Z</time>
      </trkpt>
      <trkpt lat="46.59124" lon="6.10572">
        <ele>1097.2</ele>
        <time>2015-06-28T07:14:55Z</time>
      </trkpt>
      <trkpt lat="46.59139" lon="6.10581">
        <ele>1096.7</ele>
        <time>2015-06-28T07:14:57Z</time>
      </trkpt>
      <trkpt lat="46.59154" lon="6.10591">
        <ele>1096.3</ele>
        <time>2015-06-28T07:14:59Z</time>
      </trkpt>
      <trkpt lat="46.59167" lon="6.106">
        <ele>1096</ele>
        <time>2015-06-28T07:15:01Z</time>
      </trkpt>
      <trkpt lat="46.5918" lon="6.1061">
        <ele>1095.6</ele>
        <time>2015-06-28T07:15:03Z</time>
      </trkpt>
      <trkpt lat="46.59193" lon="6.10619">
        <ele>1095.4</ele>
        <time>2015-06-28T07:15:05Z</time>
      </trkpt>
      <trkpt lat="46.59207" lon="6.10629">
        <ele>1095.1</ele>
        <time>2015-06-28T07:15:07Z</time>
      </trkpt>
      <trkpt lat="46.5922" lon="6.10638">
        <ele>1094.9</ele>
        <time>2015-06-28T07:15:09Z</time>
      </trkpt>
      <trkpt lat="46.59233" lon="6.10648">
        <ele>1094.7</ele>
        <time>2015-06-28T07:15:11Z</time>
      </trkpt>
      <trkpt lat="46.59246" lon="6.10658">
        <ele>1094.5</ele>
        <time>2015-06-28T07:15:13Z</time>
      </trkpt>
      <trkpt lat="46.5926" lon="6.10668">
        <ele>1094.4</ele>
        <time>2015-06-28T07:15:15Z</time>
      </trkpt>
      <trkpt lat="46.59274" lon="6.10678">
        <ele>1094.2</ele>
        <time>2015-06-28T07:15:17Z</time>
      </trkpt>
      <trkpt lat="46.59289" lon="6.10689">
        <ele>1094</ele>
        <time>2015-06-28T07:15:19Z</time>
      </trkpt>
      <trkpt lat="46.59305" lon="6.10701">
        <ele>1093.8</ele>
        <time>2015-06-28T07:15:21Z</time>
      </trkpt>
      <trkpt lat="46.59313" lon="6.10707">
        <ele>1093.6</ele>
        <time>2015-06-28T07:15:22Z</time>
      </trkpt>
      <trkpt lat="46.59322" lon="6.10713">
        <ele>1093.5</ele>
        <time>2015-06-28T07:15:23Z</time>
      </trkpt>
      <trkpt lat="46.59331" lon="6.10719">
        <ele>1093.3</ele>
        <time>2015-06-28T07:15:24Z</time>
      </trkpt>
      <trkpt lat="46.59339" lon="6.10726">
        <ele>1093.2</ele>
        <time>2015-06-28T07:15:25Z</time>
      </trkpt>
      <trkpt lat="46.59348" lon="6.10732">
        <ele>1093</ele>
        <time>2015-06-28T07:15:26Z</time>
      </trkpt>
      <trkpt lat="46.59357" lon="6.10739">
        <ele>1092.8</ele>
        <time>2015-06-28T07:15:27Z</time>
      </trkpt>
      <trkpt lat="46.59366" lon="6.10746">
        <ele>1092.6</ele>
        <time>2015-06-28T07:15:28Z</time>
      </trkpt>
      <trkpt lat="46.59374" lon="6.10754">
        <ele>1092.4</ele>
        <time>2015-06-28T07:15:29Z</time>
      </trkpt>
      <trkpt lat="46.59382" lon="6.10763">
        <ele>1092.1</ele>
        <time>2015-06-28T07:15:30Z</time>
      </trkpt>
      <trkpt lat="46.5939" lon="6.10772">
        <ele>1091.9</ele>
        <time>2015-06-28T07:15:31Z</time>
      </trkpt>
      <trkpt lat="46.59397" lon="6.10781">
        <ele>1091.7</ele>
        <time>2015-06-28T07:15:32Z</time>
      </trkpt>
      <trkpt lat="46.59404" lon="6.1079">
        <ele>1091.5</ele>
        <time>2015-06-28T07:15:33Z</time>
      </trkpt>
      <trkpt lat="46.59411" lon="6.108">
        <ele>1091.2</ele>
        <time>2015-06-28T07:15:34Z</time>
      </trkpt>
      <trkpt lat="46.59417" lon="6.1081">
        <ele>1091</ele>
        <time>2015-06-28T07:15:35Z</time>
      </trkpt>
      <trkpt lat="46.59423" lon="6.1082">
        <ele>1090.7</ele>
        <time>2015-06-28T07:15:36Z</time>
      </trkpt>
      <trkpt lat="46.59435" lon="6.10839">
        <ele>1090.1</ele>
        <time>2015-06-28T07:15:38Z</time>
      </trkpt>
      <trkpt lat="46.59446" lon="6.10858">
        <ele>1089.5</ele>
        <time>2015-06-28T07:15:40Z</time>
      </trkpt>
      <trkpt lat="46.59458" lon="6.10876">
        <ele>1089</ele>
        <time>2015-06-28T07:15:42Z</time>
      </trkpt>
      <trkpt lat="46.59471" lon="6.10893">
        <ele>1088.5</ele>
        <time>2015-06-28T07:15:44Z</time>
      </trkpt>
      <trkpt lat="46.59478" lon="6.10901">
        <ele>1088.2</ele>
        <time>2015-06-28T07:15:45Z</time>
      </trkpt>
      <trkpt lat="46.59485" lon="6.10909">
        <ele>1087.9</ele>
        <time>2015-06-28T07:15:46Z</time>
      </trkpt>
      <trkpt lat="46.59493" lon="6.10918">
        <ele>1087.6</ele>
        <time>2015-06-28T07:15:47Z</time>
      </trkpt>
      <trkpt lat="46.59501" lon="6.10926">
        <ele>1087.4</ele>
        <time>2015-06-28T07:15:48Z</time>
      </trkpt>
      <trkpt lat="46.59509" lon="6.10934">
        <ele>1087.1</ele>
        <time>2015-06-28T07:15:49Z</time>
      </trkpt>
      <trkpt lat="46.59517" lon="6.10943">
        <ele>1086.8</ele>
        <time>2015-06-28T07:15:50Z</time>
      </trkpt>
      <trkpt lat="46.59524" lon="6.10951">
        <ele>1086.6</ele>
        <time>2015-06-28T07:15:51Z</time>
      </trkpt>
      <trkpt lat="46.59532" lon="6.10959">
        <ele>1086.3</ele>
        <time>2015-06-28T07:15:52Z</time>
      </trkpt>
      <trkpt lat="46.59539" lon="6.10967">
        <ele>1086</ele>
        <time>2015-06-28T07:15:53Z</time>
      </trkpt>
      <trkpt lat="46.59547" lon="6.10975">
        <ele>1085.6</ele>
        <time>2015-06-28T07:15:54Z</time>
      </trkpt>
      <trkpt lat="46.59561" lon="6.1099">
        <ele>1085</ele>
        <time>2015-06-28T07:15:56Z</time>
      </trkpt>
      <trkpt lat="46.59575" lon="6.11005">
        <ele>1084.5</ele>
        <time>2015-06-28T07:15:58Z</time>
      </trkpt>
      <trkpt lat="46.59588" lon="6.11019">
        <ele>1083.9</ele>
        <time>2015-06-28T07:16:00Z</time>
      </trkpt>
      <trkpt lat="46.59602" lon="6.11034">
        <ele>1083.4</ele>
        <time>2015-06-28T07:16:02Z</time>
      </trkpt>
      <trkpt lat="46.59615" lon="6.11049">
        <ele>1082.9</ele>
        <time>2015-06-28T07:16:04Z</time>
      </trkpt>
      <trkpt lat="46.59627" lon="6.11064">
        <ele>1082.3</ele>
        <time>2015-06-28T07:16:06Z</time>
      </trkpt>
      <trkpt lat="46.59638" lon="6.1108">
        <ele>1081.8</ele>
        <time>2015-06-28T07:16:08Z</time>
      </trkpt>
      <trkpt lat="46.59648" lon="6.11096">
        <ele>1081.4</ele>
        <time>2015-06-28T07:16:10Z</time>
      </trkpt>
      <trkpt lat="46.59658" lon="6.11111">
        <ele>1081</ele>
        <time>2015-06-28T07:16:12Z</time>
      </trkpt>
      <trkpt lat="46.59667" lon="6.11127">
        <ele>1080.6</ele>
        <time>2015-06-28T07:16:14Z</time>
      </trkpt>
      <trkpt lat="46.59676" lon="6.11143">
        <ele>1080.2</ele>
        <time>2015-06-28T07:16:16Z</time>
      </trkpt>
      <trkpt lat="46.59683" lon="6.1116">
        <ele>1079.9</ele>
        <time>2015-06-28T07:16:18Z</time>
      </trkpt>
      <trkpt lat="46.5969" lon="6.11176">
        <ele>1079.7</ele>
        <time>2015-06-28T07:16:20Z</time>
      </trkpt>
      <trkpt lat="46.59695" lon="6.11191">
        <ele>1079.4</ele>
        <time>2015-06-28T07:16:22Z</time>
      </trkpt>
      <trkpt lat="46.597" lon="6.11204">
        <ele>1079.2</ele>
        <time>2015-06-28T07:16:24Z</time>
      </trkpt>
      <trkpt lat="46.59704" lon="6.11216">
        <ele>1079.2</ele>
        <time>2015-06-28T07:16:26Z</time>
      </trkpt>
      <trkpt lat="46.59708" lon="6.11233">
        <ele>1079.2</ele>
        <time>2015-06-28T07:16:29Z</time>
      </trkpt>
      <trkpt lat="46.59712" lon="6.11248">
        <ele>1079.2</ele>
        <time>2015-06-28T07:16:32Z</time>
      </trkpt>
      <trkpt lat="46.59718" lon="6.11261">
        <ele>1079.3</ele>
        <time>2015-06-28T07:16:35Z</time>
      </trkpt>
      <trkpt lat="46.59721" lon="6.11275">
        <ele>1079.4</ele>
        <time>2015-06-28T07:16:38Z</time>
      </trkpt>
      <trkpt lat="46.59725" lon="6.11289">
        <ele>1079.8</ele>
        <time>2015-06-28T07:16:42Z</time>
      </trkpt>
      <trkpt lat="46.59729" lon="6.11302">
        <ele>1080.4</ele>
        <time>2015-06-28T07:16:46Z</time>
      </trkpt>
      <trkpt lat="46.59732" lon="6.11316">
        <ele>1081.2</ele>
        <time>2015-06-28T07:16:51Z</time>
      </trkpt>
      <trkpt lat="46.59737" lon="6.11327">
        <ele>1082.4</ele>
        <time>2015-06-28T07:16:59Z</time>
      </trkpt>
      <trkpt lat="46.59743" lon="6.11337">
        <ele>1084.8</ele>
        <time>2015-06-28T07:22:11Z</time>
      </trkpt>
      <trkpt lat="46.59751" lon="6.11346">
        <ele>1085</ele>
        <time>2015-06-28T07:22:16Z</time>
      </trkpt>
      <trkpt lat="46.59759" lon="6.11354">
        <ele>1085.1</ele>
        <time>2015-06-28T07:22:20Z</time>
      </trkpt>
      <trkpt lat="46.59765" lon="6.11366">
        <ele>1085.4</ele>
        <time>2015-06-28T07:22:24Z</time>
      </trkpt>
      <trkpt lat="46.59772" lon="6.11376">
        <ele>1085.6</ele>
        <time>2015-06-28T07:22:28Z</time>
      </trkpt>
      <trkpt lat="46.59778" lon="6.11388">
        <ele>1085.9</ele>
        <time>2015-06-28T07:22:32Z</time>
      </trkpt>
      <trkpt lat="46.59782" lon="6.11401">
        <ele>1086.3</ele>
        <time>2015-06-28T07:22:36Z</time>
      </trkpt>
      <trkpt lat="46.59787" lon="6.11415">
        <ele>1086.8</ele>
        <time>2015-06-28T07:22:40Z</time>
      </trkpt>
      <trkpt lat="46.59799" lon="6.1142">
        <ele>1087.1</ele>
        <time>2015-06-28T07:22:44Z</time>
      </trkpt>
      <trkpt lat="46.5981" lon="6.11412">
        <ele>1087.4</ele>
        <time>2015-06-28T07:22:47Z</time>
      </trkpt>
      <trkpt lat="46.59819" lon="6.11404">
        <ele>1087.5</ele>
        <time>2015-06-28T07:22:50Z</time>
      </trkpt>
      <trkpt lat="46.5983" lon="6.11402">
        <ele>1087.6</ele>
        <time>2015-06-28T07:22:52Z</time>
      </trkpt>
      <trkpt lat="46.59842" lon="6.11402">
        <ele>1087.7</ele>
        <time>2015-06-28T07:22:54Z</time>
      </trkpt>
      <trkpt lat="46.59854" lon="6.11401">
        <ele>1087.7</ele>
        <time>2015-06-28T07:22:56Z</time>
      </trkpt>
      <trkpt lat="46.59865" lon="6.114">
        <ele>1087.8</ele>
        <time>2015-06-28T07:22:58Z</time>
      </trkpt>
      <trkpt lat="46.59878" lon="6.11399">
        <ele>1087.8</ele>
        <time>2015-06-28T07:23:00Z</time>
      </trkpt>
      <trkpt lat="46.5989" lon="6.11395">
        <ele>1087.8</ele>
        <time>2015-06-28T07:23:02Z</time>
      </trkpt>
      <trkpt lat="46.599" lon="6.11386">
        <ele>1087.7</ele>
        <time>2015-06-28T07:23:04Z</time>
      </trkpt>
      <trkpt lat="46.59909" lon="6.11376">
        <ele>1087.6</ele>
        <time>2015-06-28T07:23:06Z</time>
      </trkpt>
      <trkpt lat="46.5992" lon="6.11365">
        <ele>1087.3</ele>
        <time>2015-06-28T07:23:09Z</time>
      </trkpt>
      <trkpt lat="46.59928" lon="6.11356">
        <ele>1087.1</ele>
        <time>2015-06-28T07:23:12Z</time>
      </trkpt>
      <trkpt lat="46.59935" lon="6.11344">
        <ele>1087</ele>
        <time>2015-06-28T07:23:16Z</time>
      </trkpt>
      <trkpt lat="46.5994" lon="6.11332">
        <ele>1087.1</ele>
        <time>2015-06-28T07:23:19Z</time>
      </trkpt>
      <trkpt lat="46.59945" lon="6.11319">
        <ele>1087.3</ele>
        <time>2015-06-28T07:23:22Z</time>
      </trkpt>
      <trkpt lat="46.5995" lon="6.11304">
        <ele>1087.5</ele>
        <time>2015-06-28T07:23:25Z</time>
      </trkpt>
      <trkpt lat="46.59955" lon="6.11285">
        <ele>1087.6</ele>
        <time>2015-06-28T07:23:28Z</time>
      </trkpt>
      <trkpt lat="46.59959" lon="6.1127">
        <ele>1087.7</ele>
        <time>2015-06-28T07:23:30Z</time>
      </trkpt>
      <trkpt lat="46.59962" lon="6.11253">
        <ele>1087.8</ele>
        <time>2015-06-28T07:23:32Z</time>
      </trkpt>
      <trkpt lat="46.59965" lon="6.11234">
        <ele>1087.9</ele>
        <time>2015-06-28T07:23:34Z</time>
      </trkpt>
      <trkpt lat="46.59968" lon="6.11212">
        <ele>1088</ele>
        <time>2015-06-28T07:23:36Z</time>
      </trkpt>
      <trkpt lat="46.59971" lon="6.11188">
        <ele>1088</ele>
        <time>2015-06-28T07:23:38Z</time>
      </trkpt>
      <trkpt lat="46.59973" lon="6.11175">
        <ele>1088</ele>
        <time>2015-06-28T07:23:39Z</time>
      </trkpt>
      <trkpt lat="46.59976" lon="6.11162">
        <ele>1087.9</ele>
        <time>2015-06-28T07:23:40Z</time>
      </trkpt>
      <trkpt lat="46.59979" lon="6.11148">
        <ele>1087.8</ele>
        <time>2015-06-28T07:23:41Z</time>
      </trkpt>
      <trkpt lat="46.59982" lon="6.11134">
        <ele>1087.7</ele>
        <time>2015-06-28T07:23:42Z</time>
      </trkpt>
      <trkpt lat="46.59985" lon="6.1112">
        <ele>1087.5</ele>
        <time>2015-06-28T07:23:43Z</time>
      </trkpt>
      <trkpt lat="46.59989" lon="6.11105">
        <ele>1087.3</ele>
        <time>2015-06-28T07:23:44Z</time>
      </trkpt>
      <trkpt lat="46.59993" lon="6.11089">
        <ele>1087</ele>
        <time>2015-06-28T07:23:45Z</time>
      </trkpt>
      <trkpt lat="46.59997" lon="6.11073">
        <ele>1086.7</ele>
        <time>2015-06-28T07:23:46Z</time>
      </trkpt>
      <trkpt lat="46.60001" lon="6.11057">
        <ele>1086.5</ele>
        <time>2015-06-28T07:23:47Z</time>
      </trkpt>
      <trkpt lat="46.60005" lon="6.11041">
        <ele>1086.2</ele>
        <time>2015-06-28T07:23:48Z</time>
      </trkpt>
      <trkpt lat="46.6001" lon="6.11026">
        <ele>1085.9</ele>
        <time>2015-06-28T07:23:49Z</time>
      </trkpt>
      <trkpt lat="46.60014" lon="6.1101">
        <ele>1085.5</ele>
        <time>2015-06-28T07:23:50Z</time>
      </trkpt>
      <trkpt lat="46.60018" lon="6.10994">
        <ele>1085.1</ele>
        <time>2015-06-28T07:23:51Z</time>
      </trkpt>
      <trkpt lat="46.60022" lon="6.10978">
        <ele>1084.7</ele>
        <time>2015-06-28T07:23:52Z</time>
      </trkpt>
      <trkpt lat="46.60025" lon="6.10963">
        <ele>1084.4</ele>
        <time>2015-06-28T07:23:53Z</time>
      </trkpt>
      <trkpt lat="46.60029" lon="6.10948">
        <ele>1083.9</ele>
        <time>2015-06-28T07:23:54Z</time>
      </trkpt>
      <trkpt lat="46.60033" lon="6.10934">
        <ele>1083.4</ele>
        <time>2015-06-28T07:23:55Z</time>
      </trkpt>
      <trkpt lat="46.60037" lon="6.1092">
        <ele>1082.9</ele>
        <time>2015-06-28T07:23:56Z</time>
      </trkpt>
      <trkpt lat="46.60041" lon="6.10907">
        <ele>1082.4</ele>
        <time>2015-06-28T07:23:57Z</time>
      </trkpt>
      <trkpt lat="46.60045" lon="6.10894">
        <ele>1081.9</ele>
        <time>2015-06-28T07:23:58Z</time>
      </trkpt>
      <trkpt lat="46.6005" lon="6.10882">
        <ele>1081.5</ele>
        <time>2015-06-28T07:23:59Z</time>
      </trkpt>
      <trkpt lat="46.60055" lon="6.1087">
        <ele>1081</ele>
        <time>2015-06-28T07:24:00Z</time>
      </trkpt>
      <trkpt lat="46.60059" lon="6.10858">
        <ele>1080.6</ele>
        <time>2015-06-28T07:24:01Z</time>
      </trkpt>
      <trkpt lat="46.60062" lon="6.10845">
        <ele>1080.2</ele>
        <time>2015-06-28T07:24:02Z</time>
      </trkpt>
      <trkpt lat="46.60066" lon="6.1082">
        <ele>1079.4</ele>
        <time>2015-06-28T07:24:04Z</time>
      </trkpt>
      <trkpt lat="46.60069" lon="6.10794">
        <ele>1078.7</ele>
        <time>2015-06-28T07:24:06Z</time>
      </trkpt>
      <trkpt lat="46.60071" lon="6.10769">
        <ele>1078.1</ele>
        <time>2015-06-28T07:24:08Z</time>
      </trkpt>
      <trkpt lat="46.60073" lon="6.10745">
        <ele>1077.5</ele>
        <time>2015-06-28T07:24:10Z</time>
      </trkpt>
      <trkpt lat="46.60074" lon="6.10721">
        <ele>1077</ele>
        <time>2015-06-28T07:24:12Z</time>
      </trkpt>
      <trkpt lat="46.6007" lon="6.10698">
        <ele>1076.5</ele>
        <time>2015-06-28T07:24:14Z</time>
      </trkpt>
      <trkpt lat="46.60063" lon="6.10676">
        <ele>1076.1</ele>
        <time>2015-06-28T07:24:16Z</time>
      </trkpt>
      <trkpt lat="46.60056" lon="6.10654">
        <ele>1075.7</ele>
        <time>2015-06-28T07:24:18Z</time>
      </trkpt>
      <trkpt lat="46.6005" lon="6.10633">
        <ele>1075.3</ele>
        <time>2015-06-28T07:24:20Z</time>
      </trkpt>
      <trkpt lat="46.60048" lon="6.10613">
        <ele>1074.9</ele>
        <time>2015-06-28T07:24:22Z</time>
      </trkpt>
      <trkpt lat="46.60044" lon="6.10596">
        <ele>1074.6</ele>
        <time>2015-06-28T07:24:24Z</time>
      </trkpt>
      <trkpt lat="46.60038" lon="6.10585">
        <ele>1074.3</ele>
        <time>2015-06-28T07:24:26Z</time>
      </trkpt>
      <trkpt lat="46.60032" lon="6.10573">
        <ele>1073.9</ele>
        <time>2015-06-28T07:24:29Z</time>
      </trkpt>
      <trkpt lat="46.60034" lon="6.1056">
        <ele>1073.9</ele>
        <time>2015-06-28T07:24:32Z</time>
      </trkpt>
      <trkpt lat="46.60038" lon="6.10546">
        <ele>1073.6</ele>
        <time>2015-06-28T07:24:35Z</time>
      </trkpt>
      <trkpt lat="46.60043" lon="6.10531">
        <ele>1073.5</ele>
        <time>2015-06-28T07:24:38Z</time>
      </trkpt>
      <trkpt lat="46.60049" lon="6.10517">
        <ele>1073.6</ele>
        <time>2015-06-28T07:24:41Z</time>
      </trkpt>
      <trkpt lat="46.60058" lon="6.10506">
        <ele>1073.7</ele>
        <time>2015-06-28T07:24:44Z</time>
      </trkpt>
      <trkpt lat="46.60068" lon="6.10495">
        <ele>1073.8</ele>
        <time>2015-06-28T07:24:47Z</time>
      </trkpt>
      <trkpt lat="46.60077" lon="6.10485">
        <ele>1073.9</ele>
        <time>2015-06-28T07:24:50Z</time>
      </trkpt>
      <trkpt lat="46.60083" lon="6.10475">
        <ele>1073.8</ele>
        <time>2015-06-28T07:24:53Z</time>
      </trkpt>
      <trkpt lat="46.6009" lon="6.10465">
        <ele>1073.8</ele>
        <time>2015-06-28T07:24:56Z</time>
      </trkpt>
      <trkpt lat="46.60097" lon="6.10455">
        <ele>1073.9</ele>
        <time>2015-06-28T07:24:59Z</time>
      </trkpt>
      <trkpt lat="46.60101" lon="6.10442">
        <ele>1073.9</ele>
        <time>2015-06-28T07:25:03Z</time>
      </trkpt>
      <trkpt lat="46.60106" lon="6.10431">
        <ele>1074</ele>
        <time>2015-06-28T07:25:06Z</time>
      </trkpt>
      <trkpt lat="46.60113" lon="6.10421">
        <ele>1073.9</ele>
        <time>2015-06-28T07:25:09Z</time>
      </trkpt>
      <trkpt lat="46.60121" lon="6.10413">
        <ele>1073.9</ele>
        <time>2015-06-28T07:25:12Z</time>
      </trkpt>
      <trkpt lat="46.60131" lon="6.10405">
        <ele>1074</ele>
        <time>2015-06-28T07:25:16Z</time>
      </trkpt>
      <trkpt lat="46.60141" lon="6.10396">
        <ele>1074</ele>
        <time>2015-06-28T07:25:19Z</time>
      </trkpt>
      <trkpt lat="46.6015" lon="6.10391">
        <ele>1074.1</ele>
        <time>2015-06-28T07:25:21Z</time>
      </trkpt>
      <trkpt lat="46.60161" lon="6.10384">
        <ele>1074.2</ele>
        <time>2015-06-28T07:25:24Z</time>
      </trkpt>
      <trkpt lat="46.60171" lon="6.10377">
        <ele>1074.3</ele>
        <time>2015-06-28T07:25:27Z</time>
      </trkpt>
      <trkpt lat="46.60179" lon="6.1037">
        <ele>1074.3</ele>
        <time>2015-06-28T07:25:30Z</time>
      </trkpt>
      <trkpt lat="46.60188" lon="6.10364">
        <ele>1074.2</ele>
        <time>2015-06-28T07:25:34Z</time>
      </trkpt>
      <trkpt lat="46.60197" lon="6.10356">
        <ele>1074.3</ele>
        <time>2015-06-28T07:25:40Z</time>
      </trkpt>
      <trkpt lat="46.60205" lon="6.10348">
        <ele>1074.8</ele>
        <time>2015-06-28T07:25:47Z</time>
      </trkpt>
      <trkpt lat="46.60212" lon="6.10337">
        <ele>1076.3</ele>
        <time>2015-06-28T07:25:57Z</time>
      </trkpt>
      <trkpt lat="46.6022" lon="6.10328">
        <ele>1077.2</ele>
        <time>2015-06-28T07:26:04Z</time>
      </trkpt>
      <trkpt lat="46.60226" lon="6.10318">
        <ele>1077.6</ele>
        <time>2015-06-28T07:26:09Z</time>
      </trkpt>
      <trkpt lat="46.60233" lon="6.10308">
        <ele>1078</ele>
        <time>2015-06-28T07:26:13Z</time>
      </trkpt>
      <trkpt lat="46.60243" lon="6.10302">
        <ele>1078.4</ele>
        <time>2015-06-28T07:26:16Z</time>
      </trkpt>
      <trkpt lat="46.60252" lon="6.10299">
        <ele>1078.6</ele>
        <time>2015-06-28T07:26:18Z</time>
      </trkpt>
      <trkpt lat="46.6026" lon="6.1029">
        <ele>1078.8</ele>
        <time>2015-06-28T07:26:20Z</time>
      </trkpt>
      <trkpt lat="46.60268" lon="6.10274">
        <ele>1079</ele>
        <time>2015-06-28T07:26:22Z</time>
      </trkpt>
      <trkpt lat="46.60274" lon="6.10256">
        <ele>1078.8</ele>
        <time>2015-06-28T07:26:24Z</time>
      </trkpt>
      <trkpt lat="46.60276" lon="6.10234">
        <ele>1078.5</ele>
        <time>2015-06-28T07:26:26Z</time>
      </trkpt>
      <trkpt lat="46.60276" lon="6.10216">
        <ele>1078.3</ele>
        <time>2015-06-28T07:26:28Z</time>
      </trkpt>
      <trkpt lat="46.6028" lon="6.102">
        <ele>1078.1</ele>
        <time>2015-06-28T07:26:30Z</time>
      </trkpt>
      <trkpt lat="46.60285" lon="6.10184">
        <ele>1077.9</ele>
        <time>2015-06-28T07:26:32Z</time>
      </trkpt>
      <trkpt lat="46.60292" lon="6.10167">
        <ele>1077.6</ele>
        <time>2015-06-28T07:26:34Z</time>
      </trkpt>
      <trkpt lat="46.603" lon="6.10149">
        <ele>1077.3</ele>
        <time>2015-06-28T07:26:36Z</time>
      </trkpt>
      <trkpt lat="46.60309" lon="6.10129">
        <ele>1077.1</ele>
        <time>2015-06-28T07:26:38Z</time>
      </trkpt>
      <trkpt lat="46.60317" lon="6.10111">
        <ele>1076.7</ele>
        <time>2015-06-28T07:26:40Z</time>
      </trkpt>
      <trkpt lat="46.60326" lon="6.10097">
        <ele>1076.3</ele>
        <time>2015-06-28T07:26:42Z</time>
      </trkpt>
      <trkpt lat="46.60335" lon="6.10087">
        <ele>1075.7</ele>
        <time>2015-06-28T07:26:45Z</time>
      </trkpt>
      <trkpt lat="46.60345" lon="6.10077">
        <ele>1074.8</ele>
        <time>2015-06-28T07:26:49Z</time>
      </trkpt>
      <trkpt lat="46.60351" lon="6.10066">
        <ele>1074.1</ele>
        <time>2015-06-28T07:26:52Z</time>
      </trkpt>
      <trkpt lat="46.60357" lon="6.10053">
        <ele>1073.2</ele>
        <time>2015-06-28T07:26:56Z</time>
      </trkpt>
      <trkpt lat="46.60363" lon="6.10042">
        <ele>1072.4</ele>
        <time>2015-06-28T07:27:01Z</time>
      </trkpt>
      <trkpt lat="46.60371" lon="6.10032">
        <ele>1072</ele>
        <time>2015-06-28T07:27:05Z</time>
      </trkpt>
      <trkpt lat="46.60376" lon="6.10021">
        <ele>1071.7</ele>
        <time>2015-06-28T07:27:08Z</time>
      </trkpt>
      <trkpt lat="46.60381" lon="6.10009">
        <ele>1071.6</ele>
        <time>2015-06-28T07:27:11Z</time>
      </trkpt>
      <trkpt lat="46.60384" lon="6.09997">
        <ele>1071.6</ele>
        <time>2015-06-28T07:27:14Z</time>
      </trkpt>
      <trkpt lat="46.60388" lon="6.09985">
        <ele>1071.7</ele>
        <time>2015-06-28T07:27:17Z</time>
      </trkpt>
      <trkpt lat="46.60395" lon="6.09973">
        <ele>1071.8</ele>
        <time>2015-06-28T07:27:20Z</time>
      </trkpt>
      <trkpt lat="46.60402" lon="6.09961">
        <ele>1071.9</ele>
        <time>2015-06-28T07:27:23Z</time>
      </trkpt>
      <trkpt lat="46.60407" lon="6.09948">
        <ele>1071.9</ele>
        <time>2015-06-28T07:27:26Z</time>
      </trkpt>
      <trkpt lat="46.60414" lon="6.09939">
        <ele>1071.9</ele>
        <time>2015-06-28T07:27:31Z</time>
      </trkpt>
      <trkpt lat="46.60423" lon="6.09933">
        <ele>1071.8</ele>
        <time>2015-06-28T07:27:34Z</time>
      </trkpt>
      <trkpt lat="46.60434" lon="6.09928">
        <ele>1071.8</ele>
        <time>2015-06-28T07:27:37Z</time>
      </trkpt>
      <trkpt lat="46.60445" lon="6.09925">
        <ele>1071.7</ele>
        <time>2015-06-28T07:27:42Z</time>
      </trkpt>
      <trkpt lat="46.60455" lon="6.09923">
        <ele>1071.7</ele>
        <time>2015-06-28T07:27:45Z</time>
      </trkpt>
      <trkpt lat="46.60464" lon="6.09919">
        <ele>1071.8</ele>
        <time>2015-06-28T07:27:48Z</time>
      </trkpt>
      <trkpt lat="46.60473" lon="6.09915">
        <ele>1071.7</ele>
        <time>2015-06-28T07:27:52Z</time>
      </trkpt>
      <trkpt lat="46.60484" lon="6.09909">
        <ele>1071.5</ele>
        <time>2015-06-28T07:27:57Z</time>
      </trkpt>
      <trkpt lat="46.60494" lon="6.09903">
        <ele>1071.5</ele>
        <time>2015-06-28T07:28:02Z</time>
      </trkpt>
      <trkpt lat="46.60506" lon="6.09902">
        <ele>1071.5</ele>
        <time>2015-06-28T07:28:08Z</time>
      </trkpt>
      <trkpt lat="46.60513" lon="6.09895">
        <ele>1071.4</ele>
        <time>2015-06-28T07:28:15Z</time>
      </trkpt>
      <trkpt lat="46.60521" lon="6.09883">
        <ele>1072.1</ele>
        <time>2015-06-28T07:28:27Z</time>
      </trkpt>
      <trkpt lat="46.60531" lon="6.09881">
        <ele>1072.4</ele>
        <time>2015-06-28T07:28:31Z</time>
      </trkpt>
      <trkpt lat="46.60541" lon="6.09878">
        <ele>1072.8</ele>
        <time>2015-06-28T07:28:35Z</time>
      </trkpt>
      <trkpt lat="46.60552" lon="6.09877">
        <ele>1073.1</ele>
        <time>2015-06-28T07:28:40Z</time>
      </trkpt>
      <trkpt lat="46.6056" lon="6.0987">
        <ele>1073.8</ele>
        <time>2015-06-28T07:28:45Z</time>
      </trkpt>
      <trkpt lat="46.60568" lon="6.09863">
        <ele>1074.1</ele>
        <time>2015-06-28T07:28:48Z</time>
      </trkpt>
      <trkpt lat="46.60577" lon="6.09855">
        <ele>1074.7</ele>
        <time>2015-06-28T07:28:54Z</time>
      </trkpt>
      <trkpt lat="46.60586" lon="6.09845">
        <ele>1074.9</ele>
        <time>2015-06-28T07:28:58Z</time>
      </trkpt>
      <trkpt lat="46.60595" lon="6.09839">
        <ele>1075.3</ele>
        <time>2015-06-28T07:29:03Z</time>
      </trkpt>
      <trkpt lat="46.60602" lon="6.0983">
        <ele>1075.8</ele>
        <time>2015-06-28T07:29:09Z</time>
      </trkpt>
      <trkpt lat="46.60611" lon="6.09822">
        <ele>1076.7</ele>
        <time>2015-06-28T07:29:15Z</time>
      </trkpt>
      <trkpt lat="46.60618" lon="6.09813">
        <ele>1077.9</ele>
        <time>2015-06-28T07:29:22Z</time>
      </trkpt>
      <trkpt lat="46.60624" lon="6.09801">
        <ele>1079.2</ele>
        <time>2015-06-28T07:29:31Z</time>
      </trkpt>
      <trkpt lat="46.60631" lon="6.0979">
        <ele>1080.1</ele>
        <time>2015-06-28T07:29:37Z</time>
      </trkpt>
      <trkpt lat="46.6064" lon="6.09782">
        <ele>1080.9</ele>
        <time>2015-06-28T07:29:42Z</time>
      </trkpt>
      <trkpt lat="46.60649" lon="6.09776">
        <ele>1081.4</ele>
        <time>2015-06-28T07:29:47Z</time>
      </trkpt>
      <trkpt lat="46.60658" lon="6.09768">
        <ele>1082.2</ele>
        <time>2015-06-28T07:29:52Z</time>
      </trkpt>
      <trkpt lat="46.60667" lon="6.09761">
        <ele>1083.4</ele>
        <time>2015-06-28T07:30:00Z</time>
      </trkpt>
      <trkpt lat="46.60676" lon="6.09752">
        <ele>1084.3</ele>
        <time>2015-06-28T07:30:06Z</time>
      </trkpt>
      <trkpt lat="46.60682" lon="6.09741">
        <ele>1084.7</ele>
        <time>2015-06-28T07:30:09Z</time>
      </trkpt>
      <trkpt lat="46.60686" lon="6.09729">
        <ele>1085.5</ele>
        <time>2015-06-28T07:30:17Z</time>
      </trkpt>
      <trkpt lat="46.60691" lon="6.09715">
        <ele>1086</ele>
        <time>2015-06-28T07:30:24Z</time>
      </trkpt>
      <trkpt lat="46.60697" lon="6.09705">
        <ele>1086.5</ele>
        <time>2015-06-28T07:30:29Z</time>
      </trkpt>
      <trkpt lat="46.60703" lon="6.09695">
        <ele>1087.1</ele>
        <time>2015-06-28T07:30:35Z</time>
      </trkpt>
      <trkpt lat="46.60707" lon="6.09682">
        <ele>1087.5</ele>
        <time>2015-06-28T07:30:40Z</time>
      </trkpt>
      <trkpt lat="46.60711" lon="6.09667">
        <ele>1088.2</ele>
        <time>2015-06-28T07:30:46Z</time>
      </trkpt>
      <trkpt lat="46.60715" lon="6.09654">
        <ele>1088.7</ele>
        <time>2015-06-28T07:30:51Z</time>
      </trkpt>
      <trkpt lat="46.60721" lon="6.0964">
        <ele>1089</ele>
        <time>2015-06-28T07:30:55Z</time>
      </trkpt>
      <trkpt lat="46.60728" lon="6.09626">
        <ele>1089.4</ele>
        <time>2015-06-28T07:30:59Z</time>
      </trkpt>
      <trkpt lat="46.60736" lon="6.09611">
        <ele>1089.7</ele>
        <time>2015-06-28T07:31:02Z</time>
      </trkpt>
      <trkpt lat="46.60744" lon="6.09605">
        <ele>1090</ele>
        <time>2015-06-28T07:31:04Z</time>
      </trkpt>
      <trkpt lat="46.60754" lon="6.09604">
        <ele>1090.2</ele>
        <time>2015-06-28T07:31:06Z</time>
      </trkpt>
      <trkpt lat="46.60763" lon="6.09607">
        <ele>1090.3</ele>
        <time>2015-06-28T07:31:08Z</time>
      </trkpt>
      <trkpt lat="46.60775" lon="6.09606">
        <ele>1090.5</ele>
        <time>2015-06-28T07:31:11Z</time>
      </trkpt>
      <trkpt lat="46.60785" lon="6.096">
        <ele>1090.6</ele>
        <time>2015-06-28T07:31:14Z</time>
      </trkpt>
      <trkpt lat="46.60796" lon="6.09589">
        <ele>1090.5</ele>
        <time>2015-06-28T07:31:17Z</time>
      </trkpt>
      <trkpt lat="46.60804" lon="6.09578">
        <ele>1090.2</ele>
        <time>2015-06-28T07:31:20Z</time>
      </trkpt>
      <trkpt lat="46.60811" lon="6.09569">
        <ele>1089.6</ele>
        <time>2015-06-28T07:31:24Z</time>
      </trkpt>
      <trkpt lat="46.60819" lon="6.09558">
        <ele>1088.4</ele>
        <time>2015-06-28T07:31:28Z</time>
      </trkpt>
      <trkpt lat="46.60823" lon="6.09543">
        <ele>1087.6</ele>
        <time>2015-06-28T07:31:33Z</time>
      </trkpt>
      <trkpt lat="46.60829" lon="6.09532">
        <ele>1086.5</ele>
        <time>2015-06-28T07:31:39Z</time>
      </trkpt>
      <trkpt lat="46.60837" lon="6.0952">
        <ele>1085.9</ele>
        <time>2015-06-28T07:31:43Z</time>
      </trkpt>
      <trkpt lat="46.60844" lon="6.09511">
        <ele>1085.6</ele>
        <time>2015-06-28T07:31:46Z</time>
      </trkpt>
      <trkpt lat="46.60853" lon="6.09498">
        <ele>1085.4</ele>
        <time>2015-06-28T07:31:49Z</time>
      </trkpt>
      <trkpt lat="46.60861" lon="6.09488">
        <ele>1085.2</ele>
        <time>2015-06-28T07:31:51Z</time>
      </trkpt>
      <trkpt lat="46.60868" lon="6.0948">
        <ele>1085.1</ele>
        <time>2015-06-28T07:31:53Z</time>
      </trkpt>
      <trkpt lat="46.60876" lon="6.09471">
        <ele>1084.9</ele>
        <time>2015-06-28T07:31:55Z</time>
      </trkpt>
      <trkpt lat="46.60881" lon="6.0946">
        <ele>1084.7</ele>
        <time>2015-06-28T07:31:57Z</time>
      </trkpt>
      <trkpt lat="46.60889" lon="6.09448">
        <ele>1084.5</ele>
        <time>2015-06-28T07:31:59Z</time>
      </trkpt>
      <trkpt lat="46.60899" lon="6.09435">
        <ele>1084.1</ele>
        <time>2015-06-28T07:32:01Z</time>
      </trkpt>
      <trkpt lat="46.60909" lon="6.09422">
        <ele>1083.7</ele>
        <time>2015-06-28T07:32:03Z</time>
      </trkpt>
      <trkpt lat="46.60919" lon="6.09403">
        <ele>1083.2</ele>
        <time>2015-06-28T07:32:05Z</time>
      </trkpt>
      <trkpt lat="46.60925" lon="6.09381">
        <ele>1082.5</ele>
        <time>2015-06-28T07:32:07Z</time>
      </trkpt>
      <trkpt lat="46.60931" lon="6.09362">
        <ele>1081.8</ele>
        <time>2015-06-28T07:32:09Z</time>
      </trkpt>
      <trkpt lat="46.60938" lon="6.09348">
        <ele>1081.2</ele>
        <time>2015-06-28T07:32:11Z</time>
      </trkpt>
      <trkpt lat="46.60948" lon="6.09338">
        <ele>1080.6</ele>
        <time>2015-06-28T07:32:13Z</time>
      </trkpt>
      <trkpt lat="46.60958" lon="6.09325">
        <ele>1079.9</ele>
        <time>2015-06-28T07:32:15Z</time>
      </trkpt>
      <trkpt lat="46.60969" lon="6.09312">
        <ele>1079.2</ele>
        <time>2015-06-28T07:32:17Z</time>
      </trkpt>
      <trkpt lat="46.60978" lon="6.09297">
        <ele>1078.5</ele>
        <time>2015-06-28T07:32:19Z</time>
      </trkpt>
      <trkpt lat="46.60982" lon="6.09284">
        <ele>1077.8</ele>
        <time>2015-06-28T07:32:21Z</time>
      </trkpt>
      <trkpt lat="46.60988" lon="6.09273">
        <ele>1076.9</ele>
        <time>2015-06-28T07:32:24Z</time>
      </trkpt>
      <trkpt lat="46.60994" lon="6.0926">
        <ele>1075.7</ele>
        <time>2015-06-28T07:32:28Z</time>
      </trkpt>
      <trkpt lat="46.61" lon="6.09246">
        <ele>1074.8</ele>
        <time>2015-06-28T07:32:31Z</time>
      </trkpt>
      <trkpt lat="46.61005" lon="6.09234">
        <ele>1074.2</ele>
        <time>2015-06-28T07:32:33Z</time>
      </trkpt>
      <trkpt lat="46.61011" lon="6.09217">
        <ele>1073.3</ele>
        <time>2015-06-28T07:32:36Z</time>
      </trkpt>
      <trkpt lat="46.61016" lon="6.09199">
        <ele>1072.6</ele>
        <time>2015-06-28T07:32:39Z</time>
      </trkpt>
      <trkpt lat="46.61022" lon="6.09187">
        <ele>1071.7</ele>
        <time>2015-06-28T07:32:42Z</time>
      </trkpt>
      <trkpt lat="46.61028" lon="6.09175">
        <ele>1071.1</ele>
        <time>2015-06-28T07:32:45Z</time>
      </trkpt>
      <trkpt lat="46.61034" lon="6.09164">
        <ele>1070.6</ele>
        <time>2015-06-28T07:32:47Z</time>
      </trkpt>
      <trkpt lat="46.61044" lon="6.09155">
        <ele>1069.9</ele>
        <time>2015-06-28T07:32:50Z</time>
      </trkpt>
      <trkpt lat="46.61054" lon="6.09146">
        <ele>1069</ele>
        <time>2015-06-28T07:32:54Z</time>
      </trkpt>
      <trkpt lat="46.61063" lon="6.09142">
        <ele>1067.9</ele>
        <time>2015-06-28T07:32:58Z</time>
      </trkpt>
      <trkpt lat="46.61071" lon="6.09136">
        <ele>1067.1</ele>
        <time>2015-06-28T07:33:02Z</time>
      </trkpt>
      <trkpt lat="46.6108" lon="6.09126">
        <ele>1066.7</ele>
        <time>2015-06-28T07:33:06Z</time>
      </trkpt>
      <trkpt lat="46.61087" lon="6.09116">
        <ele>1066.5</ele>
        <time>2015-06-28T07:33:09Z</time>
      </trkpt>
      <trkpt lat="46.61095" lon="6.09107">
        <ele>1066.4</ele>
        <time>2015-06-28T07:33:12Z</time>
      </trkpt>
      <trkpt lat="46.61104" lon="6.09098">
        <ele>1066.3</ele>
        <time>2015-06-28T07:33:17Z</time>
      </trkpt>
      <trkpt lat="46.61114" lon="6.09095">
        <ele>1066.2</ele>
        <time>2015-06-28T07:33:22Z</time>
      </trkpt>
      <trkpt lat="46.61119" lon="6.09084">
        <ele>1066.1</ele>
        <time>2015-06-28T07:33:27Z</time>
      </trkpt>
      <trkpt lat="46.61125" lon="6.09073">
        <ele>1066.1</ele>
        <time>2015-06-28T07:33:32Z</time>
      </trkpt>
      <trkpt lat="46.61131" lon="6.09063">
        <ele>1067.3</ele>
        <time>2015-06-28T07:33:46Z</time>
      </trkpt>
      <trkpt lat="46.61138" lon="6.09052">
        <ele>1067.2</ele>
        <time>2015-06-28T07:33:54Z</time>
      </trkpt>
      <trkpt lat="46.61145" lon="6.09041">
        <ele>1067.2</ele>
        <time>2015-06-28T07:33:57Z</time>
      </trkpt>
      <trkpt lat="46.61152" lon="6.09029">
        <ele>1067.4</ele>
        <time>2015-06-28T07:34:02Z</time>
      </trkpt>
      <trkpt lat="46.61156" lon="6.09017">
        <ele>1067.5</ele>
        <time>2015-06-28T07:34:06Z</time>
      </trkpt>
      <trkpt lat="46.61162" lon="6.09003">
        <ele>1067.6</ele>
        <time>2015-06-28T07:34:10Z</time>
      </trkpt>
      <trkpt lat="46.61166" lon="6.0899">
        <ele>1067.6</ele>
        <time>2015-06-28T07:34:13Z</time>
      </trkpt>
      <trkpt lat="46.61169" lon="6.08975">
        <ele>1067.6</ele>
        <time>2015-06-28T07:34:16Z</time>
      </trkpt>
      <trkpt lat="46.61174" lon="6.08961">
        <ele>1067.6</ele>
        <time>2015-06-28T07:34:20Z</time>
      </trkpt>
      <trkpt lat="46.6118" lon="6.08951">
        <ele>1067.3</ele>
        <time>2015-06-28T07:34:24Z</time>
      </trkpt>
      <trkpt lat="46.61182" lon="6.08937">
        <ele>1067</ele>
        <time>2015-06-28T07:34:28Z</time>
      </trkpt>
      <trkpt lat="46.61185" lon="6.08921">
        <ele>1066.8</ele>
        <time>2015-06-28T07:34:32Z</time>
      </trkpt>
      <trkpt lat="46.61183" lon="6.08906">
        <ele>1066.7</ele>
        <time>2015-06-28T07:34:35Z</time>
      </trkpt>
      <trkpt lat="46.61179" lon="6.08894">
        <ele>1066.5</ele>
        <time>2015-06-28T07:34:38Z</time>
      </trkpt>
      <trkpt lat="46.6117" lon="6.08886">
        <ele>1066</ele>
        <time>2015-06-28T07:34:41Z</time>
      </trkpt>
      <trkpt lat="46.61162" lon="6.08879">
        <ele>1065.3</ele>
        <time>2015-06-28T07:34:45Z</time>
      </trkpt>
      <trkpt lat="46.61154" lon="6.08871">
        <ele>1064.7</ele>
        <time>2015-06-28T07:34:49Z</time>
      </trkpt>
      <trkpt lat="46.61142" lon="6.08864">
        <ele>1064.1</ele>
        <time>2015-06-28T07:34:52Z</time>
      </trkpt>
      <trkpt lat="46.61133" lon="6.08859">
        <ele>1063.7</ele>
        <time>2015-06-28T07:34:54Z</time>
      </trkpt>
      <trkpt lat="46.61123" lon="6.08854">
        <ele>1063.3</ele>
        <time>2015-06-28T07:34:56Z</time>
      </trkpt>
      <trkpt lat="46.61115" lon="6.08849">
        <ele>1062.9</ele>
        <time>2015-06-28T07:34:58Z</time>
      </trkpt>
      <trkpt lat="46.61106" lon="6.08843">
        <ele>1062.5</ele>
        <time>2015-06-28T07:35:00Z</time>
      </trkpt>
      <trkpt lat="46.61098" lon="6.08835">
        <ele>1062.2</ele>
        <time>2015-06-28T07:35:02Z</time>
      </trkpt>
      <trkpt lat="46.61091" lon="6.08824">
        <ele>1061.9</ele>
        <time>2015-06-28T07:35:04Z</time>
      </trkpt>
      <trkpt lat="46.61083" lon="6.08811">
        <ele>1061.6</ele>
        <time>2015-06-28T07:35:06Z</time>
      </trkpt>
      <trkpt lat="46.61076" lon="6.08799">
        <ele>1061.3</ele>
        <time>2015-06-28T07:35:08Z</time>
      </trkpt>
      <trkpt lat="46.61067" lon="6.08788">
        <ele>1061</ele>
        <time>2015-06-28T07:35:10Z</time>
      </trkpt>
      <trkpt lat="46.61059" lon="6.0878">
        <ele>1060.6</ele>
        <time>2015-06-28T07:35:12Z</time>
      </trkpt>
      <trkpt lat="46.61049" lon="6.08768">
        <ele>1060</ele>
        <time>2015-06-28T07:35:15Z</time>
      </trkpt>
      <trkpt lat="46.61043" lon="6.08757">
        <ele>1059.5</ele>
        <time>2015-06-28T07:35:18Z</time>
      </trkpt>
      <trkpt lat="46.61037" lon="6.08743">
        <ele>1058.9</ele>
        <time>2015-06-28T07:35:22Z</time>
      </trkpt>
      <trkpt lat="46.61031" lon="6.08729">
        <ele>1058.4</ele>
        <time>2015-06-28T07:35:26Z</time>
      </trkpt>
      <trkpt lat="46.61026" lon="6.08717">
        <ele>1058.2</ele>
        <time>2015-06-28T07:35:29Z</time>
      </trkpt>
      <trkpt lat="46.61021" lon="6.08702">
        <ele>1058</ele>
        <time>2015-06-28T07:35:32Z</time>
      </trkpt>
      <trkpt lat="46.61017" lon="6.08686">
        <ele>1057.8</ele>
        <time>2015-06-28T07:35:35Z</time>
      </trkpt>
      <trkpt lat="46.61014" lon="6.08673">
        <ele>1057.8</ele>
        <time>2015-06-28T07:35:37Z</time>
      </trkpt>
      <trkpt lat="46.61012" lon="6.08659">
        <ele>1057.7</ele>
        <time>2015-06-28T07:35:39Z</time>
      </trkpt>
      <trkpt lat="46.6101" lon="6.08645">
        <ele>1057.7</ele>
        <time>2015-06-28T07:35:41Z</time>
      </trkpt>
      <trkpt lat="46.61009" lon="6.08632">
        <ele>1057.6</ele>
        <time>2015-06-28T07:35:43Z</time>
      </trkpt>
      <trkpt lat="46.61009" lon="6.08613">
        <ele>1057.4</ele>
        <time>2015-06-28T07:35:46Z</time>
      </trkpt>
      <trkpt lat="46.61012" lon="6.08597">
        <ele>1057.2</ele>
        <time>2015-06-28T07:35:49Z</time>
      </trkpt>
      <trkpt lat="46.61009" lon="6.08584">
        <ele>1057.1</ele>
        <time>2015-06-28T07:35:52Z</time>
      </trkpt>
      <trkpt lat="46.61005" lon="6.0857">
        <ele>1056.9</ele>
        <time>2015-06-28T07:35:56Z</time>
      </trkpt>
      <trkpt lat="46.61006" lon="6.08557">
        <ele>1056.7</ele>
        <time>2015-06-28T07:35:59Z</time>
      </trkpt>
      <trkpt lat="46.61014" lon="6.08547">
        <ele>1056.5</ele>
        <time>2015-06-28T07:36:02Z</time>
      </trkpt>
      <trkpt lat="46.61022" lon="6.08538">
        <ele>1056.4</ele>
        <time>2015-06-28T07:36:05Z</time>
      </trkpt>
      <trkpt lat="46.61029" lon="6.0853">
        <ele>1056.3</ele>
        <time>2015-06-28T07:36:08Z</time>
      </trkpt>
      <trkpt lat="46.61037" lon="6.0852">
        <ele>1056.2</ele>
        <time>2015-06-28T07:36:11Z</time>
      </trkpt>
      <trkpt lat="46.61044" lon="6.0851">
        <ele>1056.2</ele>
        <time>2015-06-28T07:36:14Z</time>
      </trkpt>
      <trkpt lat="46.61048" lon="6.08498">
        <ele>1056.1</ele>
        <time>2015-06-28T07:36:17Z</time>
      </trkpt>
      <trkpt lat="46.61049" lon="6.08483">
        <ele>1056.2</ele>
        <time>2015-06-28T07:36:21Z</time>
      </trkpt>
      <trkpt lat="46.61057" lon="6.08469">
        <ele>1056.4</ele>
        <time>2015-06-28T07:36:25Z</time>
      </trkpt>
      <trkpt lat="46.61064" lon="6.0846">
        <ele>1056.6</ele>
        <time>2015-06-28T07:36:28Z</time>
      </trkpt>
      <trkpt lat="46.6107" lon="6.08449">
        <ele>1056.8</ele>
        <time>2015-06-28T07:36:31Z</time>
      </trkpt>
      <trkpt lat="46.61078" lon="6.08437">
        <ele>1057.1</ele>
        <time>2015-06-28T07:36:35Z</time>
      </trkpt>
      <trkpt lat="46.61084" lon="6.08424">
        <ele>1057.3</ele>
        <time>2015-06-28T07:36:38Z</time>
      </trkpt>
      <trkpt lat="46.61091" lon="6.08412">
        <ele>1057.5</ele>
        <time>2015-06-28T07:36:41Z</time>
      </trkpt>
      <trkpt lat="46.61097" lon="6.08401">
        <ele>1057.7</ele>
        <time>2015-06-28T07:36:44Z</time>
      </trkpt>
      <trkpt lat="46.61104" lon="6.08389">
        <ele>1057.9</ele>
        <time>2015-06-28T07:36:47Z</time>
      </trkpt>
      <trkpt lat="46.61111" lon="6.08377">
        <ele>1058.1</ele>
        <time>2015-06-28T07:36:50Z</time>
      </trkpt>
      <trkpt lat="46.61119" lon="6.08366">
        <ele>1058.4</ele>
        <time>2015-06-28T07:36:53Z</time>
      </trkpt>
      <trkpt lat="46.61126" lon="6.08355">
        <ele>1058.6</ele>
        <time>2015-06-28T07:36:56Z</time>
      </trkpt>
      <trkpt lat="46.61133" lon="6.08344">
        <ele>1058.8</ele>
        <time>2015-06-28T07:36:59Z</time>
      </trkpt>
      <trkpt lat="46.61141" lon="6.08333">
        <ele>1059.1</ele>
        <time>2015-06-28T07:37:02Z</time>
      </trkpt>
      <trkpt lat="46.61149" lon="6.08322">
        <ele>1059.4</ele>
        <time>2015-06-28T07:37:05Z</time>
      </trkpt>
      <trkpt lat="46.61155" lon="6.08312">
        <ele>1059.7</ele>
        <time>2015-06-28T07:37:08Z</time>
      </trkpt>
      <trkpt lat="46.61164" lon="6.08301">
        <ele>1060</ele>
        <time>2015-06-28T07:37:11Z</time>
      </trkpt>
      <trkpt lat="46.61172" lon="6.08288">
        <ele>1060.2</ele>
        <time>2015-06-28T07:37:14Z</time>
      </trkpt>
      <trkpt lat="46.61181" lon="6.08275">
        <ele>1060.4</ele>
        <time>2015-06-28T07:37:17Z</time>
      </trkpt>
      <trkpt lat="46.61187" lon="6.08264">
        <ele>1060.6</ele>
        <time>2015-06-28T07:37:19Z</time>
      </trkpt>
      <trkpt lat="46.61192" lon="6.08252">
        <ele>1060.7</ele>
        <time>2015-06-28T07:37:21Z</time>
      </trkpt>
      <trkpt lat="46.61195" lon="6.08239">
        <ele>1060.8</ele>
        <time>2015-06-28T07:37:23Z</time>
      </trkpt>
      <trkpt lat="46.61199" lon="6.08225">
        <ele>1060.9</ele>
        <time>2015-06-28T07:37:25Z</time>
      </trkpt>
      <trkpt lat="46.61203" lon="6.08211">
        <ele>1061</ele>
        <time>2015-06-28T07:37:27Z</time>
      </trkpt>
      <trkpt lat="46.61209" lon="6.08197">
        <ele>1061</ele>
        <time>2015-06-28T07:37:29Z</time>
      </trkpt>
      <trkpt lat="46.61215" lon="6.08182">
        <ele>1061</ele>
        <time>2015-06-28T07:37:31Z</time>
      </trkpt>
      <trkpt lat="46.61216" lon="6.08162">
        <ele>1061</ele>
        <time>2015-06-28T07:37:33Z</time>
      </trkpt>
      <trkpt lat="46.61214" lon="6.08142">
        <ele>1061</ele>
        <time>2015-06-28T07:37:35Z</time>
      </trkpt>
      <trkpt lat="46.61213" lon="6.08125">
        <ele>1060.8</ele>
        <time>2015-06-28T07:37:37Z</time>
      </trkpt>
      <trkpt lat="46.61212" lon="6.08111">
        <ele>1060.7</ele>
        <time>2015-06-28T07:37:39Z</time>
      </trkpt>
      <trkpt lat="46.61214" lon="6.08091">
        <ele>1060.6</ele>
        <time>2015-06-28T07:37:42Z</time>
      </trkpt>
      <trkpt lat="46.61215" lon="6.08077">
        <ele>1060.5</ele>
        <time>2015-06-28T07:37:44Z</time>
      </trkpt>
      <trkpt lat="46.61217" lon="6.08059">
        <ele>1060.3</ele>
        <time>2015-06-28T07:37:47Z</time>
      </trkpt>
      <trkpt lat="46.6122" lon="6.08045">
        <ele>1060.5</ele>
        <time>2015-06-28T07:37:50Z</time>
      </trkpt>
      <trkpt lat="46.61225" lon="6.08033">
        <ele>1060.6</ele>
        <time>2015-06-28T07:37:53Z</time>
      </trkpt>
      <trkpt lat="46.61231" lon="6.0802">
        <ele>1060.7</ele>
        <time>2015-06-28T07:37:56Z</time>
      </trkpt>
      <trkpt lat="46.61237" lon="6.08007">
        <ele>1060.7</ele>
        <time>2015-06-28T07:37:59Z</time>
      </trkpt>
      <trkpt lat="46.61244" lon="6.07994">
        <ele>1060.8</ele>
        <time>2015-06-28T07:38:02Z</time>
      </trkpt>
      <trkpt lat="46.61252" lon="6.07982">
        <ele>1060.9</ele>
        <time>2015-06-28T07:38:05Z</time>
      </trkpt>
      <trkpt lat="46.61258" lon="6.07968">
        <ele>1061</ele>
        <time>2015-06-28T07:38:08Z</time>
      </trkpt>
      <trkpt lat="46.61265" lon="6.07952">
        <ele>1061.1</ele>
        <time>2015-06-28T07:38:11Z</time>
      </trkpt>
      <trkpt lat="46.61269" lon="6.0794">
        <ele>1061.2</ele>
        <time>2015-06-28T07:38:13Z</time>
      </trkpt>
      <trkpt lat="46.61274" lon="6.07928">
        <ele>1061.3</ele>
        <time>2015-06-28T07:38:15Z</time>
      </trkpt>
      <trkpt lat="46.61276" lon="6.07915">
        <ele>1061.3</ele>
        <time>2015-06-28T07:38:17Z</time>
      </trkpt>
      <trkpt lat="46.61277" lon="6.07902">
        <ele>1061.4</ele>
        <time>2015-06-28T07:38:19Z</time>
      </trkpt>
      <trkpt lat="46.61281" lon="6.07883">
        <ele>1061.5</ele>
        <time>2015-06-28T07:38:22Z</time>
      </trkpt>
      <trkpt lat="46.61283" lon="6.0787">
        <ele>1061.5</ele>
        <time>2015-06-28T07:38:24Z</time>
      </trkpt>
      <trkpt lat="46.61286" lon="6.07851">
        <ele>1061.7</ele>
        <time>2015-06-28T07:38:27Z</time>
      </trkpt>
      <trkpt lat="46.61289" lon="6.07839">
        <ele>1061.8</ele>
        <time>2015-06-28T07:38:29Z</time>
      </trkpt>
      <trkpt lat="46.61294" lon="6.07827">
        <ele>1061.9</ele>
        <time>2015-06-28T07:38:31Z</time>
      </trkpt>
      <trkpt lat="46.61299" lon="6.07815">
        <ele>1061.9</ele>
        <time>2015-06-28T07:38:33Z</time>
      </trkpt>
      <trkpt lat="46.61306" lon="6.07799">
        <ele>1062.1</ele>
        <time>2015-06-28T07:38:36Z</time>
      </trkpt>
      <trkpt lat="46.61312" lon="6.07788">
        <ele>1062.1</ele>
        <time>2015-06-28T07:38:38Z</time>
      </trkpt>
      <trkpt lat="46.61319" lon="6.07772">
        <ele>1062.2</ele>
        <time>2015-06-28T07:38:41Z</time>
      </trkpt>
      <trkpt lat="46.61325" lon="6.07761">
        <ele>1062.3</ele>
        <time>2015-06-28T07:38:43Z</time>
      </trkpt>
      <trkpt lat="46.61333" lon="6.07749">
        <ele>1062.3</ele>
        <time>2015-06-28T07:38:45Z</time>
      </trkpt>
      <trkpt lat="46.61341" lon="6.07738">
        <ele>1062.4</ele>
        <time>2015-06-28T07:38:47Z</time>
      </trkpt>
      <trkpt lat="46.61348" lon="6.07729">
        <ele>1062.4</ele>
        <time>2015-06-28T07:38:49Z</time>
      </trkpt>
      <trkpt lat="46.61355" lon="6.07718">
        <ele>1062.4</ele>
        <time>2015-06-28T07:38:51Z</time>
      </trkpt>
      <trkpt lat="46.61363" lon="6.07708">
        <ele>1062.4</ele>
        <time>2015-06-28T07:38:53Z</time>
      </trkpt>
      <trkpt lat="46.61371" lon="6.07694">
        <ele>1062.5</ele>
        <time>2015-06-28T07:38:56Z</time>
      </trkpt>
      <trkpt lat="46.61377" lon="6.07684">
        <ele>1062.5</ele>
        <time>2015-06-28T07:38:58Z</time>
      </trkpt>
      <trkpt lat="46.61385" lon="6.07669">
        <ele>1062.5</ele>
        <time>2015-06-28T07:39:01Z</time>
      </trkpt>
      <trkpt lat="46.6139" lon="6.07657">
        <ele>1062.5</ele>
        <time>2015-06-28T07:39:03Z</time>
      </trkpt>
      <trkpt lat="46.61392" lon="6.07642">
        <ele>1062.5</ele>
        <time>2015-06-28T07:39:05Z</time>
      </trkpt>
      <trkpt lat="46.61397" lon="6.07629">
        <ele>1062.5</ele>
        <time>2015-06-28T07:39:07Z</time>
      </trkpt>
      <trkpt lat="46.614" lon="6.07615">
        <ele>1062.6</ele>
        <time>2015-06-28T07:39:09Z</time>
      </trkpt>
      <trkpt lat="46.61404" lon="6.07601">
        <ele>1062.6</ele>
        <time>2015-06-28T07:39:11Z</time>
      </trkpt>
      <trkpt lat="46.61408" lon="6.07588">
        <ele>1062.6</ele>
        <time>2015-06-28T07:39:13Z</time>
      </trkpt>
      <trkpt lat="46.61413" lon="6.07576">
        <ele>1062.6</ele>
        <time>2015-06-28T07:39:15Z</time>
      </trkpt>
      <trkpt lat="46.61419" lon="6.07565">
        <ele>1062.6</ele>
        <time>2015-06-28T07:39:17Z</time>
      </trkpt>
      <trkpt lat="46.61425" lon="6.07553">
        <ele>1062.6</ele>
        <time>2015-06-28T07:39:19Z</time>
      </trkpt>
      <trkpt lat="46.61432" lon="6.07541">
        <ele>1062.6</ele>
        <time>2015-06-28T07:39:21Z</time>
      </trkpt>
      <trkpt lat="46.61438" lon="6.0753">
        <ele>1062.6</ele>
        <time>2015-06-28T07:39:23Z</time>
      </trkpt>
      <trkpt lat="46.61445" lon="6.07519">
        <ele>1062.6</ele>
        <time>2015-06-28T07:39:25Z</time>
      </trkpt>
      <trkpt lat="46.61451" lon="6.07507">
        <ele>1062.6</ele>
        <time>2015-06-28T07:39:27Z</time>
      </trkpt>
      <trkpt lat="46.61458" lon="6.07494">
        <ele>1062.7</ele>
        <time>2015-06-28T07:39:29Z</time>
      </trkpt>
      <trkpt lat="46.61465" lon="6.07483">
        <ele>1062.9</ele>
        <time>2015-06-28T07:39:32Z</time>
      </trkpt>
      <trkpt lat="46.61471" lon="6.07472">
        <ele>1063.1</ele>
        <time>2015-06-28T07:39:35Z</time>
      </trkpt>
      <trkpt lat="46.61476" lon="6.07455">
        <ele>1063.3</ele>
        <time>2015-06-28T07:39:38Z</time>
      </trkpt>
      <trkpt lat="46.61483" lon="6.07447">
        <ele>1063.6</ele>
        <time>2015-06-28T07:39:41Z</time>
      </trkpt>
      <trkpt lat="46.61491" lon="6.07438">
        <ele>1063.8</ele>
        <time>2015-06-28T07:39:44Z</time>
      </trkpt>
      <trkpt lat="46.61499" lon="6.07428">
        <ele>1064</ele>
        <time>2015-06-28T07:39:47Z</time>
      </trkpt>
      <trkpt lat="46.61508" lon="6.07419">
        <ele>1064.3</ele>
        <time>2015-06-28T07:39:50Z</time>
      </trkpt>
      <trkpt lat="46.61517" lon="6.07407">
        <ele>1064.6</ele>
        <time>2015-06-28T07:39:53Z</time>
      </trkpt>
      <trkpt lat="46.61523" lon="6.07397">
        <ele>1065</ele>
        <time>2015-06-28T07:39:56Z</time>
      </trkpt>
      <trkpt lat="46.61528" lon="6.07386">
        <ele>1065.4</ele>
        <time>2015-06-28T07:39:59Z</time>
      </trkpt>
      <trkpt lat="46.61537" lon="6.07375">
        <ele>1066.2</ele>
        <time>2015-06-28T07:40:04Z</time>
      </trkpt>
      <trkpt lat="46.61543" lon="6.07364">
        <ele>1066.8</ele>
        <time>2015-06-28T07:40:08Z</time>
      </trkpt>
      <trkpt lat="46.61551" lon="6.07353">
        <ele>1067.5</ele>
        <time>2015-06-28T07:40:12Z</time>
      </trkpt>
      <trkpt lat="46.61552" lon="6.07339">
        <ele>1068.3</ele>
        <time>2015-06-28T07:40:17Z</time>
      </trkpt>
      <trkpt lat="46.6155" lon="6.07325">
        <ele>1068.8</ele>
        <time>2015-06-28T07:40:21Z</time>
      </trkpt>
      <trkpt lat="46.61554" lon="6.07312">
        <ele>1069.5</ele>
        <time>2015-06-28T07:40:25Z</time>
      </trkpt>
      <trkpt lat="46.61562" lon="6.07303">
        <ele>1070</ele>
        <time>2015-06-28T07:40:29Z</time>
      </trkpt>
      <trkpt lat="46.61571" lon="6.07295">
        <ele>1070.5</ele>
        <time>2015-06-28T07:40:33Z</time>
      </trkpt>
      <trkpt lat="46.61581" lon="6.07286">
        <ele>1070.9</ele>
        <time>2015-06-28T07:40:37Z</time>
      </trkpt>
      <trkpt lat="46.6159" lon="6.07278">
        <ele>1071.2</ele>
        <time>2015-06-28T07:40:41Z</time>
      </trkpt>
      <trkpt lat="46.61599" lon="6.07273">
        <ele>1071.6</ele>
        <time>2015-06-28T07:40:45Z</time>
      </trkpt>
      <trkpt lat="46.61608" lon="6.07267">
        <ele>1071.8</ele>
        <time>2015-06-28T07:40:48Z</time>
      </trkpt>
      <trkpt lat="46.61617" lon="6.07261">
        <ele>1072</ele>
        <time>2015-06-28T07:40:51Z</time>
      </trkpt>
      <trkpt lat="46.61625" lon="6.07253">
        <ele>1072.2</ele>
        <time>2015-06-28T07:40:54Z</time>
      </trkpt>
      <trkpt lat="46.61634" lon="6.07243">
        <ele>1072.3</ele>
        <time>2015-06-28T07:40:57Z</time>
      </trkpt>
      <trkpt lat="46.61641" lon="6.07235">
        <ele>1072.4</ele>
        <time>2015-06-28T07:41:00Z</time>
      </trkpt>
      <trkpt lat="46.6165" lon="6.0723">
        <ele>1072.5</ele>
        <time>2015-06-28T07:41:02Z</time>
      </trkpt>
      <trkpt lat="46.61665" lon="6.07222">
        <ele>1072.6</ele>
        <time>2015-06-28T07:41:05Z</time>
      </trkpt>
      <trkpt lat="46.61674" lon="6.07218">
        <ele>1072.6</ele>
        <time>2015-06-28T07:41:07Z</time>
      </trkpt>
      <trkpt lat="46.61685" lon="6.07215">
        <ele>1072.7</ele>
        <time>2015-06-28T07:41:09Z</time>
      </trkpt>
      <trkpt lat="46.61696" lon="6.07213">
        <ele>1072.8</ele>
        <time>2015-06-28T07:41:11Z</time>
      </trkpt>
      <trkpt lat="46.61706" lon="6.07211">
        <ele>1072.8</ele>
        <time>2015-06-28T07:41:13Z</time>
      </trkpt>
      <trkpt lat="46.61719" lon="6.07209">
        <ele>1072.9</ele>
        <time>2015-06-28T07:41:15Z</time>
      </trkpt>
      <trkpt lat="46.61731" lon="6.07209">
        <ele>1072.8</ele>
        <time>2015-06-28T07:41:17Z</time>
      </trkpt>
      <trkpt lat="46.61747" lon="6.07209">
        <ele>1072.8</ele>
        <time>2015-06-28T07:41:19Z</time>
      </trkpt>
      <trkpt lat="46.61762" lon="6.07209">
        <ele>1072.7</ele>
        <time>2015-06-28T07:41:21Z</time>
      </trkpt>
      <trkpt lat="46.61772" lon="6.0721">
        <ele>1072.6</ele>
        <time>2015-06-28T07:41:22Z</time>
      </trkpt>
      <trkpt lat="46.61785" lon="6.07215">
        <ele>1072.3</ele>
        <time>2015-06-28T07:41:24Z</time>
      </trkpt>
      <trkpt lat="46.61798" lon="6.07217">
        <ele>1071.9</ele>
        <time>2015-06-28T07:41:26Z</time>
      </trkpt>
      <trkpt lat="46.6181" lon="6.07212">
        <ele>1071.3</ele>
        <time>2015-06-28T07:41:28Z</time>
      </trkpt>
      <trkpt lat="46.61822" lon="6.07202">
        <ele>1070.8</ele>
        <time>2015-06-28T07:41:30Z</time>
      </trkpt>
      <trkpt lat="46.61834" lon="6.0719">
        <ele>1070.1</ele>
        <time>2015-06-28T07:41:32Z</time>
      </trkpt>
      <trkpt lat="46.61846" lon="6.07178">
        <ele>1069.4</ele>
        <time>2015-06-28T07:41:34Z</time>
      </trkpt>
      <trkpt lat="46.6186" lon="6.07164">
        <ele>1068.7</ele>
        <time>2015-06-28T07:41:36Z</time>
      </trkpt>
      <trkpt lat="46.61873" lon="6.07149">
        <ele>1067.9</ele>
        <time>2015-06-28T07:41:38Z</time>
      </trkpt>
      <trkpt lat="46.61886" lon="6.07134">
        <ele>1067.2</ele>
        <time>2015-06-28T07:41:40Z</time>
      </trkpt>
      <trkpt lat="46.61899" lon="6.07118">
        <ele>1066.6</ele>
        <time>2015-06-28T07:41:42Z</time>
      </trkpt>
      <trkpt lat="46.61912" lon="6.07102">
        <ele>1065.7</ele>
        <time>2015-06-28T07:41:44Z</time>
      </trkpt>
      <trkpt lat="46.61918" lon="6.07087">
        <ele>1065</ele>
        <time>2015-06-28T07:41:46Z</time>
      </trkpt>
      <trkpt lat="46.61925" lon="6.07069">
        <ele>1064.1</ele>
        <time>2015-06-28T07:41:48Z</time>
      </trkpt>
      <trkpt lat="46.61932" lon="6.07057">
        <ele>1063.2</ele>
        <time>2015-06-28T07:41:50Z</time>
      </trkpt>
      <trkpt lat="46.61943" lon="6.07045">
        <ele>1061.8</ele>
        <time>2015-06-28T07:41:53Z</time>
      </trkpt>
      <trkpt lat="46.61953" lon="6.07036">
        <ele>1060.8</ele>
        <time>2015-06-28T07:41:55Z</time>
      </trkpt>
      <trkpt lat="46.61962" lon="6.07024">
        <ele>1059.8</ele>
        <time>2015-06-28T07:41:57Z</time>
      </trkpt>
      <trkpt lat="46.61973" lon="6.07012">
        <ele>1058.9</ele>
        <time>2015-06-28T07:41:59Z</time>
      </trkpt>
      <trkpt lat="46.61985" lon="6.06999">
        <ele>1058</ele>
        <time>2015-06-28T07:42:01Z</time>
      </trkpt>
      <trkpt lat="46.61996" lon="6.06981">
        <ele>1057.2</ele>
        <time>2015-06-28T07:42:03Z</time>
      </trkpt>
      <trkpt lat="46.62007" lon="6.06964">
        <ele>1056.3</ele>
        <time>2015-06-28T07:42:05Z</time>
      </trkpt>
      <trkpt lat="46.62012" lon="6.06943">
        <ele>1055.3</ele>
        <time>2015-06-28T07:42:07Z</time>
      </trkpt>
      <trkpt lat="46.62013" lon="6.06924">
        <ele>1054.4</ele>
        <time>2015-06-28T07:42:09Z</time>
      </trkpt>
      <trkpt lat="46.62017" lon="6.06906">
        <ele>1053.6</ele>
        <time>2015-06-28T07:42:11Z</time>
      </trkpt>
      <trkpt lat="46.62022" lon="6.0689">
        <ele>1052.7</ele>
        <time>2015-06-28T07:42:13Z</time>
      </trkpt>
      <trkpt lat="46.62028" lon="6.06874">
        <ele>1051.7</ele>
        <time>2015-06-28T07:42:15Z</time>
      </trkpt>
      <trkpt lat="46.62034" lon="6.06855">
        <ele>1050.8</ele>
        <time>2015-06-28T07:42:17Z</time>
      </trkpt>
      <trkpt lat="46.62039" lon="6.06837">
        <ele>1049.7</ele>
        <time>2015-06-28T07:42:19Z</time>
      </trkpt>
      <trkpt lat="46.62044" lon="6.06824">
        <ele>1048.7</ele>
        <time>2015-06-28T07:42:21Z</time>
      </trkpt>
      <trkpt lat="46.62051" lon="6.06815">
        <ele>1047.9</ele>
        <time>2015-06-28T07:42:23Z</time>
      </trkpt>
      <trkpt lat="46.6206" lon="6.0681">
        <ele>1047</ele>
        <time>2015-06-28T07:42:25Z</time>
      </trkpt>
      <trkpt lat="46.62069" lon="6.06801">
        <ele>1046.2</ele>
        <time>2015-06-28T07:42:27Z</time>
      </trkpt>
      <trkpt lat="46.62076" lon="6.0679">
        <ele>1045.3</ele>
        <time>2015-06-28T07:42:29Z</time>
      </trkpt>
      <trkpt lat="46.62086" lon="6.06777">
        <ele>1043.9</ele>
        <time>2015-06-28T07:42:32Z</time>
      </trkpt>
      <trkpt lat="46.62095" lon="6.06769">
        <ele>1042.6</ele>
        <time>2015-06-28T07:42:35Z</time>
      </trkpt>
      <trkpt lat="46.62106" lon="6.0676">
        <ele>1041.3</ele>
        <time>2015-06-28T07:42:38Z</time>
      </trkpt>
      <trkpt lat="46.62114" lon="6.06748">
        <ele>1040.4</ele>
        <time>2015-06-28T07:42:40Z</time>
      </trkpt>
      <trkpt lat="46.62124" lon="6.06738">
        <ele>1039.3</ele>
        <time>2015-06-28T07:42:42Z</time>
      </trkpt>
      <trkpt lat="46.62137" lon="6.0673">
        <ele>1038.3</ele>
        <time>2015-06-28T07:42:44Z</time>
      </trkpt>
      <trkpt lat="46.62152" lon="6.06725">
        <ele>1037.4</ele>
        <time>2015-06-28T07:42:46Z</time>
      </trkpt>
      <trkpt lat="46.62163" lon="6.06726">
        <ele>1037</ele>
        <time>2015-06-28T07:42:47Z</time>
      </trkpt>
      <trkpt lat="46.62175" lon="6.06726">
        <ele>1036.5</ele>
        <time>2015-06-28T07:42:48Z</time>
      </trkpt>
      <trkpt lat="46.62187" lon="6.06718">
        <ele>1035.7</ele>
        <time>2015-06-28T07:42:50Z</time>
      </trkpt>
      <trkpt lat="46.62199" lon="6.06708">
        <ele>1034.9</ele>
        <time>2015-06-28T07:42:52Z</time>
      </trkpt>
      <trkpt lat="46.62211" lon="6.06695">
        <ele>1034.1</ele>
        <time>2015-06-28T07:42:54Z</time>
      </trkpt>
      <trkpt lat="46.62223" lon="6.06681">
        <ele>1033.4</ele>
        <time>2015-06-28T07:42:56Z</time>
      </trkpt>
      <trkpt lat="46.62231" lon="6.06671">
        <ele>1032.7</ele>
        <time>2015-06-28T07:42:58Z</time>
      </trkpt>
      <trkpt lat="46.62243" lon="6.0666">
        <ele>1031.8</ele>
        <time>2015-06-28T07:43:01Z</time>
      </trkpt>
      <trkpt lat="46.62251" lon="6.06653">
        <ele>1031.3</ele>
        <time>2015-06-28T07:43:03Z</time>
      </trkpt>
      <trkpt lat="46.62261" lon="6.06645">
        <ele>1030.8</ele>
        <time>2015-06-28T07:43:05Z</time>
      </trkpt>
      <trkpt lat="46.62275" lon="6.06635">
        <ele>1030.3</ele>
        <time>2015-06-28T07:43:07Z</time>
      </trkpt>
      <trkpt lat="46.62288" lon="6.06625">
        <ele>1029.8</ele>
        <time>2015-06-28T07:43:09Z</time>
      </trkpt>
      <trkpt lat="46.62302" lon="6.06616">
        <ele>1029.4</ele>
        <time>2015-06-28T07:43:11Z</time>
      </trkpt>
      <trkpt lat="46.62317" lon="6.06607">
        <ele>1028.8</ele>
        <time>2015-06-28T07:43:13Z</time>
      </trkpt>
      <trkpt lat="46.62331" lon="6.06596">
        <ele>1028.3</ele>
        <time>2015-06-28T07:43:15Z</time>
      </trkpt>
      <trkpt lat="46.62345" lon="6.06583">
        <ele>1027.8</ele>
        <time>2015-06-28T07:43:17Z</time>
      </trkpt>
      <trkpt lat="46.62359" lon="6.06564">
        <ele>1027.3</ele>
        <time>2015-06-28T07:43:19Z</time>
      </trkpt>
      <trkpt lat="46.62368" lon="6.06544">
        <ele>1026.7</ele>
        <time>2015-06-28T07:43:21Z</time>
      </trkpt>
      <trkpt lat="46.62375" lon="6.06525">
        <ele>1026.1</ele>
        <time>2015-06-28T07:43:23Z</time>
      </trkpt>
      <trkpt lat="46.6238" lon="6.06509">
        <ele>1025.5</ele>
        <time>2015-06-28T07:43:25Z</time>
      </trkpt>
      <trkpt lat="46.62385" lon="6.06496">
        <ele>1024.9</ele>
        <time>2015-06-28T07:43:27Z</time>
      </trkpt>
      <trkpt lat="46.6239" lon="6.0648">
        <ele>1024.2</ele>
        <time>2015-06-28T07:43:30Z</time>
      </trkpt>
      <trkpt lat="46.62393" lon="6.06466">
        <ele>1023.6</ele>
        <time>2015-06-28T07:43:33Z</time>
      </trkpt>
      <trkpt lat="46.62399" lon="6.0645">
        <ele>1023.1</ele>
        <time>2015-06-28T07:43:36Z</time>
      </trkpt>
      <trkpt lat="46.62404" lon="6.06436">
        <ele>1022.8</ele>
        <time>2015-06-28T07:43:39Z</time>
      </trkpt>
      <trkpt lat="46.62411" lon="6.06425">
        <ele>1022.4</ele>
        <time>2015-06-28T07:43:42Z</time>
      </trkpt>
      <trkpt lat="46.62422" lon="6.06418">
        <ele>1022.3</ele>
        <time>2015-06-28T07:43:45Z</time>
      </trkpt>
      <trkpt lat="46.62433" lon="6.06416">
        <ele>1022.2</ele>
        <time>2015-06-28T07:43:48Z</time>
      </trkpt>
      <trkpt lat="46.62444" lon="6.06411">
        <ele>1022.3</ele>
        <time>2015-06-28T07:43:51Z</time>
      </trkpt>
      <trkpt lat="46.62454" lon="6.06409">
        <ele>1022.4</ele>
        <time>2015-06-28T07:43:54Z</time>
      </trkpt>
      <trkpt lat="46.62464" lon="6.06408">
        <ele>1022.5</ele>
        <time>2015-06-28T07:43:57Z</time>
      </trkpt>
      <trkpt lat="46.62473" lon="6.06405">
        <ele>1022.7</ele>
        <time>2015-06-28T07:44:00Z</time>
      </trkpt>
      <trkpt lat="46.62482" lon="6.06402">
        <ele>1023.1</ele>
        <time>2015-06-28T07:44:04Z</time>
      </trkpt>
      <trkpt lat="46.62492" lon="6.06399">
        <ele>1023.5</ele>
        <time>2015-06-28T07:44:08Z</time>
      </trkpt>
      <trkpt lat="46.62501" lon="6.06394">
        <ele>1024.1</ele>
        <time>2015-06-28T07:44:13Z</time>
      </trkpt>
      <trkpt lat="46.6251" lon="6.06387">
        <ele>1024.6</ele>
        <time>2015-06-28T07:44:18Z</time>
      </trkpt>
      <trkpt lat="46.62517" lon="6.06378">
        <ele>1025.3</ele>
        <time>2015-06-28T07:44:25Z</time>
      </trkpt>
      <trkpt lat="46.62525" lon="6.06368">
        <ele>1026.3</ele>
        <time>2015-06-28T07:44:34Z</time>
      </trkpt>
      <trkpt lat="46.62534" lon="6.06372">
        <ele>1027.1</ele>
        <time>2015-06-28T07:44:40Z</time>
      </trkpt>
      <trkpt lat="46.62543" lon="6.06378">
        <ele>1028.1</ele>
        <time>2015-06-28T07:44:47Z</time>
      </trkpt>
      <trkpt lat="46.62552" lon="6.06383">
        <ele>1029</ele>
        <time>2015-06-28T07:44:52Z</time>
      </trkpt>
      <trkpt lat="46.62558" lon="6.06395">
        <ele>1029.7</ele>
        <time>2015-06-28T07:44:57Z</time>
      </trkpt>
      <trkpt lat="46.62562" lon="6.06408">
        <ele>1030.6</ele>
        <time>2015-06-28T07:45:04Z</time>
      </trkpt>
      <trkpt lat="46.62562" lon="6.06421">
        <ele>1031.4</ele>
        <time>2015-06-28T07:45:10Z</time>
      </trkpt>
      <trkpt lat="46.62568" lon="6.06432">
        <ele>1032.6</ele>
        <time>2015-06-28T07:45:17Z</time>
      </trkpt>
      <trkpt lat="46.62575" lon="6.06443">
        <ele>1033.3</ele>
        <time>2015-06-28T07:45:22Z</time>
      </trkpt>
      <trkpt lat="46.6258" lon="6.06455">
        <ele>1033.8</ele>
        <time>2015-06-28T07:45:26Z</time>
      </trkpt>
      <trkpt lat="46.62585" lon="6.06467">
        <ele>1034.8</ele>
        <time>2015-06-28T07:45:32Z</time>
      </trkpt>
      <trkpt lat="46.62591" lon="6.06479">
        <ele>1035.7</ele>
        <time>2015-06-28T07:45:38Z</time>
      </trkpt>
      <trkpt lat="46.62597" lon="6.06489">
        <ele>1036.3</ele>
        <time>2015-06-28T07:45:42Z</time>
      </trkpt>
      <trkpt lat="46.62605" lon="6.06498">
        <ele>1037</ele>
        <time>2015-06-28T07:45:47Z</time>
      </trkpt>
      <trkpt lat="46.62616" lon="6.06501">
        <ele>1037.5</ele>
        <time>2015-06-28T07:45:51Z</time>
      </trkpt>
      <trkpt lat="46.62627" lon="6.06507">
        <ele>1037.9</ele>
        <time>2015-06-28T07:45:55Z</time>
      </trkpt>
      <trkpt lat="46.62637" lon="6.06508">
        <ele>1038.2</ele>
        <time>2015-06-28T07:45:58Z</time>
      </trkpt>
      <trkpt lat="46.62648" lon="6.06511">
        <ele>1038.5</ele>
        <time>2015-06-28T07:46:02Z</time>
      </trkpt>
      <trkpt lat="46.62658" lon="6.06513">
        <ele>1038.7</ele>
        <time>2015-06-28T07:46:05Z</time>
      </trkpt>
      <trkpt lat="46.62666" lon="6.0652">
        <ele>1038.9</ele>
        <time>2015-06-28T07:46:08Z</time>
      </trkpt>
      <trkpt lat="46.62677" lon="6.06527">
        <ele>1039</ele>
        <time>2015-06-28T07:46:11Z</time>
      </trkpt>
      <trkpt lat="46.62687" lon="6.06534">
        <ele>1039.2</ele>
        <time>2015-06-28T07:46:14Z</time>
      </trkpt>
      <trkpt lat="46.62697" lon="6.06545">
        <ele>1039.3</ele>
        <time>2015-06-28T07:46:17Z</time>
      </trkpt>
      <trkpt lat="46.62706" lon="6.06551">
        <ele>1039.4</ele>
        <time>2015-06-28T07:46:20Z</time>
      </trkpt>
      <trkpt lat="46.62715" lon="6.0656">
        <ele>1039.5</ele>
        <time>2015-06-28T07:46:23Z</time>
      </trkpt>
      <trkpt lat="46.62726" lon="6.06567">
        <ele>1039.6</ele>
        <time>2015-06-28T07:46:26Z</time>
      </trkpt>
      <trkpt lat="46.62737" lon="6.06577">
        <ele>1039.7</ele>
        <time>2015-06-28T07:46:28Z</time>
      </trkpt>
      <trkpt lat="46.62747" lon="6.06584">
        <ele>1039.7</ele>
        <time>2015-06-28T07:46:30Z</time>
      </trkpt>
      <trkpt lat="46.62757" lon="6.0659">
        <ele>1039.7</ele>
        <time>2015-06-28T07:46:32Z</time>
      </trkpt>
      <trkpt lat="46.62767" lon="6.06598">
        <ele>1039.7</ele>
        <time>2015-06-28T07:46:34Z</time>
      </trkpt>
      <trkpt lat="46.62776" lon="6.06605">
        <ele>1039.8</ele>
        <time>2015-06-28T07:46:36Z</time>
      </trkpt>
      <trkpt lat="46.62784" lon="6.06613">
        <ele>1039.7</ele>
        <time>2015-06-28T07:46:38Z</time>
      </trkpt>
      <trkpt lat="46.62792" lon="6.06622">
        <ele>1039.7</ele>
        <time>2015-06-28T07:46:40Z</time>
      </trkpt>
      <trkpt lat="46.62799" lon="6.06629">
        <ele>1039.7</ele>
        <time>2015-06-28T07:46:42Z</time>
      </trkpt>
      <trkpt lat="46.62809" lon="6.06637">
        <ele>1039.6</ele>
        <time>2015-06-28T07:46:45Z</time>
      </trkpt>
      <trkpt lat="46.62818" lon="6.06647">
        <ele>1039.6</ele>
        <time>2015-06-28T07:46:49Z</time>
      </trkpt>
      <trkpt lat="46.62824" lon="6.06658">
        <ele>1039.5</ele>
        <time>2015-06-28T07:46:53Z</time>
      </trkpt>
      <trkpt lat="46.62832" lon="6.06667">
        <ele>1039.8</ele>
        <time>2015-06-28T07:46:57Z</time>
      </trkpt>
      <trkpt lat="46.62841" lon="6.06678">
        <ele>1040.2</ele>
        <time>2015-06-28T07:47:02Z</time>
      </trkpt>
      <trkpt lat="46.62846" lon="6.06689">
        <ele>1040.3</ele>
        <time>2015-06-28T07:47:06Z</time>
      </trkpt>
      <trkpt lat="46.62852" lon="6.06701">
        <ele>1040.6</ele>
        <time>2015-06-28T07:47:10Z</time>
      </trkpt>
      <trkpt lat="46.62861" lon="6.0671">
        <ele>1040.9</ele>
        <time>2015-06-28T07:47:14Z</time>
      </trkpt>
      <trkpt lat="46.62871" lon="6.06716">
        <ele>1041.3</ele>
        <time>2015-06-28T07:47:18Z</time>
      </trkpt>
      <trkpt lat="46.62882" lon="6.06716">
        <ele>1041.5</ele>
        <time>2015-06-28T07:47:21Z</time>
      </trkpt>
      <trkpt lat="46.62893" lon="6.06716">
        <ele>1041.7</ele>
        <time>2015-06-28T07:47:23Z</time>
      </trkpt>
      <trkpt lat="46.62903" lon="6.06712">
        <ele>1042</ele>
        <time>2015-06-28T07:47:26Z</time>
      </trkpt>
      <trkpt lat="46.62912" lon="6.06711">
        <ele>1042.2</ele>
        <time>2015-06-28T07:47:28Z</time>
      </trkpt>
      <trkpt lat="46.62923" lon="6.06705">
        <ele>1042.5</ele>
        <time>2015-06-28T07:47:32Z</time>
      </trkpt>
      <trkpt lat="46.62932" lon="6.06695">
        <ele>1042.8</ele>
        <time>2015-06-28T07:47:35Z</time>
      </trkpt>
      <trkpt lat="46.6294" lon="6.06687">
        <ele>1042.9</ele>
        <time>2015-06-28T07:47:38Z</time>
      </trkpt>
      <trkpt lat="46.62948" lon="6.06679">
        <ele>1043.1</ele>
        <time>2015-06-28T07:47:41Z</time>
      </trkpt>
      <trkpt lat="46.62957" lon="6.06671">
        <ele>1043.2</ele>
        <time>2015-06-28T07:47:44Z</time>
      </trkpt>
      <trkpt lat="46.62967" lon="6.06661">
        <ele>1043.3</ele>
        <time>2015-06-28T07:47:48Z</time>
      </trkpt>
      <trkpt lat="46.62975" lon="6.06651">
        <ele>1043.4</ele>
        <time>2015-06-28T07:47:51Z</time>
      </trkpt>
      <trkpt lat="46.62982" lon="6.06642">
        <ele>1043.5</ele>
        <time>2015-06-28T07:47:54Z</time>
      </trkpt>
      <trkpt lat="46.62988" lon="6.06629">
        <ele>1043.9</ele>
        <time>2015-06-28T07:48:00Z</time>
      </trkpt>
      <trkpt lat="46.62996" lon="6.06623">
        <ele>1044.1</ele>
        <time>2015-06-28T07:48:04Z</time>
      </trkpt>
      <trkpt lat="46.63007" lon="6.06627">
        <ele>1044.5</ele>
        <time>2015-06-28T07:48:09Z</time>
      </trkpt>
      <trkpt lat="46.63016" lon="6.06632">
        <ele>1044.8</ele>
        <time>2015-06-28T07:48:13Z</time>
      </trkpt>
      <trkpt lat="46.63024" lon="6.06641">
        <ele>1045.2</ele>
        <time>2015-06-28T07:48:18Z</time>
      </trkpt>
      <trkpt lat="46.63032" lon="6.06651">
        <ele>1045.5</ele>
        <time>2015-06-28T07:48:22Z</time>
      </trkpt>
      <trkpt lat="46.6304" lon="6.06661">
        <ele>1045.7</ele>
        <time>2015-06-28T07:48:25Z</time>
      </trkpt>
      <trkpt lat="46.63047" lon="6.06675">
        <ele>1045.8</ele>
        <time>2015-06-28T07:48:28Z</time>
      </trkpt>
      <trkpt lat="46.63053" lon="6.06692">
        <ele>1045.9</ele>
        <time>2015-06-28T07:48:31Z</time>
      </trkpt>
      <trkpt lat="46.63058" lon="6.06704">
        <ele>1046</ele>
        <time>2015-06-28T07:48:33Z</time>
      </trkpt>
      <trkpt lat="46.63068" lon="6.06713">
        <ele>1046.1</ele>
        <time>2015-06-28T07:48:36Z</time>
      </trkpt>
      <trkpt lat="46.6308" lon="6.06715">
        <ele>1046.2</ele>
        <time>2015-06-28T07:48:39Z</time>
      </trkpt>
      <trkpt lat="46.63089" lon="6.06714">
        <ele>1046.2</ele>
        <time>2015-06-28T07:48:41Z</time>
      </trkpt>
      <trkpt lat="46.63101" lon="6.06715">
        <ele>1046.2</ele>
        <time>2015-06-28T07:48:44Z</time>
      </trkpt>
      <trkpt lat="46.63111" lon="6.06719">
        <ele>1046</ele>
        <time>2015-06-28T07:48:46Z</time>
      </trkpt>
      <trkpt lat="46.63121" lon="6.06725">
        <ele>1045.9</ele>
        <time>2015-06-28T07:48:48Z</time>
      </trkpt>
      <trkpt lat="46.63129" lon="6.06731">
        <ele>1045.7</ele>
        <time>2015-06-28T07:48:50Z</time>
      </trkpt>
      <trkpt lat="46.63141" lon="6.06736">
        <ele>1045.4</ele>
        <time>2015-06-28T07:48:53Z</time>
      </trkpt>
      <trkpt lat="46.63152" lon="6.06738">
        <ele>1045.1</ele>
        <time>2015-06-28T07:48:56Z</time>
      </trkpt>
      <trkpt lat="46.63164" lon="6.06742">
        <ele>1045</ele>
        <time>2015-06-28T07:48:58Z</time>
      </trkpt>
      <trkpt lat="46.63176" lon="6.0675">
        <ele>1044.8</ele>
        <time>2015-06-28T07:49:00Z</time>
      </trkpt>
      <trkpt lat="46.63186" lon="6.06759">
        <ele>1044.7</ele>
        <time>2015-06-28T07:49:02Z</time>
      </trkpt>
      <trkpt lat="46.63194" lon="6.06767">
        <ele>1044.5</ele>
        <time>2015-06-28T07:49:04Z</time>
      </trkpt>
      <trkpt lat="46.63203" lon="6.06776">
        <ele>1044.4</ele>
        <time>2015-06-28T07:49:07Z</time>
      </trkpt>
      <trkpt lat="46.63213" lon="6.06781">
        <ele>1044.3</ele>
        <time>2015-06-28T07:49:10Z</time>
      </trkpt>
      <trkpt lat="46.63222" lon="6.06786">
        <ele>1044.2</ele>
        <time>2015-06-28T07:49:13Z</time>
      </trkpt>
      <trkpt lat="46.63232" lon="6.06789">
        <ele>1044.3</ele>
        <time>2015-06-28T07:49:17Z</time>
      </trkpt>
      <trkpt lat="46.63243" lon="6.06793">
        <ele>1044.4</ele>
        <time>2015-06-28T07:49:21Z</time>
      </trkpt>
      <trkpt lat="46.63255" lon="6.06799">
        <ele>1044.6</ele>
        <time>2015-06-28T07:49:24Z</time>
      </trkpt>
      <trkpt lat="46.63264" lon="6.06805">
        <ele>1044.8</ele>
        <time>2015-06-28T07:49:27Z</time>
      </trkpt>
      <trkpt lat="46.63272" lon="6.06813">
        <ele>1045</ele>
        <time>2015-06-28T07:49:31Z</time>
      </trkpt>
      <trkpt lat="46.63279" lon="6.06822">
        <ele>1045.3</ele>
        <time>2015-06-28T07:49:35Z</time>
      </trkpt>
      <trkpt lat="46.63288" lon="6.0683">
        <ele>1045.7</ele>
        <time>2015-06-28T07:49:39Z</time>
      </trkpt>
      <trkpt lat="46.63294" lon="6.06842">
        <ele>1046.2</ele>
        <time>2015-06-28T07:49:44Z</time>
      </trkpt>
      <trkpt lat="46.63299" lon="6.06855">
        <ele>1046.7</ele>
        <time>2015-06-28T07:49:49Z</time>
      </trkpt>
      <trkpt lat="46.63302" lon="6.06868">
        <ele>1047.2</ele>
        <time>2015-06-28T07:49:54Z</time>
      </trkpt>
      <trkpt lat="46.63304" lon="6.06881">
        <ele>1047.8</ele>
        <time>2015-06-28T07:49:59Z</time>
      </trkpt>
      <trkpt lat="46.63306" lon="6.06895">
        <ele>1048.9</ele>
        <time>2015-06-28T07:50:07Z</time>
      </trkpt>
      <trkpt lat="46.63305" lon="6.06909">
        <ele>1049.4</ele>
        <time>2015-06-28T07:50:11Z</time>
      </trkpt>
      <trkpt lat="46.63303" lon="6.06926">
        <ele>1050</ele>
        <time>2015-06-28T07:50:16Z</time>
      </trkpt>
      <trkpt lat="46.63305" lon="6.06942">
        <ele>1050.6</ele>
        <time>2015-06-28T07:50:20Z</time>
      </trkpt>
      <trkpt lat="46.63308" lon="6.06956">
        <ele>1051.4</ele>
        <time>2015-06-28T07:50:24Z</time>
      </trkpt>
      <trkpt lat="46.63313" lon="6.0697">
        <ele>1052</ele>
        <time>2015-06-28T07:50:28Z</time>
      </trkpt>
      <trkpt lat="46.63319" lon="6.06982">
        <ele>1052.6</ele>
        <time>2015-06-28T07:50:32Z</time>
      </trkpt>
      <trkpt lat="46.63324" lon="6.06993">
        <ele>1053.1</ele>
        <time>2015-06-28T07:50:36Z</time>
      </trkpt>
      <trkpt lat="46.6333" lon="6.07005">
        <ele>1053.8</ele>
        <time>2015-06-28T07:50:41Z</time>
      </trkpt>
      <trkpt lat="46.63337" lon="6.07017">
        <ele>1054.4</ele>
        <time>2015-06-28T07:50:46Z</time>
      </trkpt>
      <trkpt lat="46.63342" lon="6.07029">
        <ele>1054.9</ele>
        <time>2015-06-28T07:50:50Z</time>
      </trkpt>
      <trkpt lat="46.63348" lon="6.0704">
        <ele>1055.6</ele>
        <time>2015-06-28T07:50:54Z</time>
      </trkpt>
      <trkpt lat="46.63354" lon="6.07052">
        <ele>1056</ele>
        <time>2015-06-28T07:50:58Z</time>
      </trkpt>
      <trkpt lat="46.63361" lon="6.07064">
        <ele>1056.5</ele>
        <time>2015-06-28T07:51:02Z</time>
      </trkpt>
      <trkpt lat="46.63368" lon="6.07075">
        <ele>1056.8</ele>
        <time>2015-06-28T07:51:05Z</time>
      </trkpt>
      <trkpt lat="46.63375" lon="6.07083">
        <ele>1057.1</ele>
        <time>2015-06-28T07:51:09Z</time>
      </trkpt>
      <trkpt lat="46.63386" lon="6.0709">
        <ele>1057.6</ele>
        <time>2015-06-28T07:51:14Z</time>
      </trkpt>
      <trkpt lat="46.63396" lon="6.07097">
        <ele>1058.2</ele>
        <time>2015-06-28T07:51:18Z</time>
      </trkpt>
      <trkpt lat="46.63401" lon="6.0711">
        <ele>1058.9</ele>
        <time>2015-06-28T07:51:23Z</time>
      </trkpt>
      <trkpt lat="46.63407" lon="6.07122">
        <ele>1059.4</ele>
        <time>2015-06-28T07:51:28Z</time>
      </trkpt>
      <trkpt lat="46.6341" lon="6.07135">
        <ele>1060.2</ele>
        <time>2015-06-28T07:51:33Z</time>
      </trkpt>
      <trkpt lat="46.63417" lon="6.07146">
        <ele>1060.8</ele>
        <time>2015-06-28T07:51:38Z</time>
      </trkpt>
      <trkpt lat="46.63427" lon="6.07154">
        <ele>1061.2</ele>
        <time>2015-06-28T07:51:42Z</time>
      </trkpt>
      <trkpt lat="46.63436" lon="6.07157">
        <ele>1061.5</ele>
        <time>2015-06-28T07:51:45Z</time>
      </trkpt>
      <trkpt lat="46.63448" lon="6.07156">
        <ele>1061.8</ele>
        <time>2015-06-28T07:51:48Z</time>
      </trkpt>
      <trkpt lat="46.6346" lon="6.07152">
        <ele>1062</ele>
        <time>2015-06-28T07:51:51Z</time>
      </trkpt>
      <trkpt lat="46.63472" lon="6.0715">
        <ele>1062.2</ele>
        <time>2015-06-28T07:51:54Z</time>
      </trkpt>
      <trkpt lat="46.63482" lon="6.07149">
        <ele>1062.4</ele>
        <time>2015-06-28T07:51:57Z</time>
      </trkpt>
      <trkpt lat="46.63495" lon="6.07147">
        <ele>1062.6</ele>
        <time>2015-06-28T07:52:00Z</time>
      </trkpt>
      <trkpt lat="46.63507" lon="6.07145">
        <ele>1062.8</ele>
        <time>2015-06-28T07:52:03Z</time>
      </trkpt>
      <trkpt lat="46.6352" lon="6.07144">
        <ele>1063</ele>
        <time>2015-06-28T07:52:06Z</time>
      </trkpt>
      <trkpt lat="46.63531" lon="6.07146">
        <ele>1063.1</ele>
        <time>2015-06-28T07:52:08Z</time>
      </trkpt>
      <trkpt lat="46.63541" lon="6.07153">
        <ele>1063.1</ele>
        <time>2015-06-28T07:52:10Z</time>
      </trkpt>
      <trkpt lat="46.63549" lon="6.07166">
        <ele>1063.1</ele>
        <time>2015-06-28T07:52:12Z</time>
      </trkpt>
      <trkpt lat="46.63556" lon="6.07182">
        <ele>1063</ele>
        <time>2015-06-28T07:52:14Z</time>
      </trkpt>
      <trkpt lat="46.63566" lon="6.07195">
        <ele>1062.7</ele>
        <time>2015-06-28T07:52:16Z</time>
      </trkpt>
      <trkpt lat="46.63577" lon="6.07203">
        <ele>1062.4</ele>
        <time>2015-06-28T07:52:18Z</time>
      </trkpt>
      <trkpt lat="46.63589" lon="6.072">
        <ele>1062.1</ele>
        <time>2015-06-28T07:52:20Z</time>
      </trkpt>
      <trkpt lat="46.63601" lon="6.07192">
        <ele>1061.8</ele>
        <time>2015-06-28T07:52:22Z</time>
      </trkpt>
      <trkpt lat="46.63613" lon="6.07181">
        <ele>1061.6</ele>
        <time>2015-06-28T07:52:24Z</time>
      </trkpt>
      <trkpt lat="46.63626" lon="6.07167">
        <ele>1061.3</ele>
        <time>2015-06-28T07:52:26Z</time>
      </trkpt>
      <trkpt lat="46.63634" lon="6.07151">
        <ele>1060.8</ele>
        <time>2015-06-28T07:52:28Z</time>
      </trkpt>
      <trkpt lat="46.63639" lon="6.07139">
        <ele>1060.4</ele>
        <time>2015-06-28T07:52:30Z</time>
      </trkpt>
      <trkpt lat="46.63647" lon="6.07125">
        <ele>1059.6</ele>
        <time>2015-06-28T07:52:33Z</time>
      </trkpt>
      <trkpt lat="46.63657" lon="6.07116">
        <ele>1058.7</ele>
        <time>2015-06-28T07:52:36Z</time>
      </trkpt>
      <trkpt lat="46.63665" lon="6.07109">
        <ele>1057.6</ele>
        <time>2015-06-28T07:52:39Z</time>
      </trkpt>
      <trkpt lat="46.63672" lon="6.071">
        <ele>1056.8</ele>
        <time>2015-06-28T07:52:41Z</time>
      </trkpt>
      <trkpt lat="46.6368" lon="6.07091">
        <ele>1055.9</ele>
        <time>2015-06-28T07:52:43Z</time>
      </trkpt>
      <trkpt lat="46.63689" lon="6.07079">
        <ele>1055</ele>
        <time>2015-06-28T07:52:45Z</time>
      </trkpt>
      <trkpt lat="46.63695" lon="6.07067">
        <ele>1054</ele>
        <time>2015-06-28T07:52:47Z</time>
      </trkpt>
      <trkpt lat="46.63702" lon="6.0705">
        <ele>1052.4</ele>
        <time>2015-06-28T07:52:50Z</time>
      </trkpt>
      <trkpt lat="46.63706" lon="6.07038">
        <ele>1050.7</ele>
        <time>2015-06-28T07:52:53Z</time>
      </trkpt>
      <trkpt lat="46.63712" lon="6.07026">
        <ele>1047</ele>
        <time>2015-06-28T07:52:59Z</time>
      </trkpt>
      <trkpt lat="46.63722" lon="6.07028">
        <ele>1044.7</ele>
        <time>2015-06-28T07:53:03Z</time>
      </trkpt>
      <trkpt lat="46.6373" lon="6.07035">
        <ele>1043.2</ele>
        <time>2015-06-28T07:53:06Z</time>
      </trkpt>
      <trkpt lat="46.63737" lon="6.07043">
        <ele>1041.7</ele>
        <time>2015-06-28T07:53:09Z</time>
      </trkpt>
      <trkpt lat="46.63747" lon="6.07055">
        <ele>1040.4</ele>
        <time>2015-06-28T07:53:12Z</time>
      </trkpt>
      <trkpt lat="46.63755" lon="6.07064">
        <ele>1039.6</ele>
        <time>2015-06-28T07:53:14Z</time>
      </trkpt>
      <trkpt lat="46.63765" lon="6.07075">
        <ele>1038.4</ele>
        <time>2015-06-28T07:53:17Z</time>
      </trkpt>
      <trkpt lat="46.63777" lon="6.07084">
        <ele>1036.9</ele>
        <time>2015-06-28T07:53:20Z</time>
      </trkpt>
      <trkpt lat="46.63788" lon="6.07092">
        <ele>1035.1</ele>
        <time>2015-06-28T07:53:23Z</time>
      </trkpt>
      <trkpt lat="46.63795" lon="6.07105">
        <ele>1032.6</ele>
        <time>2015-06-28T07:53:27Z</time>
      </trkpt>
      <trkpt lat="46.63804" lon="6.07114">
        <ele>1030.6</ele>
        <time>2015-06-28T07:53:30Z</time>
      </trkpt>
      <trkpt lat="46.63812" lon="6.07123">
        <ele>1028.4</ele>
        <time>2015-06-28T07:53:33Z</time>
      </trkpt>
      <trkpt lat="46.63819" lon="6.07134">
        <ele>1026.3</ele>
        <time>2015-06-28T07:53:36Z</time>
      </trkpt>
      <trkpt lat="46.63831" lon="6.07147">
        <ele>1024.2</ele>
        <time>2015-06-28T07:53:39Z</time>
      </trkpt>
      <trkpt lat="46.6384" lon="6.07156">
        <ele>1022.2</ele>
        <time>2015-06-28T07:53:42Z</time>
      </trkpt>
      <trkpt lat="46.63848" lon="6.07165">
        <ele>1019.6</ele>
        <time>2015-06-28T07:53:46Z</time>
      </trkpt>
      <trkpt lat="46.63857" lon="6.07176">
        <ele>1017</ele>
        <time>2015-06-28T07:53:50Z</time>
      </trkpt>
      <trkpt lat="46.63864" lon="6.07185">
        <ele>1015.2</ele>
        <time>2015-06-28T07:53:53Z</time>
      </trkpt>
      <trkpt lat="46.63874" lon="6.07183">
        <ele>1012.2</ele>
        <time>2015-06-28T07:53:58Z</time>
      </trkpt>
      <trkpt lat="46.63883" lon="6.07187">
        <ele>1008.4</ele>
        <time>2015-06-28T07:54:04Z</time>
      </trkpt>
      <trkpt lat="46.63891" lon="6.07194">
        <ele>1005.3</ele>
        <time>2015-06-28T07:54:09Z</time>
      </trkpt>
      <trkpt lat="46.63901" lon="6.07201">
        <ele>1002.2</ele>
        <time>2015-06-28T07:54:14Z</time>
      </trkpt>
      <trkpt lat="46.63912" lon="6.07207">
        <ele>999.5</ele>
        <time>2015-06-28T07:54:18Z</time>
      </trkpt>
      <trkpt lat="46.63923" lon="6.07214">
        <ele>996.7</ele>
        <time>2015-06-28T07:54:22Z</time>
      </trkpt>
      <trkpt lat="46.63934" lon="6.07219">
        <ele>994.6</ele>
        <time>2015-06-28T07:54:25Z</time>
      </trkpt>
      <trkpt lat="46.63943" lon="6.07223">
        <ele>991.2</ele>
        <time>2015-06-28T07:54:30Z</time>
      </trkpt>
      <trkpt lat="46.63952" lon="6.07228">
        <ele>987.5</ele>
        <time>2015-06-28T07:54:36Z</time>
      </trkpt>
      <trkpt lat="46.63962" lon="6.07232">
        <ele>982.5</ele>
        <time>2015-06-28T07:54:45Z</time>
      </trkpt>
      <trkpt lat="46.63973" lon="6.07231">
        <ele>979.7</ele>
        <time>2015-06-28T07:54:50Z</time>
      </trkpt>
      <trkpt lat="46.63982" lon="6.07225">
        <ele>976.1</ele>
        <time>2015-06-28T07:54:56Z</time>
      </trkpt>
      <trkpt lat="46.63992" lon="6.07222">
        <ele>972.7</ele>
        <time>2015-06-28T07:55:02Z</time>
      </trkpt>
      <trkpt lat="46.64003" lon="6.0722">
        <ele>969.1</ele>
        <time>2015-06-28T07:55:08Z</time>
      </trkpt>
      <trkpt lat="46.64013" lon="6.07217">
        <ele>966.6</ele>
        <time>2015-06-28T07:55:12Z</time>
      </trkpt>
      <trkpt lat="46.64022" lon="6.07213">
        <ele>964.8</ele>
        <time>2015-06-28T07:55:15Z</time>
      </trkpt>
      <trkpt lat="46.64032" lon="6.07208">
        <ele>963.6</ele>
        <time>2015-06-28T07:55:17Z</time>
      </trkpt>
      <trkpt lat="46.64042" lon="6.07205">
        <ele>961.8</ele>
        <time>2015-06-28T07:55:20Z</time>
      </trkpt>
      <trkpt lat="46.64052" lon="6.07208">
        <ele>960.7</ele>
        <time>2015-06-28T07:55:22Z</time>
      </trkpt>
      <trkpt lat="46.64062" lon="6.07206">
        <ele>958.9</ele>
        <time>2015-06-28T07:55:25Z</time>
      </trkpt>
      <trkpt lat="46.64074" lon="6.07208">
        <ele>957.7</ele>
        <time>2015-06-28T07:55:27Z</time>
      </trkpt>
      <trkpt lat="46.64083" lon="6.07201">
        <ele>956.3</ele>
        <time>2015-06-28T07:55:30Z</time>
      </trkpt>
      <trkpt lat="46.64093" lon="6.07192">
        <ele>955</ele>
        <time>2015-06-28T07:55:33Z</time>
      </trkpt>
      <trkpt lat="46.64102" lon="6.07182">
        <ele>953.9</ele>
        <time>2015-06-28T07:55:36Z</time>
      </trkpt>
      <trkpt lat="46.64112" lon="6.07178">
        <ele>953</ele>
        <time>2015-06-28T07:55:38Z</time>
      </trkpt>
      <trkpt lat="46.64121" lon="6.07172">
        <ele>952.1</ele>
        <time>2015-06-28T07:55:40Z</time>
      </trkpt>
      <trkpt lat="46.64129" lon="6.07165">
        <ele>951.3</ele>
        <time>2015-06-28T07:55:42Z</time>
      </trkpt>
      <trkpt lat="46.6414" lon="6.07153">
        <ele>949.9</ele>
        <time>2015-06-28T07:55:45Z</time>
      </trkpt>
      <trkpt lat="46.6415" lon="6.07143">
        <ele>948.7</ele>
        <time>2015-06-28T07:55:48Z</time>
      </trkpt>
      <trkpt lat="46.64158" lon="6.07134">
        <ele>947.3</ele>
        <time>2015-06-28T07:55:52Z</time>
      </trkpt>
      <trkpt lat="46.64163" lon="6.07122">
        <ele>946.1</ele>
        <time>2015-06-28T07:55:57Z</time>
      </trkpt>
      <trkpt lat="46.64164" lon="6.07106">
        <ele>945.2</ele>
        <time>2015-06-28T07:56:03Z</time>
      </trkpt>
      <trkpt lat="46.64163" lon="6.07091">
        <ele>944.7</ele>
        <time>2015-06-28T07:56:08Z</time>
      </trkpt>
      <trkpt lat="46.6416" lon="6.07078">
        <ele>944.9</ele>
        <time>2015-06-28T07:56:15Z</time>
      </trkpt>
      <trkpt lat="46.64155" lon="6.07066">
        <ele>945.7</ele>
        <time>2015-06-28T07:56:24Z</time>
      </trkpt>
      <trkpt lat="46.6415" lon="6.07055">
        <ele>946.9</ele>
        <time>2015-06-28T07:56:32Z</time>
      </trkpt>
      <trkpt lat="46.64146" lon="6.07044">
        <ele>948.4</ele>
        <time>2015-06-28T07:56:40Z</time>
      </trkpt>
      <trkpt lat="46.64147" lon="6.0703">
        <ele>950.3</ele>
        <time>2015-06-28T07:56:52Z</time>
      </trkpt>
      <trkpt lat="46.64146" lon="6.07015">
        <ele>951.4</ele>
        <time>2015-06-28T07:56:59Z</time>
      </trkpt>
      <trkpt lat="46.64148" lon="6.07001">
        <ele>952.1</ele>
        <time>2015-06-28T07:57:04Z</time>
      </trkpt>
      <trkpt lat="46.64151" lon="6.06987">
        <ele>953.1</ele>
        <time>2015-06-28T07:57:10Z</time>
      </trkpt>
      <trkpt lat="46.64153" lon="6.06974">
        <ele>953.7</ele>
        <time>2015-06-28T07:57:15Z</time>
      </trkpt>
      <trkpt lat="46.64156" lon="6.06959">
        <ele>954.2</ele>
        <time>2015-06-28T07:57:21Z</time>
      </trkpt>
      <trkpt lat="46.64156" lon="6.06944">
        <ele>955.1</ele>
        <time>2015-06-28T07:57:28Z</time>
      </trkpt>
      <trkpt lat="46.6416" lon="6.06932">
        <ele>955.8</ele>
        <time>2015-06-28T07:57:34Z</time>
      </trkpt>
      <trkpt lat="46.64169" lon="6.06925">
        <ele>956.7</ele>
        <time>2015-06-28T07:57:41Z</time>
      </trkpt>
      <trkpt lat="46.64178" lon="6.06929">
        <ele>957.9</ele>
        <time>2015-06-28T07:57:48Z</time>
      </trkpt>
      <trkpt lat="46.64187" lon="6.06936">
        <ele>959</ele>
        <time>2015-06-28T07:57:55Z</time>
      </trkpt>
      <trkpt lat="46.64198" lon="6.06935">
        <ele>960.1</ele>
        <time>2015-06-28T07:58:02Z</time>
      </trkpt>
      <trkpt lat="46.64207" lon="6.06928">
        <ele>960.8</ele>
        <time>2015-06-28T07:58:07Z</time>
      </trkpt>
      <trkpt lat="46.64216" lon="6.06921">
        <ele>961.6</ele>
        <time>2015-06-28T07:58:12Z</time>
      </trkpt>
      <trkpt lat="46.64224" lon="6.06918">
        <ele>962.4</ele>
        <time>2015-06-28T07:58:17Z</time>
      </trkpt>
      <trkpt lat="46.64234" lon="6.06922">
        <ele>963.7</ele>
        <time>2015-06-28T07:58:24Z</time>
      </trkpt>
      <trkpt lat="46.64243" lon="6.06926">
        <ele>964.8</ele>
        <time>2015-06-28T07:58:31Z</time>
      </trkpt>
      <trkpt lat="46.64252" lon="6.06931">
        <ele>965.7</ele>
        <time>2015-06-28T07:58:38Z</time>
      </trkpt>
      <trkpt lat="46.64251" lon="6.06917">
        <ele>966.2</ele>
        <time>2015-06-28T07:58:44Z</time>
      </trkpt>
      <trkpt lat="46.64247" lon="6.06904">
        <ele>966.7</ele>
        <time>2015-06-28T07:58:49Z</time>
      </trkpt>
      <trkpt lat="46.64242" lon="6.06892">
        <ele>967</ele>
        <time>2015-06-28T07:58:53Z</time>
      </trkpt>
      <trkpt lat="46.64238" lon="6.06878">
        <ele>967.3</ele>
        <time>2015-06-28T07:58:57Z</time>
      </trkpt>
      <trkpt lat="46.64236" lon="6.06865">
        <ele>967.6</ele>
        <time>2015-06-28T07:59:01Z</time>
      </trkpt>
      <trkpt lat="46.64232" lon="6.06851">
        <ele>968</ele>
        <time>2015-06-28T07:59:05Z</time>
      </trkpt>
      <trkpt lat="46.64229" lon="6.06838">
        <ele>968.4</ele>
        <time>2015-06-28T07:59:09Z</time>
      </trkpt>
      <trkpt lat="46.64225" lon="6.06824">
        <ele>968.7</ele>
        <time>2015-06-28T07:59:13Z</time>
      </trkpt>
      <trkpt lat="46.6422" lon="6.06809">
        <ele>968.9</ele>
        <time>2015-06-28T07:59:17Z</time>
      </trkpt>
      <trkpt lat="46.64213" lon="6.06797">
        <ele>969.1</ele>
        <time>2015-06-28T07:59:21Z</time>
      </trkpt>
      <trkpt lat="46.64208" lon="6.06783">
        <ele>969.4</ele>
        <time>2015-06-28T07:59:26Z</time>
      </trkpt>
      <trkpt lat="46.64205" lon="6.0677">
        <ele>969.7</ele>
        <time>2015-06-28T07:59:30Z</time>
      </trkpt>
      <trkpt lat="46.64199" lon="6.06755">
        <ele>970.1</ele>
        <time>2015-06-28T07:59:34Z</time>
      </trkpt>
      <trkpt lat="46.64195" lon="6.06743">
        <ele>970.4</ele>
        <time>2015-06-28T07:59:37Z</time>
      </trkpt>
      <trkpt lat="46.64191" lon="6.0673">
        <ele>970.7</ele>
        <time>2015-06-28T07:59:40Z</time>
      </trkpt>
      <trkpt lat="46.64186" lon="6.06718">
        <ele>970.9</ele>
        <time>2015-06-28T07:59:43Z</time>
      </trkpt>
      <trkpt lat="46.64181" lon="6.06706">
        <ele>971.1</ele>
        <time>2015-06-28T07:59:46Z</time>
      </trkpt>
      <trkpt lat="46.64176" lon="6.06692">
        <ele>971.2</ele>
        <time>2015-06-28T07:59:49Z</time>
      </trkpt>
      <trkpt lat="46.64171" lon="6.06679">
        <ele>971.4</ele>
        <time>2015-06-28T07:59:52Z</time>
      </trkpt>
      <trkpt lat="46.64167" lon="6.06664">
        <ele>971.5</ele>
        <time>2015-06-28T07:59:55Z</time>
      </trkpt>
      <trkpt lat="46.64165" lon="6.06651">
        <ele>971.6</ele>
        <time>2015-06-28T07:59:58Z</time>
      </trkpt>
      <trkpt lat="46.64162" lon="6.06637">
        <ele>971.8</ele>
        <time>2015-06-28T08:00:04Z</time>
      </trkpt>
      <trkpt lat="46.64163" lon="6.06623">
        <ele>972.3</ele>
        <time>2015-06-28T08:00:10Z</time>
      </trkpt>
      <trkpt lat="46.64163" lon="6.06608">
        <ele>972.9</ele>
        <time>2015-06-28T08:00:15Z</time>
      </trkpt>
      <trkpt lat="46.64161" lon="6.06595">
        <ele>973.6</ele>
        <time>2015-06-28T08:00:20Z</time>
      </trkpt>
      <trkpt lat="46.6416" lon="6.06581">
        <ele>974.3</ele>
        <time>2015-06-28T08:00:24Z</time>
      </trkpt>
      <trkpt lat="46.6416" lon="6.06566">
        <ele>974.9</ele>
        <time>2015-06-28T08:00:28Z</time>
      </trkpt>
      <trkpt lat="46.64158" lon="6.06549">
        <ele>975.4</ele>
        <time>2015-06-28T08:00:32Z</time>
      </trkpt>
      <trkpt lat="46.64159" lon="6.06532">
        <ele>976</ele>
        <time>2015-06-28T08:00:36Z</time>
      </trkpt>
      <trkpt lat="46.64158" lon="6.06517">
        <ele>976.8</ele>
        <time>2015-06-28T08:00:41Z</time>
      </trkpt>
      <trkpt lat="46.64159" lon="6.06503">
        <ele>977.2</ele>
        <time>2015-06-28T08:00:44Z</time>
      </trkpt>
      <trkpt lat="46.64158" lon="6.06486">
        <ele>977.7</ele>
        <time>2015-06-28T08:00:47Z</time>
      </trkpt>
      <trkpt lat="46.64156" lon="6.0647">
        <ele>978.3</ele>
        <time>2015-06-28T08:00:51Z</time>
      </trkpt>
      <trkpt lat="46.64153" lon="6.06457">
        <ele>978.9</ele>
        <time>2015-06-28T08:00:57Z</time>
      </trkpt>
      <trkpt lat="46.64151" lon="6.06442">
        <ele>979.3</ele>
        <time>2015-06-28T08:01:02Z</time>
      </trkpt>
      <trkpt lat="46.64149" lon="6.06425">
        <ele>979.6</ele>
        <time>2015-06-28T08:01:07Z</time>
      </trkpt>
      <trkpt lat="46.64146" lon="6.06409">
        <ele>979.9</ele>
        <time>2015-06-28T08:01:11Z</time>
      </trkpt>
      <trkpt lat="46.64144" lon="6.06392">
        <ele>980.1</ele>
        <time>2015-06-28T08:01:14Z</time>
      </trkpt>
      <trkpt lat="46.64141" lon="6.06374">
        <ele>980.3</ele>
        <time>2015-06-28T08:01:17Z</time>
      </trkpt>
      <trkpt lat="46.6414" lon="6.06358">
        <ele>980.4</ele>
        <time>2015-06-28T08:01:20Z</time>
      </trkpt>
      <trkpt lat="46.64139" lon="6.06341">
        <ele>980.6</ele>
        <time>2015-06-28T08:01:23Z</time>
      </trkpt>
      <trkpt lat="46.64138" lon="6.06325">
        <ele>980.7</ele>
        <time>2015-06-28T08:01:26Z</time>
      </trkpt>
      <trkpt lat="46.64138" lon="6.06307">
        <ele>980.8</ele>
        <time>2015-06-28T08:01:29Z</time>
      </trkpt>
      <trkpt lat="46.64137" lon="6.06288">
        <ele>981</ele>
        <time>2015-06-28T08:01:32Z</time>
      </trkpt>
      <trkpt lat="46.64136" lon="6.06274">
        <ele>981.1</ele>
        <time>2015-06-28T08:01:34Z</time>
      </trkpt>
      <trkpt lat="46.64135" lon="6.06259">
        <ele>981.1</ele>
        <time>2015-06-28T08:01:36Z</time>
      </trkpt>
      <trkpt lat="46.64133" lon="6.06245">
        <ele>981.2</ele>
        <time>2015-06-28T08:01:38Z</time>
      </trkpt>
      <trkpt lat="46.64131" lon="6.0623">
        <ele>981.2</ele>
        <time>2015-06-28T08:01:40Z</time>
      </trkpt>
      <trkpt lat="46.64129" lon="6.06214">
        <ele>981.3</ele>
        <time>2015-06-28T08:01:42Z</time>
      </trkpt>
      <trkpt lat="46.64126" lon="6.06197">
        <ele>981.3</ele>
        <time>2015-06-28T08:01:44Z</time>
      </trkpt>
      <trkpt lat="46.64124" lon="6.0618">
        <ele>981.1</ele>
        <time>2015-06-28T08:01:46Z</time>
      </trkpt>
      <trkpt lat="46.64123" lon="6.06161">
        <ele>981.1</ele>
        <time>2015-06-28T08:01:48Z</time>
      </trkpt>
      <trkpt lat="46.64122" lon="6.06142">
        <ele>980.8</ele>
        <time>2015-06-28T08:01:50Z</time>
      </trkpt>
      <trkpt lat="46.64119" lon="6.06121">
        <ele>980.6</ele>
        <time>2015-06-28T08:01:52Z</time>
      </trkpt>
      <trkpt lat="46.64116" lon="6.06102">
        <ele>980.3</ele>
        <time>2015-06-28T08:01:54Z</time>
      </trkpt>
      <trkpt lat="46.64114" lon="6.06084">
        <ele>980</ele>
        <time>2015-06-28T08:01:56Z</time>
      </trkpt>
      <trkpt lat="46.64112" lon="6.06067">
        <ele>979.6</ele>
        <time>2015-06-28T08:01:58Z</time>
      </trkpt>
      <trkpt lat="46.64111" lon="6.0605">
        <ele>979.3</ele>
        <time>2015-06-28T08:02:00Z</time>
      </trkpt>
      <trkpt lat="46.64108" lon="6.06034">
        <ele>978.9</ele>
        <time>2015-06-28T08:02:02Z</time>
      </trkpt>
      <trkpt lat="46.64099" lon="6.06018">
        <ele>978.6</ele>
        <time>2015-06-28T08:02:04Z</time>
      </trkpt>
      <trkpt lat="46.64089" lon="6.06005">
        <ele>978.1</ele>
        <time>2015-06-28T08:02:06Z</time>
      </trkpt>
      <trkpt lat="46.64079" lon="6.05992">
        <ele>977.5</ele>
        <time>2015-06-28T08:02:08Z</time>
      </trkpt>
      <trkpt lat="46.64069" lon="6.05978">
        <ele>977</ele>
        <time>2015-06-28T08:02:10Z</time>
      </trkpt>
      <trkpt lat="46.64057" lon="6.05963">
        <ele>976.4</ele>
        <time>2015-06-28T08:02:12Z</time>
      </trkpt>
      <trkpt lat="46.64046" lon="6.05946">
        <ele>975.7</ele>
        <time>2015-06-28T08:02:14Z</time>
      </trkpt>
      <trkpt lat="46.64035" lon="6.05928">
        <ele>975</ele>
        <time>2015-06-28T08:02:16Z</time>
      </trkpt>
      <trkpt lat="46.64027" lon="6.05909">
        <ele>974.2</ele>
        <time>2015-06-28T08:02:18Z</time>
      </trkpt>
      <trkpt lat="46.64025" lon="6.05888">
        <ele>973.3</ele>
        <time>2015-06-28T08:02:20Z</time>
      </trkpt>
      <trkpt lat="46.64024" lon="6.05868">
        <ele>972.5</ele>
        <time>2015-06-28T08:02:22Z</time>
      </trkpt>
      <trkpt lat="46.64022" lon="6.05851">
        <ele>971.7</ele>
        <time>2015-06-28T08:02:24Z</time>
      </trkpt>
      <trkpt lat="46.64021" lon="6.05833">
        <ele>971</ele>
        <time>2015-06-28T08:02:26Z</time>
      </trkpt>
      <trkpt lat="46.6402" lon="6.05818">
        <ele>970.4</ele>
        <time>2015-06-28T08:02:28Z</time>
      </trkpt>
      <trkpt lat="46.64018" lon="6.05803">
        <ele>969.9</ele>
        <time>2015-06-28T08:02:30Z</time>
      </trkpt>
      <trkpt lat="46.64015" lon="6.05788">
        <ele>969.4</ele>
        <time>2015-06-28T08:02:32Z</time>
      </trkpt>
      <trkpt lat="46.64013" lon="6.05773">
        <ele>969</ele>
        <time>2015-06-28T08:02:34Z</time>
      </trkpt>
      <trkpt lat="46.64009" lon="6.0576">
        <ele>968.7</ele>
        <time>2015-06-28T08:02:36Z</time>
      </trkpt>
      <trkpt lat="46.64004" lon="6.05743">
        <ele>968.2</ele>
        <time>2015-06-28T08:02:39Z</time>
      </trkpt>
      <trkpt lat="46.64001" lon="6.05724">
        <ele>967.8</ele>
        <time>2015-06-28T08:02:42Z</time>
      </trkpt>
      <trkpt lat="46.63999" lon="6.05709">
        <ele>967.6</ele>
        <time>2015-06-28T08:02:45Z</time>
      </trkpt>
      <trkpt lat="46.63996" lon="6.05693">
        <ele>967.5</ele>
        <time>2015-06-28T08:02:49Z</time>
      </trkpt>
      <trkpt lat="46.6399" lon="6.05681">
        <ele>967.7</ele>
        <time>2015-06-28T08:02:53Z</time>
      </trkpt>
      <trkpt lat="46.63989" lon="6.05664">
        <ele>968</ele>
        <time>2015-06-28T08:02:57Z</time>
      </trkpt>
      <trkpt lat="46.63992" lon="6.05647">
        <ele>968.3</ele>
        <time>2015-06-28T08:03:00Z</time>
      </trkpt>
      <trkpt lat="46.63992" lon="6.05628">
        <ele>968.6</ele>
        <time>2015-06-28T08:03:03Z</time>
      </trkpt>
      <trkpt lat="46.63992" lon="6.05613">
        <ele>968.8</ele>
        <time>2015-06-28T08:03:05Z</time>
      </trkpt>
      <trkpt lat="46.63992" lon="6.05595">
        <ele>969.1</ele>
        <time>2015-06-28T08:03:08Z</time>
      </trkpt>
      <trkpt lat="46.63991" lon="6.05577">
        <ele>969.3</ele>
        <time>2015-06-28T08:03:11Z</time>
      </trkpt>
      <trkpt lat="46.63991" lon="6.05562">
        <ele>969.4</ele>
        <time>2015-06-28T08:03:13Z</time>
      </trkpt>
      <trkpt lat="46.6399" lon="6.05548">
        <ele>969.6</ele>
        <time>2015-06-28T08:03:15Z</time>
      </trkpt>
      <trkpt lat="46.63987" lon="6.05532">
        <ele>969.7</ele>
        <time>2015-06-28T08:03:17Z</time>
      </trkpt>
      <trkpt lat="46.63982" lon="6.05516">
        <ele>969.8</ele>
        <time>2015-06-28T08:03:19Z</time>
      </trkpt>
      <trkpt lat="46.63976" lon="6.055">
        <ele>969.7</ele>
        <time>2015-06-28T08:03:21Z</time>
      </trkpt>
      <trkpt lat="46.63971" lon="6.05484">
        <ele>969.7</ele>
        <time>2015-06-28T08:03:23Z</time>
      </trkpt>
      <trkpt lat="46.63969" lon="6.05468">
        <ele>969.7</ele>
        <time>2015-06-28T08:03:25Z</time>
      </trkpt>
      <trkpt lat="46.63971" lon="6.05448">
        <ele>969.6</ele>
        <time>2015-06-28T08:03:27Z</time>
      </trkpt>
      <trkpt lat="46.63973" lon="6.05426">
        <ele>969.4</ele>
        <time>2015-06-28T08:03:29Z</time>
      </trkpt>
      <trkpt lat="46.63974" lon="6.05405">
        <ele>969.1</ele>
        <time>2015-06-28T08:03:31Z</time>
      </trkpt>
      <trkpt lat="46.63973" lon="6.05388">
        <ele>968.6</ele>
        <time>2015-06-28T08:03:33Z</time>
      </trkpt>
      <trkpt lat="46.63975" lon="6.0537">
        <ele>968.2</ele>
        <time>2015-06-28T08:03:35Z</time>
      </trkpt>
      <trkpt lat="46.63977" lon="6.05352">
        <ele>967.9</ele>
        <time>2015-06-28T08:03:37Z</time>
      </trkpt>
      <trkpt lat="46.63978" lon="6.05337">
        <ele>967.6</ele>
        <time>2015-06-28T08:03:39Z</time>
      </trkpt>
      <trkpt lat="46.63978" lon="6.05322">
        <ele>967.2</ele>
        <time>2015-06-28T08:03:41Z</time>
      </trkpt>
      <trkpt lat="46.63982" lon="6.05304">
        <ele>966.9</ele>
        <time>2015-06-28T08:03:43Z</time>
      </trkpt>
      <trkpt lat="46.63983" lon="6.05287">
        <ele>966.5</ele>
        <time>2015-06-28T08:03:45Z</time>
      </trkpt>
      <trkpt lat="46.63981" lon="6.0527">
        <ele>966</ele>
        <time>2015-06-28T08:03:47Z</time>
      </trkpt>
      <trkpt lat="46.63978" lon="6.05255">
        <ele>965.4</ele>
        <time>2015-06-28T08:03:49Z</time>
      </trkpt>
      <trkpt lat="46.63981" lon="6.0524">
        <ele>964.7</ele>
        <time>2015-06-28T08:03:51Z</time>
      </trkpt>
      <trkpt lat="46.63989" lon="6.05226">
        <ele>964</ele>
        <time>2015-06-28T08:03:53Z</time>
      </trkpt>
      <trkpt lat="46.63998" lon="6.05215">
        <ele>963.2</ele>
        <time>2015-06-28T08:03:55Z</time>
      </trkpt>
      <trkpt lat="46.64007" lon="6.05204">
        <ele>962.3</ele>
        <time>2015-06-28T08:03:57Z</time>
      </trkpt>
      <trkpt lat="46.64015" lon="6.05191">
        <ele>961.4</ele>
        <time>2015-06-28T08:03:59Z</time>
      </trkpt>
      <trkpt lat="46.64021" lon="6.05175">
        <ele>960.4</ele>
        <time>2015-06-28T08:04:01Z</time>
      </trkpt>
      <trkpt lat="46.64027" lon="6.05159">
        <ele>959.4</ele>
        <time>2015-06-28T08:04:03Z</time>
      </trkpt>
      <trkpt lat="46.64031" lon="6.0514">
        <ele>958.4</ele>
        <time>2015-06-28T08:04:05Z</time>
      </trkpt>
      <trkpt lat="46.64032" lon="6.05119">
        <ele>957.3</ele>
        <time>2015-06-28T08:04:07Z</time>
      </trkpt>
      <trkpt lat="46.6403" lon="6.05093">
        <ele>956.1</ele>
        <time>2015-06-28T08:04:09Z</time>
      </trkpt>
      <trkpt lat="46.6403" lon="6.0508">
        <ele>955.5</ele>
        <time>2015-06-28T08:04:10Z</time>
      </trkpt>
      <trkpt lat="46.6403" lon="6.05065">
        <ele>954.9</ele>
        <time>2015-06-28T08:04:11Z</time>
      </trkpt>
      <trkpt lat="46.6403" lon="6.05041">
        <ele>953.7</ele>
        <time>2015-06-28T08:04:13Z</time>
      </trkpt>
      <trkpt lat="46.64031" lon="6.05019">
        <ele>952.3</ele>
        <time>2015-06-28T08:04:15Z</time>
      </trkpt>
      <trkpt lat="46.64031" lon="6.04997">
        <ele>950.7</ele>
        <time>2015-06-28T08:04:17Z</time>
      </trkpt>
      <trkpt lat="46.64029" lon="6.04977">
        <ele>949.3</ele>
        <time>2015-06-28T08:04:19Z</time>
      </trkpt>
      <trkpt lat="46.64026" lon="6.04959">
        <ele>948</ele>
        <time>2015-06-28T08:04:21Z</time>
      </trkpt>
      <trkpt lat="46.64022" lon="6.0494">
        <ele>946.7</ele>
        <time>2015-06-28T08:04:23Z</time>
      </trkpt>
      <trkpt lat="46.64019" lon="6.04922">
        <ele>945.3</ele>
        <time>2015-06-28T08:04:25Z</time>
      </trkpt>
      <trkpt lat="46.64015" lon="6.049">
        <ele>944</ele>
        <time>2015-06-28T08:04:27Z</time>
      </trkpt>
      <trkpt lat="46.64011" lon="6.04876">
        <ele>942.8</ele>
        <time>2015-06-28T08:04:29Z</time>
      </trkpt>
      <trkpt lat="46.64007" lon="6.04853">
        <ele>941.4</ele>
        <time>2015-06-28T08:04:31Z</time>
      </trkpt>
      <trkpt lat="46.64006" lon="6.0484">
        <ele>940.6</ele>
        <time>2015-06-28T08:04:32Z</time>
      </trkpt>
      <trkpt lat="46.64005" lon="6.04827">
        <ele>939.9</ele>
        <time>2015-06-28T08:04:33Z</time>
      </trkpt>
      <trkpt lat="46.64005" lon="6.04813">
        <ele>939.2</ele>
        <time>2015-06-28T08:04:34Z</time>
      </trkpt>
      <trkpt lat="46.64004" lon="6.04799">
        <ele>938.5</ele>
        <time>2015-06-28T08:04:35Z</time>
      </trkpt>
      <trkpt lat="46.64004" lon="6.04784">
        <ele>937.9</ele>
        <time>2015-06-28T08:04:36Z</time>
      </trkpt>
      <trkpt lat="46.64003" lon="6.0477">
        <ele>937.2</ele>
        <time>2015-06-28T08:04:37Z</time>
      </trkpt>
      <trkpt lat="46.64001" lon="6.04756">
        <ele>936.4</ele>
        <time>2015-06-28T08:04:38Z</time>
      </trkpt>
      <trkpt lat="46.63999" lon="6.04742">
        <ele>935.6</ele>
        <time>2015-06-28T08:04:39Z</time>
      </trkpt>
      <trkpt lat="46.63996" lon="6.0473">
        <ele>934.8</ele>
        <time>2015-06-28T08:04:40Z</time>
      </trkpt>
      <trkpt lat="46.63991" lon="6.04706">
        <ele>933.3</ele>
        <time>2015-06-28T08:04:42Z</time>
      </trkpt>
      <trkpt lat="46.63986" lon="6.04682">
        <ele>931.6</ele>
        <time>2015-06-28T08:04:44Z</time>
      </trkpt>
      <trkpt lat="46.63985" lon="6.04656">
        <ele>930.1</ele>
        <time>2015-06-28T08:04:46Z</time>
      </trkpt>
      <trkpt lat="46.63984" lon="6.04643">
        <ele>929.2</ele>
        <time>2015-06-28T08:04:47Z</time>
      </trkpt>
      <trkpt lat="46.63985" lon="6.04622">
        <ele>927.6</ele>
        <time>2015-06-28T08:04:49Z</time>
      </trkpt>
      <trkpt lat="46.63987" lon="6.04607">
        <ele>926.1</ele>
        <time>2015-06-28T08:04:51Z</time>
      </trkpt>
      <trkpt lat="46.63989" lon="6.04591">
        <ele>924.6</ele>
        <time>2015-06-28T08:04:53Z</time>
      </trkpt>
      <trkpt lat="46.63991" lon="6.04571">
        <ele>923.1</ele>
        <time>2015-06-28T08:04:55Z</time>
      </trkpt>
      <trkpt lat="46.63992" lon="6.04551">
        <ele>921.7</ele>
        <time>2015-06-28T08:04:57Z</time>
      </trkpt>
      <trkpt lat="46.63992" lon="6.04529">
        <ele>920.3</ele>
        <time>2015-06-28T08:04:59Z</time>
      </trkpt>
      <trkpt lat="46.63995" lon="6.04505">
        <ele>919.1</ele>
        <time>2015-06-28T08:05:01Z</time>
      </trkpt>
      <trkpt lat="46.63996" lon="6.04491">
        <ele>918.4</ele>
        <time>2015-06-28T08:05:02Z</time>
      </trkpt>
      <trkpt lat="46.63995" lon="6.04478">
        <ele>917.8</ele>
        <time>2015-06-28T08:05:03Z</time>
      </trkpt>
      <trkpt lat="46.63994" lon="6.04453">
        <ele>916.4</ele>
        <time>2015-06-28T08:05:05Z</time>
      </trkpt>
      <trkpt lat="46.63996" lon="6.04428">
        <ele>915.2</ele>
        <time>2015-06-28T08:05:07Z</time>
      </trkpt>
      <trkpt lat="46.63999" lon="6.04404">
        <ele>914</ele>
        <time>2015-06-28T08:05:09Z</time>
      </trkpt>
      <trkpt lat="46.64004" lon="6.04383">
        <ele>912.9</ele>
        <time>2015-06-28T08:05:11Z</time>
      </trkpt>
      <trkpt lat="46.64008" lon="6.04362">
        <ele>911.6</ele>
        <time>2015-06-28T08:05:13Z</time>
      </trkpt>
      <trkpt lat="46.6401" lon="6.04342">
        <ele>910.5</ele>
        <time>2015-06-28T08:05:15Z</time>
      </trkpt>
      <trkpt lat="46.64009" lon="6.04322">
        <ele>909.6</ele>
        <time>2015-06-28T08:05:17Z</time>
      </trkpt>
      <trkpt lat="46.6401" lon="6.04308">
        <ele>908.7</ele>
        <time>2015-06-28T08:05:19Z</time>
      </trkpt>
      <trkpt lat="46.64014" lon="6.04295">
        <ele>905.7</ele>
        <time>2015-06-28T08:05:26Z</time>
      </trkpt>
      <trkpt lat="46.64023" lon="6.04283">
        <ele>904.6</ele>
        <time>2015-06-28T08:05:29Z</time>
      </trkpt>
      <trkpt lat="46.6403" lon="6.04269">
        <ele>903.5</ele>
        <time>2015-06-28T08:05:32Z</time>
      </trkpt>
      <trkpt lat="46.64036" lon="6.04257">
        <ele>902.6</ele>
        <time>2015-06-28T08:05:34Z</time>
      </trkpt>
      <trkpt lat="46.6404" lon="6.04243">
        <ele>901.9</ele>
        <time>2015-06-28T08:05:36Z</time>
      </trkpt>
      <trkpt lat="46.64044" lon="6.04227">
        <ele>901.1</ele>
        <time>2015-06-28T08:05:38Z</time>
      </trkpt>
      <trkpt lat="46.64047" lon="6.04212">
        <ele>900.3</ele>
        <time>2015-06-28T08:05:40Z</time>
      </trkpt>
      <trkpt lat="46.64049" lon="6.04195">
        <ele>899.1</ele>
        <time>2015-06-28T08:05:43Z</time>
      </trkpt>
      <trkpt lat="46.64051" lon="6.04178">
        <ele>897.9</ele>
        <time>2015-06-28T08:05:46Z</time>
      </trkpt>
      <trkpt lat="46.64053" lon="6.04164">
        <ele>896.7</ele>
        <time>2015-06-28T08:05:49Z</time>
      </trkpt>
      <trkpt lat="46.64056" lon="6.04146">
        <ele>894.8</ele>
        <time>2015-06-28T08:05:53Z</time>
      </trkpt>
      <trkpt lat="46.64056" lon="6.04127">
        <ele>893.6</ele>
        <time>2015-06-28T08:05:56Z</time>
      </trkpt>
      <trkpt lat="46.64056" lon="6.04112">
        <ele>892.8</ele>
        <time>2015-06-28T08:05:58Z</time>
      </trkpt>
      <trkpt lat="46.64054" lon="6.04099">
        <ele>892.1</ele>
        <time>2015-06-28T08:06:00Z</time>
      </trkpt>
      <trkpt lat="46.64052" lon="6.04084">
        <ele>891</ele>
        <time>2015-06-28T08:06:03Z</time>
      </trkpt>
      <trkpt lat="46.64049" lon="6.04071">
        <ele>889.8</ele>
        <time>2015-06-28T08:06:06Z</time>
      </trkpt>
      <trkpt lat="46.64046" lon="6.04059">
        <ele>888.8</ele>
        <time>2015-06-28T08:06:09Z</time>
      </trkpt>
      <trkpt lat="46.64047" lon="6.04042">
        <ele>887.8</ele>
        <time>2015-06-28T08:06:12Z</time>
      </trkpt>
      <trkpt lat="46.64054" lon="6.04029">
        <ele>886.8</ele>
        <time>2015-06-28T08:06:15Z</time>
      </trkpt>
      <trkpt lat="46.64062" lon="6.04016">
        <ele>885.9</ele>
        <time>2015-06-28T08:06:18Z</time>
      </trkpt>
      <trkpt lat="46.64069" lon="6.04001">
        <ele>885</ele>
        <time>2015-06-28T08:06:21Z</time>
      </trkpt>
      <trkpt lat="46.6407" lon="6.03983">
        <ele>884</ele>
        <time>2015-06-28T08:06:24Z</time>
      </trkpt>
      <trkpt lat="46.64072" lon="6.03966">
        <ele>882.9</ele>
        <time>2015-06-28T08:06:27Z</time>
      </trkpt>
      <trkpt lat="46.64073" lon="6.03951">
        <ele>882.1</ele>
        <time>2015-06-28T08:06:29Z</time>
      </trkpt>
      <trkpt lat="46.64073" lon="6.03938">
        <ele>881.3</ele>
        <time>2015-06-28T08:06:31Z</time>
      </trkpt>
      <trkpt lat="46.64073" lon="6.03922">
        <ele>880</ele>
        <time>2015-06-28T08:06:34Z</time>
      </trkpt>
      <trkpt lat="46.64071" lon="6.03908">
        <ele>878.7</ele>
        <time>2015-06-28T08:06:37Z</time>
      </trkpt>
      <trkpt lat="46.64068" lon="6.03893">
        <ele>877</ele>
        <time>2015-06-28T08:06:41Z</time>
      </trkpt>
      <trkpt lat="46.64063" lon="6.03879">
        <ele>874.9</ele>
        <time>2015-06-28T08:06:46Z</time>
      </trkpt>
      <trkpt lat="46.64059" lon="6.03867">
        <ele>873.6</ele>
        <time>2015-06-28T08:06:49Z</time>
      </trkpt>
      <trkpt lat="46.64055" lon="6.0385">
        <ele>871</ele>
        <time>2015-06-28T08:06:54Z</time>
      </trkpt>
      <trkpt lat="46.64051" lon="6.03837">
        <ele>869.4</ele>
        <time>2015-06-28T08:06:57Z</time>
      </trkpt>
      <trkpt lat="46.64048" lon="6.03822">
        <ele>867.3</ele>
        <time>2015-06-28T08:07:01Z</time>
      </trkpt>
      <trkpt lat="46.6405" lon="6.03809">
        <ele>864.8</ele>
        <time>2015-06-28T08:07:06Z</time>
      </trkpt>
      <trkpt lat="46.64052" lon="6.03794">
        <ele>862.8</ele>
        <time>2015-06-28T08:07:10Z</time>
      </trkpt>
      <trkpt lat="46.64057" lon="6.0378">
        <ele>860.2</ele>
        <time>2015-06-28T08:07:15Z</time>
      </trkpt>
      <trkpt lat="46.64063" lon="6.03768">
        <ele>858</ele>
        <time>2015-06-28T08:07:20Z</time>
      </trkpt>
      <trkpt lat="46.64062" lon="6.03754">
        <ele>856.7</ele>
        <time>2015-06-28T08:07:23Z</time>
      </trkpt>
      <trkpt lat="46.64063" lon="6.0374">
        <ele>855.8</ele>
        <time>2015-06-28T08:07:25Z</time>
      </trkpt>
      <trkpt lat="46.64061" lon="6.03723">
        <ele>854.3</ele>
        <time>2015-06-28T08:07:28Z</time>
      </trkpt>
      <trkpt lat="46.64057" lon="6.03708">
        <ele>852.9</ele>
        <time>2015-06-28T08:07:31Z</time>
      </trkpt>
      <trkpt lat="46.64051" lon="6.03695">
        <ele>851.4</ele>
        <time>2015-06-28T08:07:34Z</time>
      </trkpt>
      <trkpt lat="46.64044" lon="6.03684">
        <ele>849.8</ele>
        <time>2015-06-28T08:07:37Z</time>
      </trkpt>
      <trkpt lat="46.64036" lon="6.03672">
        <ele>848.1</ele>
        <time>2015-06-28T08:07:40Z</time>
      </trkpt>
      <trkpt lat="46.64028" lon="6.03663">
        <ele>846.4</ele>
        <time>2015-06-28T08:07:43Z</time>
      </trkpt>
      <trkpt lat="46.6402" lon="6.03654">
        <ele>844.7</ele>
        <time>2015-06-28T08:07:46Z</time>
      </trkpt>
      <trkpt lat="46.64013" lon="6.03641">
        <ele>843</ele>
        <time>2015-06-28T08:07:49Z</time>
      </trkpt>
      <trkpt lat="46.64006" lon="6.03629">
        <ele>841.3</ele>
        <time>2015-06-28T08:07:52Z</time>
      </trkpt>
      <trkpt lat="46.64001" lon="6.03617">
        <ele>839.5</ele>
        <time>2015-06-28T08:07:55Z</time>
      </trkpt>
      <trkpt lat="46.63998" lon="6.03601">
        <ele>837.5</ele>
        <time>2015-06-28T08:07:58Z</time>
      </trkpt>
      <trkpt lat="46.63991" lon="6.03586">
        <ele>835.8</ele>
        <time>2015-06-28T08:08:01Z</time>
      </trkpt>
      <trkpt lat="46.63982" lon="6.03574">
        <ele>834.2</ele>
        <time>2015-06-28T08:08:04Z</time>
      </trkpt>
      <trkpt lat="46.6397" lon="6.03569">
        <ele>832.5</ele>
        <time>2015-06-28T08:08:07Z</time>
      </trkpt>
      <trkpt lat="46.6396" lon="6.03567">
        <ele>831.4</ele>
        <time>2015-06-28T08:08:09Z</time>
      </trkpt>
      <trkpt lat="46.6395" lon="6.03567">
        <ele>830.5</ele>
        <time>2015-06-28T08:08:11Z</time>
      </trkpt>
      <trkpt lat="46.6394" lon="6.03567">
        <ele>829.6</ele>
        <time>2015-06-28T08:08:13Z</time>
      </trkpt>
      <trkpt lat="46.63929" lon="6.03566">
        <ele>828.8</ele>
        <time>2015-06-28T08:08:15Z</time>
      </trkpt>
      <trkpt lat="46.63919" lon="6.03564">
        <ele>827.8</ele>
        <time>2015-06-28T08:08:17Z</time>
      </trkpt>
      <trkpt lat="46.63906" lon="6.03563">
        <ele>826.9</ele>
        <time>2015-06-28T08:08:19Z</time>
      </trkpt>
      <trkpt lat="46.63895" lon="6.03562">
        <ele>826.1</ele>
        <time>2015-06-28T08:08:21Z</time>
      </trkpt>
      <trkpt lat="46.63883" lon="6.03562">
        <ele>825.3</ele>
        <time>2015-06-28T08:08:23Z</time>
      </trkpt>
      <trkpt lat="46.63869" lon="6.03563">
        <ele>824.6</ele>
        <time>2015-06-28T08:08:25Z</time>
      </trkpt>
      <trkpt lat="46.63854" lon="6.03563">
        <ele>823.9</ele>
        <time>2015-06-28T08:08:27Z</time>
      </trkpt>
      <trkpt lat="46.63843" lon="6.03554">
        <ele>823.1</ele>
        <time>2015-06-28T08:08:29Z</time>
      </trkpt>
      <trkpt lat="46.63839" lon="6.03539">
        <ele>822.3</ele>
        <time>2015-06-28T08:08:31Z</time>
      </trkpt>
      <trkpt lat="46.6384" lon="6.03523">
        <ele>821.2</ele>
        <time>2015-06-28T08:08:34Z</time>
      </trkpt>
      <trkpt lat="46.63838" lon="6.03509">
        <ele>818.1</ele>
        <time>2015-06-28T08:08:42Z</time>
      </trkpt>
      <trkpt lat="46.63835" lon="6.03495">
        <ele>817</ele>
        <time>2015-06-28T08:08:45Z</time>
      </trkpt>
      <trkpt lat="46.63832" lon="6.03478">
        <ele>816.1</ele>
        <time>2015-06-28T08:08:48Z</time>
      </trkpt>
      <trkpt lat="46.63831" lon="6.03465">
        <ele>815.6</ele>
        <time>2015-06-28T08:08:50Z</time>
      </trkpt>
      <trkpt lat="46.63831" lon="6.0345">
        <ele>815.1</ele>
        <time>2015-06-28T08:08:52Z</time>
      </trkpt>
      <trkpt lat="46.63831" lon="6.03433">
        <ele>814.7</ele>
        <time>2015-06-28T08:08:54Z</time>
      </trkpt>
      <trkpt lat="46.63828" lon="6.03417">
        <ele>814.3</ele>
        <time>2015-06-28T08:08:56Z</time>
      </trkpt>
      <trkpt lat="46.63824" lon="6.03402">
        <ele>813.9</ele>
        <time>2015-06-28T08:08:58Z</time>
      </trkpt>
      <trkpt lat="46.63816" lon="6.03384">
        <ele>813.5</ele>
        <time>2015-06-28T08:09:00Z</time>
      </trkpt>
      <trkpt lat="46.63812" lon="6.03362">
        <ele>813</ele>
        <time>2015-06-28T08:09:02Z</time>
      </trkpt>
      <trkpt lat="46.63811" lon="6.03339">
        <ele>812.6</ele>
        <time>2015-06-28T08:09:04Z</time>
      </trkpt>
      <trkpt lat="46.6381" lon="6.03317">
        <ele>812.1</ele>
        <time>2015-06-28T08:09:06Z</time>
      </trkpt>
      <trkpt lat="46.63809" lon="6.03299">
        <ele>811.7</ele>
        <time>2015-06-28T08:09:08Z</time>
      </trkpt>
      <trkpt lat="46.63811" lon="6.03285">
        <ele>811.3</ele>
        <time>2015-06-28T08:09:10Z</time>
      </trkpt>
      <trkpt lat="46.63818" lon="6.03269">
        <ele>810.6</ele>
        <time>2015-06-28T08:09:13Z</time>
      </trkpt>
      <trkpt lat="46.63828" lon="6.03255">
        <ele>809.8</ele>
        <time>2015-06-28T08:09:16Z</time>
      </trkpt>
      <trkpt lat="46.63837" lon="6.03247">
        <ele>809.4</ele>
        <time>2015-06-28T08:09:18Z</time>
      </trkpt>
      <trkpt lat="46.63848" lon="6.03237">
        <ele>808.9</ele>
        <time>2015-06-28T08:09:20Z</time>
      </trkpt>
      <trkpt lat="46.63855" lon="6.03222">
        <ele>808.5</ele>
        <time>2015-06-28T08:09:22Z</time>
      </trkpt>
      <trkpt lat="46.63859" lon="6.03206">
        <ele>808.1</ele>
        <time>2015-06-28T08:09:24Z</time>
      </trkpt>
      <trkpt lat="46.63857" lon="6.0319">
        <ele>806.9</ele>
        <time>2015-06-28T08:09:27Z</time>
      </trkpt>
      <trkpt lat="46.63846" lon="6.03186">
        <ele>806</ele>
        <time>2015-06-28T08:09:30Z</time>
      </trkpt>
      <trkpt lat="46.63835" lon="6.03182">
        <ele>804.8</ele>
        <time>2015-06-28T08:09:35Z</time>
      </trkpt>
      <trkpt lat="46.6383" lon="6.03168">
        <ele>803.7</ele>
        <time>2015-06-28T08:09:41Z</time>
      </trkpt>
      <trkpt lat="46.63826" lon="6.03153">
        <ele>803.1</ele>
        <time>2015-06-28T08:09:46Z</time>
      </trkpt>
      <trkpt lat="46.6382" lon="6.0314">
        <ele>802.7</ele>
        <time>2015-06-28T08:09:51Z</time>
      </trkpt>
      <trkpt lat="46.63815" lon="6.03128">
        <ele>802.7</ele>
        <time>2015-06-28T08:09:55Z</time>
      </trkpt>
      <trkpt lat="46.6381" lon="6.03116">
        <ele>802.7</ele>
        <time>2015-06-28T08:09:59Z</time>
      </trkpt>
      <trkpt lat="46.63806" lon="6.03104">
        <ele>802.9</ele>
        <time>2015-06-28T08:10:03Z</time>
      </trkpt>
      <trkpt lat="46.63798" lon="6.03095">
        <ele>803.3</ele>
        <time>2015-06-28T08:10:08Z</time>
      </trkpt>
      <trkpt lat="46.63792" lon="6.03084">
        <ele>803.7</ele>
        <time>2015-06-28T08:10:13Z</time>
      </trkpt>
      <trkpt lat="46.63786" lon="6.03071">
        <ele>804.3</ele>
        <time>2015-06-28T08:10:19Z</time>
      </trkpt>
      <trkpt lat="46.63777" lon="6.03066">
        <ele>805.2</ele>
        <time>2015-06-28T08:10:24Z</time>
      </trkpt>
      <trkpt lat="46.63772" lon="6.03053">
        <ele>806.1</ele>
        <time>2015-06-28T08:10:29Z</time>
      </trkpt>
      <trkpt lat="46.63774" lon="6.03039">
        <ele>807.8</ele>
        <time>2015-06-28T08:10:37Z</time>
      </trkpt>
      <trkpt lat="46.63784" lon="6.0304">
        <ele>809</ele>
        <time>2015-06-28T08:10:45Z</time>
      </trkpt>
      <trkpt lat="46.63792" lon="6.03048">
        <ele>809.7</ele>
        <time>2015-06-28T08:10:50Z</time>
      </trkpt>
      <trkpt lat="46.638" lon="6.03054">
        <ele>810.2</ele>
        <time>2015-06-28T08:10:55Z</time>
      </trkpt>
      <trkpt lat="46.63796" lon="6.03041">
        <ele>813.4</ele>
        <time>2015-06-28T08:16:26Z</time>
      </trkpt>
      <trkpt lat="46.63805" lon="6.03033">
        <ele>813.8</ele>
        <time>2015-06-28T08:16:35Z</time>
      </trkpt>
      <trkpt lat="46.63814" lon="6.03034">
        <ele>814</ele>
        <time>2015-06-28T08:16:39Z</time>
      </trkpt>
      <trkpt lat="46.63824" lon="6.03034">
        <ele>814.2</ele>
        <time>2015-06-28T08:16:43Z</time>
      </trkpt>
      <trkpt lat="46.63834" lon="6.03034">
        <ele>814.5</ele>
        <time>2015-06-28T08:16:47Z</time>
      </trkpt>
      <trkpt lat="46.63844" lon="6.03033">
        <ele>814.7</ele>
        <time>2015-06-28T08:16:51Z</time>
      </trkpt>
      <trkpt lat="46.63854" lon="6.03031">
        <ele>814.9</ele>
        <time>2015-06-28T08:16:55Z</time>
      </trkpt>
      <trkpt lat="46.63866" lon="6.03029">
        <ele>815.1</ele>
        <time>2015-06-28T08:16:59Z</time>
      </trkpt>
      <trkpt lat="46.63875" lon="6.03028">
        <ele>815.1</ele>
        <time>2015-06-28T08:17:02Z</time>
      </trkpt>
      <trkpt lat="46.63885" lon="6.03026">
        <ele>815.2</ele>
        <time>2015-06-28T08:17:05Z</time>
      </trkpt>
      <trkpt lat="46.63895" lon="6.03024">
        <ele>815.3</ele>
        <time>2015-06-28T08:17:08Z</time>
      </trkpt>
      <trkpt lat="46.63907" lon="6.03021">
        <ele>815.4</ele>
        <time>2015-06-28T08:17:11Z</time>
      </trkpt>
      <trkpt lat="46.63919" lon="6.03021">
        <ele>815.4</ele>
        <time>2015-06-28T08:17:14Z</time>
      </trkpt>
      <trkpt lat="46.63931" lon="6.03019">
        <ele>815.5</ele>
        <time>2015-06-28T08:17:17Z</time>
      </trkpt>
      <trkpt lat="46.63943" lon="6.03016">
        <ele>815.6</ele>
        <time>2015-06-28T08:17:20Z</time>
      </trkpt>
      <trkpt lat="46.63955" lon="6.03014">
        <ele>815.6</ele>
        <time>2015-06-28T08:17:23Z</time>
      </trkpt>
      <trkpt lat="46.63967" lon="6.03012">
        <ele>815.6</ele>
        <time>2015-06-28T08:17:26Z</time>
      </trkpt>
      <trkpt lat="46.63978" lon="6.03009">
        <ele>815.7</ele>
        <time>2015-06-28T08:17:29Z</time>
      </trkpt>
      <trkpt lat="46.6399" lon="6.03008">
        <ele>815.7</ele>
        <time>2015-06-28T08:17:32Z</time>
      </trkpt>
      <trkpt lat="46.64001" lon="6.03005">
        <ele>815.8</ele>
        <time>2015-06-28T08:17:35Z</time>
      </trkpt>
      <trkpt lat="46.64012" lon="6.03003">
        <ele>815.8</ele>
        <time>2015-06-28T08:17:38Z</time>
      </trkpt>
      <trkpt lat="46.64022" lon="6.03001">
        <ele>815.8</ele>
        <time>2015-06-28T08:17:41Z</time>
      </trkpt>
      <trkpt lat="46.64032" lon="6.03">
        <ele>815.9</ele>
        <time>2015-06-28T08:17:44Z</time>
      </trkpt>
      <trkpt lat="46.64042" lon="6.03">
        <ele>815.9</ele>
        <time>2015-06-28T08:17:47Z</time>
      </trkpt>
      <trkpt lat="46.64052" lon="6.03001">
        <ele>815.9</ele>
        <time>2015-06-28T08:17:50Z</time>
      </trkpt>
      <trkpt lat="46.64063" lon="6.03005">
        <ele>816</ele>
        <time>2015-06-28T08:17:54Z</time>
      </trkpt>
      <trkpt lat="46.64073" lon="6.03011">
        <ele>816</ele>
        <time>2015-06-28T08:17:59Z</time>
      </trkpt>
      <trkpt lat="46.64082" lon="6.03017">
        <ele>816.1</ele>
        <time>2015-06-28T08:18:03Z</time>
      </trkpt>
      <trkpt lat="46.64074" lon="6.0301">
        <ele>816.2</ele>
        <time>2015-06-28T08:18:14Z</time>
      </trkpt>
      <trkpt lat="46.64065" lon="6.03003">
        <ele>816.2</ele>
        <time>2015-06-28T08:18:18Z</time>
      </trkpt>
      <trkpt lat="46.64056" lon="6.02999">
        <ele>816.2</ele>
        <time>2015-06-28T08:18:21Z</time>
      </trkpt>
      <trkpt lat="46.64046" lon="6.02994">
        <ele>816.2</ele>
        <time>2015-06-28T08:18:24Z</time>
      </trkpt>
      <trkpt lat="46.64035" lon="6.02993">
        <ele>816.2</ele>
        <time>2015-06-28T08:18:27Z</time>
      </trkpt>
      <trkpt lat="46.64024" lon="6.02991">
        <ele>816.2</ele>
        <time>2015-06-28T08:18:30Z</time>
      </trkpt>
      <trkpt lat="46.64023" lon="6.02974">
        <ele>816.2</ele>
        <time>2015-06-28T08:18:34Z</time>
      </trkpt>
      <trkpt lat="46.64032" lon="6.02961">
        <ele>816.1</ele>
        <time>2015-06-28T08:18:37Z</time>
      </trkpt>
      <trkpt lat="46.6404" lon="6.02948">
        <ele>816</ele>
        <time>2015-06-28T08:18:40Z</time>
      </trkpt>
      <trkpt lat="46.64047" lon="6.02931">
        <ele>815.9</ele>
        <time>2015-06-28T08:18:43Z</time>
      </trkpt>
      <trkpt lat="46.64051" lon="6.02916">
        <ele>815.8</ele>
        <time>2015-06-28T08:18:46Z</time>
      </trkpt>
      <trkpt lat="46.64055" lon="6.02897">
        <ele>815.6</ele>
        <time>2015-06-28T08:18:49Z</time>
      </trkpt>
      <trkpt lat="46.64058" lon="6.02879">
        <ele>815.4</ele>
        <time>2015-06-28T08:18:52Z</time>
      </trkpt>
      <trkpt lat="46.6406" lon="6.02861">
        <ele>815.2</ele>
        <time>2015-06-28T08:18:55Z</time>
      </trkpt>
      <trkpt lat="46.64063" lon="6.02848">
        <ele>815.1</ele>
        <time>2015-06-28T08:18:57Z</time>
      </trkpt>
      <trkpt lat="46.64066" lon="6.02834">
        <ele>814.9</ele>
        <time>2015-06-28T08:18:59Z</time>
      </trkpt>
      <trkpt lat="46.64071" lon="6.02815">
        <ele>814.6</ele>
        <time>2015-06-28T08:19:02Z</time>
      </trkpt>
      <trkpt lat="46.64076" lon="6.02802">
        <ele>814.4</ele>
        <time>2015-06-28T08:19:04Z</time>
      </trkpt>
      <trkpt lat="46.64082" lon="6.02792">
        <ele>814.3</ele>
        <time>2015-06-28T08:19:06Z</time>
      </trkpt>
      <trkpt lat="46.64089" lon="6.02781">
        <ele>814.2</ele>
        <time>2015-06-28T08:19:08Z</time>
      </trkpt>
      <trkpt lat="46.64096" lon="6.02772">
        <ele>814.1</ele>
        <time>2015-06-28T08:19:10Z</time>
      </trkpt>
      <trkpt lat="46.64105" lon="6.02764">
        <ele>814</ele>
        <time>2015-06-28T08:19:12Z</time>
      </trkpt>
      <trkpt lat="46.64114" lon="6.02757">
        <ele>813.9</ele>
        <time>2015-06-28T08:19:14Z</time>
      </trkpt>
      <trkpt lat="46.64124" lon="6.02752">
        <ele>813.8</ele>
        <time>2015-06-28T08:19:16Z</time>
      </trkpt>
      <trkpt lat="46.64134" lon="6.02748">
        <ele>813.6</ele>
        <time>2015-06-28T08:19:18Z</time>
      </trkpt>
      <trkpt lat="46.64143" lon="6.02744">
        <ele>813.4</ele>
        <time>2015-06-28T08:19:20Z</time>
      </trkpt>
      <trkpt lat="46.64153" lon="6.02741">
        <ele>813.1</ele>
        <time>2015-06-28T08:19:22Z</time>
      </trkpt>
      <trkpt lat="46.64164" lon="6.02737">
        <ele>812.8</ele>
        <time>2015-06-28T08:19:24Z</time>
      </trkpt>
      <trkpt lat="46.64173" lon="6.02733">
        <ele>812.6</ele>
        <time>2015-06-28T08:19:26Z</time>
      </trkpt>
      <trkpt lat="46.64183" lon="6.02729">
        <ele>812.4</ele>
        <time>2015-06-28T08:19:28Z</time>
      </trkpt>
      <trkpt lat="46.64193" lon="6.02728">
        <ele>812.2</ele>
        <time>2015-06-28T08:19:30Z</time>
      </trkpt>
      <trkpt lat="46.64203" lon="6.02726">
        <ele>812.1</ele>
        <time>2015-06-28T08:19:32Z</time>
      </trkpt>
      <trkpt lat="46.64213" lon="6.02724">
        <ele>811.9</ele>
        <time>2015-06-28T08:19:34Z</time>
      </trkpt>
      <trkpt lat="46.64224" lon="6.02722">
        <ele>811.7</ele>
        <time>2015-06-28T08:19:36Z</time>
      </trkpt>
      <trkpt lat="46.64235" lon="6.02719">
        <ele>811.5</ele>
        <time>2015-06-28T08:19:38Z</time>
      </trkpt>
      <trkpt lat="46.64246" lon="6.02713">
        <ele>811.3</ele>
        <time>2015-06-28T08:19:40Z</time>
      </trkpt>
      <trkpt lat="46.64257" lon="6.02709">
        <ele>810.9</ele>
        <time>2015-06-28T08:19:42Z</time>
      </trkpt>
      <trkpt lat="46.64268" lon="6.02704">
        <ele>810.6</ele>
        <time>2015-06-28T08:19:44Z</time>
      </trkpt>
      <trkpt lat="46.64278" lon="6.027">
        <ele>810.4</ele>
        <time>2015-06-28T08:19:46Z</time>
      </trkpt>
      <trkpt lat="46.64289" lon="6.02694">
        <ele>810.1</ele>
        <time>2015-06-28T08:19:48Z</time>
      </trkpt>
      <trkpt lat="46.643" lon="6.02689">
        <ele>809.8</ele>
        <time>2015-06-28T08:19:50Z</time>
      </trkpt>
      <trkpt lat="46.64311" lon="6.02683">
        <ele>809.6</ele>
        <time>2015-06-28T08:19:52Z</time>
      </trkpt>
      <trkpt lat="46.64322" lon="6.02677">
        <ele>809.3</ele>
        <time>2015-06-28T08:19:54Z</time>
      </trkpt>
      <trkpt lat="46.64334" lon="6.02669">
        <ele>808.9</ele>
        <time>2015-06-28T08:19:56Z</time>
      </trkpt>
      <trkpt lat="46.64346" lon="6.02668">
        <ele>808.6</ele>
        <time>2015-06-28T08:19:58Z</time>
      </trkpt>
      <trkpt lat="46.64357" lon="6.02665">
        <ele>808.2</ele>
        <time>2015-06-28T08:20:00Z</time>
      </trkpt>
      <trkpt lat="46.64366" lon="6.02662">
        <ele>807.7</ele>
        <time>2015-06-28T08:20:02Z</time>
      </trkpt>
      <trkpt lat="46.64378" lon="6.02658">
        <ele>807.3</ele>
        <time>2015-06-28T08:20:04Z</time>
      </trkpt>
      <trkpt lat="46.64391" lon="6.02656">
        <ele>806.9</ele>
        <time>2015-06-28T08:20:06Z</time>
      </trkpt>
      <trkpt lat="46.64403" lon="6.02653">
        <ele>806.6</ele>
        <time>2015-06-28T08:20:08Z</time>
      </trkpt>
      <trkpt lat="46.64417" lon="6.02652">
        <ele>806</ele>
        <time>2015-06-28T08:20:10Z</time>
      </trkpt>
      <trkpt lat="46.64429" lon="6.02648">
        <ele>805.6</ele>
        <time>2015-06-28T08:20:12Z</time>
      </trkpt>
      <trkpt lat="46.64439" lon="6.02643">
        <ele>805.3</ele>
        <time>2015-06-28T08:20:14Z</time>
      </trkpt>
      <trkpt lat="46.64449" lon="6.02637">
        <ele>805</ele>
        <time>2015-06-28T08:20:16Z</time>
      </trkpt>
      <trkpt lat="46.64458" lon="6.0263">
        <ele>804.7</ele>
        <time>2015-06-28T08:20:18Z</time>
      </trkpt>
      <trkpt lat="46.64467" lon="6.02622">
        <ele>804.4</ele>
        <time>2015-06-28T08:20:20Z</time>
      </trkpt>
      <trkpt lat="46.64476" lon="6.02616">
        <ele>804</ele>
        <time>2015-06-28T08:20:22Z</time>
      </trkpt>
      <trkpt lat="46.64483" lon="6.0261">
        <ele>803.7</ele>
        <time>2015-06-28T08:20:24Z</time>
      </trkpt>
      <trkpt lat="46.64495" lon="6.02604">
        <ele>803.2</ele>
        <time>2015-06-28T08:20:27Z</time>
      </trkpt>
      <trkpt lat="46.64505" lon="6.02603">
        <ele>802.7</ele>
        <time>2015-06-28T08:20:29Z</time>
      </trkpt>
      <trkpt lat="46.64515" lon="6.02604">
        <ele>802.3</ele>
        <time>2015-06-28T08:20:31Z</time>
      </trkpt>
      <trkpt lat="46.64526" lon="6.02602">
        <ele>802</ele>
        <time>2015-06-28T08:20:33Z</time>
      </trkpt>
      <trkpt lat="46.64535" lon="6.02602">
        <ele>801.6</ele>
        <time>2015-06-28T08:20:35Z</time>
      </trkpt>
      <trkpt lat="46.64544" lon="6.02602">
        <ele>801.3</ele>
        <time>2015-06-28T08:20:37Z</time>
      </trkpt>
      <trkpt lat="46.64554" lon="6.02602">
        <ele>801</ele>
        <time>2015-06-28T08:20:39Z</time>
      </trkpt>
      <trkpt lat="46.64593" lon="6.02518">
        <ele>799</ele>
        <time>2015-06-28T08:21:11Z</time>
      </trkpt>
      <trkpt lat="46.64618" lon="6.02421">
        <ele>799.2</ele>
        <time>2015-06-28T08:21:43Z</time>
      </trkpt>
      <trkpt lat="46.6461" lon="6.02412">
        <ele>796.3</ele>
        <time>2015-06-28T08:21:51Z</time>
      </trkpt>
      <trkpt lat="46.64621" lon="6.0241">
        <ele>795.1</ele>
        <time>2015-06-28T08:21:55Z</time>
      </trkpt>
      <trkpt lat="46.6463" lon="6.02405">
        <ele>794.4</ele>
        <time>2015-06-28T08:21:58Z</time>
      </trkpt>
      <trkpt lat="46.64642" lon="6.024">
        <ele>793.9</ele>
        <time>2015-06-28T08:22:01Z</time>
      </trkpt>
      <trkpt lat="46.64652" lon="6.02395">
        <ele>793.5</ele>
        <time>2015-06-28T08:22:04Z</time>
      </trkpt>
      <trkpt lat="46.64662" lon="6.02391">
        <ele>793.2</ele>
        <time>2015-06-28T08:22:06Z</time>
      </trkpt>
      <trkpt lat="46.64675" lon="6.02385">
        <ele>792.9</ele>
        <time>2015-06-28T08:22:09Z</time>
      </trkpt>
      <trkpt lat="46.64687" lon="6.02384">
        <ele>792.7</ele>
        <time>2015-06-28T08:22:11Z</time>
      </trkpt>
      <trkpt lat="46.64699" lon="6.0238">
        <ele>792.4</ele>
        <time>2015-06-28T08:22:13Z</time>
      </trkpt>
      <trkpt lat="46.64711" lon="6.02379">
        <ele>792.1</ele>
        <time>2015-06-28T08:22:15Z</time>
      </trkpt>
      <trkpt lat="46.6472" lon="6.02379">
        <ele>791.9</ele>
        <time>2015-06-28T08:22:17Z</time>
      </trkpt>
      <trkpt lat="46.6473" lon="6.02377">
        <ele>791.6</ele>
        <time>2015-06-28T08:22:19Z</time>
      </trkpt>
      <trkpt lat="46.6474" lon="6.02376">
        <ele>791.4</ele>
        <time>2015-06-28T08:22:21Z</time>
      </trkpt>
      <trkpt lat="46.64751" lon="6.02373">
        <ele>791.1</ele>
        <time>2015-06-28T08:22:23Z</time>
      </trkpt>
      <trkpt lat="46.64762" lon="6.02374">
        <ele>790.8</ele>
        <time>2015-06-28T08:22:25Z</time>
      </trkpt>
      <trkpt lat="46.64773" lon="6.02373">
        <ele>790.5</ele>
        <time>2015-06-28T08:22:27Z</time>
      </trkpt>
      <trkpt lat="46.64783" lon="6.02372">
        <ele>790.2</ele>
        <time>2015-06-28T08:22:29Z</time>
      </trkpt>
      <trkpt lat="46.64794" lon="6.02369">
        <ele>789.8</ele>
        <time>2015-06-28T08:22:31Z</time>
      </trkpt>
      <trkpt lat="46.64804" lon="6.02364">
        <ele>789.4</ele>
        <time>2015-06-28T08:22:33Z</time>
      </trkpt>
      <trkpt lat="46.64815" lon="6.02358">
        <ele>789</ele>
        <time>2015-06-28T08:22:35Z</time>
      </trkpt>
      <trkpt lat="46.64825" lon="6.02349">
        <ele>788.7</ele>
        <time>2015-06-28T08:22:37Z</time>
      </trkpt>
      <trkpt lat="46.64833" lon="6.02334">
        <ele>788.3</ele>
        <time>2015-06-28T08:22:39Z</time>
      </trkpt>
      <trkpt lat="46.64841" lon="6.0232">
        <ele>788</ele>
        <time>2015-06-28T08:22:41Z</time>
      </trkpt>
      <trkpt lat="46.64849" lon="6.02307">
        <ele>787.7</ele>
        <time>2015-06-28T08:22:43Z</time>
      </trkpt>
      <trkpt lat="46.64855" lon="6.02292">
        <ele>787.4</ele>
        <time>2015-06-28T08:22:45Z</time>
      </trkpt>
      <trkpt lat="46.64861" lon="6.02276">
        <ele>787</ele>
        <time>2015-06-28T08:22:47Z</time>
      </trkpt>
      <trkpt lat="46.64868" lon="6.0226">
        <ele>786.7</ele>
        <time>2015-06-28T08:22:49Z</time>
      </trkpt>
      <trkpt lat="46.64875" lon="6.02245">
        <ele>786.3</ele>
        <time>2015-06-28T08:22:51Z</time>
      </trkpt>
      <trkpt lat="46.64881" lon="6.02229">
        <ele>785.9</ele>
        <time>2015-06-28T08:22:53Z</time>
      </trkpt>
      <trkpt lat="46.64888" lon="6.02215">
        <ele>785.5</ele>
        <time>2015-06-28T08:22:55Z</time>
      </trkpt>
      <trkpt lat="46.64895" lon="6.02198">
        <ele>785</ele>
        <time>2015-06-28T08:22:57Z</time>
      </trkpt>
      <trkpt lat="46.64905" lon="6.02183">
        <ele>784.7</ele>
        <time>2015-06-28T08:22:59Z</time>
      </trkpt>
      <trkpt lat="46.64915" lon="6.02169">
        <ele>784.3</ele>
        <time>2015-06-28T08:23:01Z</time>
      </trkpt>
      <trkpt lat="46.64923" lon="6.02153">
        <ele>783.8</ele>
        <time>2015-06-28T08:23:03Z</time>
      </trkpt>
      <trkpt lat="46.6493" lon="6.02136">
        <ele>783.3</ele>
        <time>2015-06-28T08:23:05Z</time>
      </trkpt>
      <trkpt lat="46.64939" lon="6.02121">
        <ele>782.9</ele>
        <time>2015-06-28T08:23:07Z</time>
      </trkpt>
      <trkpt lat="46.64949" lon="6.02108">
        <ele>782.5</ele>
        <time>2015-06-28T08:23:09Z</time>
      </trkpt>
      <trkpt lat="46.64959" lon="6.02096">
        <ele>782</ele>
        <time>2015-06-28T08:23:11Z</time>
      </trkpt>
      <trkpt lat="46.64967" lon="6.02087">
        <ele>781.6</ele>
        <time>2015-06-28T08:23:13Z</time>
      </trkpt>
      <trkpt lat="46.64976" lon="6.02078">
        <ele>781.1</ele>
        <time>2015-06-28T08:23:15Z</time>
      </trkpt>
      <trkpt lat="46.64986" lon="6.02068">
        <ele>780.6</ele>
        <time>2015-06-28T08:23:17Z</time>
      </trkpt>
      <trkpt lat="46.64995" lon="6.02059">
        <ele>780.1</ele>
        <time>2015-06-28T08:23:19Z</time>
      </trkpt>
      <trkpt lat="46.65005" lon="6.02051">
        <ele>779.7</ele>
        <time>2015-06-28T08:23:21Z</time>
      </trkpt>
      <trkpt lat="46.65014" lon="6.02041">
        <ele>779.3</ele>
        <time>2015-06-28T08:23:23Z</time>
      </trkpt>
      <trkpt lat="46.65024" lon="6.02032">
        <ele>778.9</ele>
        <time>2015-06-28T08:23:25Z</time>
      </trkpt>
      <trkpt lat="46.65034" lon="6.02022">
        <ele>778.5</ele>
        <time>2015-06-28T08:23:27Z</time>
      </trkpt>
      <trkpt lat="46.65044" lon="6.02012">
        <ele>778</ele>
        <time>2015-06-28T08:23:29Z</time>
      </trkpt>
      <trkpt lat="46.65054" lon="6.02003">
        <ele>777.6</ele>
        <time>2015-06-28T08:23:31Z</time>
      </trkpt>
      <trkpt lat="46.65064" lon="6.01995">
        <ele>777.1</ele>
        <time>2015-06-28T08:23:33Z</time>
      </trkpt>
      <trkpt lat="46.65073" lon="6.01988">
        <ele>776.7</ele>
        <time>2015-06-28T08:23:35Z</time>
      </trkpt>
      <trkpt lat="46.65083" lon="6.01984">
        <ele>776.2</ele>
        <time>2015-06-28T08:23:37Z</time>
      </trkpt>
      <trkpt lat="46.65094" lon="6.01981">
        <ele>775.6</ele>
        <time>2015-06-28T08:23:39Z</time>
      </trkpt>
      <trkpt lat="46.65106" lon="6.01978">
        <ele>775</ele>
        <time>2015-06-28T08:23:41Z</time>
      </trkpt>
      <trkpt lat="46.65117" lon="6.01976">
        <ele>774.4</ele>
        <time>2015-06-28T08:23:43Z</time>
      </trkpt>
      <trkpt lat="46.65126" lon="6.0197">
        <ele>773.9</ele>
        <time>2015-06-28T08:23:45Z</time>
      </trkpt>
      <trkpt lat="46.65136" lon="6.01963">
        <ele>773.4</ele>
        <time>2015-06-28T08:23:47Z</time>
      </trkpt>
      <trkpt lat="46.65147" lon="6.01955">
        <ele>773</ele>
        <time>2015-06-28T08:23:49Z</time>
      </trkpt>
      <trkpt lat="46.65158" lon="6.01944">
        <ele>772.6</ele>
        <time>2015-06-28T08:23:51Z</time>
      </trkpt>
      <trkpt lat="46.65167" lon="6.01932">
        <ele>772.1</ele>
        <time>2015-06-28T08:23:53Z</time>
      </trkpt>
      <trkpt lat="46.65175" lon="6.01917">
        <ele>771.7</ele>
        <time>2015-06-28T08:23:55Z</time>
      </trkpt>
      <trkpt lat="46.65182" lon="6.019">
        <ele>771.2</ele>
        <time>2015-06-28T08:23:57Z</time>
      </trkpt>
      <trkpt lat="46.65187" lon="6.01881">
        <ele>770.8</ele>
        <time>2015-06-28T08:23:59Z</time>
      </trkpt>
      <trkpt lat="46.65189" lon="6.01862">
        <ele>770.4</ele>
        <time>2015-06-28T08:24:01Z</time>
      </trkpt>
      <trkpt lat="46.6519" lon="6.01843">
        <ele>769.9</ele>
        <time>2015-06-28T08:24:03Z</time>
      </trkpt>
      <trkpt lat="46.65188" lon="6.01823">
        <ele>769.5</ele>
        <time>2015-06-28T08:24:05Z</time>
      </trkpt>
      <trkpt lat="46.65186" lon="6.01806">
        <ele>769.1</ele>
        <time>2015-06-28T08:24:07Z</time>
      </trkpt>
      <trkpt lat="46.65183" lon="6.01788">
        <ele>768.7</ele>
        <time>2015-06-28T08:24:09Z</time>
      </trkpt>
      <trkpt lat="46.65179" lon="6.01771">
        <ele>768.3</ele>
        <time>2015-06-28T08:24:11Z</time>
      </trkpt>
      <trkpt lat="46.65176" lon="6.01754">
        <ele>767.9</ele>
        <time>2015-06-28T08:24:13Z</time>
      </trkpt>
      <trkpt lat="46.65173" lon="6.01737">
        <ele>767.5</ele>
        <time>2015-06-28T08:24:15Z</time>
      </trkpt>
      <trkpt lat="46.65172" lon="6.0172">
        <ele>767.1</ele>
        <time>2015-06-28T08:24:17Z</time>
      </trkpt>
      <trkpt lat="46.65172" lon="6.01705">
        <ele>766.8</ele>
        <time>2015-06-28T08:24:19Z</time>
      </trkpt>
      <trkpt lat="46.65174" lon="6.0169">
        <ele>766.4</ele>
        <time>2015-06-28T08:24:21Z</time>
      </trkpt>
      <trkpt lat="46.65176" lon="6.01677">
        <ele>766.1</ele>
        <time>2015-06-28T08:24:23Z</time>
      </trkpt>
      <trkpt lat="46.6518" lon="6.01658">
        <ele>765.6</ele>
        <time>2015-06-28T08:24:26Z</time>
      </trkpt>
      <trkpt lat="46.65184" lon="6.01645">
        <ele>765.2</ele>
        <time>2015-06-28T08:24:28Z</time>
      </trkpt>
      <trkpt lat="46.6519" lon="6.01633">
        <ele>764.8</ele>
        <time>2015-06-28T08:24:30Z</time>
      </trkpt>
      <trkpt lat="46.65196" lon="6.01622">
        <ele>764.5</ele>
        <time>2015-06-28T08:24:32Z</time>
      </trkpt>
      <trkpt lat="46.65201" lon="6.01609">
        <ele>764.3</ele>
        <time>2015-06-28T08:24:34Z</time>
      </trkpt>
      <trkpt lat="46.65207" lon="6.01597">
        <ele>764</ele>
        <time>2015-06-28T08:24:36Z</time>
      </trkpt>
      <trkpt lat="46.65214" lon="6.01581">
        <ele>763.7</ele>
        <time>2015-06-28T08:24:39Z</time>
      </trkpt>
      <trkpt lat="46.65223" lon="6.01567">
        <ele>763.4</ele>
        <time>2015-06-28T08:24:42Z</time>
      </trkpt>
      <trkpt lat="46.65231" lon="6.01553">
        <ele>763.1</ele>
        <time>2015-06-28T08:24:45Z</time>
      </trkpt>
      <trkpt lat="46.65237" lon="6.01539">
        <ele>762.9</ele>
        <time>2015-06-28T08:24:48Z</time>
      </trkpt>
      <trkpt lat="46.65244" lon="6.01525">
        <ele>762.7</ele>
        <time>2015-06-28T08:24:51Z</time>
      </trkpt>
      <trkpt lat="46.65253" lon="6.01512">
        <ele>762.5</ele>
        <time>2015-06-28T08:24:54Z</time>
      </trkpt>
      <trkpt lat="46.6526" lon="6.01499">
        <ele>762.3</ele>
        <time>2015-06-28T08:24:57Z</time>
      </trkpt>
      <trkpt lat="46.65269" lon="6.01487">
        <ele>762</ele>
        <time>2015-06-28T08:25:00Z</time>
      </trkpt>
      <trkpt lat="46.65279" lon="6.01475">
        <ele>761.7</ele>
        <time>2015-06-28T08:25:03Z</time>
      </trkpt>
      <trkpt lat="46.65287" lon="6.01464">
        <ele>761.5</ele>
        <time>2015-06-28T08:25:06Z</time>
      </trkpt>
      <trkpt lat="46.65296" lon="6.01455">
        <ele>761.2</ele>
        <time>2015-06-28T08:25:09Z</time>
      </trkpt>
      <trkpt lat="46.65305" lon="6.01446">
        <ele>761</ele>
        <time>2015-06-28T08:25:12Z</time>
      </trkpt>
      <trkpt lat="46.65314" lon="6.01436">
        <ele>760.8</ele>
        <time>2015-06-28T08:25:15Z</time>
      </trkpt>
      <trkpt lat="46.65324" lon="6.01425">
        <ele>760.7</ele>
        <time>2015-06-28T08:25:18Z</time>
      </trkpt>
      <trkpt lat="46.65333" lon="6.01415">
        <ele>760.4</ele>
        <time>2015-06-28T08:25:21Z</time>
      </trkpt>
      <trkpt lat="46.65343" lon="6.01402">
        <ele>760.2</ele>
        <time>2015-06-28T08:25:24Z</time>
      </trkpt>
      <trkpt lat="46.6535" lon="6.01394">
        <ele>760.1</ele>
        <time>2015-06-28T08:25:26Z</time>
      </trkpt>
      <trkpt lat="46.65357" lon="6.01386">
        <ele>760</ele>
        <time>2015-06-28T08:25:28Z</time>
      </trkpt>
      <trkpt lat="46.65368" lon="6.01375">
        <ele>759.8</ele>
        <time>2015-06-28T08:25:31Z</time>
      </trkpt>
      <trkpt lat="46.65378" lon="6.01365">
        <ele>759.6</ele>
        <time>2015-06-28T08:25:34Z</time>
      </trkpt>
      <trkpt lat="46.65388" lon="6.01353">
        <ele>759.4</ele>
        <time>2015-06-28T08:25:37Z</time>
      </trkpt>
      <trkpt lat="46.65396" lon="6.01345">
        <ele>759.3</ele>
        <time>2015-06-28T08:25:39Z</time>
      </trkpt>
      <trkpt lat="46.65405" lon="6.01334">
        <ele>759</ele>
        <time>2015-06-28T08:25:42Z</time>
      </trkpt>
      <trkpt lat="46.65412" lon="6.01324">
        <ele>758.8</ele>
        <time>2015-06-28T08:25:46Z</time>
      </trkpt>
      <trkpt lat="46.6542" lon="6.01313">
        <ele>758.6</ele>
        <time>2015-06-28T08:25:49Z</time>
      </trkpt>
      <trkpt lat="46.65424" lon="6.01301">
        <ele>758.5</ele>
        <time>2015-06-28T08:25:52Z</time>
      </trkpt>
      <trkpt lat="46.65428" lon="6.01283">
        <ele>758.2</ele>
        <time>2015-06-28T08:25:55Z</time>
      </trkpt>
      <trkpt lat="46.65431" lon="6.01264">
        <ele>757.8</ele>
        <time>2015-06-28T08:25:58Z</time>
      </trkpt>
      <trkpt lat="46.65433" lon="6.01249">
        <ele>757.4</ele>
        <time>2015-06-28T08:26:00Z</time>
      </trkpt>
      <trkpt lat="46.65435" lon="6.01235">
        <ele>756.9</ele>
        <time>2015-06-28T08:26:02Z</time>
      </trkpt>
      <trkpt lat="46.65437" lon="6.0122">
        <ele>756.3</ele>
        <time>2015-06-28T08:26:04Z</time>
      </trkpt>
      <trkpt lat="46.65436" lon="6.01205">
        <ele>755.6</ele>
        <time>2015-06-28T08:26:06Z</time>
      </trkpt>
      <trkpt lat="46.65437" lon="6.01189">
        <ele>755</ele>
        <time>2015-06-28T08:26:08Z</time>
      </trkpt>
      <trkpt lat="46.65437" lon="6.01174">
        <ele>754.4</ele>
        <time>2015-06-28T08:26:10Z</time>
      </trkpt>
      <trkpt lat="46.65437" lon="6.01159">
        <ele>753.7</ele>
        <time>2015-06-28T08:26:12Z</time>
      </trkpt>
      <trkpt lat="46.65436" lon="6.01142">
        <ele>753.1</ele>
        <time>2015-06-28T08:26:14Z</time>
      </trkpt>
      <trkpt lat="46.65434" lon="6.01127">
        <ele>752.6</ele>
        <time>2015-06-28T08:26:16Z</time>
      </trkpt>
      <trkpt lat="46.65431" lon="6.01113">
        <ele>752.1</ele>
        <time>2015-06-28T08:26:18Z</time>
      </trkpt>
      <trkpt lat="46.65427" lon="6.01096">
        <ele>751.7</ele>
        <time>2015-06-28T08:26:20Z</time>
      </trkpt>
      <trkpt lat="46.65424" lon="6.01083">
        <ele>751.4</ele>
        <time>2015-06-28T08:26:22Z</time>
      </trkpt>
      <trkpt lat="46.65419" lon="6.01071">
        <ele>751.1</ele>
        <time>2015-06-28T08:26:24Z</time>
      </trkpt>
      <trkpt lat="46.65414" lon="6.01059">
        <ele>750.8</ele>
        <time>2015-06-28T08:26:26Z</time>
      </trkpt>
      <trkpt lat="46.6541" lon="6.01042">
        <ele>750.5</ele>
        <time>2015-06-28T08:26:29Z</time>
      </trkpt>
      <trkpt lat="46.65405" lon="6.01026">
        <ele>750.2</ele>
        <time>2015-06-28T08:26:32Z</time>
      </trkpt>
      <trkpt lat="46.654" lon="6.0101">
        <ele>750.1</ele>
        <time>2015-06-28T08:26:35Z</time>
      </trkpt>
      <trkpt lat="46.65397" lon="6.00993">
        <ele>750</ele>
        <time>2015-06-28T08:26:38Z</time>
      </trkpt>
      <trkpt lat="46.65394" lon="6.00979">
        <ele>749.9</ele>
        <time>2015-06-28T08:26:41Z</time>
      </trkpt>
      <trkpt lat="46.65389" lon="6.00966">
        <ele>750.1</ele>
        <time>2015-06-28T08:26:47Z</time>
      </trkpt>
      <trkpt lat="46.65388" lon="6.0095">
        <ele>750.1</ele>
        <time>2015-06-28T08:26:51Z</time>
      </trkpt>
      <trkpt lat="46.65392" lon="6.00937">
        <ele>750.2</ele>
        <time>2015-06-28T08:26:54Z</time>
      </trkpt>
      <trkpt lat="46.65382" lon="6.00928">
        <ele>750.3</ele>
        <time>2015-06-28T08:27:02Z</time>
      </trkpt>
      <trkpt lat="46.6537" lon="6.00928">
        <ele>750.3</ele>
        <time>2015-06-28T08:27:05Z</time>
      </trkpt>
      <trkpt lat="46.6536" lon="6.0093">
        <ele>750.3</ele>
        <time>2015-06-28T08:27:07Z</time>
      </trkpt>
      <trkpt lat="46.65349" lon="6.00932">
        <ele>750.3</ele>
        <time>2015-06-28T08:27:09Z</time>
      </trkpt>
      <trkpt lat="46.65339" lon="6.00935">
        <ele>750.3</ele>
        <time>2015-06-28T08:27:11Z</time>
      </trkpt>
      <trkpt lat="46.6533" lon="6.00938">
        <ele>750.4</ele>
        <time>2015-06-28T08:27:13Z</time>
      </trkpt>
      <trkpt lat="46.65318" lon="6.00943">
        <ele>750.4</ele>
        <time>2015-06-28T08:27:16Z</time>
      </trkpt>
      <trkpt lat="46.65306" lon="6.0095">
        <ele>750.4</ele>
        <time>2015-06-28T08:27:19Z</time>
      </trkpt>
      <trkpt lat="46.65296" lon="6.00958">
        <ele>750.4</ele>
        <time>2015-06-28T08:27:22Z</time>
      </trkpt>
      <trkpt lat="46.65288" lon="6.0095">
        <ele>750.4</ele>
        <time>2015-06-28T08:27:25Z</time>
      </trkpt>
      <trkpt lat="46.65283" lon="6.00932">
        <ele>750.4</ele>
        <time>2015-06-28T08:27:28Z</time>
      </trkpt>
      <trkpt lat="46.65282" lon="6.00918">
        <ele>750.4</ele>
        <time>2015-06-28T08:27:30Z</time>
      </trkpt>
      <trkpt lat="46.6528" lon="6.009">
        <ele>750.4</ele>
        <time>2015-06-28T08:27:32Z</time>
      </trkpt>
      <trkpt lat="46.65278" lon="6.00881">
        <ele>750.3</ele>
        <time>2015-06-28T08:27:34Z</time>
      </trkpt>
      <trkpt lat="46.65277" lon="6.00862">
        <ele>750.2</ele>
        <time>2015-06-28T08:27:36Z</time>
      </trkpt>
      <trkpt lat="46.65277" lon="6.00843">
        <ele>750.1</ele>
        <time>2015-06-28T08:27:38Z</time>
      </trkpt>
      <trkpt lat="46.65279" lon="6.00823">
        <ele>750</ele>
        <time>2015-06-28T08:27:40Z</time>
      </trkpt>
      <trkpt lat="46.65286" lon="6.00804">
        <ele>749.9</ele>
        <time>2015-06-28T08:27:42Z</time>
      </trkpt>
      <trkpt lat="46.65295" lon="6.00785">
        <ele>749.7</ele>
        <time>2015-06-28T08:27:44Z</time>
      </trkpt>
      <trkpt lat="46.65305" lon="6.00769">
        <ele>749.6</ele>
        <time>2015-06-28T08:27:46Z</time>
      </trkpt>
      <trkpt lat="46.65316" lon="6.00755">
        <ele>749.4</ele>
        <time>2015-06-28T08:27:48Z</time>
      </trkpt>
      <trkpt lat="46.65327" lon="6.00742">
        <ele>749.1</ele>
        <time>2015-06-28T08:27:50Z</time>
      </trkpt>
      <trkpt lat="46.65336" lon="6.00726">
        <ele>748.9</ele>
        <time>2015-06-28T08:27:52Z</time>
      </trkpt>
      <trkpt lat="46.65344" lon="6.00711">
        <ele>748.5</ele>
        <time>2015-06-28T08:27:54Z</time>
      </trkpt>
      <trkpt lat="46.65351" lon="6.00699">
        <ele>748.2</ele>
        <time>2015-06-28T08:27:56Z</time>
      </trkpt>
      <trkpt lat="46.65357" lon="6.00687">
        <ele>747.8</ele>
        <time>2015-06-28T08:27:58Z</time>
      </trkpt>
      <trkpt lat="46.65362" lon="6.00676">
        <ele>747.6</ele>
        <time>2015-06-28T08:28:00Z</time>
      </trkpt>
      <trkpt lat="46.65368" lon="6.00664">
        <ele>747.2</ele>
        <time>2015-06-28T08:28:03Z</time>
      </trkpt>
      <trkpt lat="46.6537" lon="6.00647">
        <ele>747</ele>
        <time>2015-06-28T08:28:07Z</time>
      </trkpt>
      <trkpt lat="46.65368" lon="6.00633">
        <ele>746.8</ele>
        <time>2015-06-28T08:28:10Z</time>
      </trkpt>
      <trkpt lat="46.6537" lon="6.00617">
        <ele>746.7</ele>
        <time>2015-06-28T08:28:13Z</time>
      </trkpt>
      <trkpt lat="46.65375" lon="6.00605">
        <ele>746.7</ele>
        <time>2015-06-28T08:28:15Z</time>
      </trkpt>
      <trkpt lat="46.65384" lon="6.0059">
        <ele>746.6</ele>
        <time>2015-06-28T08:28:17Z</time>
      </trkpt>
      <trkpt lat="46.65394" lon="6.00575">
        <ele>746.5</ele>
        <time>2015-06-28T08:28:19Z</time>
      </trkpt>
      <trkpt lat="46.65403" lon="6.00558">
        <ele>746.4</ele>
        <time>2015-06-28T08:28:21Z</time>
      </trkpt>
      <trkpt lat="46.65411" lon="6.00538">
        <ele>746.2</ele>
        <time>2015-06-28T08:28:23Z</time>
      </trkpt>
      <trkpt lat="46.6542" lon="6.00518">
        <ele>745.8</ele>
        <time>2015-06-28T08:28:25Z</time>
      </trkpt>
      <trkpt lat="46.6543" lon="6.00503">
        <ele>745.5</ele>
        <time>2015-06-28T08:28:27Z</time>
      </trkpt>
      <trkpt lat="46.65441" lon="6.00491">
        <ele>744.9</ele>
        <time>2015-06-28T08:28:29Z</time>
      </trkpt>
      <trkpt lat="46.65453" lon="6.00486">
        <ele>744.2</ele>
        <time>2015-06-28T08:28:31Z</time>
      </trkpt>
      <trkpt lat="46.65465" lon="6.00483">
        <ele>743.4</ele>
        <time>2015-06-28T08:28:33Z</time>
      </trkpt>
      <trkpt lat="46.65477" lon="6.00481">
        <ele>742.6</ele>
        <time>2015-06-28T08:28:35Z</time>
      </trkpt>
      <trkpt lat="46.65488" lon="6.00468">
        <ele>741.6</ele>
        <time>2015-06-28T08:28:37Z</time>
      </trkpt>
      <trkpt lat="46.65495" lon="6.00447">
        <ele>740.7</ele>
        <time>2015-06-28T08:28:39Z</time>
      </trkpt>
      <trkpt lat="46.65507" lon="6.00428">
        <ele>739.7</ele>
        <time>2015-06-28T08:28:41Z</time>
      </trkpt>
      <trkpt lat="46.65521" lon="6.00416">
        <ele>738.5</ele>
        <time>2015-06-28T08:28:43Z</time>
      </trkpt>
      <trkpt lat="46.65532" lon="6.00409">
        <ele>737.4</ele>
        <time>2015-06-28T08:28:45Z</time>
      </trkpt>
      <trkpt lat="46.6554" lon="6.00402">
        <ele>736</ele>
        <time>2015-06-28T08:28:47Z</time>
      </trkpt>
      <trkpt lat="46.65551" lon="6.00399">
        <ele>733.2</ele>
        <time>2015-06-28T08:28:51Z</time>
      </trkpt>
      <trkpt lat="46.65557" lon="6.00409">
        <ele>731.4</ele>
        <time>2015-06-28T08:28:54Z</time>
      </trkpt>
      <trkpt lat="46.65564" lon="6.00419">
        <ele>729.6</ele>
        <time>2015-06-28T08:28:57Z</time>
      </trkpt>
      <trkpt lat="46.65568" lon="6.00431">
        <ele>728</ele>
        <time>2015-06-28T08:29:00Z</time>
      </trkpt>
      <trkpt lat="46.6557" lon="6.00445">
        <ele>726.8</ele>
        <time>2015-06-28T08:29:03Z</time>
      </trkpt>
      <trkpt lat="46.65571" lon="6.00459">
        <ele>725.8</ele>
        <time>2015-06-28T08:29:06Z</time>
      </trkpt>
      <trkpt lat="46.65574" lon="6.00473">
        <ele>725</ele>
        <time>2015-06-28T08:29:09Z</time>
      </trkpt>
      <trkpt lat="46.65577" lon="6.00486">
        <ele>724.3</ele>
        <time>2015-06-28T08:29:12Z</time>
      </trkpt>
      <trkpt lat="46.65582" lon="6.00501">
        <ele>723.8</ele>
        <time>2015-06-28T08:29:16Z</time>
      </trkpt>
      <trkpt lat="46.65583" lon="6.00515">
        <ele>723.5</ele>
        <time>2015-06-28T08:29:21Z</time>
      </trkpt>
      <trkpt lat="46.65585" lon="6.00529">
        <ele>723.4</ele>
        <time>2015-06-28T08:29:28Z</time>
      </trkpt>
      <trkpt lat="46.65593" lon="6.00534">
        <ele>723.5</ele>
        <time>2015-06-28T08:29:34Z</time>
      </trkpt>
      <trkpt lat="46.65601" lon="6.00545">
        <ele>723.5</ele>
        <time>2015-06-28T08:29:40Z</time>
      </trkpt>
      <trkpt lat="46.6561" lon="6.00552">
        <ele>723.6</ele>
        <time>2015-06-28T08:29:44Z</time>
      </trkpt>
      <trkpt lat="46.65618" lon="6.00562">
        <ele>723.7</ele>
        <time>2015-06-28T08:29:48Z</time>
      </trkpt>
      <trkpt lat="46.65625" lon="6.00576">
        <ele>723.8</ele>
        <time>2015-06-28T08:29:52Z</time>
      </trkpt>
      <trkpt lat="46.65629" lon="6.00588">
        <ele>724</ele>
        <time>2015-06-28T08:29:55Z</time>
      </trkpt>
      <trkpt lat="46.65629" lon="6.00602">
        <ele>724.2</ele>
        <time>2015-06-28T08:29:58Z</time>
      </trkpt>
      <trkpt lat="46.65631" lon="6.00615">
        <ele>724.7</ele>
        <time>2015-06-28T08:30:01Z</time>
      </trkpt>
      <trkpt lat="46.6563" lon="6.00632">
        <ele>725.2</ele>
        <time>2015-06-28T08:30:05Z</time>
      </trkpt>
      <trkpt lat="46.65627" lon="6.00647">
        <ele>725.9</ele>
        <time>2015-06-28T08:30:09Z</time>
      </trkpt>
      <trkpt lat="46.65621" lon="6.00661">
        <ele>726.6</ele>
        <time>2015-06-28T08:30:13Z</time>
      </trkpt>
      <trkpt lat="46.65614" lon="6.00672">
        <ele>727.3</ele>
        <time>2015-06-28T08:30:17Z</time>
      </trkpt>
      <trkpt lat="46.65606" lon="6.00684">
        <ele>728.1</ele>
        <time>2015-06-28T08:30:21Z</time>
      </trkpt>
      <trkpt lat="46.65598" lon="6.00695">
        <ele>728.7</ele>
        <time>2015-06-28T08:30:25Z</time>
      </trkpt>
      <trkpt lat="46.6559" lon="6.00706">
        <ele>729.4</ele>
        <time>2015-06-28T08:30:29Z</time>
      </trkpt>
      <trkpt lat="46.65583" lon="6.00717">
        <ele>730.1</ele>
        <time>2015-06-28T08:30:33Z</time>
      </trkpt>
      <trkpt lat="46.65577" lon="6.0073">
        <ele>730.7</ele>
        <time>2015-06-28T08:30:37Z</time>
      </trkpt>
      <trkpt lat="46.65569" lon="6.0074">
        <ele>731.5</ele>
        <time>2015-06-28T08:30:41Z</time>
      </trkpt>
      <trkpt lat="46.6556" lon="6.00748">
        <ele>732.3</ele>
        <time>2015-06-28T08:30:45Z</time>
      </trkpt>
      <trkpt lat="46.6555" lon="6.00754">
        <ele>733.1</ele>
        <time>2015-06-28T08:30:49Z</time>
      </trkpt>
      <trkpt lat="46.6554" lon="6.00759">
        <ele>734</ele>
        <time>2015-06-28T08:30:53Z</time>
      </trkpt>
      <trkpt lat="46.65528" lon="6.00761">
        <ele>734.7</ele>
        <time>2015-06-28T08:30:57Z</time>
      </trkpt>
      <trkpt lat="46.65517" lon="6.00761">
        <ele>735.3</ele>
        <time>2015-06-28T08:31:01Z</time>
      </trkpt>
      <trkpt lat="46.65506" lon="6.0076">
        <ele>735.9</ele>
        <time>2015-06-28T08:31:05Z</time>
      </trkpt>
      <trkpt lat="46.65495" lon="6.00763">
        <ele>736.6</ele>
        <time>2015-06-28T08:31:09Z</time>
      </trkpt>
      <trkpt lat="46.65487" lon="6.00774">
        <ele>737.2</ele>
        <time>2015-06-28T08:31:13Z</time>
      </trkpt>
      <trkpt lat="46.65483" lon="6.00789">
        <ele>738</ele>
        <time>2015-06-28T08:31:17Z</time>
      </trkpt>
      <trkpt lat="46.65484" lon="6.00806">
        <ele>738.7</ele>
        <time>2015-06-28T08:31:21Z</time>
      </trkpt>
      <trkpt lat="46.65487" lon="6.00822">
        <ele>739.4</ele>
        <time>2015-06-28T08:31:25Z</time>
      </trkpt>
      <trkpt lat="46.65493" lon="6.00838">
        <ele>740.1</ele>
        <time>2015-06-28T08:31:29Z</time>
      </trkpt>
      <trkpt lat="46.65497" lon="6.0085">
        <ele>740.6</ele>
        <time>2015-06-28T08:31:32Z</time>
      </trkpt>
      <trkpt lat="46.65503" lon="6.00864">
        <ele>741.2</ele>
        <time>2015-06-28T08:31:36Z</time>
      </trkpt>
      <trkpt lat="46.65507" lon="6.0088">
        <ele>741.8</ele>
        <time>2015-06-28T08:31:40Z</time>
      </trkpt>
      <trkpt lat="46.6551" lon="6.00895">
        <ele>742.3</ele>
        <time>2015-06-28T08:31:44Z</time>
      </trkpt>
      <trkpt lat="46.65515" lon="6.00908">
        <ele>743</ele>
        <time>2015-06-28T08:31:49Z</time>
      </trkpt>
      <trkpt lat="46.65523" lon="6.00912">
        <ele>743.3</ele>
        <time>2015-06-28T08:31:52Z</time>
      </trkpt>
      <trkpt lat="46.65535" lon="6.00913">
        <ele>743.6</ele>
        <time>2015-06-28T08:31:55Z</time>
      </trkpt>
      <trkpt lat="46.65547" lon="6.00917">
        <ele>743.8</ele>
        <time>2015-06-28T08:31:58Z</time>
      </trkpt>
      <trkpt lat="46.6556" lon="6.00917">
        <ele>744</ele>
        <time>2015-06-28T08:32:01Z</time>
      </trkpt>
      <trkpt lat="46.65571" lon="6.00914">
        <ele>744.2</ele>
        <time>2015-06-28T08:32:04Z</time>
      </trkpt>
      <trkpt lat="46.6558" lon="6.00909">
        <ele>744.3</ele>
        <time>2015-06-28T08:32:07Z</time>
      </trkpt>
      <trkpt lat="46.6559" lon="6.00904">
        <ele>744.5</ele>
        <time>2015-06-28T08:32:10Z</time>
      </trkpt>
      <trkpt lat="46.65599" lon="6.00898">
        <ele>744.7</ele>
        <time>2015-06-28T08:32:13Z</time>
      </trkpt>
      <trkpt lat="46.65607" lon="6.0089">
        <ele>745.2</ele>
        <time>2015-06-28T08:32:16Z</time>
      </trkpt>
      <trkpt lat="46.65616" lon="6.00884">
        <ele>745.7</ele>
        <time>2015-06-28T08:32:21Z</time>
      </trkpt>
      <trkpt lat="46.65625" lon="6.00881">
        <ele>746</ele>
        <time>2015-06-28T08:32:26Z</time>
      </trkpt>
      <trkpt lat="46.65636" lon="6.00878">
        <ele>746.4</ele>
        <time>2015-06-28T08:32:30Z</time>
      </trkpt>
      <trkpt lat="46.65647" lon="6.0088">
        <ele>746.8</ele>
        <time>2015-06-28T08:32:34Z</time>
      </trkpt>
      <trkpt lat="46.65656" lon="6.00889">
        <ele>747.3</ele>
        <time>2015-06-28T08:32:38Z</time>
      </trkpt>
      <trkpt lat="46.65662" lon="6.00902">
        <ele>747.8</ele>
        <time>2015-06-28T08:32:42Z</time>
      </trkpt>
      <trkpt lat="46.65664" lon="6.00916">
        <ele>748.3</ele>
        <time>2015-06-28T08:32:45Z</time>
      </trkpt>
      <trkpt lat="46.65664" lon="6.00929">
        <ele>748.8</ele>
        <time>2015-06-28T08:32:48Z</time>
      </trkpt>
      <trkpt lat="46.65661" lon="6.00942">
        <ele>749.2</ele>
        <time>2015-06-28T08:32:51Z</time>
      </trkpt>
      <trkpt lat="46.65654" lon="6.00956">
        <ele>749.6</ele>
        <time>2015-06-28T08:32:55Z</time>
      </trkpt>
      <trkpt lat="46.65649" lon="6.00968">
        <ele>750.2</ele>
        <time>2015-06-28T08:32:59Z</time>
      </trkpt>
      <trkpt lat="46.65658" lon="6.00978">
        <ele>750.6</ele>
        <time>2015-06-28T08:33:03Z</time>
      </trkpt>
      <trkpt lat="46.65668" lon="6.00982">
        <ele>750.9</ele>
        <time>2015-06-28T08:33:06Z</time>
      </trkpt>
      <trkpt lat="46.65678" lon="6.00983">
        <ele>751.1</ele>
        <time>2015-06-28T08:33:09Z</time>
      </trkpt>
      <trkpt lat="46.65688" lon="6.00981">
        <ele>751.4</ele>
        <time>2015-06-28T08:33:12Z</time>
      </trkpt>
      <trkpt lat="46.65699" lon="6.00976">
        <ele>751.6</ele>
        <time>2015-06-28T08:33:15Z</time>
      </trkpt>
      <trkpt lat="46.65713" lon="6.00972">
        <ele>751.7</ele>
        <time>2015-06-28T08:33:18Z</time>
      </trkpt>
      <trkpt lat="46.65722" lon="6.0097">
        <ele>751.8</ele>
        <time>2015-06-28T08:33:20Z</time>
      </trkpt>
      <trkpt lat="46.65731" lon="6.00967">
        <ele>751.9</ele>
        <time>2015-06-28T08:33:22Z</time>
      </trkpt>
      <trkpt lat="46.65743" lon="6.00963">
        <ele>752</ele>
        <time>2015-06-28T08:33:25Z</time>
      </trkpt>
      <trkpt lat="46.65755" lon="6.00961">
        <ele>752</ele>
        <time>2015-06-28T08:33:28Z</time>
      </trkpt>
      <trkpt lat="46.65766" lon="6.00961">
        <ele>752.1</ele>
        <time>2015-06-28T08:33:31Z</time>
      </trkpt>
      <trkpt lat="46.65779" lon="6.00967">
        <ele>752</ele>
        <time>2015-06-28T08:33:34Z</time>
      </trkpt>
      <trkpt lat="46.65791" lon="6.00973">
        <ele>751.9</ele>
        <time>2015-06-28T08:33:37Z</time>
      </trkpt>
      <trkpt lat="46.65802" lon="6.00981">
        <ele>751.5</ele>
        <time>2015-06-28T08:33:40Z</time>
      </trkpt>
      <trkpt lat="46.65813" lon="6.00991">
        <ele>751.1</ele>
        <time>2015-06-28T08:33:43Z</time>
      </trkpt>
      <trkpt lat="46.6582" lon="6.01001">
        <ele>750.9</ele>
        <time>2015-06-28T08:33:45Z</time>
      </trkpt>
      <trkpt lat="46.65831" lon="6.01012">
        <ele>750.5</ele>
        <time>2015-06-28T08:33:48Z</time>
      </trkpt>
      <trkpt lat="46.65843" lon="6.01021">
        <ele>750.2</ele>
        <time>2015-06-28T08:33:51Z</time>
      </trkpt>
      <trkpt lat="46.65856" lon="6.01022">
        <ele>749.8</ele>
        <time>2015-06-28T08:33:54Z</time>
      </trkpt>
      <trkpt lat="46.65869" lon="6.01025">
        <ele>749.6</ele>
        <time>2015-06-28T08:33:57Z</time>
      </trkpt>
      <trkpt lat="46.65881" lon="6.01032">
        <ele>749.4</ele>
        <time>2015-06-28T08:33:59Z</time>
      </trkpt>
      <trkpt lat="46.65891" lon="6.01032">
        <ele>749.2</ele>
        <time>2015-06-28T08:34:01Z</time>
      </trkpt>
      <trkpt lat="46.65901" lon="6.01029">
        <ele>748.9</ele>
        <time>2015-06-28T08:34:03Z</time>
      </trkpt>
      <trkpt lat="46.65913" lon="6.01028">
        <ele>748.7</ele>
        <time>2015-06-28T08:34:05Z</time>
      </trkpt>
      <trkpt lat="46.65922" lon="6.01024">
        <ele>748.5</ele>
        <time>2015-06-28T08:34:07Z</time>
      </trkpt>
      <trkpt lat="46.65931" lon="6.01017">
        <ele>748.3</ele>
        <time>2015-06-28T08:34:09Z</time>
      </trkpt>
      <trkpt lat="46.6594" lon="6.01008">
        <ele>748.2</ele>
        <time>2015-06-28T08:34:11Z</time>
      </trkpt>
      <trkpt lat="46.65948" lon="6.00998">
        <ele>748</ele>
        <time>2015-06-28T08:34:13Z</time>
      </trkpt>
      <trkpt lat="46.65954" lon="6.00987">
        <ele>747.9</ele>
        <time>2015-06-28T08:34:15Z</time>
      </trkpt>
      <trkpt lat="46.65959" lon="6.00976">
        <ele>747.8</ele>
        <time>2015-06-28T08:34:17Z</time>
      </trkpt>
      <trkpt lat="46.65964" lon="6.00964">
        <ele>747.7</ele>
        <time>2015-06-28T08:34:19Z</time>
      </trkpt>
      <trkpt lat="46.65968" lon="6.0095">
        <ele>747.6</ele>
        <time>2015-06-28T08:34:21Z</time>
      </trkpt>
      <trkpt lat="46.65971" lon="6.00937">
        <ele>747.5</ele>
        <time>2015-06-28T08:34:23Z</time>
      </trkpt>
      <trkpt lat="46.65972" lon="6.00918">
        <ele>747.4</ele>
        <time>2015-06-28T08:34:26Z</time>
      </trkpt>
      <trkpt lat="46.6597" lon="6.00901">
        <ele>747.4</ele>
        <time>2015-06-28T08:34:29Z</time>
      </trkpt>
      <trkpt lat="46.65967" lon="6.00884">
        <ele>747.3</ele>
        <time>2015-06-28T08:34:32Z</time>
      </trkpt>
      <trkpt lat="46.65964" lon="6.00868">
        <ele>747.3</ele>
        <time>2015-06-28T08:34:35Z</time>
      </trkpt>
      <trkpt lat="46.65959" lon="6.00854">
        <ele>747.6</ele>
        <time>2015-06-28T08:34:38Z</time>
      </trkpt>
      <trkpt lat="46.65954" lon="6.00839">
        <ele>748</ele>
        <time>2015-06-28T08:34:42Z</time>
      </trkpt>
      <trkpt lat="46.65946" lon="6.00829">
        <ele>748.2</ele>
        <time>2015-06-28T08:34:45Z</time>
      </trkpt>
      <trkpt lat="46.65939" lon="6.00816">
        <ele>748.4</ele>
        <time>2015-06-28T08:34:48Z</time>
      </trkpt>
      <trkpt lat="46.6593" lon="6.00805">
        <ele>748.6</ele>
        <time>2015-06-28T08:34:51Z</time>
      </trkpt>
      <trkpt lat="46.65923" lon="6.00794">
        <ele>748.9</ele>
        <time>2015-06-28T08:34:54Z</time>
      </trkpt>
      <trkpt lat="46.65914" lon="6.00783">
        <ele>749.2</ele>
        <time>2015-06-28T08:34:57Z</time>
      </trkpt>
      <trkpt lat="46.65909" lon="6.0077">
        <ele>749.5</ele>
        <time>2015-06-28T08:35:00Z</time>
      </trkpt>
      <trkpt lat="46.65903" lon="6.00755">
        <ele>749.9</ele>
        <time>2015-06-28T08:35:03Z</time>
      </trkpt>
      <trkpt lat="46.65897" lon="6.00739">
        <ele>750.2</ele>
        <time>2015-06-28T08:35:06Z</time>
      </trkpt>
      <trkpt lat="46.65892" lon="6.00728">
        <ele>750.5</ele>
        <time>2015-06-28T08:35:09Z</time>
      </trkpt>
      <trkpt lat="46.65892" lon="6.00712">
        <ele>750.8</ele>
        <time>2015-06-28T08:35:12Z</time>
      </trkpt>
      <trkpt lat="46.65894" lon="6.00695">
        <ele>751</ele>
        <time>2015-06-28T08:35:15Z</time>
      </trkpt>
      <trkpt lat="46.65895" lon="6.00678">
        <ele>751.4</ele>
        <time>2015-06-28T08:35:18Z</time>
      </trkpt>
      <trkpt lat="46.65899" lon="6.00665">
        <ele>751.7</ele>
        <time>2015-06-28T08:35:21Z</time>
      </trkpt>
      <trkpt lat="46.65904" lon="6.00652">
        <ele>752</ele>
        <time>2015-06-28T08:35:24Z</time>
      </trkpt>
      <trkpt lat="46.65908" lon="6.00636">
        <ele>752.3</ele>
        <time>2015-06-28T08:35:27Z</time>
      </trkpt>
      <trkpt lat="46.65913" lon="6.00618">
        <ele>752.4</ele>
        <time>2015-06-28T08:35:30Z</time>
      </trkpt>
      <trkpt lat="46.65919" lon="6.00602">
        <ele>752.6</ele>
        <time>2015-06-28T08:35:33Z</time>
      </trkpt>
      <trkpt lat="46.65925" lon="6.00586">
        <ele>752.7</ele>
        <time>2015-06-28T08:35:36Z</time>
      </trkpt>
      <trkpt lat="46.65929" lon="6.00574">
        <ele>752.8</ele>
        <time>2015-06-28T08:35:38Z</time>
      </trkpt>
      <trkpt lat="46.65938" lon="6.00562">
        <ele>753</ele>
        <time>2015-06-28T08:35:41Z</time>
      </trkpt>
      <trkpt lat="46.65945" lon="6.00546">
        <ele>753.1</ele>
        <time>2015-06-28T08:35:44Z</time>
      </trkpt>
      <trkpt lat="46.65953" lon="6.00531">
        <ele>753.2</ele>
        <time>2015-06-28T08:35:47Z</time>
      </trkpt>
      <trkpt lat="46.6596" lon="6.00516">
        <ele>753.3</ele>
        <time>2015-06-28T08:35:50Z</time>
      </trkpt>
      <trkpt lat="46.65968" lon="6.00503">
        <ele>753.4</ele>
        <time>2015-06-28T08:35:53Z</time>
      </trkpt>
      <trkpt lat="46.65976" lon="6.00489">
        <ele>753.5</ele>
        <time>2015-06-28T08:35:56Z</time>
      </trkpt>
      <trkpt lat="46.65984" lon="6.00476">
        <ele>753.6</ele>
        <time>2015-06-28T08:35:59Z</time>
      </trkpt>
      <trkpt lat="46.65991" lon="6.00463">
        <ele>753.6</ele>
        <time>2015-06-28T08:36:02Z</time>
      </trkpt>
      <trkpt lat="46.65999" lon="6.00447">
        <ele>753.7</ele>
        <time>2015-06-28T08:36:05Z</time>
      </trkpt>
      <trkpt lat="46.66006" lon="6.00431">
        <ele>753.7</ele>
        <time>2015-06-28T08:36:08Z</time>
      </trkpt>
      <trkpt lat="46.66015" lon="6.00419">
        <ele>753.8</ele>
        <time>2015-06-28T08:36:11Z</time>
      </trkpt>
      <trkpt lat="46.66025" lon="6.0041">
        <ele>753.8</ele>
        <time>2015-06-28T08:36:14Z</time>
      </trkpt>
      <trkpt lat="46.66038" lon="6.00406">
        <ele>753.8</ele>
        <time>2015-06-28T08:36:17Z</time>
      </trkpt>
      <trkpt lat="46.66047" lon="6.00405">
        <ele>753.9</ele>
        <time>2015-06-28T08:36:19Z</time>
      </trkpt>
      <trkpt lat="46.66056" lon="6.00403">
        <ele>753.9</ele>
        <time>2015-06-28T08:36:21Z</time>
      </trkpt>
      <trkpt lat="46.66069" lon="6.00402">
        <ele>753.9</ele>
        <time>2015-06-28T08:36:24Z</time>
      </trkpt>
      <trkpt lat="46.66098" lon="6.0038">
        <ele>753</ele>
        <time>2015-06-28T08:36:31Z</time>
      </trkpt>
      <trkpt lat="46.6616" lon="6.00313">
        <ele>754.2</ele>
        <time>2015-06-28T08:36:50Z</time>
      </trkpt>
      <trkpt lat="46.6617" lon="6.00303">
        <ele>754.4</ele>
        <time>2015-06-28T08:36:53Z</time>
      </trkpt>
      <trkpt lat="46.66179" lon="6.00293">
        <ele>754.5</ele>
        <time>2015-06-28T08:36:56Z</time>
      </trkpt>
      <trkpt lat="46.66188" lon="6.00281">
        <ele>754.6</ele>
        <time>2015-06-28T08:36:59Z</time>
      </trkpt>
      <trkpt lat="46.66197" lon="6.00272">
        <ele>754.9</ele>
        <time>2015-06-28T08:37:02Z</time>
      </trkpt>
      <trkpt lat="46.66206" lon="6.00264">
        <ele>755.1</ele>
        <time>2015-06-28T08:37:05Z</time>
      </trkpt>
      <trkpt lat="46.66214" lon="6.00257">
        <ele>755.4</ele>
        <time>2015-06-28T08:37:08Z</time>
      </trkpt>
      <trkpt lat="46.66223" lon="6.00252">
        <ele>755.6</ele>
        <time>2015-06-28T08:37:11Z</time>
      </trkpt>
      <trkpt lat="46.66234" lon="6.00243">
        <ele>756</ele>
        <time>2015-06-28T08:37:15Z</time>
      </trkpt>
      <trkpt lat="46.66243" lon="6.00236">
        <ele>756.4</ele>
        <time>2015-06-28T08:37:19Z</time>
      </trkpt>
      <trkpt lat="46.66252" lon="6.0023">
        <ele>756.8</ele>
        <time>2015-06-28T08:37:23Z</time>
      </trkpt>
      <trkpt lat="46.66263" lon="6.00224">
        <ele>757.2</ele>
        <time>2015-06-28T08:37:27Z</time>
      </trkpt>
      <trkpt lat="46.66273" lon="6.00216">
        <ele>757.6</ele>
        <time>2015-06-28T08:37:31Z</time>
      </trkpt>
      <trkpt lat="46.66281" lon="6.0021">
        <ele>758</ele>
        <time>2015-06-28T08:37:34Z</time>
      </trkpt>
      <trkpt lat="46.66292" lon="6.00204">
        <ele>758.5</ele>
        <time>2015-06-28T08:37:38Z</time>
      </trkpt>
      <trkpt lat="46.66303" lon="6.00197">
        <ele>759</ele>
        <time>2015-06-28T08:37:42Z</time>
      </trkpt>
      <trkpt lat="46.66311" lon="6.00192">
        <ele>759.3</ele>
        <time>2015-06-28T08:37:45Z</time>
      </trkpt>
      <trkpt lat="46.6632" lon="6.0019">
        <ele>759.5</ele>
        <time>2015-06-28T08:37:48Z</time>
      </trkpt>
      <trkpt lat="46.66331" lon="6.00186">
        <ele>759.8</ele>
        <time>2015-06-28T08:37:51Z</time>
      </trkpt>
      <trkpt lat="46.66342" lon="6.00183">
        <ele>760.1</ele>
        <time>2015-06-28T08:37:54Z</time>
      </trkpt>
      <trkpt lat="46.66351" lon="6.00181">
        <ele>760.4</ele>
        <time>2015-06-28T08:37:57Z</time>
      </trkpt>
      <trkpt lat="46.66361" lon="6.0018">
        <ele>760.8</ele>
        <time>2015-06-28T08:38:01Z</time>
      </trkpt>
      <trkpt lat="46.66371" lon="6.0018">
        <ele>761.3</ele>
        <time>2015-06-28T08:38:05Z</time>
      </trkpt>
      <trkpt lat="46.66382" lon="6.0018">
        <ele>761.8</ele>
        <time>2015-06-28T08:38:09Z</time>
      </trkpt>
      <trkpt lat="46.66391" lon="6.00175">
        <ele>762.5</ele>
        <time>2015-06-28T08:38:14Z</time>
      </trkpt>
      <trkpt lat="46.66399" lon="6.00167">
        <ele>763.2</ele>
        <time>2015-06-28T08:38:19Z</time>
      </trkpt>
      <trkpt lat="46.66408" lon="6.00162">
        <ele>763.5</ele>
        <time>2015-06-28T08:38:22Z</time>
      </trkpt>
      <trkpt lat="46.66416" lon="6.00154">
        <ele>763.8</ele>
        <time>2015-06-28T08:38:26Z</time>
      </trkpt>
      <trkpt lat="46.66424" lon="6.00141">
        <ele>764</ele>
        <time>2015-06-28T08:38:30Z</time>
      </trkpt>
      <trkpt lat="46.66431" lon="6.00132">
        <ele>764.2</ele>
        <time>2015-06-28T08:38:33Z</time>
      </trkpt>
      <trkpt lat="46.66438" lon="6.00123">
        <ele>764.3</ele>
        <time>2015-06-28T08:38:36Z</time>
      </trkpt>
      <trkpt lat="46.66447" lon="6.00112">
        <ele>764.4</ele>
        <time>2015-06-28T08:38:40Z</time>
      </trkpt>
      <trkpt lat="46.66456" lon="6.00101">
        <ele>764.6</ele>
        <time>2015-06-28T08:38:44Z</time>
      </trkpt>
      <trkpt lat="46.66464" lon="6.00094">
        <ele>764.9</ele>
        <time>2015-06-28T08:38:47Z</time>
      </trkpt>
      <trkpt lat="46.66474" lon="6.00087">
        <ele>765.1</ele>
        <time>2015-06-28T08:38:51Z</time>
      </trkpt>
      <trkpt lat="46.66483" lon="6.00083">
        <ele>765.3</ele>
        <time>2015-06-28T08:38:54Z</time>
      </trkpt>
      <trkpt lat="46.66494" lon="6.00078">
        <ele>765.5</ele>
        <time>2015-06-28T08:38:58Z</time>
      </trkpt>
      <trkpt lat="46.66504" lon="6.00072">
        <ele>765.7</ele>
        <time>2015-06-28T08:39:02Z</time>
      </trkpt>
      <trkpt lat="46.66514" lon="6.00066">
        <ele>766</ele>
        <time>2015-06-28T08:39:06Z</time>
      </trkpt>
      <trkpt lat="46.66523" lon="6.00061">
        <ele>766.3</ele>
        <time>2015-06-28T08:39:10Z</time>
      </trkpt>
      <trkpt lat="46.66533" lon="6.00058">
        <ele>766.7</ele>
        <time>2015-06-28T08:39:14Z</time>
      </trkpt>
      <trkpt lat="46.66543" lon="6.00054">
        <ele>767</ele>
        <time>2015-06-28T08:39:18Z</time>
      </trkpt>
      <trkpt lat="46.66552" lon="6.00047">
        <ele>767.5</ele>
        <time>2015-06-28T08:39:22Z</time>
      </trkpt>
      <trkpt lat="46.66558" lon="6.00036">
        <ele>767.8</ele>
        <time>2015-06-28T08:39:25Z</time>
      </trkpt>
      <trkpt lat="46.66565" lon="6.00024">
        <ele>768.1</ele>
        <time>2015-06-28T08:39:28Z</time>
      </trkpt>
      <trkpt lat="46.66571" lon="6.00012">
        <ele>768.3</ele>
        <time>2015-06-28T08:39:31Z</time>
      </trkpt>
      <trkpt lat="46.66578" lon="5.99998">
        <ele>768.6</ele>
        <time>2015-06-28T08:39:35Z</time>
      </trkpt>
      <trkpt lat="46.66582" lon="5.99986">
        <ele>768.8</ele>
        <time>2015-06-28T08:39:38Z</time>
      </trkpt>
      <trkpt lat="46.66587" lon="5.99974">
        <ele>768.9</ele>
        <time>2015-06-28T08:39:41Z</time>
      </trkpt>
      <trkpt lat="46.6659" lon="5.99958">
        <ele>769.3</ele>
        <time>2015-06-28T08:39:45Z</time>
      </trkpt>
      <trkpt lat="46.66595" lon="5.99944">
        <ele>769.7</ele>
        <time>2015-06-28T08:39:49Z</time>
      </trkpt>
      <trkpt lat="46.66599" lon="5.99929">
        <ele>770</ele>
        <time>2015-06-28T08:39:53Z</time>
      </trkpt>
      <trkpt lat="46.66604" lon="5.99917">
        <ele>770.3</ele>
        <time>2015-06-28T08:39:56Z</time>
      </trkpt>
      <trkpt lat="46.66609" lon="5.99904">
        <ele>770.8</ele>
        <time>2015-06-28T08:40:00Z</time>
      </trkpt>
      <trkpt lat="46.66613" lon="5.9989">
        <ele>771.3</ele>
        <time>2015-06-28T08:40:04Z</time>
      </trkpt>
      <trkpt lat="46.66618" lon="5.99878">
        <ele>771.8</ele>
        <time>2015-06-28T08:40:08Z</time>
      </trkpt>
      <trkpt lat="46.66621" lon="5.99863">
        <ele>772.1</ele>
        <time>2015-06-28T08:40:12Z</time>
      </trkpt>
      <trkpt lat="46.66623" lon="5.9985">
        <ele>772.4</ele>
        <time>2015-06-28T08:40:16Z</time>
      </trkpt>
      <trkpt lat="46.66627" lon="5.99837">
        <ele>772.7</ele>
        <time>2015-06-28T08:40:19Z</time>
      </trkpt>
      <trkpt lat="46.66631" lon="5.99821">
        <ele>773</ele>
        <time>2015-06-28T08:40:22Z</time>
      </trkpt>
      <trkpt lat="46.66636" lon="5.99805">
        <ele>773.4</ele>
        <time>2015-06-28T08:40:25Z</time>
      </trkpt>
      <trkpt lat="46.66639" lon="5.99793">
        <ele>773.7</ele>
        <time>2015-06-28T08:40:28Z</time>
      </trkpt>
      <trkpt lat="46.66645" lon="5.99779">
        <ele>774.6</ele>
        <time>2015-06-28T08:40:36Z</time>
      </trkpt>
      <trkpt lat="46.66649" lon="5.99765">
        <ele>776.1</ele>
        <time>2015-06-28T08:40:56Z</time>
      </trkpt>
      <trkpt lat="46.66653" lon="5.99749">
        <ele>776.1</ele>
        <time>2015-06-28T08:41:00Z</time>
      </trkpt>
      <trkpt lat="46.66656" lon="5.99734">
        <ele>776.1</ele>
        <time>2015-06-28T08:41:04Z</time>
      </trkpt>
      <trkpt lat="46.6666" lon="5.9972">
        <ele>776.2</ele>
        <time>2015-06-28T08:41:08Z</time>
      </trkpt>
      <trkpt lat="46.66664" lon="5.99704">
        <ele>776.5</ele>
        <time>2015-06-28T08:41:12Z</time>
      </trkpt>
      <trkpt lat="46.66668" lon="5.9969">
        <ele>776.7</ele>
        <time>2015-06-28T08:41:16Z</time>
      </trkpt>
      <trkpt lat="46.66669" lon="5.99674">
        <ele>777.1</ele>
        <time>2015-06-28T08:41:21Z</time>
      </trkpt>
      <trkpt lat="46.66672" lon="5.99656">
        <ele>777.4</ele>
        <time>2015-06-28T08:41:25Z</time>
      </trkpt>
      <trkpt lat="46.66675" lon="5.99644">
        <ele>777.7</ele>
        <time>2015-06-28T08:41:28Z</time>
      </trkpt>
      <trkpt lat="46.66677" lon="5.9963">
        <ele>777.9</ele>
        <time>2015-06-28T08:41:31Z</time>
      </trkpt>
      <trkpt lat="46.66678" lon="5.99616">
        <ele>778.2</ele>
        <time>2015-06-28T08:41:34Z</time>
      </trkpt>
      <trkpt lat="46.66679" lon="5.99602">
        <ele>778.6</ele>
        <time>2015-06-28T08:41:37Z</time>
      </trkpt>
      <trkpt lat="46.6668" lon="5.99586">
        <ele>779</ele>
        <time>2015-06-28T08:41:41Z</time>
      </trkpt>
      <trkpt lat="46.6668" lon="5.99572">
        <ele>779.3</ele>
        <time>2015-06-28T08:41:45Z</time>
      </trkpt>
      <trkpt lat="46.66682" lon="5.99556">
        <ele>779.7</ele>
        <time>2015-06-28T08:41:49Z</time>
      </trkpt>
      <trkpt lat="46.66683" lon="5.99543">
        <ele>780</ele>
        <time>2015-06-28T08:41:53Z</time>
      </trkpt>
      <trkpt lat="46.66688" lon="5.99528">
        <ele>780.2</ele>
        <time>2015-06-28T08:41:57Z</time>
      </trkpt>
      <trkpt lat="46.66692" lon="5.99514">
        <ele>780.5</ele>
        <time>2015-06-28T08:42:00Z</time>
      </trkpt>
      <trkpt lat="46.66696" lon="5.995">
        <ele>780.9</ele>
        <time>2015-06-28T08:42:03Z</time>
      </trkpt>
      <trkpt lat="46.66702" lon="5.99485">
        <ele>781.2</ele>
        <time>2015-06-28T08:42:06Z</time>
      </trkpt>
      <trkpt lat="46.66709" lon="5.99471">
        <ele>781.4</ele>
        <time>2015-06-28T08:42:09Z</time>
      </trkpt>
      <trkpt lat="46.66714" lon="5.99456">
        <ele>781.7</ele>
        <time>2015-06-28T08:42:12Z</time>
      </trkpt>
      <trkpt lat="46.66719" lon="5.99442">
        <ele>781.8</ele>
        <time>2015-06-28T08:42:15Z</time>
      </trkpt>
      <trkpt lat="46.66722" lon="5.99426">
        <ele>782</ele>
        <time>2015-06-28T08:42:18Z</time>
      </trkpt>
      <trkpt lat="46.66722" lon="5.99409">
        <ele>782.2</ele>
        <time>2015-06-28T08:42:21Z</time>
      </trkpt>
      <trkpt lat="46.66722" lon="5.99393">
        <ele>782.5</ele>
        <time>2015-06-28T08:42:24Z</time>
      </trkpt>
      <trkpt lat="46.66723" lon="5.99377">
        <ele>782.8</ele>
        <time>2015-06-28T08:42:27Z</time>
      </trkpt>
      <trkpt lat="46.66728" lon="5.99363">
        <ele>782.9</ele>
        <time>2015-06-28T08:42:30Z</time>
      </trkpt>
      <trkpt lat="46.66733" lon="5.99351">
        <ele>783.2</ele>
        <time>2015-06-28T08:42:33Z</time>
      </trkpt>
      <trkpt lat="46.66739" lon="5.99341">
        <ele>783.4</ele>
        <time>2015-06-28T08:42:36Z</time>
      </trkpt>
      <trkpt lat="46.66747" lon="5.99334">
        <ele>783.7</ele>
        <time>2015-06-28T08:42:39Z</time>
      </trkpt>
      <trkpt lat="46.66756" lon="5.99324">
        <ele>784</ele>
        <time>2015-06-28T08:42:42Z</time>
      </trkpt>
      <trkpt lat="46.66763" lon="5.99311">
        <ele>784.2</ele>
        <time>2015-06-28T08:42:45Z</time>
      </trkpt>
      <trkpt lat="46.66769" lon="5.99295">
        <ele>784.4</ele>
        <time>2015-06-28T08:42:48Z</time>
      </trkpt>
      <trkpt lat="46.66774" lon="5.99283">
        <ele>784.5</ele>
        <time>2015-06-28T08:42:50Z</time>
      </trkpt>
      <trkpt lat="46.66781" lon="5.99274">
        <ele>784.6</ele>
        <time>2015-06-28T08:42:52Z</time>
      </trkpt>
      <trkpt lat="46.66791" lon="5.99262">
        <ele>784.7</ele>
        <time>2015-06-28T08:42:55Z</time>
      </trkpt>
      <trkpt lat="46.66798" lon="5.99253">
        <ele>784.7</ele>
        <time>2015-06-28T08:42:57Z</time>
      </trkpt>
      <trkpt lat="46.66804" lon="5.99244">
        <ele>784.7</ele>
        <time>2015-06-28T08:42:59Z</time>
      </trkpt>
      <trkpt lat="46.66811" lon="5.99233">
        <ele>784.7</ele>
        <time>2015-06-28T08:43:01Z</time>
      </trkpt>
      <trkpt lat="46.66817" lon="5.99223">
        <ele>784.7</ele>
        <time>2015-06-28T08:43:03Z</time>
      </trkpt>
      <trkpt lat="46.66824" lon="5.99213">
        <ele>784.6</ele>
        <time>2015-06-28T08:43:05Z</time>
      </trkpt>
      <trkpt lat="46.66833" lon="5.99201">
        <ele>784.6</ele>
        <time>2015-06-28T08:43:08Z</time>
      </trkpt>
      <trkpt lat="46.66842" lon="5.99189">
        <ele>784.6</ele>
        <time>2015-06-28T08:43:11Z</time>
      </trkpt>
      <trkpt lat="46.66848" lon="5.99178">
        <ele>784.5</ele>
        <time>2015-06-28T08:43:14Z</time>
      </trkpt>
      <trkpt lat="46.66855" lon="5.99166">
        <ele>784.5</ele>
        <time>2015-06-28T08:43:17Z</time>
      </trkpt>
      <trkpt lat="46.66861" lon="5.99154">
        <ele>784.5</ele>
        <time>2015-06-28T08:43:20Z</time>
      </trkpt>
      <trkpt lat="46.66867" lon="5.99141">
        <ele>784.6</ele>
        <time>2015-06-28T08:43:23Z</time>
      </trkpt>
      <trkpt lat="46.66871" lon="5.99129">
        <ele>784.7</ele>
        <time>2015-06-28T08:43:26Z</time>
      </trkpt>
      <trkpt lat="46.66875" lon="5.99114">
        <ele>785</ele>
        <time>2015-06-28T08:43:30Z</time>
      </trkpt>
      <trkpt lat="46.66882" lon="5.99104">
        <ele>785.2</ele>
        <time>2015-06-28T08:43:48Z</time>
      </trkpt>
      <trkpt lat="46.66888" lon="5.99094">
        <ele>785.2</ele>
        <time>2015-06-28T08:43:55Z</time>
      </trkpt>
      <trkpt lat="46.66895" lon="5.99085">
        <ele>785.8</ele>
        <time>2015-06-28T08:44:01Z</time>
      </trkpt>
      <trkpt lat="46.66902" lon="5.99075">
        <ele>786.4</ele>
        <time>2015-06-28T08:44:08Z</time>
      </trkpt>
      <trkpt lat="46.6691" lon="5.99068">
        <ele>787.1</ele>
        <time>2015-06-28T08:44:16Z</time>
      </trkpt>
      <trkpt lat="46.66918" lon="5.99059">
        <ele>787.9</ele>
        <time>2015-06-28T08:44:22Z</time>
      </trkpt>
      <trkpt lat="46.66927" lon="5.99051">
        <ele>788.9</ele>
        <time>2015-06-28T08:44:29Z</time>
      </trkpt>
      <trkpt lat="46.66935" lon="5.99043">
        <ele>789.9</ele>
        <time>2015-06-28T08:44:36Z</time>
      </trkpt>
      <trkpt lat="46.66942" lon="5.99033">
        <ele>790.8</ele>
        <time>2015-06-28T08:44:42Z</time>
      </trkpt>
      <trkpt lat="46.66951" lon="5.99024">
        <ele>791.9</ele>
        <time>2015-06-28T08:44:48Z</time>
      </trkpt>
      <trkpt lat="46.66959" lon="5.99014">
        <ele>792.8</ele>
        <time>2015-06-28T08:44:54Z</time>
      </trkpt>
      <trkpt lat="46.66968" lon="5.99006">
        <ele>793.6</ele>
        <time>2015-06-28T08:45:00Z</time>
      </trkpt>
      <trkpt lat="46.66975" lon="5.98994">
        <ele>794.5</ele>
        <time>2015-06-28T08:45:06Z</time>
      </trkpt>
      <trkpt lat="46.66981" lon="5.98985">
        <ele>796</ele>
        <time>2015-06-28T08:45:18Z</time>
      </trkpt>
      <trkpt lat="46.6699" lon="5.98975">
        <ele>797.7</ele>
        <time>2015-06-28T08:46:10Z</time>
      </trkpt>
      <trkpt lat="46.66998" lon="5.98969">
        <ele>797.8</ele>
        <time>2015-06-28T08:46:14Z</time>
      </trkpt>
      <trkpt lat="46.67006" lon="5.9896">
        <ele>798</ele>
        <time>2015-06-28T08:46:18Z</time>
      </trkpt>
      <trkpt lat="46.67014" lon="5.98951">
        <ele>798.2</ele>
        <time>2015-06-28T08:46:21Z</time>
      </trkpt>
      <trkpt lat="46.67023" lon="5.98941">
        <ele>798.3</ele>
        <time>2015-06-28T08:46:24Z</time>
      </trkpt>
      <trkpt lat="46.67032" lon="5.98931">
        <ele>798.4</ele>
        <time>2015-06-28T08:46:28Z</time>
      </trkpt>
      <trkpt lat="46.6704" lon="5.98921">
        <ele>798.5</ele>
        <time>2015-06-28T08:46:32Z</time>
      </trkpt>
      <trkpt lat="46.67048" lon="5.98913">
        <ele>798.6</ele>
        <time>2015-06-28T08:46:36Z</time>
      </trkpt>
      <trkpt lat="46.67055" lon="5.98904">
        <ele>798.7</ele>
        <time>2015-06-28T08:46:40Z</time>
      </trkpt>
      <trkpt lat="46.67062" lon="5.98896">
        <ele>798.8</ele>
        <time>2015-06-28T08:46:44Z</time>
      </trkpt>
      <trkpt lat="46.67069" lon="5.98887">
        <ele>798.9</ele>
        <time>2015-06-28T08:46:48Z</time>
      </trkpt>
      <trkpt lat="46.67077" lon="5.98877">
        <ele>799.1</ele>
        <time>2015-06-28T08:46:53Z</time>
      </trkpt>
      <trkpt lat="46.67084" lon="5.98867">
        <ele>799.3</ele>
        <time>2015-06-28T08:46:57Z</time>
      </trkpt>
      <trkpt lat="46.67091" lon="5.98857">
        <ele>799.8</ele>
        <time>2015-06-28T08:47:02Z</time>
      </trkpt>
      <trkpt lat="46.67097" lon="5.98847">
        <ele>800.4</ele>
        <time>2015-06-28T08:47:07Z</time>
      </trkpt>
      <trkpt lat="46.67106" lon="5.98837">
        <ele>801.1</ele>
        <time>2015-06-28T08:47:12Z</time>
      </trkpt>
      <trkpt lat="46.67115" lon="5.98828">
        <ele>801.8</ele>
        <time>2015-06-28T08:47:17Z</time>
      </trkpt>
      <trkpt lat="46.67124" lon="5.98821">
        <ele>802.6</ele>
        <time>2015-06-28T08:47:22Z</time>
      </trkpt>
      <trkpt lat="46.67132" lon="5.9881">
        <ele>803.4</ele>
        <time>2015-06-28T08:47:27Z</time>
      </trkpt>
      <trkpt lat="46.67139" lon="5.98799">
        <ele>803.9</ele>
        <time>2015-06-28T08:47:31Z</time>
      </trkpt>
      <trkpt lat="46.67144" lon="5.98786">
        <ele>804.4</ele>
        <time>2015-06-28T08:47:36Z</time>
      </trkpt>
      <trkpt lat="46.6715" lon="5.98772">
        <ele>805.1</ele>
        <time>2015-06-28T08:47:43Z</time>
      </trkpt>
      <trkpt lat="46.67152" lon="5.98759">
        <ele>806</ele>
        <time>2015-06-28T08:47:49Z</time>
      </trkpt>
      <trkpt lat="46.67146" lon="5.98747">
        <ele>807.9</ele>
        <time>2015-06-28T08:48:03Z</time>
      </trkpt>
      <trkpt lat="46.67135" lon="5.98741">
        <ele>808.4</ele>
        <time>2015-06-28T08:48:07Z</time>
      </trkpt>
      <trkpt lat="46.67125" lon="5.98738">
        <ele>808.7</ele>
        <time>2015-06-28T08:48:10Z</time>
      </trkpt>
      <trkpt lat="46.67114" lon="5.98736">
        <ele>808.9</ele>
        <time>2015-06-28T08:48:12Z</time>
      </trkpt>
      <trkpt lat="46.67097" lon="5.98725">
        <ele>809</ele>
        <time>2015-06-28T08:48:14Z</time>
      </trkpt>
      <trkpt lat="46.67089" lon="5.98721">
        <ele>809</ele>
        <time>2015-06-28T08:48:15Z</time>
      </trkpt>
      <trkpt lat="46.67076" lon="5.98715">
        <ele>809.1</ele>
        <time>2015-06-28T08:48:17Z</time>
      </trkpt>
      <trkpt lat="46.67068" lon="5.98709">
        <ele>809</ele>
        <time>2015-06-28T08:48:20Z</time>
      </trkpt>
      <trkpt lat="46.67066" lon="5.98696">
        <ele>807.9</ele>
        <time>2015-06-28T08:48:28Z</time>
      </trkpt>
      <trkpt lat="46.67071" lon="5.98681">
        <ele>807.4</ele>
        <time>2015-06-28T08:48:32Z</time>
      </trkpt>
      <trkpt lat="46.67073" lon="5.98669">
        <ele>806.9</ele>
        <time>2015-06-28T08:48:36Z</time>
      </trkpt>
      <trkpt lat="46.6708" lon="5.98658">
        <ele>806.6</ele>
        <time>2015-06-28T08:48:42Z</time>
      </trkpt>
      <trkpt lat="46.67086" lon="5.98647">
        <ele>806.6</ele>
        <time>2015-06-28T08:48:48Z</time>
      </trkpt>
      <trkpt lat="46.67092" lon="5.98636">
        <ele>806.8</ele>
        <time>2015-06-28T08:48:54Z</time>
      </trkpt>
      <trkpt lat="46.67097" lon="5.98623">
        <ele>807.4</ele>
        <time>2015-06-28T08:49:00Z</time>
      </trkpt>
      <trkpt lat="46.67104" lon="5.98612">
        <ele>808</ele>
        <time>2015-06-28T08:49:07Z</time>
      </trkpt>
      <trkpt lat="46.6711" lon="5.98602">
        <ele>808.5</ele>
        <time>2015-06-28T08:49:13Z</time>
      </trkpt>
      <trkpt lat="46.67113" lon="5.98589">
        <ele>809.2</ele>
        <time>2015-06-28T08:49:18Z</time>
      </trkpt>
      <trkpt lat="46.67118" lon="5.98578">
        <ele>809.9</ele>
        <time>2015-06-28T08:49:24Z</time>
      </trkpt>
      <trkpt lat="46.67124" lon="5.98565">
        <ele>810.7</ele>
        <time>2015-06-28T08:49:31Z</time>
      </trkpt>
      <trkpt lat="46.67129" lon="5.98555">
        <ele>811.4</ele>
        <time>2015-06-28T08:49:37Z</time>
      </trkpt>
      <trkpt lat="46.67136" lon="5.98545">
        <ele>812.4</ele>
        <time>2015-06-28T08:49:45Z</time>
      </trkpt>
      <trkpt lat="46.67144" lon="5.98535">
        <ele>813.2</ele>
        <time>2015-06-28T08:49:50Z</time>
      </trkpt>
      <trkpt lat="46.67151" lon="5.98525">
        <ele>813.9</ele>
        <time>2015-06-28T08:49:55Z</time>
      </trkpt>
      <trkpt lat="46.67157" lon="5.98515">
        <ele>814.5</ele>
        <time>2015-06-28T08:49:59Z</time>
      </trkpt>
      <trkpt lat="46.67164" lon="5.98505">
        <ele>815.2</ele>
        <time>2015-06-28T08:50:04Z</time>
      </trkpt>
      <trkpt lat="46.67169" lon="5.98494">
        <ele>816.3</ele>
        <time>2015-06-28T08:50:10Z</time>
      </trkpt>
      <trkpt lat="46.67176" lon="5.98485">
        <ele>817.4</ele>
        <time>2015-06-28T08:50:17Z</time>
      </trkpt>
      <trkpt lat="46.67185" lon="5.98475">
        <ele>818.5</ele>
        <time>2015-06-28T08:50:24Z</time>
      </trkpt>
      <trkpt lat="46.67193" lon="5.98467">
        <ele>819.6</ele>
        <time>2015-06-28T08:50:30Z</time>
      </trkpt>
      <trkpt lat="46.672" lon="5.98458">
        <ele>820.5</ele>
        <time>2015-06-28T08:50:36Z</time>
      </trkpt>
      <trkpt lat="46.67207" lon="5.9845">
        <ele>821.3</ele>
        <time>2015-06-28T08:50:42Z</time>
      </trkpt>
      <trkpt lat="46.67214" lon="5.98439">
        <ele>822.1</ele>
        <time>2015-06-28T08:50:48Z</time>
      </trkpt>
      <trkpt lat="46.67223" lon="5.9843">
        <ele>823</ele>
        <time>2015-06-28T08:50:54Z</time>
      </trkpt>
      <trkpt lat="46.6723" lon="5.98423">
        <ele>823.7</ele>
        <time>2015-06-28T08:50:59Z</time>
      </trkpt>
      <trkpt lat="46.6724" lon="5.98418">
        <ele>824.7</ele>
        <time>2015-06-28T08:51:06Z</time>
      </trkpt>
      <trkpt lat="46.67246" lon="5.98406">
        <ele>825.5</ele>
        <time>2015-06-28T08:51:12Z</time>
      </trkpt>
      <trkpt lat="46.67251" lon="5.98394">
        <ele>826.5</ele>
        <time>2015-06-28T08:51:18Z</time>
      </trkpt>
      <trkpt lat="46.67256" lon="5.98382">
        <ele>827.4</ele>
        <time>2015-06-28T08:51:23Z</time>
      </trkpt>
      <trkpt lat="46.67264" lon="5.9837">
        <ele>828</ele>
        <time>2015-06-28T08:51:27Z</time>
      </trkpt>
      <trkpt lat="46.67274" lon="5.98366">
        <ele>828.1</ele>
        <time>2015-06-28T08:51:29Z</time>
      </trkpt>
      <trkpt lat="46.67282" lon="5.98357">
        <ele>828</ele>
        <time>2015-06-28T08:51:32Z</time>
      </trkpt>
      <trkpt lat="46.67291" lon="5.98352">
        <ele>827.7</ele>
        <time>2015-06-28T08:51:35Z</time>
      </trkpt>
      <trkpt lat="46.67298" lon="5.98344">
        <ele>827.2</ele>
        <time>2015-06-28T08:51:38Z</time>
      </trkpt>
      <trkpt lat="46.67307" lon="5.98333">
        <ele>826.7</ele>
        <time>2015-06-28T08:51:41Z</time>
      </trkpt>
      <trkpt lat="46.67314" lon="5.98323">
        <ele>826</ele>
        <time>2015-06-28T08:51:45Z</time>
      </trkpt>
      <trkpt lat="46.67322" lon="5.98316">
        <ele>825.4</ele>
        <time>2015-06-28T08:51:48Z</time>
      </trkpt>
      <trkpt lat="46.67331" lon="5.98306">
        <ele>824.8</ele>
        <time>2015-06-28T08:51:52Z</time>
      </trkpt>
      <trkpt lat="46.6734" lon="5.983">
        <ele>824.6</ele>
        <time>2015-06-28T08:51:58Z</time>
      </trkpt>
      <trkpt lat="46.67347" lon="5.98289">
        <ele>824.4</ele>
        <time>2015-06-28T08:52:02Z</time>
      </trkpt>
      <trkpt lat="46.67354" lon="5.98277">
        <ele>824.5</ele>
        <time>2015-06-28T08:52:06Z</time>
      </trkpt>
      <trkpt lat="46.67357" lon="5.98263">
        <ele>824.8</ele>
        <time>2015-06-28T08:52:11Z</time>
      </trkpt>
      <trkpt lat="46.6736" lon="5.98249">
        <ele>825.4</ele>
        <time>2015-06-28T08:52:16Z</time>
      </trkpt>
      <trkpt lat="46.67361" lon="5.98231">
        <ele>825.9</ele>
        <time>2015-06-28T08:52:22Z</time>
      </trkpt>
      <trkpt lat="46.67363" lon="5.98217">
        <ele>826.2</ele>
        <time>2015-06-28T08:52:25Z</time>
      </trkpt>
      <trkpt lat="46.67364" lon="5.98202">
        <ele>826.4</ele>
        <time>2015-06-28T08:52:28Z</time>
      </trkpt>
      <trkpt lat="46.67366" lon="5.98189">
        <ele>826.6</ele>
        <time>2015-06-28T08:52:31Z</time>
      </trkpt>
      <trkpt lat="46.67367" lon="5.98169">
        <ele>826.7</ele>
        <time>2015-06-28T08:52:34Z</time>
      </trkpt>
      <trkpt lat="46.67369" lon="5.98151">
        <ele>826.9</ele>
        <time>2015-06-28T08:52:37Z</time>
      </trkpt>
      <trkpt lat="46.67372" lon="5.98137">
        <ele>827</ele>
        <time>2015-06-28T08:52:40Z</time>
      </trkpt>
      <trkpt lat="46.67381" lon="5.98124">
        <ele>827</ele>
        <time>2015-06-28T08:52:43Z</time>
      </trkpt>
      <trkpt lat="46.6739" lon="5.98116">
        <ele>826.7</ele>
        <time>2015-06-28T08:52:45Z</time>
      </trkpt>
      <trkpt lat="46.674" lon="5.98107">
        <ele>826.4</ele>
        <time>2015-06-28T08:52:48Z</time>
      </trkpt>
      <trkpt lat="46.6741" lon="5.98104">
        <ele>826</ele>
        <time>2015-06-28T08:52:52Z</time>
      </trkpt>
      <trkpt lat="46.67419" lon="5.981">
        <ele>825.6</ele>
        <time>2015-06-28T08:52:58Z</time>
      </trkpt>
      <trkpt lat="46.67428" lon="5.98096">
        <ele>825.4</ele>
        <time>2015-06-28T08:53:03Z</time>
      </trkpt>
      <trkpt lat="46.67438" lon="5.9809">
        <ele>825.2</ele>
        <time>2015-06-28T08:53:08Z</time>
      </trkpt>
      <trkpt lat="46.67449" lon="5.98085">
        <ele>825.2</ele>
        <time>2015-06-28T08:53:12Z</time>
      </trkpt>
      <trkpt lat="46.67459" lon="5.98083">
        <ele>825.2</ele>
        <time>2015-06-28T08:53:16Z</time>
      </trkpt>
      <trkpt lat="46.67468" lon="5.98079">
        <ele>825.3</ele>
        <time>2015-06-28T08:53:20Z</time>
      </trkpt>
      <trkpt lat="46.67477" lon="5.98076">
        <ele>825.6</ele>
        <time>2015-06-28T08:53:25Z</time>
      </trkpt>
      <trkpt lat="46.67486" lon="5.98073">
        <ele>826</ele>
        <time>2015-06-28T08:53:30Z</time>
      </trkpt>
      <trkpt lat="46.67495" lon="5.98068">
        <ele>826.6</ele>
        <time>2015-06-28T08:53:36Z</time>
      </trkpt>
      <trkpt lat="46.67503" lon="5.98059">
        <ele>827.3</ele>
        <time>2015-06-28T08:53:41Z</time>
      </trkpt>
      <trkpt lat="46.67512" lon="5.98058">
        <ele>827.8</ele>
        <time>2015-06-28T08:53:45Z</time>
      </trkpt>
      <trkpt lat="46.67523" lon="5.98057">
        <ele>828.5</ele>
        <time>2015-06-28T08:53:51Z</time>
      </trkpt>
      <trkpt lat="46.67533" lon="5.98052">
        <ele>829.3</ele>
        <time>2015-06-28T08:53:58Z</time>
      </trkpt>
      <trkpt lat="46.67543" lon="5.98048">
        <ele>829.8</ele>
        <time>2015-06-28T08:54:03Z</time>
      </trkpt>
      <trkpt lat="46.67553" lon="5.98044">
        <ele>830.3</ele>
        <time>2015-06-28T08:54:08Z</time>
      </trkpt>
      <trkpt lat="46.67562" lon="5.9804">
        <ele>830.8</ele>
        <time>2015-06-28T08:54:12Z</time>
      </trkpt>
      <trkpt lat="46.6757" lon="5.98031">
        <ele>831.5</ele>
        <time>2015-06-28T08:54:18Z</time>
      </trkpt>
      <trkpt lat="46.67579" lon="5.98024">
        <ele>832</ele>
        <time>2015-06-28T08:54:23Z</time>
      </trkpt>
      <trkpt lat="46.67588" lon="5.98019">
        <ele>832.4</ele>
        <time>2015-06-28T08:54:27Z</time>
      </trkpt>
      <trkpt lat="46.67599" lon="5.98016">
        <ele>832.8</ele>
        <time>2015-06-28T08:54:30Z</time>
      </trkpt>
      <trkpt lat="46.67608" lon="5.98016">
        <ele>833</ele>
        <time>2015-06-28T08:54:32Z</time>
      </trkpt>
      <trkpt lat="46.6762" lon="5.98012">
        <ele>833.1</ele>
        <time>2015-06-28T08:54:35Z</time>
      </trkpt>
      <trkpt lat="46.6763" lon="5.98012">
        <ele>833.1</ele>
        <time>2015-06-28T08:54:38Z</time>
      </trkpt>
      <trkpt lat="46.67639" lon="5.98013">
        <ele>832.6</ele>
        <time>2015-06-28T08:54:42Z</time>
      </trkpt>
      <trkpt lat="46.6765" lon="5.98018">
        <ele>832.2</ele>
        <time>2015-06-28T08:54:46Z</time>
      </trkpt>
      <trkpt lat="46.6766" lon="5.98017">
        <ele>831.7</ele>
        <time>2015-06-28T08:54:50Z</time>
      </trkpt>
      <trkpt lat="46.67669" lon="5.98013">
        <ele>831.7</ele>
        <time>2015-06-28T08:54:55Z</time>
      </trkpt>
      <trkpt lat="46.67678" lon="5.98008">
        <ele>831.8</ele>
        <time>2015-06-28T08:55:00Z</time>
      </trkpt>
      <trkpt lat="46.67686" lon="5.98">
        <ele>831.9</ele>
        <time>2015-06-28T08:55:04Z</time>
      </trkpt>
      <trkpt lat="46.67694" lon="5.97987">
        <ele>832.1</ele>
        <time>2015-06-28T08:55:08Z</time>
      </trkpt>
      <trkpt lat="46.67699" lon="5.97975">
        <ele>832.2</ele>
        <time>2015-06-28T08:55:12Z</time>
      </trkpt>
      <trkpt lat="46.67705" lon="5.97965">
        <ele>832.5</ele>
        <time>2015-06-28T08:55:15Z</time>
      </trkpt>
      <trkpt lat="46.67716" lon="5.97957">
        <ele>832.5</ele>
        <time>2015-06-28T08:55:18Z</time>
      </trkpt>
      <trkpt lat="46.67726" lon="5.97952">
        <ele>832.5</ele>
        <time>2015-06-28T08:55:20Z</time>
      </trkpt>
      <trkpt lat="46.67737" lon="5.97948">
        <ele>832.5</ele>
        <time>2015-06-28T08:55:23Z</time>
      </trkpt>
      <trkpt lat="46.67746" lon="5.97948">
        <ele>832.3</ele>
        <time>2015-06-28T08:55:26Z</time>
      </trkpt>
      <trkpt lat="46.67756" lon="5.9795">
        <ele>832.2</ele>
        <time>2015-06-28T08:55:29Z</time>
      </trkpt>
      <trkpt lat="46.67764" lon="5.97957">
        <ele>832</ele>
        <time>2015-06-28T08:55:33Z</time>
      </trkpt>
      <trkpt lat="46.67769" lon="5.9797">
        <ele>831.7</ele>
        <time>2015-06-28T08:55:39Z</time>
      </trkpt>
      <trkpt lat="46.67776" lon="5.97982">
        <ele>831.4</ele>
        <time>2015-06-28T08:55:44Z</time>
      </trkpt>
      <trkpt lat="46.67783" lon="5.97992">
        <ele>831.2</ele>
        <time>2015-06-28T08:55:49Z</time>
      </trkpt>
      <trkpt lat="46.67793" lon="5.97999">
        <ele>831.2</ele>
        <time>2015-06-28T08:55:53Z</time>
      </trkpt>
      <trkpt lat="46.67804" lon="5.97994">
        <ele>831.1</ele>
        <time>2015-06-28T08:55:57Z</time>
      </trkpt>
      <trkpt lat="46.67812" lon="5.97987">
        <ele>831</ele>
        <time>2015-06-28T08:56:00Z</time>
      </trkpt>
      <trkpt lat="46.6782" lon="5.97979">
        <ele>830.9</ele>
        <time>2015-06-28T08:56:03Z</time>
      </trkpt>
      <trkpt lat="46.67828" lon="5.97971">
        <ele>830.8</ele>
        <time>2015-06-28T08:56:06Z</time>
      </trkpt>
      <trkpt lat="46.6784" lon="5.97958">
        <ele>830.8</ele>
        <time>2015-06-28T08:56:09Z</time>
      </trkpt>
      <trkpt lat="46.67851" lon="5.97946">
        <ele>830.7</ele>
        <time>2015-06-28T08:56:11Z</time>
      </trkpt>
      <trkpt lat="46.67861" lon="5.97934">
        <ele>830.5</ele>
        <time>2015-06-28T08:56:13Z</time>
      </trkpt>
      <trkpt lat="46.6787" lon="5.97922">
        <ele>830.3</ele>
        <time>2015-06-28T08:56:15Z</time>
      </trkpt>
      <trkpt lat="46.67881" lon="5.97913">
        <ele>830.1</ele>
        <time>2015-06-28T08:56:17Z</time>
      </trkpt>
      <trkpt lat="46.67894" lon="5.97906">
        <ele>829.8</ele>
        <time>2015-06-28T08:56:19Z</time>
      </trkpt>
      <trkpt lat="46.67909" lon="5.97899">
        <ele>829.4</ele>
        <time>2015-06-28T08:56:21Z</time>
      </trkpt>
      <trkpt lat="46.67922" lon="5.97891">
        <ele>829</ele>
        <time>2015-06-28T08:56:23Z</time>
      </trkpt>
      <trkpt lat="46.67931" lon="5.97885">
        <ele>828.5</ele>
        <time>2015-06-28T08:56:25Z</time>
      </trkpt>
      <trkpt lat="46.67941" lon="5.97878">
        <ele>827.9</ele>
        <time>2015-06-28T08:56:28Z</time>
      </trkpt>
      <trkpt lat="46.6795" lon="5.97871">
        <ele>827.4</ele>
        <time>2015-06-28T08:56:32Z</time>
      </trkpt>
      <trkpt lat="46.67961" lon="5.97872">
        <ele>827.1</ele>
        <time>2015-06-28T08:56:35Z</time>
      </trkpt>
      <trkpt lat="46.67972" lon="5.9787">
        <ele>826.9</ele>
        <time>2015-06-28T08:56:38Z</time>
      </trkpt>
      <trkpt lat="46.67979" lon="5.9786">
        <ele>826.9</ele>
        <time>2015-06-28T08:56:40Z</time>
      </trkpt>
      <trkpt lat="46.67988" lon="5.97853">
        <ele>826.8</ele>
        <time>2015-06-28T08:56:43Z</time>
      </trkpt>
      <trkpt lat="46.67996" lon="5.97846">
        <ele>826.7</ele>
        <time>2015-06-28T08:56:46Z</time>
      </trkpt>
      <trkpt lat="46.68005" lon="5.97838">
        <ele>826.7</ele>
        <time>2015-06-28T08:56:49Z</time>
      </trkpt>
      <trkpt lat="46.68014" lon="5.9783">
        <ele>826.7</ele>
        <time>2015-06-28T08:56:52Z</time>
      </trkpt>
      <trkpt lat="46.68022" lon="5.97822">
        <ele>826.8</ele>
        <time>2015-06-28T08:56:55Z</time>
      </trkpt>
      <trkpt lat="46.68029" lon="5.97812">
        <ele>826.9</ele>
        <time>2015-06-28T08:56:58Z</time>
      </trkpt>
      <trkpt lat="46.68037" lon="5.97806">
        <ele>826.9</ele>
        <time>2015-06-28T08:57:01Z</time>
      </trkpt>
      <trkpt lat="46.68044" lon="5.97796">
        <ele>827</ele>
        <time>2015-06-28T08:57:04Z</time>
      </trkpt>
      <trkpt lat="46.68052" lon="5.97784">
        <ele>827.2</ele>
        <time>2015-06-28T08:57:08Z</time>
      </trkpt>
      <trkpt lat="46.6806" lon="5.97772">
        <ele>827.4</ele>
        <time>2015-06-28T08:57:11Z</time>
      </trkpt>
      <trkpt lat="46.68068" lon="5.97762">
        <ele>827.7</ele>
        <time>2015-06-28T08:57:14Z</time>
      </trkpt>
      <trkpt lat="46.68076" lon="5.97752">
        <ele>828</ele>
        <time>2015-06-28T08:57:18Z</time>
      </trkpt>
      <trkpt lat="46.68087" lon="5.97745">
        <ele>828.4</ele>
        <time>2015-06-28T08:57:22Z</time>
      </trkpt>
      <trkpt lat="46.68097" lon="5.97738">
        <ele>828.7</ele>
        <time>2015-06-28T08:57:26Z</time>
      </trkpt>
      <trkpt lat="46.68107" lon="5.97729">
        <ele>829.1</ele>
        <time>2015-06-28T08:57:30Z</time>
      </trkpt>
      <trkpt lat="46.68115" lon="5.97719">
        <ele>829.6</ele>
        <time>2015-06-28T08:57:34Z</time>
      </trkpt>
      <trkpt lat="46.68121" lon="5.97704">
        <ele>830</ele>
        <time>2015-06-28T08:57:38Z</time>
      </trkpt>
      <trkpt lat="46.6813" lon="5.97692">
        <ele>830.2</ele>
        <time>2015-06-28T08:57:41Z</time>
      </trkpt>
      <trkpt lat="46.68137" lon="5.9768">
        <ele>830.4</ele>
        <time>2015-06-28T08:57:43Z</time>
      </trkpt>
      <trkpt lat="46.68146" lon="5.97666">
        <ele>830.6</ele>
        <time>2015-06-28T08:57:46Z</time>
      </trkpt>
      <trkpt lat="46.68155" lon="5.97654">
        <ele>830.7</ele>
        <time>2015-06-28T08:57:49Z</time>
      </trkpt>
      <trkpt lat="46.68164" lon="5.97644">
        <ele>830.9</ele>
        <time>2015-06-28T08:57:52Z</time>
      </trkpt>
      <trkpt lat="46.68174" lon="5.97637">
        <ele>831</ele>
        <time>2015-06-28T08:57:55Z</time>
      </trkpt>
      <trkpt lat="46.68184" lon="5.97635">
        <ele>831.1</ele>
        <time>2015-06-28T08:57:58Z</time>
      </trkpt>
      <trkpt lat="46.68194" lon="5.97637">
        <ele>831.2</ele>
        <time>2015-06-28T08:58:00Z</time>
      </trkpt>
      <trkpt lat="46.68203" lon="5.97636">
        <ele>831.3</ele>
        <time>2015-06-28T08:58:02Z</time>
      </trkpt>
      <trkpt lat="46.68213" lon="5.97639">
        <ele>831.4</ele>
        <time>2015-06-28T08:58:04Z</time>
      </trkpt>
      <trkpt lat="46.68225" lon="5.97642">
        <ele>831.7</ele>
        <time>2015-06-28T08:58:07Z</time>
      </trkpt>
      <trkpt lat="46.68237" lon="5.97646">
        <ele>831.8</ele>
        <time>2015-06-28T08:58:10Z</time>
      </trkpt>
      <trkpt lat="46.68248" lon="5.97651">
        <ele>832</ele>
        <time>2015-06-28T08:58:13Z</time>
      </trkpt>
      <trkpt lat="46.6826" lon="5.97654">
        <ele>832.1</ele>
        <time>2015-06-28T08:58:16Z</time>
      </trkpt>
      <trkpt lat="46.68265" lon="5.97643">
        <ele>832.2</ele>
        <time>2015-06-28T08:58:18Z</time>
      </trkpt>
      <trkpt lat="46.68269" lon="5.97629">
        <ele>832.3</ele>
        <time>2015-06-28T08:58:20Z</time>
      </trkpt>
      <trkpt lat="46.68272" lon="5.97616">
        <ele>832.3</ele>
        <time>2015-06-28T08:58:22Z</time>
      </trkpt>
      <trkpt lat="46.68277" lon="5.97604">
        <ele>832.3</ele>
        <time>2015-06-28T08:58:24Z</time>
      </trkpt>
      <trkpt lat="46.68281" lon="5.97591">
        <ele>832.3</ele>
        <time>2015-06-28T08:58:26Z</time>
      </trkpt>
      <trkpt lat="46.68285" lon="5.97579">
        <ele>832.3</ele>
        <time>2015-06-28T08:58:28Z</time>
      </trkpt>
      <trkpt lat="46.68292" lon="5.97563">
        <ele>832.3</ele>
        <time>2015-06-28T08:58:31Z</time>
      </trkpt>
      <trkpt lat="46.68298" lon="5.97547">
        <ele>832.4</ele>
        <time>2015-06-28T08:58:34Z</time>
      </trkpt>
      <trkpt lat="46.68304" lon="5.97533">
        <ele>832.5</ele>
        <time>2015-06-28T08:58:37Z</time>
      </trkpt>
      <trkpt lat="46.68312" lon="5.9752">
        <ele>832.6</ele>
        <time>2015-06-28T08:58:40Z</time>
      </trkpt>
      <trkpt lat="46.6832" lon="5.9751">
        <ele>832.8</ele>
        <time>2015-06-28T08:58:43Z</time>
      </trkpt>
      <trkpt lat="46.68328" lon="5.97502">
        <ele>833</ele>
        <time>2015-06-28T08:58:46Z</time>
      </trkpt>
      <trkpt lat="46.68337" lon="5.97494">
        <ele>833.2</ele>
        <time>2015-06-28T08:58:49Z</time>
      </trkpt>
      <trkpt lat="46.68346" lon="5.97484">
        <ele>833.5</ele>
        <time>2015-06-28T08:58:53Z</time>
      </trkpt>
      <trkpt lat="46.68355" lon="5.97475">
        <ele>833.9</ele>
        <time>2015-06-28T08:58:57Z</time>
      </trkpt>
      <trkpt lat="46.68366" lon="5.9747">
        <ele>834.3</ele>
        <time>2015-06-28T08:59:01Z</time>
      </trkpt>
      <trkpt lat="46.68376" lon="5.97464">
        <ele>834.8</ele>
        <time>2015-06-28T08:59:05Z</time>
      </trkpt>
      <trkpt lat="46.68385" lon="5.97458">
        <ele>835.3</ele>
        <time>2015-06-28T08:59:09Z</time>
      </trkpt>
      <trkpt lat="46.68394" lon="5.97452">
        <ele>835.9</ele>
        <time>2015-06-28T08:59:14Z</time>
      </trkpt>
      <trkpt lat="46.68399" lon="5.97439">
        <ele>840.3</ele>
        <time>2015-06-28T09:00:19Z</time>
      </trkpt>
      <trkpt lat="46.6841" lon="5.97433">
        <ele>840.5</ele>
        <time>2015-06-28T09:00:23Z</time>
      </trkpt>
      <trkpt lat="46.68418" lon="5.97426">
        <ele>840.6</ele>
        <time>2015-06-28T09:00:26Z</time>
      </trkpt>
      <trkpt lat="46.68426" lon="5.97419">
        <ele>840.6</ele>
        <time>2015-06-28T09:00:29Z</time>
      </trkpt>
      <trkpt lat="46.68434" lon="5.97411">
        <ele>840.7</ele>
        <time>2015-06-28T09:00:32Z</time>
      </trkpt>
      <trkpt lat="46.68442" lon="5.97404">
        <ele>840.7</ele>
        <time>2015-06-28T09:00:35Z</time>
      </trkpt>
      <trkpt lat="46.6845" lon="5.97397">
        <ele>840.7</ele>
        <time>2015-06-28T09:00:38Z</time>
      </trkpt>
      <trkpt lat="46.6846" lon="5.97389">
        <ele>840.9</ele>
        <time>2015-06-28T09:00:42Z</time>
      </trkpt>
      <trkpt lat="46.68468" lon="5.97382">
        <ele>841</ele>
        <time>2015-06-28T09:00:45Z</time>
      </trkpt>
      <trkpt lat="46.68477" lon="5.97372">
        <ele>841.3</ele>
        <time>2015-06-28T09:00:49Z</time>
      </trkpt>
      <trkpt lat="46.68485" lon="5.97362">
        <ele>841.7</ele>
        <time>2015-06-28T09:00:53Z</time>
      </trkpt>
      <trkpt lat="46.68494" lon="5.97352">
        <ele>842.1</ele>
        <time>2015-06-28T09:00:57Z</time>
      </trkpt>
      <trkpt lat="46.68501" lon="5.97344">
        <ele>842.4</ele>
        <time>2015-06-28T09:01:00Z</time>
      </trkpt>
      <trkpt lat="46.68509" lon="5.97336">
        <ele>842.9</ele>
        <time>2015-06-28T09:01:04Z</time>
      </trkpt>
      <trkpt lat="46.68519" lon="5.97327">
        <ele>843.6</ele>
        <time>2015-06-28T09:01:08Z</time>
      </trkpt>
      <trkpt lat="46.68527" lon="5.97319">
        <ele>844.1</ele>
        <time>2015-06-28T09:01:12Z</time>
      </trkpt>
      <trkpt lat="46.68536" lon="5.9731">
        <ele>844.7</ele>
        <time>2015-06-28T09:01:16Z</time>
      </trkpt>
      <trkpt lat="46.68545" lon="5.97302">
        <ele>845.2</ele>
        <time>2015-06-28T09:01:20Z</time>
      </trkpt>
      <trkpt lat="46.68551" lon="5.97289">
        <ele>845.7</ele>
        <time>2015-06-28T09:01:23Z</time>
      </trkpt>
      <trkpt lat="46.68559" lon="5.9728">
        <ele>846.1</ele>
        <time>2015-06-28T09:01:26Z</time>
      </trkpt>
      <trkpt lat="46.68567" lon="5.9727">
        <ele>846.8</ele>
        <time>2015-06-28T09:01:30Z</time>
      </trkpt>
      <trkpt lat="46.68575" lon="5.9726">
        <ele>847.4</ele>
        <time>2015-06-28T09:01:34Z</time>
      </trkpt>
      <trkpt lat="46.68583" lon="5.97251">
        <ele>848</ele>
        <time>2015-06-28T09:01:38Z</time>
      </trkpt>
      <trkpt lat="46.68592" lon="5.97241">
        <ele>848.5</ele>
        <time>2015-06-28T09:01:42Z</time>
      </trkpt>
      <trkpt lat="46.68601" lon="5.97233">
        <ele>849</ele>
        <time>2015-06-28T09:01:46Z</time>
      </trkpt>
      <trkpt lat="46.68609" lon="5.97221">
        <ele>849.5</ele>
        <time>2015-06-28T09:01:50Z</time>
      </trkpt>
      <trkpt lat="46.68618" lon="5.97212">
        <ele>849.9</ele>
        <time>2015-06-28T09:01:54Z</time>
      </trkpt>
      <trkpt lat="46.68626" lon="5.97205">
        <ele>850.2</ele>
        <time>2015-06-28T09:01:57Z</time>
      </trkpt>
      <trkpt lat="46.68634" lon="5.97198">
        <ele>850.4</ele>
        <time>2015-06-28T09:02:00Z</time>
      </trkpt>
      <trkpt lat="46.68643" lon="5.97188">
        <ele>850.6</ele>
        <time>2015-06-28T09:02:03Z</time>
      </trkpt>
      <trkpt lat="46.68649" lon="5.97177">
        <ele>850.7</ele>
        <time>2015-06-28T09:02:05Z</time>
      </trkpt>
      <trkpt lat="46.68655" lon="5.97165">
        <ele>850.7</ele>
        <time>2015-06-28T09:02:07Z</time>
      </trkpt>
      <trkpt lat="46.6866" lon="5.97152">
        <ele>850.8</ele>
        <time>2015-06-28T09:02:09Z</time>
      </trkpt>
      <trkpt lat="46.68667" lon="5.97138">
        <ele>850.7</ele>
        <time>2015-06-28T09:02:11Z</time>
      </trkpt>
      <trkpt lat="46.68675" lon="5.97122">
        <ele>850.4</ele>
        <time>2015-06-28T09:02:13Z</time>
      </trkpt>
      <trkpt lat="46.68687" lon="5.97107">
        <ele>850.2</ele>
        <time>2015-06-28T09:02:15Z</time>
      </trkpt>
      <trkpt lat="46.68698" lon="5.97092">
        <ele>849.9</ele>
        <time>2015-06-28T09:02:17Z</time>
      </trkpt>
      <trkpt lat="46.68708" lon="5.97073">
        <ele>849.6</ele>
        <time>2015-06-28T09:02:19Z</time>
      </trkpt>
      <trkpt lat="46.68718" lon="5.97053">
        <ele>849.1</ele>
        <time>2015-06-28T09:02:21Z</time>
      </trkpt>
      <trkpt lat="46.68728" lon="5.97034">
        <ele>848.6</ele>
        <time>2015-06-28T09:02:23Z</time>
      </trkpt>
      <trkpt lat="46.68734" lon="5.97024">
        <ele>848.4</ele>
        <time>2015-06-28T09:02:24Z</time>
      </trkpt>
      <trkpt lat="46.68742" lon="5.97012">
        <ele>848.1</ele>
        <time>2015-06-28T09:02:25Z</time>
      </trkpt>
      <trkpt lat="46.68749" lon="5.96999">
        <ele>847.8</ele>
        <time>2015-06-28T09:02:26Z</time>
      </trkpt>
      <trkpt lat="46.68756" lon="5.96988">
        <ele>847.4</ele>
        <time>2015-06-28T09:02:27Z</time>
      </trkpt>
      <trkpt lat="46.68763" lon="5.96978">
        <ele>847.1</ele>
        <time>2015-06-28T09:02:28Z</time>
      </trkpt>
      <trkpt lat="46.6877" lon="5.96968">
        <ele>846.7</ele>
        <time>2015-06-28T09:02:29Z</time>
      </trkpt>
      <trkpt lat="46.68777" lon="5.96959">
        <ele>846.4</ele>
        <time>2015-06-28T09:02:30Z</time>
      </trkpt>
      <trkpt lat="46.68785" lon="5.9695">
        <ele>845.9</ele>
        <time>2015-06-28T09:02:31Z</time>
      </trkpt>
      <trkpt lat="46.68793" lon="5.96942">
        <ele>845.5</ele>
        <time>2015-06-28T09:02:32Z</time>
      </trkpt>
      <trkpt lat="46.68801" lon="5.96934">
        <ele>845</ele>
        <time>2015-06-28T09:02:33Z</time>
      </trkpt>
      <trkpt lat="46.68811" lon="5.96928">
        <ele>844.5</ele>
        <time>2015-06-28T09:02:34Z</time>
      </trkpt>
      <trkpt lat="46.68821" lon="5.96923">
        <ele>843.9</ele>
        <time>2015-06-28T09:02:35Z</time>
      </trkpt>
      <trkpt lat="46.68831" lon="5.96919">
        <ele>843.3</ele>
        <time>2015-06-28T09:02:36Z</time>
      </trkpt>
      <trkpt lat="46.68842" lon="5.96916">
        <ele>842.7</ele>
        <time>2015-06-28T09:02:37Z</time>
      </trkpt>
      <trkpt lat="46.68858" lon="5.96913">
        <ele>841.5</ele>
        <time>2015-06-28T09:02:39Z</time>
      </trkpt>
      <trkpt lat="46.68875" lon="5.9691">
        <ele>840.3</ele>
        <time>2015-06-28T09:02:41Z</time>
      </trkpt>
      <trkpt lat="46.68893" lon="5.96905">
        <ele>839</ele>
        <time>2015-06-28T09:02:43Z</time>
      </trkpt>
      <trkpt lat="46.6891" lon="5.96902">
        <ele>837.7</ele>
        <time>2015-06-28T09:02:45Z</time>
      </trkpt>
      <trkpt lat="46.68926" lon="5.96903">
        <ele>836.4</ele>
        <time>2015-06-28T09:02:47Z</time>
      </trkpt>
      <trkpt lat="46.68943" lon="5.96901">
        <ele>835.1</ele>
        <time>2015-06-28T09:02:49Z</time>
      </trkpt>
      <trkpt lat="46.68952" lon="5.96899">
        <ele>834.5</ele>
        <time>2015-06-28T09:02:50Z</time>
      </trkpt>
      <trkpt lat="46.68971" lon="5.96903">
        <ele>833.3</ele>
        <time>2015-06-28T09:02:52Z</time>
      </trkpt>
      <trkpt lat="46.68987" lon="5.96906">
        <ele>831.9</ele>
        <time>2015-06-28T09:02:54Z</time>
      </trkpt>
      <trkpt lat="46.69004" lon="5.96905">
        <ele>830.7</ele>
        <time>2015-06-28T09:02:56Z</time>
      </trkpt>
      <trkpt lat="46.69014" lon="5.96903">
        <ele>830.1</ele>
        <time>2015-06-28T09:02:57Z</time>
      </trkpt>
      <trkpt lat="46.69032" lon="5.96899">
        <ele>829</ele>
        <time>2015-06-28T09:02:59Z</time>
      </trkpt>
      <trkpt lat="46.69041" lon="5.96898">
        <ele>828.3</ele>
        <time>2015-06-28T09:03:00Z</time>
      </trkpt>
      <trkpt lat="46.6905" lon="5.96893">
        <ele>827.7</ele>
        <time>2015-06-28T09:03:01Z</time>
      </trkpt>
      <trkpt lat="46.69059" lon="5.96889">
        <ele>827</ele>
        <time>2015-06-28T09:03:02Z</time>
      </trkpt>
      <trkpt lat="46.69076" lon="5.9688">
        <ele>825.6</ele>
        <time>2015-06-28T09:03:04Z</time>
      </trkpt>
      <trkpt lat="46.69092" lon="5.9688">
        <ele>824.2</ele>
        <time>2015-06-28T09:03:06Z</time>
      </trkpt>
      <trkpt lat="46.69106" lon="5.96884">
        <ele>823</ele>
        <time>2015-06-28T09:03:08Z</time>
      </trkpt>
      <trkpt lat="46.69121" lon="5.96888">
        <ele>821.7</ele>
        <time>2015-06-28T09:03:10Z</time>
      </trkpt>
      <trkpt lat="46.69136" lon="5.96892">
        <ele>820.5</ele>
        <time>2015-06-28T09:03:12Z</time>
      </trkpt>
      <trkpt lat="46.6915" lon="5.969">
        <ele>819.4</ele>
        <time>2015-06-28T09:03:14Z</time>
      </trkpt>
      <trkpt lat="46.69164" lon="5.96906">
        <ele>818.3</ele>
        <time>2015-06-28T09:03:16Z</time>
      </trkpt>
      <trkpt lat="46.69178" lon="5.96911">
        <ele>817.3</ele>
        <time>2015-06-28T09:03:18Z</time>
      </trkpt>
      <trkpt lat="46.69188" lon="5.96919">
        <ele>816.3</ele>
        <time>2015-06-28T09:03:20Z</time>
      </trkpt>
      <trkpt lat="46.692" lon="5.96929">
        <ele>815.4</ele>
        <time>2015-06-28T09:03:22Z</time>
      </trkpt>
      <trkpt lat="46.6921" lon="5.96937">
        <ele>814.6</ele>
        <time>2015-06-28T09:03:24Z</time>
      </trkpt>
      <trkpt lat="46.69219" lon="5.96947">
        <ele>813.8</ele>
        <time>2015-06-28T09:03:26Z</time>
      </trkpt>
      <trkpt lat="46.6923" lon="5.96952">
        <ele>813.1</ele>
        <time>2015-06-28T09:03:28Z</time>
      </trkpt>
      <trkpt lat="46.6924" lon="5.96957">
        <ele>812.3</ele>
        <time>2015-06-28T09:03:30Z</time>
      </trkpt>
      <trkpt lat="46.69252" lon="5.96965">
        <ele>811.6</ele>
        <time>2015-06-28T09:03:32Z</time>
      </trkpt>
      <trkpt lat="46.69263" lon="5.96974">
        <ele>810.9</ele>
        <time>2015-06-28T09:03:34Z</time>
      </trkpt>
      <trkpt lat="46.69274" lon="5.96984">
        <ele>810.3</ele>
        <time>2015-06-28T09:03:36Z</time>
      </trkpt>
      <trkpt lat="46.69282" lon="5.96996">
        <ele>809.7</ele>
        <time>2015-06-28T09:03:38Z</time>
      </trkpt>
      <trkpt lat="46.69288" lon="5.97009">
        <ele>809.1</ele>
        <time>2015-06-28T09:03:40Z</time>
      </trkpt>
      <trkpt lat="46.69295" lon="5.97021">
        <ele>808.7</ele>
        <time>2015-06-28T09:03:42Z</time>
      </trkpt>
      <trkpt lat="46.69302" lon="5.97034">
        <ele>808.2</ele>
        <time>2015-06-28T09:03:44Z</time>
      </trkpt>
      <trkpt lat="46.69307" lon="5.97046">
        <ele>807.6</ele>
        <time>2015-06-28T09:03:46Z</time>
      </trkpt>
      <trkpt lat="46.69311" lon="5.97058">
        <ele>807.1</ele>
        <time>2015-06-28T09:03:48Z</time>
      </trkpt>
      <trkpt lat="46.69316" lon="5.97072">
        <ele>806.5</ele>
        <time>2015-06-28T09:03:51Z</time>
      </trkpt>
      <trkpt lat="46.69327" lon="5.9708">
        <ele>805.4</ele>
        <time>2015-06-28T09:03:59Z</time>
      </trkpt>
      <trkpt lat="46.69337" lon="5.97079">
        <ele>804.8</ele>
        <time>2015-06-28T09:04:03Z</time>
      </trkpt>
      <trkpt lat="46.69347" lon="5.9708">
        <ele>804.1</ele>
        <time>2015-06-28T09:04:07Z</time>
      </trkpt>
      <trkpt lat="46.69357" lon="5.97082">
        <ele>802.9</ele>
        <time>2015-06-28T09:04:11Z</time>
      </trkpt>
      <trkpt lat="46.69365" lon="5.97087">
        <ele>802</ele>
        <time>2015-06-28T09:04:14Z</time>
      </trkpt>
      <trkpt lat="46.69374" lon="5.97093">
        <ele>800.9</ele>
        <time>2015-06-28T09:04:17Z</time>
      </trkpt>
      <trkpt lat="46.69385" lon="5.97096">
        <ele>800</ele>
        <time>2015-06-28T09:04:20Z</time>
      </trkpt>
      <trkpt lat="46.69394" lon="5.97099">
        <ele>799.1</ele>
        <time>2015-06-28T09:04:23Z</time>
      </trkpt>
      <trkpt lat="46.69405" lon="5.97102">
        <ele>798</ele>
        <time>2015-06-28T09:04:27Z</time>
      </trkpt>
      <trkpt lat="46.69417" lon="5.97107">
        <ele>796.9</ele>
        <time>2015-06-28T09:04:30Z</time>
      </trkpt>
      <trkpt lat="46.69428" lon="5.97106">
        <ele>795.9</ele>
        <time>2015-06-28T09:04:33Z</time>
      </trkpt>
      <trkpt lat="46.69435" lon="5.97096">
        <ele>794.7</ele>
        <time>2015-06-28T09:04:36Z</time>
      </trkpt>
      <trkpt lat="46.69442" lon="5.97083">
        <ele>792.1</ele>
        <time>2015-06-28T09:04:42Z</time>
      </trkpt>
      <trkpt lat="46.69449" lon="5.97071">
        <ele>790.8</ele>
        <time>2015-06-28T09:04:45Z</time>
      </trkpt>
      <trkpt lat="46.69459" lon="5.97065">
        <ele>789.1</ele>
        <time>2015-06-28T09:04:49Z</time>
      </trkpt>
      <trkpt lat="46.69466" lon="5.97056">
        <ele>787.7</ele>
        <time>2015-06-28T09:04:53Z</time>
      </trkpt>
      <trkpt lat="46.69474" lon="5.97047">
        <ele>786.8</ele>
        <time>2015-06-28T09:04:56Z</time>
      </trkpt>
      <trkpt lat="46.69485" lon="5.97037">
        <ele>785.8</ele>
        <time>2015-06-28T09:05:00Z</time>
      </trkpt>
      <trkpt lat="46.69494" lon="5.97027">
        <ele>785.2</ele>
        <time>2015-06-28T09:05:03Z</time>
      </trkpt>
      <trkpt lat="46.69503" lon="5.97018">
        <ele>784.7</ele>
        <time>2015-06-28T09:05:08Z</time>
      </trkpt>
      <trkpt lat="46.69513" lon="5.97013">
        <ele>784.4</ele>
        <time>2015-06-28T09:05:12Z</time>
      </trkpt>
      <trkpt lat="46.69522" lon="5.97013">
        <ele>784.3</ele>
        <time>2015-06-28T09:05:15Z</time>
      </trkpt>
      <trkpt lat="46.69534" lon="5.97012">
        <ele>784.4</ele>
        <time>2015-06-28T09:05:19Z</time>
      </trkpt>
      <trkpt lat="46.69544" lon="5.97008">
        <ele>784.6</ele>
        <time>2015-06-28T09:05:24Z</time>
      </trkpt>
      <trkpt lat="46.69554" lon="5.97005">
        <ele>784.8</ele>
        <time>2015-06-28T09:05:28Z</time>
      </trkpt>
      <trkpt lat="46.69567" lon="5.96998">
        <ele>785.1</ele>
        <time>2015-06-28T09:05:32Z</time>
      </trkpt>
      <trkpt lat="46.69577" lon="5.96994">
        <ele>785.3</ele>
        <time>2015-06-28T09:05:35Z</time>
      </trkpt>
      <trkpt lat="46.69588" lon="5.96997">
        <ele>785.6</ele>
        <time>2015-06-28T09:05:39Z</time>
      </trkpt>
      <trkpt lat="46.69598" lon="5.96997">
        <ele>785.8</ele>
        <time>2015-06-28T09:05:42Z</time>
      </trkpt>
      <trkpt lat="46.69608" lon="5.96993">
        <ele>786</ele>
        <time>2015-06-28T09:05:45Z</time>
      </trkpt>
      <trkpt lat="46.69619" lon="5.96991">
        <ele>786</ele>
        <time>2015-06-28T09:05:48Z</time>
      </trkpt>
      <trkpt lat="46.69631" lon="5.96992">
        <ele>786</ele>
        <time>2015-06-28T09:05:51Z</time>
      </trkpt>
      <trkpt lat="46.69641" lon="5.96992">
        <ele>785.9</ele>
        <time>2015-06-28T09:05:54Z</time>
      </trkpt>
      <trkpt lat="46.6965" lon="5.96995">
        <ele>785.8</ele>
        <time>2015-06-28T09:05:57Z</time>
      </trkpt>
      <trkpt lat="46.69659" lon="5.96997">
        <ele>785.8</ele>
        <time>2015-06-28T09:06:00Z</time>
      </trkpt>
      <trkpt lat="46.69668" lon="5.96997">
        <ele>785.8</ele>
        <time>2015-06-28T09:06:03Z</time>
      </trkpt>
      <trkpt lat="46.69678" lon="5.97001">
        <ele>785.8</ele>
        <time>2015-06-28T09:06:07Z</time>
      </trkpt>
      <trkpt lat="46.6969" lon="5.97005">
        <ele>785.8</ele>
        <time>2015-06-28T09:06:11Z</time>
      </trkpt>
      <trkpt lat="46.69699" lon="5.97012">
        <ele>785.9</ele>
        <time>2015-06-28T09:06:14Z</time>
      </trkpt>
      <trkpt lat="46.6971" lon="5.97018">
        <ele>785.9</ele>
        <time>2015-06-28T09:06:17Z</time>
      </trkpt>
      <trkpt lat="46.6972" lon="5.97021">
        <ele>786</ele>
        <time>2015-06-28T09:06:20Z</time>
      </trkpt>
      <trkpt lat="46.69729" lon="5.97025">
        <ele>786</ele>
        <time>2015-06-28T09:06:23Z</time>
      </trkpt>
      <trkpt lat="46.6974" lon="5.97031">
        <ele>786</ele>
        <time>2015-06-28T09:06:27Z</time>
      </trkpt>
      <trkpt lat="46.69749" lon="5.9704">
        <ele>786</ele>
        <time>2015-06-28T09:06:31Z</time>
      </trkpt>
      <trkpt lat="46.69757" lon="5.9705">
        <ele>786</ele>
        <time>2015-06-28T09:06:36Z</time>
      </trkpt>
      <trkpt lat="46.69766" lon="5.97058">
        <ele>786.1</ele>
        <time>2015-06-28T09:06:40Z</time>
      </trkpt>
      <trkpt lat="46.69777" lon="5.97064">
        <ele>786.1</ele>
        <time>2015-06-28T09:06:43Z</time>
      </trkpt>
      <trkpt lat="46.69789" lon="5.97071">
        <ele>786.2</ele>
        <time>2015-06-28T09:06:46Z</time>
      </trkpt>
      <trkpt lat="46.698" lon="5.97077">
        <ele>786.3</ele>
        <time>2015-06-28T09:06:49Z</time>
      </trkpt>
      <trkpt lat="46.6981" lon="5.97082">
        <ele>786.3</ele>
        <time>2015-06-28T09:06:51Z</time>
      </trkpt>
      <trkpt lat="46.6982" lon="5.97087">
        <ele>786.4</ele>
        <time>2015-06-28T09:06:53Z</time>
      </trkpt>
      <trkpt lat="46.69831" lon="5.9709">
        <ele>786.4</ele>
        <time>2015-06-28T09:06:55Z</time>
      </trkpt>
      <trkpt lat="46.69841" lon="5.97092">
        <ele>786.4</ele>
        <time>2015-06-28T09:06:57Z</time>
      </trkpt>
      <trkpt lat="46.6985" lon="5.971">
        <ele>786.4</ele>
        <time>2015-06-28T09:07:00Z</time>
      </trkpt>
      <trkpt lat="46.69859" lon="5.97111">
        <ele>785.9</ele>
        <time>2015-06-28T09:07:04Z</time>
      </trkpt>
      <trkpt lat="46.69868" lon="5.97116">
        <ele>785.6</ele>
        <time>2015-06-28T09:07:07Z</time>
      </trkpt>
      <trkpt lat="46.69878" lon="5.97123">
        <ele>785.3</ele>
        <time>2015-06-28T09:07:10Z</time>
      </trkpt>
      <trkpt lat="46.69888" lon="5.97131">
        <ele>785.1</ele>
        <time>2015-06-28T09:07:13Z</time>
      </trkpt>
      <trkpt lat="46.69898" lon="5.97137">
        <ele>784.8</ele>
        <time>2015-06-28T09:07:16Z</time>
      </trkpt>
      <trkpt lat="46.69906" lon="5.97141">
        <ele>784.5</ele>
        <time>2015-06-28T09:07:19Z</time>
      </trkpt>
      <trkpt lat="46.69916" lon="5.97143">
        <ele>783.9</ele>
        <time>2015-06-28T09:07:23Z</time>
      </trkpt>
      <trkpt lat="46.69927" lon="5.97144">
        <ele>783.3</ele>
        <time>2015-06-28T09:07:27Z</time>
      </trkpt>
      <trkpt lat="46.69936" lon="5.97146">
        <ele>782.9</ele>
        <time>2015-06-28T09:07:30Z</time>
      </trkpt>
      <trkpt lat="46.69947" lon="5.97146">
        <ele>782.6</ele>
        <time>2015-06-28T09:07:33Z</time>
      </trkpt>
      <trkpt lat="46.69959" lon="5.97146">
        <ele>782</ele>
        <time>2015-06-28T09:07:36Z</time>
      </trkpt>
      <trkpt lat="46.6997" lon="5.97145">
        <ele>781.6</ele>
        <time>2015-06-28T09:07:39Z</time>
      </trkpt>
      <trkpt lat="46.69982" lon="5.97146">
        <ele>781.3</ele>
        <time>2015-06-28T09:07:42Z</time>
      </trkpt>
      <trkpt lat="46.69995" lon="5.97145">
        <ele>781</ele>
        <time>2015-06-28T09:07:45Z</time>
      </trkpt>
      <trkpt lat="46.70004" lon="5.97144">
        <ele>780.9</ele>
        <time>2015-06-28T09:07:47Z</time>
      </trkpt>
      <trkpt lat="46.70017" lon="5.97143">
        <ele>780.7</ele>
        <time>2015-06-28T09:07:50Z</time>
      </trkpt>
      <trkpt lat="46.7003" lon="5.9714">
        <ele>780.4</ele>
        <time>2015-06-28T09:07:53Z</time>
      </trkpt>
      <trkpt lat="46.70039" lon="5.97139">
        <ele>780.1</ele>
        <time>2015-06-28T09:07:55Z</time>
      </trkpt>
      <trkpt lat="46.70052" lon="5.97138">
        <ele>779.6</ele>
        <time>2015-06-28T09:07:58Z</time>
      </trkpt>
      <trkpt lat="46.70064" lon="5.97138">
        <ele>779.1</ele>
        <time>2015-06-28T09:08:01Z</time>
      </trkpt>
      <trkpt lat="46.70076" lon="5.97136">
        <ele>778.7</ele>
        <time>2015-06-28T09:08:04Z</time>
      </trkpt>
      <trkpt lat="46.70086" lon="5.97131">
        <ele>778.2</ele>
        <time>2015-06-28T09:08:07Z</time>
      </trkpt>
      <trkpt lat="46.70098" lon="5.97128">
        <ele>777.7</ele>
        <time>2015-06-28T09:08:10Z</time>
      </trkpt>
      <trkpt lat="46.70111" lon="5.97125">
        <ele>777.2</ele>
        <time>2015-06-28T09:08:13Z</time>
      </trkpt>
      <trkpt lat="46.7012" lon="5.97125">
        <ele>776.9</ele>
        <time>2015-06-28T09:08:15Z</time>
      </trkpt>
      <trkpt lat="46.70134" lon="5.97124">
        <ele>776.3</ele>
        <time>2015-06-28T09:08:18Z</time>
      </trkpt>
      <trkpt lat="46.70143" lon="5.97126">
        <ele>776</ele>
        <time>2015-06-28T09:08:20Z</time>
      </trkpt>
      <trkpt lat="46.70152" lon="5.97128">
        <ele>775.8</ele>
        <time>2015-06-28T09:08:22Z</time>
      </trkpt>
      <trkpt lat="46.70161" lon="5.97129">
        <ele>775.5</ele>
        <time>2015-06-28T09:08:24Z</time>
      </trkpt>
      <trkpt lat="46.70174" lon="5.97133">
        <ele>775.1</ele>
        <time>2015-06-28T09:08:27Z</time>
      </trkpt>
      <trkpt lat="46.70187" lon="5.97139">
        <ele>774.8</ele>
        <time>2015-06-28T09:08:30Z</time>
      </trkpt>
      <trkpt lat="46.70196" lon="5.97143">
        <ele>774.6</ele>
        <time>2015-06-28T09:08:32Z</time>
      </trkpt>
      <trkpt lat="46.70208" lon="5.97149">
        <ele>774</ele>
        <time>2015-06-28T09:08:35Z</time>
      </trkpt>
      <trkpt lat="46.70221" lon="5.97154">
        <ele>773.5</ele>
        <time>2015-06-28T09:08:38Z</time>
      </trkpt>
      <trkpt lat="46.7023" lon="5.97158">
        <ele>773.3</ele>
        <time>2015-06-28T09:08:40Z</time>
      </trkpt>
      <trkpt lat="46.70239" lon="5.97162">
        <ele>773.1</ele>
        <time>2015-06-28T09:08:42Z</time>
      </trkpt>
      <trkpt lat="46.70248" lon="5.97168">
        <ele>772.8</ele>
        <time>2015-06-28T09:08:44Z</time>
      </trkpt>
      <trkpt lat="46.70257" lon="5.97173">
        <ele>772.6</ele>
        <time>2015-06-28T09:08:46Z</time>
      </trkpt>
      <trkpt lat="46.70266" lon="5.97178">
        <ele>772.2</ele>
        <time>2015-06-28T09:08:48Z</time>
      </trkpt>
      <trkpt lat="46.70275" lon="5.97182">
        <ele>771.9</ele>
        <time>2015-06-28T09:08:50Z</time>
      </trkpt>
      <trkpt lat="46.70287" lon="5.97187">
        <ele>771.4</ele>
        <time>2015-06-28T09:08:53Z</time>
      </trkpt>
      <trkpt lat="46.70299" lon="5.97194">
        <ele>771</ele>
        <time>2015-06-28T09:08:56Z</time>
      </trkpt>
      <trkpt lat="46.70312" lon="5.97202">
        <ele>770.7</ele>
        <time>2015-06-28T09:08:59Z</time>
      </trkpt>
      <trkpt lat="46.70322" lon="5.97211">
        <ele>770.2</ele>
        <time>2015-06-28T09:09:02Z</time>
      </trkpt>
      <trkpt lat="46.7033" lon="5.9722">
        <ele>769.7</ele>
        <time>2015-06-28T09:09:05Z</time>
      </trkpt>
      <trkpt lat="46.70338" lon="5.97232">
        <ele>769.2</ele>
        <time>2015-06-28T09:09:09Z</time>
      </trkpt>
      <trkpt lat="46.70343" lon="5.97243">
        <ele>768.7</ele>
        <time>2015-06-28T09:09:15Z</time>
      </trkpt>
      <trkpt lat="46.70351" lon="5.97236">
        <ele>767.2</ele>
        <time>2015-06-28T09:09:35Z</time>
      </trkpt>
      <trkpt lat="46.70354" lon="5.9722">
        <ele>767</ele>
        <time>2015-06-28T09:09:38Z</time>
      </trkpt>
      <trkpt lat="46.70356" lon="5.97201">
        <ele>766.5</ele>
        <time>2015-06-28T09:09:41Z</time>
      </trkpt>
      <trkpt lat="46.70351" lon="5.97188">
        <ele>766.1</ele>
        <time>2015-06-28T09:09:43Z</time>
      </trkpt>
      <trkpt lat="46.70345" lon="5.97175">
        <ele>765.6</ele>
        <time>2015-06-28T09:09:45Z</time>
      </trkpt>
      <trkpt lat="46.70341" lon="5.97161">
        <ele>764.9</ele>
        <time>2015-06-28T09:09:47Z</time>
      </trkpt>
      <trkpt lat="46.70341" lon="5.97146">
        <ele>764.2</ele>
        <time>2015-06-28T09:09:49Z</time>
      </trkpt>
      <trkpt lat="46.70345" lon="5.97134">
        <ele>763.4</ele>
        <time>2015-06-28T09:09:51Z</time>
      </trkpt>
      <trkpt lat="46.70353" lon="5.97125">
        <ele>762.4</ele>
        <time>2015-06-28T09:09:53Z</time>
      </trkpt>
      <trkpt lat="46.70364" lon="5.97125">
        <ele>761.4</ele>
        <time>2015-06-28T09:09:55Z</time>
      </trkpt>
      <trkpt lat="46.70373" lon="5.97133">
        <ele>760.6</ele>
        <time>2015-06-28T09:09:57Z</time>
      </trkpt>
      <trkpt lat="46.70381" lon="5.97141">
        <ele>759.7</ele>
        <time>2015-06-28T09:09:59Z</time>
      </trkpt>
      <trkpt lat="46.70389" lon="5.97151">
        <ele>758.4</ele>
        <time>2015-06-28T09:10:02Z</time>
      </trkpt>
      <trkpt lat="46.70398" lon="5.9716">
        <ele>756.7</ele>
        <time>2015-06-28T09:10:06Z</time>
      </trkpt>
      <trkpt lat="46.70393" lon="5.97146">
        <ele>755.2</ele>
        <time>2015-06-28T09:10:10Z</time>
      </trkpt>
      <trkpt lat="46.70391" lon="5.97132">
        <ele>754.6</ele>
        <time>2015-06-28T09:10:12Z</time>
      </trkpt>
      <trkpt lat="46.70394" lon="5.97116">
        <ele>753.5</ele>
        <time>2015-06-28T09:10:15Z</time>
      </trkpt>
      <trkpt lat="46.704" lon="5.97106">
        <ele>752.5</ele>
        <time>2015-06-28T09:10:18Z</time>
      </trkpt>
      <trkpt lat="46.70405" lon="5.97095">
        <ele>751.4</ele>
        <time>2015-06-28T09:10:21Z</time>
      </trkpt>
      <trkpt lat="46.70413" lon="5.97085">
        <ele>750.1</ele>
        <time>2015-06-28T09:10:24Z</time>
      </trkpt>
      <trkpt lat="46.70422" lon="5.97078">
        <ele>748.7</ele>
        <time>2015-06-28T09:10:27Z</time>
      </trkpt>
      <trkpt lat="46.70432" lon="5.97071">
        <ele>747.5</ele>
        <time>2015-06-28T09:10:30Z</time>
      </trkpt>
      <trkpt lat="46.70444" lon="5.97065">
        <ele>746.2</ele>
        <time>2015-06-28T09:10:33Z</time>
      </trkpt>
      <trkpt lat="46.70454" lon="5.97066">
        <ele>745.4</ele>
        <time>2015-06-28T09:10:35Z</time>
      </trkpt>
      <trkpt lat="46.70464" lon="5.97069">
        <ele>744.6</ele>
        <time>2015-06-28T09:10:37Z</time>
      </trkpt>
      <trkpt lat="46.70476" lon="5.97069">
        <ele>743.7</ele>
        <time>2015-06-28T09:10:39Z</time>
      </trkpt>
      <trkpt lat="46.70486" lon="5.97066">
        <ele>742.9</ele>
        <time>2015-06-28T09:10:41Z</time>
      </trkpt>
      <trkpt lat="46.70498" lon="5.97053">
        <ele>741.6</ele>
        <time>2015-06-28T09:10:44Z</time>
      </trkpt>
      <trkpt lat="46.70508" lon="5.97038">
        <ele>740.7</ele>
        <time>2015-06-28T09:10:46Z</time>
      </trkpt>
      <trkpt lat="46.70515" lon="5.97022">
        <ele>739.8</ele>
        <time>2015-06-28T09:10:48Z</time>
      </trkpt>
      <trkpt lat="46.7052" lon="5.97005">
        <ele>738.9</ele>
        <time>2015-06-28T09:10:50Z</time>
      </trkpt>
      <trkpt lat="46.70524" lon="5.96989">
        <ele>737.9</ele>
        <time>2015-06-28T09:10:52Z</time>
      </trkpt>
      <trkpt lat="46.70529" lon="5.96974">
        <ele>736.7</ele>
        <time>2015-06-28T09:10:54Z</time>
      </trkpt>
      <trkpt lat="46.70539" lon="5.96963">
        <ele>735.6</ele>
        <time>2015-06-28T09:10:56Z</time>
      </trkpt>
      <trkpt lat="46.70551" lon="5.96956">
        <ele>734.4</ele>
        <time>2015-06-28T09:10:58Z</time>
      </trkpt>
      <trkpt lat="46.70561" lon="5.96951">
        <ele>733.1</ele>
        <time>2015-06-28T09:11:00Z</time>
      </trkpt>
      <trkpt lat="46.70571" lon="5.96949">
        <ele>731.8</ele>
        <time>2015-06-28T09:11:02Z</time>
      </trkpt>
      <trkpt lat="46.70582" lon="5.96952">
        <ele>730.5</ele>
        <time>2015-06-28T09:11:04Z</time>
      </trkpt>
      <trkpt lat="46.70595" lon="5.96962">
        <ele>729.1</ele>
        <time>2015-06-28T09:11:06Z</time>
      </trkpt>
      <trkpt lat="46.70609" lon="5.96969">
        <ele>727.8</ele>
        <time>2015-06-28T09:11:08Z</time>
      </trkpt>
      <trkpt lat="46.70622" lon="5.96975">
        <ele>726.5</ele>
        <time>2015-06-28T09:11:10Z</time>
      </trkpt>
      <trkpt lat="46.70634" lon="5.9698">
        <ele>725.3</ele>
        <time>2015-06-28T09:11:12Z</time>
      </trkpt>
      <trkpt lat="46.70645" lon="5.96987">
        <ele>724.2</ele>
        <time>2015-06-28T09:11:14Z</time>
      </trkpt>
      <trkpt lat="46.70656" lon="5.96993">
        <ele>723.3</ele>
        <time>2015-06-28T09:11:16Z</time>
      </trkpt>
      <trkpt lat="46.70667" lon="5.96997">
        <ele>722.4</ele>
        <time>2015-06-28T09:11:18Z</time>
      </trkpt>
      <trkpt lat="46.70678" lon="5.97001">
        <ele>721.6</ele>
        <time>2015-06-28T09:11:20Z</time>
      </trkpt>
      <trkpt lat="46.7069" lon="5.97003">
        <ele>720.9</ele>
        <time>2015-06-28T09:11:22Z</time>
      </trkpt>
      <trkpt lat="46.70702" lon="5.97004">
        <ele>720.2</ele>
        <time>2015-06-28T09:11:24Z</time>
      </trkpt>
      <trkpt lat="46.70716" lon="5.97003">
        <ele>719.5</ele>
        <time>2015-06-28T09:11:26Z</time>
      </trkpt>
      <trkpt lat="46.70732" lon="5.97003">
        <ele>718.8</ele>
        <time>2015-06-28T09:11:28Z</time>
      </trkpt>
      <trkpt lat="46.70749" lon="5.97002">
        <ele>718.1</ele>
        <time>2015-06-28T09:11:30Z</time>
      </trkpt>
      <trkpt lat="46.70767" lon="5.97001">
        <ele>717.3</ele>
        <time>2015-06-28T09:11:32Z</time>
      </trkpt>
      <trkpt lat="46.70777" lon="5.97">
        <ele>716.9</ele>
        <time>2015-06-28T09:11:33Z</time>
      </trkpt>
      <trkpt lat="46.70787" lon="5.96999">
        <ele>716.5</ele>
        <time>2015-06-28T09:11:34Z</time>
      </trkpt>
      <trkpt lat="46.70796" lon="5.96999">
        <ele>716.2</ele>
        <time>2015-06-28T09:11:35Z</time>
      </trkpt>
      <trkpt lat="46.70806" lon="5.96998">
        <ele>715.8</ele>
        <time>2015-06-28T09:11:36Z</time>
      </trkpt>
      <trkpt lat="46.70816" lon="5.96998">
        <ele>715.4</ele>
        <time>2015-06-28T09:11:37Z</time>
      </trkpt>
      <trkpt lat="46.70826" lon="5.96997">
        <ele>715</ele>
        <time>2015-06-28T09:11:38Z</time>
      </trkpt>
      <trkpt lat="46.70836" lon="5.96997">
        <ele>714.6</ele>
        <time>2015-06-28T09:11:39Z</time>
      </trkpt>
      <trkpt lat="46.70847" lon="5.96997">
        <ele>714.2</ele>
        <time>2015-06-28T09:11:40Z</time>
      </trkpt>
      <trkpt lat="46.70857" lon="5.96997">
        <ele>713.8</ele>
        <time>2015-06-28T09:11:41Z</time>
      </trkpt>
      <trkpt lat="46.70867" lon="5.96997">
        <ele>713.4</ele>
        <time>2015-06-28T09:11:42Z</time>
      </trkpt>
      <trkpt lat="46.70877" lon="5.96997">
        <ele>712.9</ele>
        <time>2015-06-28T09:11:43Z</time>
      </trkpt>
      <trkpt lat="46.70887" lon="5.96996">
        <ele>712.4</ele>
        <time>2015-06-28T09:11:44Z</time>
      </trkpt>
      <trkpt lat="46.70896" lon="5.96995">
        <ele>711.9</ele>
        <time>2015-06-28T09:11:45Z</time>
      </trkpt>
      <trkpt lat="46.70913" lon="5.96993">
        <ele>711</ele>
        <time>2015-06-28T09:11:47Z</time>
      </trkpt>
      <trkpt lat="46.70929" lon="5.96988">
        <ele>710.1</ele>
        <time>2015-06-28T09:11:49Z</time>
      </trkpt>
      <trkpt lat="46.70944" lon="5.9698">
        <ele>709.1</ele>
        <time>2015-06-28T09:11:51Z</time>
      </trkpt>
      <trkpt lat="46.70959" lon="5.96972">
        <ele>708.1</ele>
        <time>2015-06-28T09:11:53Z</time>
      </trkpt>
      <trkpt lat="46.70974" lon="5.96963">
        <ele>707.2</ele>
        <time>2015-06-28T09:11:55Z</time>
      </trkpt>
      <trkpt lat="46.70989" lon="5.96954">
        <ele>706.2</ele>
        <time>2015-06-28T09:11:57Z</time>
      </trkpt>
      <trkpt lat="46.71005" lon="5.96945">
        <ele>705.1</ele>
        <time>2015-06-28T09:11:59Z</time>
      </trkpt>
      <trkpt lat="46.7102" lon="5.96937">
        <ele>704.1</ele>
        <time>2015-06-28T09:12:01Z</time>
      </trkpt>
      <trkpt lat="46.71034" lon="5.9693">
        <ele>703.3</ele>
        <time>2015-06-28T09:12:03Z</time>
      </trkpt>
      <trkpt lat="46.71049" lon="5.96923">
        <ele>702.3</ele>
        <time>2015-06-28T09:12:05Z</time>
      </trkpt>
      <trkpt lat="46.71063" lon="5.96914">
        <ele>701.3</ele>
        <time>2015-06-28T09:12:07Z</time>
      </trkpt>
      <trkpt lat="46.71077" lon="5.96905">
        <ele>700.4</ele>
        <time>2015-06-28T09:12:09Z</time>
      </trkpt>
      <trkpt lat="46.71092" lon="5.96898">
        <ele>699.4</ele>
        <time>2015-06-28T09:12:11Z</time>
      </trkpt>
      <trkpt lat="46.71107" lon="5.96893">
        <ele>698.5</ele>
        <time>2015-06-28T09:12:13Z</time>
      </trkpt>
      <trkpt lat="46.71123" lon="5.96891">
        <ele>697.6</ele>
        <time>2015-06-28T09:12:15Z</time>
      </trkpt>
      <trkpt lat="46.71138" lon="5.96889">
        <ele>696.8</ele>
        <time>2015-06-28T09:12:17Z</time>
      </trkpt>
      <trkpt lat="46.71153" lon="5.9689">
        <ele>696</ele>
        <time>2015-06-28T09:12:19Z</time>
      </trkpt>
      <trkpt lat="46.71167" lon="5.96889">
        <ele>695.1</ele>
        <time>2015-06-28T09:12:21Z</time>
      </trkpt>
      <trkpt lat="46.71181" lon="5.96888">
        <ele>694.3</ele>
        <time>2015-06-28T09:12:23Z</time>
      </trkpt>
      <trkpt lat="46.71194" lon="5.96889">
        <ele>693.4</ele>
        <time>2015-06-28T09:12:25Z</time>
      </trkpt>
      <trkpt lat="46.71207" lon="5.96888">
        <ele>692.6</ele>
        <time>2015-06-28T09:12:27Z</time>
      </trkpt>
      <trkpt lat="46.71218" lon="5.96888">
        <ele>691.9</ele>
        <time>2015-06-28T09:12:29Z</time>
      </trkpt>
      <trkpt lat="46.7123" lon="5.96887">
        <ele>691.2</ele>
        <time>2015-06-28T09:12:31Z</time>
      </trkpt>
      <trkpt lat="46.71241" lon="5.96886">
        <ele>690.5</ele>
        <time>2015-06-28T09:12:33Z</time>
      </trkpt>
      <trkpt lat="46.71251" lon="5.96885">
        <ele>689.9</ele>
        <time>2015-06-28T09:12:35Z</time>
      </trkpt>
      <trkpt lat="46.71261" lon="5.96885">
        <ele>689.2</ele>
        <time>2015-06-28T09:12:37Z</time>
      </trkpt>
      <trkpt lat="46.71273" lon="5.96884">
        <ele>688.6</ele>
        <time>2015-06-28T09:12:39Z</time>
      </trkpt>
      <trkpt lat="46.71285" lon="5.96884">
        <ele>688</ele>
        <time>2015-06-28T09:12:41Z</time>
      </trkpt>
      <trkpt lat="46.713" lon="5.96882">
        <ele>687.3</ele>
        <time>2015-06-28T09:12:43Z</time>
      </trkpt>
      <trkpt lat="46.71314" lon="5.9688">
        <ele>686.7</ele>
        <time>2015-06-28T09:12:45Z</time>
      </trkpt>
      <trkpt lat="46.71327" lon="5.96878">
        <ele>686.2</ele>
        <time>2015-06-28T09:12:47Z</time>
      </trkpt>
      <trkpt lat="46.71339" lon="5.96876">
        <ele>685.6</ele>
        <time>2015-06-28T09:12:49Z</time>
      </trkpt>
      <trkpt lat="46.71352" lon="5.96874">
        <ele>685.1</ele>
        <time>2015-06-28T09:12:51Z</time>
      </trkpt>
      <trkpt lat="46.71365" lon="5.96872">
        <ele>684.6</ele>
        <time>2015-06-28T09:12:53Z</time>
      </trkpt>
      <trkpt lat="46.7138" lon="5.96871">
        <ele>684.1</ele>
        <time>2015-06-28T09:12:55Z</time>
      </trkpt>
      <trkpt lat="46.71395" lon="5.96874">
        <ele>683.6</ele>
        <time>2015-06-28T09:12:57Z</time>
      </trkpt>
      <trkpt lat="46.71408" lon="5.96879">
        <ele>683</ele>
        <time>2015-06-28T09:12:59Z</time>
      </trkpt>
      <trkpt lat="46.71421" lon="5.96885">
        <ele>682.5</ele>
        <time>2015-06-28T09:13:01Z</time>
      </trkpt>
      <trkpt lat="46.71434" lon="5.96889">
        <ele>681.9</ele>
        <time>2015-06-28T09:13:03Z</time>
      </trkpt>
      <trkpt lat="46.71447" lon="5.96892">
        <ele>681.3</ele>
        <time>2015-06-28T09:13:05Z</time>
      </trkpt>
      <trkpt lat="46.71458" lon="5.96896">
        <ele>680.8</ele>
        <time>2015-06-28T09:13:07Z</time>
      </trkpt>
      <trkpt lat="46.71469" lon="5.96901">
        <ele>680.2</ele>
        <time>2015-06-28T09:13:09Z</time>
      </trkpt>
      <trkpt lat="46.7148" lon="5.96905">
        <ele>679.6</ele>
        <time>2015-06-28T09:13:11Z</time>
      </trkpt>
      <trkpt lat="46.7149" lon="5.96909">
        <ele>678.9</ele>
        <time>2015-06-28T09:13:13Z</time>
      </trkpt>
      <trkpt lat="46.715" lon="5.96914">
        <ele>678.3</ele>
        <time>2015-06-28T09:13:15Z</time>
      </trkpt>
      <trkpt lat="46.7151" lon="5.96918">
        <ele>677.8</ele>
        <time>2015-06-28T09:13:17Z</time>
      </trkpt>
      <trkpt lat="46.71519" lon="5.96924">
        <ele>677.3</ele>
        <time>2015-06-28T09:13:19Z</time>
      </trkpt>
      <trkpt lat="46.71529" lon="5.9693">
        <ele>676.9</ele>
        <time>2015-06-28T09:13:21Z</time>
      </trkpt>
      <trkpt lat="46.71539" lon="5.96935">
        <ele>676.5</ele>
        <time>2015-06-28T09:13:23Z</time>
      </trkpt>
      <trkpt lat="46.71549" lon="5.96942">
        <ele>676.1</ele>
        <time>2015-06-28T09:13:25Z</time>
      </trkpt>
      <trkpt lat="46.71559" lon="5.96944">
        <ele>675.7</ele>
        <time>2015-06-28T09:13:27Z</time>
      </trkpt>
      <trkpt lat="46.71569" lon="5.96947">
        <ele>675.4</ele>
        <time>2015-06-28T09:13:29Z</time>
      </trkpt>
      <trkpt lat="46.71581" lon="5.96949">
        <ele>674.9</ele>
        <time>2015-06-28T09:13:31Z</time>
      </trkpt>
      <trkpt lat="46.71591" lon="5.96951">
        <ele>674.6</ele>
        <time>2015-06-28T09:13:33Z</time>
      </trkpt>
      <trkpt lat="46.716" lon="5.96955">
        <ele>674.2</ele>
        <time>2015-06-28T09:13:35Z</time>
      </trkpt>
      <trkpt lat="46.7161" lon="5.9696">
        <ele>673.9</ele>
        <time>2015-06-28T09:13:37Z</time>
      </trkpt>
      <trkpt lat="46.7162" lon="5.96966">
        <ele>673.7</ele>
        <time>2015-06-28T09:13:39Z</time>
      </trkpt>
      <trkpt lat="46.7163" lon="5.9697">
        <ele>673.3</ele>
        <time>2015-06-28T09:13:41Z</time>
      </trkpt>
      <trkpt lat="46.7164" lon="5.96975">
        <ele>672.9</ele>
        <time>2015-06-28T09:13:43Z</time>
      </trkpt>
      <trkpt lat="46.7165" lon="5.9698">
        <ele>672.6</ele>
        <time>2015-06-28T09:13:45Z</time>
      </trkpt>
      <trkpt lat="46.71659" lon="5.96984">
        <ele>672.4</ele>
        <time>2015-06-28T09:13:47Z</time>
      </trkpt>
      <trkpt lat="46.7167" lon="5.9699">
        <ele>672.1</ele>
        <time>2015-06-28T09:13:49Z</time>
      </trkpt>
      <trkpt lat="46.7168" lon="5.96996">
        <ele>671.9</ele>
        <time>2015-06-28T09:13:51Z</time>
      </trkpt>
      <trkpt lat="46.7169" lon="5.97001">
        <ele>671.8</ele>
        <time>2015-06-28T09:13:53Z</time>
      </trkpt>
      <trkpt lat="46.717" lon="5.97007">
        <ele>671.6</ele>
        <time>2015-06-28T09:13:55Z</time>
      </trkpt>
      <trkpt lat="46.71712" lon="5.97009">
        <ele>671.5</ele>
        <time>2015-06-28T09:13:57Z</time>
      </trkpt>
      <trkpt lat="46.71724" lon="5.9701">
        <ele>671.3</ele>
        <time>2015-06-28T09:13:59Z</time>
      </trkpt>
      <trkpt lat="46.71735" lon="5.97011">
        <ele>671.2</ele>
        <time>2015-06-28T09:14:01Z</time>
      </trkpt>
      <trkpt lat="46.71746" lon="5.9701">
        <ele>671</ele>
        <time>2015-06-28T09:14:03Z</time>
      </trkpt>
      <trkpt lat="46.71757" lon="5.97009">
        <ele>670.8</ele>
        <time>2015-06-28T09:14:05Z</time>
      </trkpt>
      <trkpt lat="46.71768" lon="5.97008">
        <ele>670.6</ele>
        <time>2015-06-28T09:14:07Z</time>
      </trkpt>
      <trkpt lat="46.7178" lon="5.97008">
        <ele>670.5</ele>
        <time>2015-06-28T09:14:09Z</time>
      </trkpt>
      <trkpt lat="46.71791" lon="5.97008">
        <ele>670.4</ele>
        <time>2015-06-28T09:14:11Z</time>
      </trkpt>
      <trkpt lat="46.71802" lon="5.97008">
        <ele>670.2</ele>
        <time>2015-06-28T09:14:13Z</time>
      </trkpt>
      <trkpt lat="46.71814" lon="5.97008">
        <ele>670</ele>
        <time>2015-06-28T09:14:15Z</time>
      </trkpt>
      <trkpt lat="46.71825" lon="5.97009">
        <ele>669.9</ele>
        <time>2015-06-28T09:14:17Z</time>
      </trkpt>
      <trkpt lat="46.71836" lon="5.97012">
        <ele>669.8</ele>
        <time>2015-06-28T09:14:19Z</time>
      </trkpt>
      <trkpt lat="46.71847" lon="5.97018">
        <ele>669.7</ele>
        <time>2015-06-28T09:14:21Z</time>
      </trkpt>
      <trkpt lat="46.71857" lon="5.97027">
        <ele>669.6</ele>
        <time>2015-06-28T09:14:23Z</time>
      </trkpt>
      <trkpt lat="46.71865" lon="5.97038">
        <ele>669.4</ele>
        <time>2015-06-28T09:14:25Z</time>
      </trkpt>
      <trkpt lat="46.71877" lon="5.97046">
        <ele>669.3</ele>
        <time>2015-06-28T09:14:27Z</time>
      </trkpt>
      <trkpt lat="46.71888" lon="5.97054">
        <ele>669.1</ele>
        <time>2015-06-28T09:14:29Z</time>
      </trkpt>
      <trkpt lat="46.719" lon="5.97059">
        <ele>669</ele>
        <time>2015-06-28T09:14:31Z</time>
      </trkpt>
      <trkpt lat="46.71911" lon="5.97065">
        <ele>668.9</ele>
        <time>2015-06-28T09:14:33Z</time>
      </trkpt>
      <trkpt lat="46.71922" lon="5.97071">
        <ele>668.8</ele>
        <time>2015-06-28T09:14:35Z</time>
      </trkpt>
      <trkpt lat="46.71934" lon="5.97076">
        <ele>668.7</ele>
        <time>2015-06-28T09:14:37Z</time>
      </trkpt>
      <trkpt lat="46.71945" lon="5.97079">
        <ele>668.6</ele>
        <time>2015-06-28T09:14:39Z</time>
      </trkpt>
      <trkpt lat="46.71957" lon="5.97082">
        <ele>668.4</ele>
        <time>2015-06-28T09:14:41Z</time>
      </trkpt>
      <trkpt lat="46.71969" lon="5.97085">
        <ele>668.2</ele>
        <time>2015-06-28T09:14:43Z</time>
      </trkpt>
      <trkpt lat="46.7198" lon="5.97088">
        <ele>668</ele>
        <time>2015-06-28T09:14:45Z</time>
      </trkpt>
      <trkpt lat="46.71991" lon="5.97091">
        <ele>667.9</ele>
        <time>2015-06-28T09:14:47Z</time>
      </trkpt>
      <trkpt lat="46.72001" lon="5.97093">
        <ele>667.7</ele>
        <time>2015-06-28T09:14:49Z</time>
      </trkpt>
      <trkpt lat="46.72011" lon="5.97096">
        <ele>667.6</ele>
        <time>2015-06-28T09:14:51Z</time>
      </trkpt>
      <trkpt lat="46.72022" lon="5.97098">
        <ele>667.4</ele>
        <time>2015-06-28T09:14:53Z</time>
      </trkpt>
      <trkpt lat="46.72032" lon="5.97101">
        <ele>667.3</ele>
        <time>2015-06-28T09:14:55Z</time>
      </trkpt>
      <trkpt lat="46.72043" lon="5.97104">
        <ele>667.2</ele>
        <time>2015-06-28T09:14:57Z</time>
      </trkpt>
      <trkpt lat="46.72054" lon="5.97108">
        <ele>667.1</ele>
        <time>2015-06-28T09:14:59Z</time>
      </trkpt>
      <trkpt lat="46.72065" lon="5.97111">
        <ele>667.1</ele>
        <time>2015-06-28T09:15:01Z</time>
      </trkpt>
      <trkpt lat="46.72076" lon="5.97114">
        <ele>667</ele>
        <time>2015-06-28T09:15:03Z</time>
      </trkpt>
      <trkpt lat="46.72086" lon="5.97116">
        <ele>666.9</ele>
        <time>2015-06-28T09:15:05Z</time>
      </trkpt>
      <trkpt lat="46.72097" lon="5.9712">
        <ele>666.8</ele>
        <time>2015-06-28T09:15:07Z</time>
      </trkpt>
      <trkpt lat="46.72108" lon="5.97125">
        <ele>666.8</ele>
        <time>2015-06-28T09:15:09Z</time>
      </trkpt>
      <trkpt lat="46.72119" lon="5.97131">
        <ele>666.7</ele>
        <time>2015-06-28T09:15:11Z</time>
      </trkpt>
      <trkpt lat="46.72129" lon="5.97137">
        <ele>666.6</ele>
        <time>2015-06-28T09:15:13Z</time>
      </trkpt>
      <trkpt lat="46.72139" lon="5.97144">
        <ele>666.5</ele>
        <time>2015-06-28T09:15:15Z</time>
      </trkpt>
      <trkpt lat="46.72149" lon="5.97152">
        <ele>666.4</ele>
        <time>2015-06-28T09:15:17Z</time>
      </trkpt>
      <trkpt lat="46.72158" lon="5.97162">
        <ele>666.3</ele>
        <time>2015-06-28T09:15:19Z</time>
      </trkpt>
      <trkpt lat="46.72165" lon="5.97178">
        <ele>666.2</ele>
        <time>2015-06-28T09:15:21Z</time>
      </trkpt>
      <trkpt lat="46.72172" lon="5.97192">
        <ele>666.2</ele>
        <time>2015-06-28T09:15:23Z</time>
      </trkpt>
      <trkpt lat="46.72177" lon="5.97207">
        <ele>666</ele>
        <time>2015-06-28T09:15:25Z</time>
      </trkpt>
      <trkpt lat="46.72184" lon="5.9722">
        <ele>665.8</ele>
        <time>2015-06-28T09:15:27Z</time>
      </trkpt>
      <trkpt lat="46.7219" lon="5.97235">
        <ele>665.7</ele>
        <time>2015-06-28T09:15:29Z</time>
      </trkpt>
      <trkpt lat="46.72198" lon="5.97249">
        <ele>665.5</ele>
        <time>2015-06-28T09:15:31Z</time>
      </trkpt>
      <trkpt lat="46.72206" lon="5.97263">
        <ele>665.4</ele>
        <time>2015-06-28T09:15:33Z</time>
      </trkpt>
      <trkpt lat="46.72216" lon="5.97275">
        <ele>665.3</ele>
        <time>2015-06-28T09:15:35Z</time>
      </trkpt>
      <trkpt lat="46.72225" lon="5.97286">
        <ele>665.2</ele>
        <time>2015-06-28T09:15:37Z</time>
      </trkpt>
      <trkpt lat="46.72234" lon="5.97296">
        <ele>665.2</ele>
        <time>2015-06-28T09:15:39Z</time>
      </trkpt>
      <trkpt lat="46.72243" lon="5.97306">
        <ele>665.1</ele>
        <time>2015-06-28T09:15:41Z</time>
      </trkpt>
      <trkpt lat="46.72253" lon="5.97316">
        <ele>665</ele>
        <time>2015-06-28T09:15:43Z</time>
      </trkpt>
      <trkpt lat="46.72261" lon="5.97326">
        <ele>665</ele>
        <time>2015-06-28T09:15:45Z</time>
      </trkpt>
      <trkpt lat="46.7227" lon="5.97337">
        <ele>665</ele>
        <time>2015-06-28T09:15:47Z</time>
      </trkpt>
      <trkpt lat="46.72278" lon="5.97348">
        <ele>664.9</ele>
        <time>2015-06-28T09:15:49Z</time>
      </trkpt>
      <trkpt lat="46.72285" lon="5.97361">
        <ele>664.9</ele>
        <time>2015-06-28T09:15:51Z</time>
      </trkpt>
      <trkpt lat="46.72292" lon="5.97373">
        <ele>664.9</ele>
        <time>2015-06-28T09:15:53Z</time>
      </trkpt>
      <trkpt lat="46.723" lon="5.97385">
        <ele>664.9</ele>
        <time>2015-06-28T09:15:55Z</time>
      </trkpt>
      <trkpt lat="46.72308" lon="5.97397">
        <ele>664.9</ele>
        <time>2015-06-28T09:15:57Z</time>
      </trkpt>
      <trkpt lat="46.72316" lon="5.97408">
        <ele>664.9</ele>
        <time>2015-06-28T09:15:59Z</time>
      </trkpt>
      <trkpt lat="46.72325" lon="5.97418">
        <ele>664.9</ele>
        <time>2015-06-28T09:16:01Z</time>
      </trkpt>
      <trkpt lat="46.72334" lon="5.97426">
        <ele>664.9</ele>
        <time>2015-06-28T09:16:03Z</time>
      </trkpt>
      <trkpt lat="46.72343" lon="5.97435">
        <ele>664.9</ele>
        <time>2015-06-28T09:16:05Z</time>
      </trkpt>
      <trkpt lat="46.72352" lon="5.97443">
        <ele>664.9</ele>
        <time>2015-06-28T09:16:07Z</time>
      </trkpt>
      <trkpt lat="46.72361" lon="5.97451">
        <ele>664.9</ele>
        <time>2015-06-28T09:16:09Z</time>
      </trkpt>
      <trkpt lat="46.72371" lon="5.97458">
        <ele>664.9</ele>
        <time>2015-06-28T09:16:11Z</time>
      </trkpt>
      <trkpt lat="46.72381" lon="5.97464">
        <ele>664.9</ele>
        <time>2015-06-28T09:16:13Z</time>
      </trkpt>
      <trkpt lat="46.72391" lon="5.97469">
        <ele>664.9</ele>
        <time>2015-06-28T09:16:15Z</time>
      </trkpt>
      <trkpt lat="46.72401" lon="5.97475">
        <ele>664.9</ele>
        <time>2015-06-28T09:16:17Z</time>
      </trkpt>
      <trkpt lat="46.72412" lon="5.97482">
        <ele>664.9</ele>
        <time>2015-06-28T09:16:19Z</time>
      </trkpt>
      <trkpt lat="46.72421" lon="5.97491">
        <ele>664.9</ele>
        <time>2015-06-28T09:16:21Z</time>
      </trkpt>
      <trkpt lat="46.72428" lon="5.97501">
        <ele>664.9</ele>
        <time>2015-06-28T09:16:23Z</time>
      </trkpt>
      <trkpt lat="46.72435" lon="5.97512">
        <ele>664.9</ele>
        <time>2015-06-28T09:16:25Z</time>
      </trkpt>
      <trkpt lat="46.72442" lon="5.97523">
        <ele>664.9</ele>
        <time>2015-06-28T09:16:27Z</time>
      </trkpt>
      <trkpt lat="46.72449" lon="5.97534">
        <ele>665</ele>
        <time>2015-06-28T09:16:29Z</time>
      </trkpt>
      <trkpt lat="46.72457" lon="5.97544">
        <ele>665</ele>
        <time>2015-06-28T09:16:31Z</time>
      </trkpt>
      <trkpt lat="46.72465" lon="5.97554">
        <ele>665</ele>
        <time>2015-06-28T09:16:33Z</time>
      </trkpt>
      <trkpt lat="46.72474" lon="5.97564">
        <ele>665.1</ele>
        <time>2015-06-28T09:16:35Z</time>
      </trkpt>
      <trkpt lat="46.72483" lon="5.97574">
        <ele>665.2</ele>
        <time>2015-06-28T09:16:37Z</time>
      </trkpt>
      <trkpt lat="46.72491" lon="5.97583">
        <ele>665.2</ele>
        <time>2015-06-28T09:16:39Z</time>
      </trkpt>
      <trkpt lat="46.72499" lon="5.97593">
        <ele>665.3</ele>
        <time>2015-06-28T09:16:41Z</time>
      </trkpt>
      <trkpt lat="46.72506" lon="5.97601">
        <ele>665.3</ele>
        <time>2015-06-28T09:16:43Z</time>
      </trkpt>
      <trkpt lat="46.72514" lon="5.9761">
        <ele>665.4</ele>
        <time>2015-06-28T09:16:45Z</time>
      </trkpt>
      <trkpt lat="46.72522" lon="5.97618">
        <ele>665.4</ele>
        <time>2015-06-28T09:16:47Z</time>
      </trkpt>
      <trkpt lat="46.7253" lon="5.97626">
        <ele>665.5</ele>
        <time>2015-06-28T09:16:49Z</time>
      </trkpt>
      <trkpt lat="46.72538" lon="5.97634">
        <ele>665.6</ele>
        <time>2015-06-28T09:16:51Z</time>
      </trkpt>
      <trkpt lat="46.72545" lon="5.97642">
        <ele>665.6</ele>
        <time>2015-06-28T09:16:53Z</time>
      </trkpt>
      <trkpt lat="46.72553" lon="5.97651">
        <ele>665.7</ele>
        <time>2015-06-28T09:16:55Z</time>
      </trkpt>
      <trkpt lat="46.7256" lon="5.9766">
        <ele>665.7</ele>
        <time>2015-06-28T09:16:57Z</time>
      </trkpt>
      <trkpt lat="46.72568" lon="5.97669">
        <ele>665.8</ele>
        <time>2015-06-28T09:16:59Z</time>
      </trkpt>
      <trkpt lat="46.72576" lon="5.97677">
        <ele>665.8</ele>
        <time>2015-06-28T09:17:01Z</time>
      </trkpt>
      <trkpt lat="46.72584" lon="5.97686">
        <ele>665.9</ele>
        <time>2015-06-28T09:17:03Z</time>
      </trkpt>
      <trkpt lat="46.72592" lon="5.97695">
        <ele>665.9</ele>
        <time>2015-06-28T09:17:05Z</time>
      </trkpt>
      <trkpt lat="46.72599" lon="5.97703">
        <ele>666</ele>
        <time>2015-06-28T09:17:07Z</time>
      </trkpt>
      <trkpt lat="46.72607" lon="5.97711">
        <ele>666</ele>
        <time>2015-06-28T09:17:09Z</time>
      </trkpt>
      <trkpt lat="46.72615" lon="5.97719">
        <ele>666.1</ele>
        <time>2015-06-28T09:17:11Z</time>
      </trkpt>
      <trkpt lat="46.72623" lon="5.97728">
        <ele>666.2</ele>
        <time>2015-06-28T09:17:13Z</time>
      </trkpt>
      <trkpt lat="46.7263" lon="5.97736">
        <ele>666.2</ele>
        <time>2015-06-28T09:17:15Z</time>
      </trkpt>
      <trkpt lat="46.72638" lon="5.97745">
        <ele>666.3</ele>
        <time>2015-06-28T09:17:17Z</time>
      </trkpt>
      <trkpt lat="46.72646" lon="5.97753">
        <ele>666.4</ele>
        <time>2015-06-28T09:17:19Z</time>
      </trkpt>
      <trkpt lat="46.72654" lon="5.97761">
        <ele>666.5</ele>
        <time>2015-06-28T09:17:21Z</time>
      </trkpt>
      <trkpt lat="46.72663" lon="5.97768">
        <ele>666.5</ele>
        <time>2015-06-28T09:17:23Z</time>
      </trkpt>
      <trkpt lat="46.72672" lon="5.97772">
        <ele>666.6</ele>
        <time>2015-06-28T09:17:25Z</time>
      </trkpt>
      <trkpt lat="46.72682" lon="5.97773">
        <ele>666.8</ele>
        <time>2015-06-28T09:17:27Z</time>
      </trkpt>
      <trkpt lat="46.72691" lon="5.97775">
        <ele>666.8</ele>
        <time>2015-06-28T09:17:29Z</time>
      </trkpt>
      <trkpt lat="46.72701" lon="5.97778">
        <ele>666.9</ele>
        <time>2015-06-28T09:17:31Z</time>
      </trkpt>
      <trkpt lat="46.7271" lon="5.97781">
        <ele>667.1</ele>
        <time>2015-06-28T09:17:33Z</time>
      </trkpt>
      <trkpt lat="46.72719" lon="5.97787">
        <ele>667.2</ele>
        <time>2015-06-28T09:17:35Z</time>
      </trkpt>
      <trkpt lat="46.72727" lon="5.97794">
        <ele>667.3</ele>
        <time>2015-06-28T09:17:37Z</time>
      </trkpt>
      <trkpt lat="46.72735" lon="5.97803">
        <ele>667.4</ele>
        <time>2015-06-28T09:17:39Z</time>
      </trkpt>
      <trkpt lat="46.72742" lon="5.97812">
        <ele>667.5</ele>
        <time>2015-06-28T09:17:41Z</time>
      </trkpt>
      <trkpt lat="46.72748" lon="5.97822">
        <ele>667.6</ele>
        <time>2015-06-28T09:17:43Z</time>
      </trkpt>
      <trkpt lat="46.72754" lon="5.97833">
        <ele>667.7</ele>
        <time>2015-06-28T09:17:45Z</time>
      </trkpt>
      <trkpt lat="46.72759" lon="5.97845">
        <ele>667.8</ele>
        <time>2015-06-28T09:17:47Z</time>
      </trkpt>
      <trkpt lat="46.72763" lon="5.97857">
        <ele>667.9</ele>
        <time>2015-06-28T09:17:49Z</time>
      </trkpt>
      <trkpt lat="46.72767" lon="5.97869">
        <ele>668</ele>
        <time>2015-06-28T09:17:51Z</time>
      </trkpt>
      <trkpt lat="46.72772" lon="5.97881">
        <ele>668</ele>
        <time>2015-06-28T09:17:53Z</time>
      </trkpt>
      <trkpt lat="46.72778" lon="5.97891">
        <ele>668.1</ele>
        <time>2015-06-28T09:17:55Z</time>
      </trkpt>
      <trkpt lat="46.72786" lon="5.97901">
        <ele>668.2</ele>
        <time>2015-06-28T09:17:57Z</time>
      </trkpt>
      <trkpt lat="46.72793" lon="5.9791">
        <ele>668.3</ele>
        <time>2015-06-28T09:17:59Z</time>
      </trkpt>
      <trkpt lat="46.72802" lon="5.97917">
        <ele>668.3</ele>
        <time>2015-06-28T09:18:01Z</time>
      </trkpt>
      <trkpt lat="46.7281" lon="5.97924">
        <ele>668.4</ele>
        <time>2015-06-28T09:18:03Z</time>
      </trkpt>
      <trkpt lat="46.72818" lon="5.97931">
        <ele>668.5</ele>
        <time>2015-06-28T09:18:05Z</time>
      </trkpt>
      <trkpt lat="46.72826" lon="5.97938">
        <ele>668.6</ele>
        <time>2015-06-28T09:18:07Z</time>
      </trkpt>
      <trkpt lat="46.72834" lon="5.97946">
        <ele>668.7</ele>
        <time>2015-06-28T09:18:09Z</time>
      </trkpt>
      <trkpt lat="46.72843" lon="5.97954">
        <ele>668.8</ele>
        <time>2015-06-28T09:18:11Z</time>
      </trkpt>
      <trkpt lat="46.72851" lon="5.97962">
        <ele>668.9</ele>
        <time>2015-06-28T09:18:13Z</time>
      </trkpt>
      <trkpt lat="46.72859" lon="5.9797">
        <ele>669</ele>
        <time>2015-06-28T09:18:15Z</time>
      </trkpt>
      <trkpt lat="46.72867" lon="5.97978">
        <ele>669.1</ele>
        <time>2015-06-28T09:18:17Z</time>
      </trkpt>
      <trkpt lat="46.72875" lon="5.97986">
        <ele>669.2</ele>
        <time>2015-06-28T09:18:19Z</time>
      </trkpt>
      <trkpt lat="46.72882" lon="5.97995">
        <ele>669.3</ele>
        <time>2015-06-28T09:18:21Z</time>
      </trkpt>
      <trkpt lat="46.72889" lon="5.98005">
        <ele>669.4</ele>
        <time>2015-06-28T09:18:23Z</time>
      </trkpt>
      <trkpt lat="46.72897" lon="5.98014">
        <ele>669.4</ele>
        <time>2015-06-28T09:18:25Z</time>
      </trkpt>
      <trkpt lat="46.72904" lon="5.98023">
        <ele>669.5</ele>
        <time>2015-06-28T09:18:27Z</time>
      </trkpt>
      <trkpt lat="46.72913" lon="5.98031">
        <ele>669.5</ele>
        <time>2015-06-28T09:18:29Z</time>
      </trkpt>
      <trkpt lat="46.72922" lon="5.98037">
        <ele>669.6</ele>
        <time>2015-06-28T09:18:31Z</time>
      </trkpt>
      <trkpt lat="46.72932" lon="5.98043">
        <ele>669.7</ele>
        <time>2015-06-28T09:18:33Z</time>
      </trkpt>
      <trkpt lat="46.72941" lon="5.98048">
        <ele>669.7</ele>
        <time>2015-06-28T09:18:35Z</time>
      </trkpt>
      <trkpt lat="46.7295" lon="5.98054">
        <ele>669.7</ele>
        <time>2015-06-28T09:18:37Z</time>
      </trkpt>
      <trkpt lat="46.72958" lon="5.9806">
        <ele>669.8</ele>
        <time>2015-06-28T09:18:39Z</time>
      </trkpt>
      <trkpt lat="46.72968" lon="5.98068">
        <ele>669.8</ele>
        <time>2015-06-28T09:18:41Z</time>
      </trkpt>
      <trkpt lat="46.72977" lon="5.98075">
        <ele>669.9</ele>
        <time>2015-06-28T09:18:43Z</time>
      </trkpt>
      <trkpt lat="46.72986" lon="5.98081">
        <ele>669.9</ele>
        <time>2015-06-28T09:18:45Z</time>
      </trkpt>
      <trkpt lat="46.72996" lon="5.98088">
        <ele>669.9</ele>
        <time>2015-06-28T09:18:47Z</time>
      </trkpt>
      <trkpt lat="46.73005" lon="5.98094">
        <ele>670</ele>
        <time>2015-06-28T09:18:49Z</time>
      </trkpt>
      <trkpt lat="46.73016" lon="5.98099">
        <ele>670</ele>
        <time>2015-06-28T09:18:51Z</time>
      </trkpt>
      <trkpt lat="46.73026" lon="5.98105">
        <ele>670</ele>
        <time>2015-06-28T09:18:53Z</time>
      </trkpt>
      <trkpt lat="46.73036" lon="5.98111">
        <ele>670</ele>
        <time>2015-06-28T09:18:55Z</time>
      </trkpt>
      <trkpt lat="46.73047" lon="5.98117">
        <ele>670</ele>
        <time>2015-06-28T09:18:57Z</time>
      </trkpt>
      <trkpt lat="46.73057" lon="5.98124">
        <ele>670</ele>
        <time>2015-06-28T09:18:59Z</time>
      </trkpt>
      <trkpt lat="46.73068" lon="5.98131">
        <ele>670</ele>
        <time>2015-06-28T09:19:01Z</time>
      </trkpt>
      <trkpt lat="46.73078" lon="5.98139">
        <ele>670</ele>
        <time>2015-06-28T09:19:03Z</time>
      </trkpt>
      <trkpt lat="46.73088" lon="5.98147">
        <ele>669.9</ele>
        <time>2015-06-28T09:19:05Z</time>
      </trkpt>
      <trkpt lat="46.73098" lon="5.98155">
        <ele>669.9</ele>
        <time>2015-06-28T09:19:07Z</time>
      </trkpt>
      <trkpt lat="46.73106" lon="5.98165">
        <ele>669.8</ele>
        <time>2015-06-28T09:19:09Z</time>
      </trkpt>
      <trkpt lat="46.73114" lon="5.98176">
        <ele>669.7</ele>
        <time>2015-06-28T09:19:11Z</time>
      </trkpt>
      <trkpt lat="46.7312" lon="5.98188">
        <ele>669.7</ele>
        <time>2015-06-28T09:19:13Z</time>
      </trkpt>
      <trkpt lat="46.73127" lon="5.98199">
        <ele>669.6</ele>
        <time>2015-06-28T09:19:15Z</time>
      </trkpt>
      <trkpt lat="46.73134" lon="5.9821">
        <ele>669.6</ele>
        <time>2015-06-28T09:19:17Z</time>
      </trkpt>
      <trkpt lat="46.73141" lon="5.98221">
        <ele>669.6</ele>
        <time>2015-06-28T09:19:19Z</time>
      </trkpt>
      <trkpt lat="46.73147" lon="5.98232">
        <ele>669.5</ele>
        <time>2015-06-28T09:19:21Z</time>
      </trkpt>
      <trkpt lat="46.73154" lon="5.98244">
        <ele>669.5</ele>
        <time>2015-06-28T09:19:23Z</time>
      </trkpt>
      <trkpt lat="46.73161" lon="5.98254">
        <ele>669.5</ele>
        <time>2015-06-28T09:19:25Z</time>
      </trkpt>
      <trkpt lat="46.73168" lon="5.98263">
        <ele>669.5</ele>
        <time>2015-06-28T09:19:27Z</time>
      </trkpt>
      <trkpt lat="46.73178" lon="5.98275">
        <ele>669.4</ele>
        <time>2015-06-28T09:19:30Z</time>
      </trkpt>
      <trkpt lat="46.73187" lon="5.98287">
        <ele>669.3</ele>
        <time>2015-06-28T09:19:33Z</time>
      </trkpt>
      <trkpt lat="46.73194" lon="5.98299">
        <ele>669.1</ele>
        <time>2015-06-28T09:19:36Z</time>
      </trkpt>
      <trkpt lat="46.732" lon="5.9831">
        <ele>668.9</ele>
        <time>2015-06-28T09:19:41Z</time>
      </trkpt>
      <trkpt lat="46.73213" lon="5.98302">
        <ele>666</ele>
        <time>2015-06-28T09:25:04Z</time>
      </trkpt>
      <trkpt lat="46.73204" lon="5.98301">
        <ele>666.9</ele>
        <time>2015-06-28T09:25:56Z</time>
      </trkpt>
      <trkpt lat="46.73212" lon="5.98308">
        <ele>666.6</ele>
        <time>2015-06-28T09:26:45Z</time>
      </trkpt>
      <trkpt lat="46.73223" lon="5.98311">
        <ele>666.7</ele>
        <time>2015-06-28T09:26:49Z</time>
      </trkpt>
      <trkpt lat="46.73232" lon="5.9831">
        <ele>666.8</ele>
        <time>2015-06-28T09:26:53Z</time>
      </trkpt>
      <trkpt lat="46.73241" lon="5.98299">
        <ele>666.9</ele>
        <time>2015-06-28T09:26:57Z</time>
      </trkpt>
      <trkpt lat="46.73247" lon="5.98287">
        <ele>666.9</ele>
        <time>2015-06-28T09:27:00Z</time>
      </trkpt>
      <trkpt lat="46.73253" lon="5.98275">
        <ele>667</ele>
        <time>2015-06-28T09:27:03Z</time>
      </trkpt>
      <trkpt lat="46.7326" lon="5.98261">
        <ele>667</ele>
        <time>2015-06-28T09:27:06Z</time>
      </trkpt>
      <trkpt lat="46.73269" lon="5.98248">
        <ele>667.1</ele>
        <time>2015-06-28T09:27:09Z</time>
      </trkpt>
      <trkpt lat="46.73278" lon="5.98235">
        <ele>667.1</ele>
        <time>2015-06-28T09:27:12Z</time>
      </trkpt>
      <trkpt lat="46.73284" lon="5.98224">
        <ele>667.1</ele>
        <time>2015-06-28T09:27:14Z</time>
      </trkpt>
      <trkpt lat="46.73292" lon="5.98208">
        <ele>667.1</ele>
        <time>2015-06-28T09:27:17Z</time>
      </trkpt>
      <trkpt lat="46.733" lon="5.98194">
        <ele>667.1</ele>
        <time>2015-06-28T09:27:20Z</time>
      </trkpt>
      <trkpt lat="46.73307" lon="5.98179">
        <ele>667.1</ele>
        <time>2015-06-28T09:27:23Z</time>
      </trkpt>
      <trkpt lat="46.73314" lon="5.98162">
        <ele>667.2</ele>
        <time>2015-06-28T09:27:26Z</time>
      </trkpt>
      <trkpt lat="46.73319" lon="5.98151">
        <ele>667.2</ele>
        <time>2015-06-28T09:27:28Z</time>
      </trkpt>
      <trkpt lat="46.73324" lon="5.98134">
        <ele>667.2</ele>
        <time>2015-06-28T09:27:31Z</time>
      </trkpt>
      <trkpt lat="46.7333" lon="5.98118">
        <ele>667.3</ele>
        <time>2015-06-28T09:27:34Z</time>
      </trkpt>
      <trkpt lat="46.73335" lon="5.98103">
        <ele>667.3</ele>
        <time>2015-06-28T09:27:37Z</time>
      </trkpt>
      <trkpt lat="46.7334" lon="5.98087">
        <ele>667.3</ele>
        <time>2015-06-28T09:27:40Z</time>
      </trkpt>
      <trkpt lat="46.73342" lon="5.9807">
        <ele>667.4</ele>
        <time>2015-06-28T09:27:43Z</time>
      </trkpt>
      <trkpt lat="46.73348" lon="5.9805">
        <ele>667.4</ele>
        <time>2015-06-28T09:27:46Z</time>
      </trkpt>
      <trkpt lat="46.73353" lon="5.98039">
        <ele>667.5</ele>
        <time>2015-06-28T09:27:48Z</time>
      </trkpt>
      <trkpt lat="46.73358" lon="5.98024">
        <ele>667.5</ele>
        <time>2015-06-28T09:27:51Z</time>
      </trkpt>
      <trkpt lat="46.73363" lon="5.98009">
        <ele>667.7</ele>
        <time>2015-06-28T09:27:54Z</time>
      </trkpt>
      <trkpt lat="46.73367" lon="5.97995">
        <ele>667.9</ele>
        <time>2015-06-28T09:27:57Z</time>
      </trkpt>
      <trkpt lat="46.73372" lon="5.97979">
        <ele>668.1</ele>
        <time>2015-06-28T09:28:00Z</time>
      </trkpt>
      <trkpt lat="46.73378" lon="5.97962">
        <ele>668.4</ele>
        <time>2015-06-28T09:28:03Z</time>
      </trkpt>
      <trkpt lat="46.73382" lon="5.97949">
        <ele>668.5</ele>
        <time>2015-06-28T09:28:05Z</time>
      </trkpt>
      <trkpt lat="46.73388" lon="5.97932">
        <ele>668.7</ele>
        <time>2015-06-28T09:28:08Z</time>
      </trkpt>
      <trkpt lat="46.73393" lon="5.97916">
        <ele>668.9</ele>
        <time>2015-06-28T09:28:11Z</time>
      </trkpt>
      <trkpt lat="46.73397" lon="5.97902">
        <ele>669.1</ele>
        <time>2015-06-28T09:28:14Z</time>
      </trkpt>
      <trkpt lat="46.73402" lon="5.97885">
        <ele>669.2</ele>
        <time>2015-06-28T09:28:17Z</time>
      </trkpt>
      <trkpt lat="46.73403" lon="5.97866">
        <ele>669.3</ele>
        <time>2015-06-28T09:28:20Z</time>
      </trkpt>
      <trkpt lat="46.73404" lon="5.97851">
        <ele>669.4</ele>
        <time>2015-06-28T09:28:22Z</time>
      </trkpt>
      <trkpt lat="46.73405" lon="5.97835">
        <ele>669.4</ele>
        <time>2015-06-28T09:28:24Z</time>
      </trkpt>
      <trkpt lat="46.73404" lon="5.9782">
        <ele>669.5</ele>
        <time>2015-06-28T09:28:26Z</time>
      </trkpt>
      <trkpt lat="46.73403" lon="5.97804">
        <ele>669.6</ele>
        <time>2015-06-28T09:28:28Z</time>
      </trkpt>
      <trkpt lat="46.73401" lon="5.97788">
        <ele>669.6</ele>
        <time>2015-06-28T09:28:30Z</time>
      </trkpt>
      <trkpt lat="46.73397" lon="5.97773">
        <ele>669.7</ele>
        <time>2015-06-28T09:28:32Z</time>
      </trkpt>
      <trkpt lat="46.73392" lon="5.97757">
        <ele>669.7</ele>
        <time>2015-06-28T09:28:34Z</time>
      </trkpt>
      <trkpt lat="46.73385" lon="5.97741">
        <ele>669.7</ele>
        <time>2015-06-28T09:28:36Z</time>
      </trkpt>
      <trkpt lat="46.73377" lon="5.97727">
        <ele>669.8</ele>
        <time>2015-06-28T09:28:38Z</time>
      </trkpt>
      <trkpt lat="46.73368" lon="5.97714">
        <ele>669.8</ele>
        <time>2015-06-28T09:28:40Z</time>
      </trkpt>
      <trkpt lat="46.73359" lon="5.97701">
        <ele>669.8</ele>
        <time>2015-06-28T09:28:42Z</time>
      </trkpt>
      <trkpt lat="46.73352" lon="5.97687">
        <ele>669.8</ele>
        <time>2015-06-28T09:28:44Z</time>
      </trkpt>
      <trkpt lat="46.73345" lon="5.97673">
        <ele>669.8</ele>
        <time>2015-06-28T09:28:46Z</time>
      </trkpt>
      <trkpt lat="46.73337" lon="5.97658">
        <ele>669.7</ele>
        <time>2015-06-28T09:28:48Z</time>
      </trkpt>
      <trkpt lat="46.73331" lon="5.9764">
        <ele>669.5</ele>
        <time>2015-06-28T09:28:50Z</time>
      </trkpt>
      <trkpt lat="46.73327" lon="5.97622">
        <ele>669.4</ele>
        <time>2015-06-28T09:28:52Z</time>
      </trkpt>
      <trkpt lat="46.73324" lon="5.97604">
        <ele>669.3</ele>
        <time>2015-06-28T09:28:54Z</time>
      </trkpt>
      <trkpt lat="46.73322" lon="5.97585">
        <ele>669.1</ele>
        <time>2015-06-28T09:28:56Z</time>
      </trkpt>
      <trkpt lat="46.73321" lon="5.97565">
        <ele>669</ele>
        <time>2015-06-28T09:28:58Z</time>
      </trkpt>
      <trkpt lat="46.73319" lon="5.97544">
        <ele>668.7</ele>
        <time>2015-06-28T09:29:00Z</time>
      </trkpt>
      <trkpt lat="46.73317" lon="5.97525">
        <ele>668.4</ele>
        <time>2015-06-28T09:29:02Z</time>
      </trkpt>
      <trkpt lat="46.73315" lon="5.97505">
        <ele>668.2</ele>
        <time>2015-06-28T09:29:04Z</time>
      </trkpt>
      <trkpt lat="46.73313" lon="5.97485">
        <ele>667.9</ele>
        <time>2015-06-28T09:29:06Z</time>
      </trkpt>
      <trkpt lat="46.73311" lon="5.97466">
        <ele>667.6</ele>
        <time>2015-06-28T09:29:08Z</time>
      </trkpt>
      <trkpt lat="46.73308" lon="5.97446">
        <ele>667.2</ele>
        <time>2015-06-28T09:29:10Z</time>
      </trkpt>
      <trkpt lat="46.73307" lon="5.97426">
        <ele>666.9</ele>
        <time>2015-06-28T09:29:12Z</time>
      </trkpt>
      <trkpt lat="46.73305" lon="5.97405">
        <ele>666.6</ele>
        <time>2015-06-28T09:29:14Z</time>
      </trkpt>
      <trkpt lat="46.73303" lon="5.97385">
        <ele>666.3</ele>
        <time>2015-06-28T09:29:16Z</time>
      </trkpt>
      <trkpt lat="46.73303" lon="5.97365">
        <ele>665.9</ele>
        <time>2015-06-28T09:29:18Z</time>
      </trkpt>
      <trkpt lat="46.73305" lon="5.97346">
        <ele>665.6</ele>
        <time>2015-06-28T09:29:20Z</time>
      </trkpt>
      <trkpt lat="46.73307" lon="5.97327">
        <ele>665.4</ele>
        <time>2015-06-28T09:29:22Z</time>
      </trkpt>
      <trkpt lat="46.7331" lon="5.97309">
        <ele>665.1</ele>
        <time>2015-06-28T09:29:24Z</time>
      </trkpt>
      <trkpt lat="46.73312" lon="5.97293">
        <ele>664.9</ele>
        <time>2015-06-28T09:29:26Z</time>
      </trkpt>
      <trkpt lat="46.73315" lon="5.97277">
        <ele>664.6</ele>
        <time>2015-06-28T09:29:28Z</time>
      </trkpt>
      <trkpt lat="46.73318" lon="5.97261">
        <ele>664.3</ele>
        <time>2015-06-28T09:29:30Z</time>
      </trkpt>
      <trkpt lat="46.7332" lon="5.97246">
        <ele>664</ele>
        <time>2015-06-28T09:29:32Z</time>
      </trkpt>
      <trkpt lat="46.73322" lon="5.97227">
        <ele>663.6</ele>
        <time>2015-06-28T09:29:35Z</time>
      </trkpt>
      <trkpt lat="46.73325" lon="5.97213">
        <ele>663.4</ele>
        <time>2015-06-28T09:29:37Z</time>
      </trkpt>
      <trkpt lat="46.73327" lon="5.97198">
        <ele>663.2</ele>
        <time>2015-06-28T09:29:39Z</time>
      </trkpt>
      <trkpt lat="46.73328" lon="5.97183">
        <ele>663</ele>
        <time>2015-06-28T09:29:41Z</time>
      </trkpt>
      <trkpt lat="46.7333" lon="5.97169">
        <ele>662.8</ele>
        <time>2015-06-28T09:29:43Z</time>
      </trkpt>
      <trkpt lat="46.7333" lon="5.97155">
        <ele>662.7</ele>
        <time>2015-06-28T09:29:45Z</time>
      </trkpt>
      <trkpt lat="46.73331" lon="5.97139">
        <ele>662.6</ele>
        <time>2015-06-28T09:29:47Z</time>
      </trkpt>
      <trkpt lat="46.73335" lon="5.97124">
        <ele>662.5</ele>
        <time>2015-06-28T09:29:50Z</time>
      </trkpt>
      <trkpt lat="46.73346" lon="5.97117">
        <ele>662.5</ele>
        <time>2015-06-28T09:29:54Z</time>
      </trkpt>
      <trkpt lat="46.73355" lon="5.97107">
        <ele>662.8</ele>
        <time>2015-06-28T09:29:58Z</time>
      </trkpt>
      <trkpt lat="46.73361" lon="5.97095">
        <ele>663</ele>
        <time>2015-06-28T09:30:02Z</time>
      </trkpt>
      <trkpt lat="46.73359" lon="5.97078">
        <ele>663.2</ele>
        <time>2015-06-28T09:30:06Z</time>
      </trkpt>
      <trkpt lat="46.73357" lon="5.97061">
        <ele>663.3</ele>
        <time>2015-06-28T09:30:09Z</time>
      </trkpt>
      <trkpt lat="46.73353" lon="5.97042">
        <ele>663.4</ele>
        <time>2015-06-28T09:30:12Z</time>
      </trkpt>
      <trkpt lat="46.7335" lon="5.97029">
        <ele>663.5</ele>
        <time>2015-06-28T09:30:14Z</time>
      </trkpt>
      <trkpt lat="46.73347" lon="5.97016">
        <ele>663.6</ele>
        <time>2015-06-28T09:30:16Z</time>
      </trkpt>
      <trkpt lat="46.73344" lon="5.97">
        <ele>663.8</ele>
        <time>2015-06-28T09:30:18Z</time>
      </trkpt>
      <trkpt lat="46.73343" lon="5.96984">
        <ele>663.9</ele>
        <time>2015-06-28T09:30:20Z</time>
      </trkpt>
      <trkpt lat="46.73341" lon="5.96967">
        <ele>663.8</ele>
        <time>2015-06-28T09:30:22Z</time>
      </trkpt>
      <trkpt lat="46.73338" lon="5.96954">
        <ele>663.8</ele>
        <time>2015-06-28T09:30:24Z</time>
      </trkpt>
      <trkpt lat="46.73336" lon="5.96939">
        <ele>663.8</ele>
        <time>2015-06-28T09:30:26Z</time>
      </trkpt>
      <trkpt lat="46.73334" lon="5.96925">
        <ele>663.8</ele>
        <time>2015-06-28T09:30:28Z</time>
      </trkpt>
      <trkpt lat="46.73332" lon="5.96911">
        <ele>663.8</ele>
        <time>2015-06-28T09:30:30Z</time>
      </trkpt>
      <trkpt lat="46.73329" lon="5.96898">
        <ele>663.8</ele>
        <time>2015-06-28T09:30:32Z</time>
      </trkpt>
      <trkpt lat="46.73327" lon="5.96884">
        <ele>663.9</ele>
        <time>2015-06-28T09:30:34Z</time>
      </trkpt>
      <trkpt lat="46.73324" lon="5.96866">
        <ele>663.9</ele>
        <time>2015-06-28T09:30:37Z</time>
      </trkpt>
      <trkpt lat="46.7332" lon="5.96848">
        <ele>663.9</ele>
        <time>2015-06-28T09:30:40Z</time>
      </trkpt>
      <trkpt lat="46.73317" lon="5.96829">
        <ele>663.8</ele>
        <time>2015-06-28T09:30:43Z</time>
      </trkpt>
      <trkpt lat="46.73313" lon="5.96816">
        <ele>663.8</ele>
        <time>2015-06-28T09:30:45Z</time>
      </trkpt>
      <trkpt lat="46.73311" lon="5.96803">
        <ele>663.7</ele>
        <time>2015-06-28T09:30:47Z</time>
      </trkpt>
      <trkpt lat="46.73306" lon="5.9679">
        <ele>663.6</ele>
        <time>2015-06-28T09:30:50Z</time>
      </trkpt>
      <trkpt lat="46.73301" lon="5.96774">
        <ele>663.2</ele>
        <time>2015-06-28T09:30:54Z</time>
      </trkpt>
      <trkpt lat="46.73301" lon="5.9676">
        <ele>662.9</ele>
        <time>2015-06-28T09:30:59Z</time>
      </trkpt>
      <trkpt lat="46.73291" lon="5.9675">
        <ele>660.7</ele>
        <time>2015-06-28T09:31:47Z</time>
      </trkpt>
      <trkpt lat="46.73285" lon="5.96737">
        <ele>660.7</ele>
        <time>2015-06-28T09:31:50Z</time>
      </trkpt>
      <trkpt lat="46.73282" lon="5.96723">
        <ele>660.7</ele>
        <time>2015-06-28T09:31:53Z</time>
      </trkpt>
      <trkpt lat="46.73282" lon="5.96709">
        <ele>660.7</ele>
        <time>2015-06-28T09:31:55Z</time>
      </trkpt>
      <trkpt lat="46.73281" lon="5.96696">
        <ele>660.7</ele>
        <time>2015-06-28T09:31:57Z</time>
      </trkpt>
      <trkpt lat="46.73279" lon="5.96678">
        <ele>660.7</ele>
        <time>2015-06-28T09:32:00Z</time>
      </trkpt>
      <trkpt lat="46.73277" lon="5.96661">
        <ele>660.6</ele>
        <time>2015-06-28T09:32:03Z</time>
      </trkpt>
      <trkpt lat="46.73275" lon="5.96643">
        <ele>660.6</ele>
        <time>2015-06-28T09:32:06Z</time>
      </trkpt>
      <trkpt lat="46.73271" lon="5.96627">
        <ele>660.6</ele>
        <time>2015-06-28T09:32:09Z</time>
      </trkpt>
      <trkpt lat="46.73265" lon="5.96616">
        <ele>660.6</ele>
        <time>2015-06-28T09:32:12Z</time>
      </trkpt>
      <trkpt lat="46.73257" lon="5.96604">
        <ele>660.5</ele>
        <time>2015-06-28T09:32:15Z</time>
      </trkpt>
      <trkpt lat="46.73248" lon="5.96597">
        <ele>660.6</ele>
        <time>2015-06-28T09:32:18Z</time>
      </trkpt>
      <trkpt lat="46.7324" lon="5.96591">
        <ele>660.7</ele>
        <time>2015-06-28T09:32:22Z</time>
      </trkpt>
      <trkpt lat="46.73232" lon="5.9658">
        <ele>661</ele>
        <time>2015-06-28T09:32:27Z</time>
      </trkpt>
      <trkpt lat="46.73221" lon="5.96573">
        <ele>661.4</ele>
        <time>2015-06-28T09:32:32Z</time>
      </trkpt>
      <trkpt lat="46.73212" lon="5.96569">
        <ele>662</ele>
        <time>2015-06-28T09:32:36Z</time>
      </trkpt>
      <trkpt lat="46.73203" lon="5.9656">
        <ele>662.9</ele>
        <time>2015-06-28T09:32:42Z</time>
      </trkpt>
      <trkpt lat="46.73193" lon="5.96556">
        <ele>663.8</ele>
        <time>2015-06-28T09:32:47Z</time>
      </trkpt>
      <trkpt lat="46.73184" lon="5.96552">
        <ele>665.1</ele>
        <time>2015-06-28T09:32:53Z</time>
      </trkpt>
      <trkpt lat="46.73175" lon="5.9655">
        <ele>665.8</ele>
        <time>2015-06-28T09:32:57Z</time>
      </trkpt>
      <trkpt lat="46.73166" lon="5.96544">
        <ele>666.9</ele>
        <time>2015-06-28T09:33:03Z</time>
      </trkpt>
      <trkpt lat="46.7316" lon="5.96533">
        <ele>678</ele>
        <time>2015-06-28T09:34:17Z</time>
      </trkpt>
      <trkpt lat="46.73134" lon="5.96523">
        <ele>679</ele>
        <time>2015-06-28T09:34:21Z</time>
      </trkpt>
      <trkpt lat="46.73125" lon="5.96515">
        <ele>680.4</ele>
        <time>2015-06-28T09:34:24Z</time>
      </trkpt>
      <trkpt lat="46.73113" lon="5.96511">
        <ele>680.8</ele>
        <time>2015-06-28T09:34:26Z</time>
      </trkpt>
      <trkpt lat="46.73101" lon="5.96506">
        <ele>681.5</ele>
        <time>2015-06-28T09:34:30Z</time>
      </trkpt>
      <trkpt lat="46.73091" lon="5.96501">
        <ele>682.3</ele>
        <time>2015-06-28T09:34:34Z</time>
      </trkpt>
      <trkpt lat="46.73081" lon="5.96493">
        <ele>683.1</ele>
        <time>2015-06-28T09:34:39Z</time>
      </trkpt>
      <trkpt lat="46.73074" lon="5.96485">
        <ele>683.7</ele>
        <time>2015-06-28T09:34:43Z</time>
      </trkpt>
      <trkpt lat="46.73066" lon="5.96476">
        <ele>684.7</ele>
        <time>2015-06-28T09:34:50Z</time>
      </trkpt>
      <trkpt lat="46.73056" lon="5.96477">
        <ele>685.3</ele>
        <time>2015-06-28T09:34:55Z</time>
      </trkpt>
      <trkpt lat="46.73046" lon="5.96478">
        <ele>686.2</ele>
        <time>2015-06-28T09:35:01Z</time>
      </trkpt>
      <trkpt lat="46.73037" lon="5.96479">
        <ele>686.8</ele>
        <time>2015-06-28T09:35:06Z</time>
      </trkpt>
      <trkpt lat="46.73027" lon="5.96475">
        <ele>687.4</ele>
        <time>2015-06-28T09:35:12Z</time>
      </trkpt>
      <trkpt lat="46.73018" lon="5.96471">
        <ele>687.9</ele>
        <time>2015-06-28T09:35:19Z</time>
      </trkpt>
      <trkpt lat="46.73009" lon="5.96467">
        <ele>688.4</ele>
        <time>2015-06-28T09:35:24Z</time>
      </trkpt>
      <trkpt lat="46.73" lon="5.96463">
        <ele>689.1</ele>
        <time>2015-06-28T09:35:31Z</time>
      </trkpt>
      <trkpt lat="46.7299" lon="5.96458">
        <ele>689.8</ele>
        <time>2015-06-28T09:35:37Z</time>
      </trkpt>
      <trkpt lat="46.7298" lon="5.96458">
        <ele>690.2</ele>
        <time>2015-06-28T09:35:41Z</time>
      </trkpt>
      <trkpt lat="46.72971" lon="5.96454">
        <ele>690.6</ele>
        <time>2015-06-28T09:35:47Z</time>
      </trkpt>
      <trkpt lat="46.72962" lon="5.96449">
        <ele>690.8</ele>
        <time>2015-06-28T09:35:52Z</time>
      </trkpt>
      <trkpt lat="46.72953" lon="5.96443">
        <ele>691.1</ele>
        <time>2015-06-28T09:35:59Z</time>
      </trkpt>
      <trkpt lat="46.72944" lon="5.96439">
        <ele>691.4</ele>
        <time>2015-06-28T09:36:05Z</time>
      </trkpt>
      <trkpt lat="46.72935" lon="5.96435">
        <ele>692</ele>
        <time>2015-06-28T09:36:11Z</time>
      </trkpt>
      <trkpt lat="46.72925" lon="5.96431">
        <ele>692.5</ele>
        <time>2015-06-28T09:36:17Z</time>
      </trkpt>
      <trkpt lat="46.72915" lon="5.9643">
        <ele>693</ele>
        <time>2015-06-28T09:36:22Z</time>
      </trkpt>
      <trkpt lat="46.72906" lon="5.96425">
        <ele>693.8</ele>
        <time>2015-06-28T09:36:29Z</time>
      </trkpt>
      <trkpt lat="46.72896" lon="5.96419">
        <ele>694.4</ele>
        <time>2015-06-28T09:36:35Z</time>
      </trkpt>
      <trkpt lat="46.72887" lon="5.96414">
        <ele>695</ele>
        <time>2015-06-28T09:36:41Z</time>
      </trkpt>
      <trkpt lat="46.7288" lon="5.96406">
        <ele>695.5</ele>
        <time>2015-06-28T09:36:46Z</time>
      </trkpt>
      <trkpt lat="46.72872" lon="5.96397">
        <ele>696</ele>
        <time>2015-06-28T09:36:52Z</time>
      </trkpt>
      <trkpt lat="46.72866" lon="5.96386">
        <ele>696.7</ele>
        <time>2015-06-28T09:36:59Z</time>
      </trkpt>
      <trkpt lat="46.7286" lon="5.96374">
        <ele>697.3</ele>
        <time>2015-06-28T09:37:05Z</time>
      </trkpt>
      <trkpt lat="46.72851" lon="5.96365">
        <ele>697.7</ele>
        <time>2015-06-28T09:37:11Z</time>
      </trkpt>
      <trkpt lat="46.72843" lon="5.96358">
        <ele>698.1</ele>
        <time>2015-06-28T09:37:15Z</time>
      </trkpt>
      <trkpt lat="46.72835" lon="5.9635">
        <ele>698.3</ele>
        <time>2015-06-28T09:37:19Z</time>
      </trkpt>
      <trkpt lat="46.72828" lon="5.9634">
        <ele>698.5</ele>
        <time>2015-06-28T09:37:24Z</time>
      </trkpt>
      <trkpt lat="46.72811" lon="5.96339">
        <ele>698.6</ele>
        <time>2015-06-28T09:37:28Z</time>
      </trkpt>
      <trkpt lat="46.72802" lon="5.96341">
        <ele>698.6</ele>
        <time>2015-06-28T09:37:31Z</time>
      </trkpt>
      <trkpt lat="46.72793" lon="5.96339">
        <ele>698.5</ele>
        <time>2015-06-28T09:37:33Z</time>
      </trkpt>
      <trkpt lat="46.72781" lon="5.96329">
        <ele>698.3</ele>
        <time>2015-06-28T09:37:36Z</time>
      </trkpt>
      <trkpt lat="46.72772" lon="5.96316">
        <ele>697.9</ele>
        <time>2015-06-28T09:37:39Z</time>
      </trkpt>
      <trkpt lat="46.72761" lon="5.96315">
        <ele>697.7</ele>
        <time>2015-06-28T09:37:41Z</time>
      </trkpt>
      <trkpt lat="46.72744" lon="5.96313">
        <ele>697.1</ele>
        <time>2015-06-28T09:37:44Z</time>
      </trkpt>
      <trkpt lat="46.72732" lon="5.9631">
        <ele>696.7</ele>
        <time>2015-06-28T09:37:46Z</time>
      </trkpt>
      <trkpt lat="46.72723" lon="5.96305">
        <ele>696.1</ele>
        <time>2015-06-28T09:37:48Z</time>
      </trkpt>
      <trkpt lat="46.72714" lon="5.96298">
        <ele>695.6</ele>
        <time>2015-06-28T09:37:50Z</time>
      </trkpt>
      <trkpt lat="46.72704" lon="5.9629">
        <ele>695.1</ele>
        <time>2015-06-28T09:37:52Z</time>
      </trkpt>
      <trkpt lat="46.72697" lon="5.96281">
        <ele>694.6</ele>
        <time>2015-06-28T09:37:54Z</time>
      </trkpt>
      <trkpt lat="46.72692" lon="5.96268">
        <ele>693.8</ele>
        <time>2015-06-28T09:37:57Z</time>
      </trkpt>
      <trkpt lat="46.72684" lon="5.96254">
        <ele>692.8</ele>
        <time>2015-06-28T09:38:00Z</time>
      </trkpt>
      <trkpt lat="46.72676" lon="5.96244">
        <ele>691.9</ele>
        <time>2015-06-28T09:38:02Z</time>
      </trkpt>
      <trkpt lat="46.72667" lon="5.96235">
        <ele>691.1</ele>
        <time>2015-06-28T09:38:04Z</time>
      </trkpt>
      <trkpt lat="46.72659" lon="5.96227">
        <ele>690.4</ele>
        <time>2015-06-28T09:38:06Z</time>
      </trkpt>
      <trkpt lat="46.72651" lon="5.96216">
        <ele>689.7</ele>
        <time>2015-06-28T09:38:08Z</time>
      </trkpt>
      <trkpt lat="46.72642" lon="5.96205">
        <ele>689</ele>
        <time>2015-06-28T09:38:10Z</time>
      </trkpt>
      <trkpt lat="46.72635" lon="5.96192">
        <ele>688.1</ele>
        <time>2015-06-28T09:38:12Z</time>
      </trkpt>
      <trkpt lat="46.72626" lon="5.9618">
        <ele>687.2</ele>
        <time>2015-06-28T09:38:14Z</time>
      </trkpt>
      <trkpt lat="46.72615" lon="5.96167">
        <ele>686.2</ele>
        <time>2015-06-28T09:38:16Z</time>
      </trkpt>
      <trkpt lat="46.72605" lon="5.96152">
        <ele>685.3</ele>
        <time>2015-06-28T09:38:18Z</time>
      </trkpt>
      <trkpt lat="46.72597" lon="5.96137">
        <ele>684.4</ele>
        <time>2015-06-28T09:38:20Z</time>
      </trkpt>
      <trkpt lat="46.72589" lon="5.96121">
        <ele>683.5</ele>
        <time>2015-06-28T09:38:22Z</time>
      </trkpt>
      <trkpt lat="46.72581" lon="5.96106">
        <ele>682.7</ele>
        <time>2015-06-28T09:38:24Z</time>
      </trkpt>
      <trkpt lat="46.72572" lon="5.96092">
        <ele>681.8</ele>
        <time>2015-06-28T09:38:26Z</time>
      </trkpt>
      <trkpt lat="46.72565" lon="5.96079">
        <ele>681</ele>
        <time>2015-06-28T09:38:28Z</time>
      </trkpt>
      <trkpt lat="46.72561" lon="5.96061">
        <ele>680.2</ele>
        <time>2015-06-28T09:38:30Z</time>
      </trkpt>
      <trkpt lat="46.72557" lon="5.96047">
        <ele>679.4</ele>
        <time>2015-06-28T09:38:32Z</time>
      </trkpt>
      <trkpt lat="46.72556" lon="5.96029">
        <ele>678.4</ele>
        <time>2015-06-28T09:38:35Z</time>
      </trkpt>
      <trkpt lat="46.7256" lon="5.96016">
        <ele>677.6</ele>
        <time>2015-06-28T09:38:38Z</time>
      </trkpt>
      <trkpt lat="46.72567" lon="5.96007">
        <ele>676.8</ele>
        <time>2015-06-28T09:38:41Z</time>
      </trkpt>
      <trkpt lat="46.72576" lon="5.96002">
        <ele>676</ele>
        <time>2015-06-28T09:38:44Z</time>
      </trkpt>
      <trkpt lat="46.72583" lon="5.95991">
        <ele>675</ele>
        <time>2015-06-28T09:38:47Z</time>
      </trkpt>
      <trkpt lat="46.72593" lon="5.95987">
        <ele>672.8</ele>
        <time>2015-06-28T09:38:53Z</time>
      </trkpt>
      <trkpt lat="46.72603" lon="5.95988">
        <ele>670.7</ele>
        <time>2015-06-28T09:38:58Z</time>
      </trkpt>
      <trkpt lat="46.72615" lon="5.95985">
        <ele>669.4</ele>
        <time>2015-06-28T09:39:01Z</time>
      </trkpt>
      <trkpt lat="46.72624" lon="5.95978">
        <ele>668.5</ele>
        <time>2015-06-28T09:39:03Z</time>
      </trkpt>
      <trkpt lat="46.72635" lon="5.95974">
        <ele>666.6</ele>
        <time>2015-06-28T09:39:07Z</time>
      </trkpt>
      <trkpt lat="46.72645" lon="5.95972">
        <ele>664.9</ele>
        <time>2015-06-28T09:39:10Z</time>
      </trkpt>
      <trkpt lat="46.72655" lon="5.95972">
        <ele>663.4</ele>
        <time>2015-06-28T09:39:13Z</time>
      </trkpt>
      <trkpt lat="46.72666" lon="5.95974">
        <ele>661.2</ele>
        <time>2015-06-28T09:39:17Z</time>
      </trkpt>
      <trkpt lat="46.72675" lon="5.95978">
        <ele>659.2</ele>
        <time>2015-06-28T09:39:21Z</time>
      </trkpt>
      <trkpt lat="46.72683" lon="5.95982">
        <ele>656.7</ele>
        <time>2015-06-28T09:39:26Z</time>
      </trkpt>
      <trkpt lat="46.72692" lon="5.95985">
        <ele>655.3</ele>
        <time>2015-06-28T09:39:29Z</time>
      </trkpt>
      <trkpt lat="46.72706" lon="5.95987">
        <ele>653.9</ele>
        <time>2015-06-28T09:39:32Z</time>
      </trkpt>
      <trkpt lat="46.72715" lon="5.95989">
        <ele>653</ele>
        <time>2015-06-28T09:39:34Z</time>
      </trkpt>
      <trkpt lat="46.72729" lon="5.95993">
        <ele>651.7</ele>
        <time>2015-06-28T09:39:37Z</time>
      </trkpt>
      <trkpt lat="46.72739" lon="5.95998">
        <ele>650.9</ele>
        <time>2015-06-28T09:39:39Z</time>
      </trkpt>
      <trkpt lat="46.72751" lon="5.96005">
        <ele>650.1</ele>
        <time>2015-06-28T09:39:41Z</time>
      </trkpt>
      <trkpt lat="46.72762" lon="5.96012">
        <ele>649.3</ele>
        <time>2015-06-28T09:39:43Z</time>
      </trkpt>
      <trkpt lat="46.72774" lon="5.96018">
        <ele>648.4</ele>
        <time>2015-06-28T09:39:45Z</time>
      </trkpt>
      <trkpt lat="46.72786" lon="5.96025">
        <ele>647.5</ele>
        <time>2015-06-28T09:39:47Z</time>
      </trkpt>
      <trkpt lat="46.72795" lon="5.96032">
        <ele>646.7</ele>
        <time>2015-06-28T09:39:49Z</time>
      </trkpt>
      <trkpt lat="46.72803" lon="5.9604">
        <ele>645.8</ele>
        <time>2015-06-28T09:39:51Z</time>
      </trkpt>
      <trkpt lat="46.72811" lon="5.96049">
        <ele>645</ele>
        <time>2015-06-28T09:39:53Z</time>
      </trkpt>
      <trkpt lat="46.7282" lon="5.96058">
        <ele>644.1</ele>
        <time>2015-06-28T09:39:55Z</time>
      </trkpt>
      <trkpt lat="46.7283" lon="5.96068">
        <ele>643.4</ele>
        <time>2015-06-28T09:39:57Z</time>
      </trkpt>
      <trkpt lat="46.72839" lon="5.96076">
        <ele>642.6</ele>
        <time>2015-06-28T09:39:59Z</time>
      </trkpt>
      <trkpt lat="46.7285" lon="5.96082">
        <ele>641.7</ele>
        <time>2015-06-28T09:40:01Z</time>
      </trkpt>
      <trkpt lat="46.72861" lon="5.96087">
        <ele>640.9</ele>
        <time>2015-06-28T09:40:03Z</time>
      </trkpt>
      <trkpt lat="46.72871" lon="5.96097">
        <ele>640.2</ele>
        <time>2015-06-28T09:40:05Z</time>
      </trkpt>
      <trkpt lat="46.72881" lon="5.96101">
        <ele>639.2</ele>
        <time>2015-06-28T09:40:08Z</time>
      </trkpt>
      <trkpt lat="46.72892" lon="5.96101">
        <ele>633</ele>
        <time>2015-06-28T09:40:34Z</time>
      </trkpt>
      <trkpt lat="46.72905" lon="5.96102">
        <ele>632.1</ele>
        <time>2015-06-28T09:40:38Z</time>
      </trkpt>
      <trkpt lat="46.72917" lon="5.96109">
        <ele>631.6</ele>
        <time>2015-06-28T09:40:41Z</time>
      </trkpt>
      <trkpt lat="46.72926" lon="5.96115">
        <ele>631.2</ele>
        <time>2015-06-28T09:40:43Z</time>
      </trkpt>
      <trkpt lat="46.72936" lon="5.96124">
        <ele>630.8</ele>
        <time>2015-06-28T09:40:46Z</time>
      </trkpt>
      <trkpt lat="46.72946" lon="5.96132">
        <ele>630.4</ele>
        <time>2015-06-28T09:40:49Z</time>
      </trkpt>
      <trkpt lat="46.72954" lon="5.96143">
        <ele>630</ele>
        <time>2015-06-28T09:40:52Z</time>
      </trkpt>
      <trkpt lat="46.72965" lon="5.96152">
        <ele>629.7</ele>
        <time>2015-06-28T09:40:55Z</time>
      </trkpt>
      <trkpt lat="46.72973" lon="5.9616">
        <ele>629.5</ele>
        <time>2015-06-28T09:40:57Z</time>
      </trkpt>
      <trkpt lat="46.72981" lon="5.96168">
        <ele>629.3</ele>
        <time>2015-06-28T09:40:59Z</time>
      </trkpt>
      <trkpt lat="46.72988" lon="5.96177">
        <ele>629.1</ele>
        <time>2015-06-28T09:41:01Z</time>
      </trkpt>
      <trkpt lat="46.72999" lon="5.96185">
        <ele>628.8</ele>
        <time>2015-06-28T09:41:03Z</time>
      </trkpt>
      <trkpt lat="46.73012" lon="5.96192">
        <ele>628.5</ele>
        <time>2015-06-28T09:41:05Z</time>
      </trkpt>
      <trkpt lat="46.73025" lon="5.962">
        <ele>628.3</ele>
        <time>2015-06-28T09:41:07Z</time>
      </trkpt>
      <trkpt lat="46.73039" lon="5.96207">
        <ele>628</ele>
        <time>2015-06-28T09:41:09Z</time>
      </trkpt>
      <trkpt lat="46.73054" lon="5.96212">
        <ele>627.7</ele>
        <time>2015-06-28T09:41:11Z</time>
      </trkpt>
      <trkpt lat="46.73073" lon="5.96213">
        <ele>627.3</ele>
        <time>2015-06-28T09:41:13Z</time>
      </trkpt>
      <trkpt lat="46.73088" lon="5.96216">
        <ele>627</ele>
        <time>2015-06-28T09:41:15Z</time>
      </trkpt>
      <trkpt lat="46.73097" lon="5.96217">
        <ele>626.8</ele>
        <time>2015-06-28T09:41:16Z</time>
      </trkpt>
      <trkpt lat="46.73113" lon="5.96219">
        <ele>626.5</ele>
        <time>2015-06-28T09:41:18Z</time>
      </trkpt>
      <trkpt lat="46.73128" lon="5.96221">
        <ele>626.2</ele>
        <time>2015-06-28T09:41:20Z</time>
      </trkpt>
      <trkpt lat="46.73141" lon="5.96226">
        <ele>625.9</ele>
        <time>2015-06-28T09:41:22Z</time>
      </trkpt>
      <trkpt lat="46.73153" lon="5.96231">
        <ele>625.7</ele>
        <time>2015-06-28T09:41:24Z</time>
      </trkpt>
      <trkpt lat="46.73164" lon="5.96234">
        <ele>625.4</ele>
        <time>2015-06-28T09:41:26Z</time>
      </trkpt>
      <trkpt lat="46.73175" lon="5.96238">
        <ele>625.2</ele>
        <time>2015-06-28T09:41:28Z</time>
      </trkpt>
      <trkpt lat="46.73186" lon="5.96241">
        <ele>625</ele>
        <time>2015-06-28T09:41:30Z</time>
      </trkpt>
      <trkpt lat="46.73197" lon="5.96245">
        <ele>624.7</ele>
        <time>2015-06-28T09:41:32Z</time>
      </trkpt>
      <trkpt lat="46.73209" lon="5.96248">
        <ele>624.4</ele>
        <time>2015-06-28T09:41:34Z</time>
      </trkpt>
      <trkpt lat="46.7322" lon="5.9625">
        <ele>624.1</ele>
        <time>2015-06-28T09:41:36Z</time>
      </trkpt>
      <trkpt lat="46.73231" lon="5.96255">
        <ele>623.9</ele>
        <time>2015-06-28T09:41:38Z</time>
      </trkpt>
      <trkpt lat="46.73245" lon="5.96255">
        <ele>623.6</ele>
        <time>2015-06-28T09:41:40Z</time>
      </trkpt>
      <trkpt lat="46.7326" lon="5.96254">
        <ele>623.3</ele>
        <time>2015-06-28T09:41:42Z</time>
      </trkpt>
      <trkpt lat="46.73273" lon="5.96252">
        <ele>623.1</ele>
        <time>2015-06-28T09:41:44Z</time>
      </trkpt>
      <trkpt lat="46.73285" lon="5.96249">
        <ele>622.8</ele>
        <time>2015-06-28T09:41:46Z</time>
      </trkpt>
      <trkpt lat="46.73296" lon="5.96244">
        <ele>622.6</ele>
        <time>2015-06-28T09:41:48Z</time>
      </trkpt>
      <trkpt lat="46.73307" lon="5.9624">
        <ele>622.3</ele>
        <time>2015-06-28T09:41:50Z</time>
      </trkpt>
      <trkpt lat="46.73316" lon="5.96237">
        <ele>622.1</ele>
        <time>2015-06-28T09:41:52Z</time>
      </trkpt>
      <trkpt lat="46.73325" lon="5.96234">
        <ele>621.8</ele>
        <time>2015-06-28T09:41:55Z</time>
      </trkpt>
      <trkpt lat="46.73336" lon="5.96229">
        <ele>621.6</ele>
        <time>2015-06-28T09:41:59Z</time>
      </trkpt>
      <trkpt lat="46.73348" lon="5.96226">
        <ele>621.3</ele>
        <time>2015-06-28T09:42:02Z</time>
      </trkpt>
      <trkpt lat="46.73361" lon="5.96219">
        <ele>620.9</ele>
        <time>2015-06-28T09:42:05Z</time>
      </trkpt>
      <trkpt lat="46.7337" lon="5.96215">
        <ele>620.6</ele>
        <time>2015-06-28T09:42:07Z</time>
      </trkpt>
      <trkpt lat="46.73379" lon="5.96212">
        <ele>620.4</ele>
        <time>2015-06-28T09:42:09Z</time>
      </trkpt>
      <trkpt lat="46.73391" lon="5.96204">
        <ele>620.3</ele>
        <time>2015-06-28T09:42:12Z</time>
      </trkpt>
      <trkpt lat="46.73403" lon="5.962">
        <ele>620.2</ele>
        <time>2015-06-28T09:42:15Z</time>
      </trkpt>
      <trkpt lat="46.73415" lon="5.96195">
        <ele>620.2</ele>
        <time>2015-06-28T09:42:18Z</time>
      </trkpt>
      <trkpt lat="46.73427" lon="5.9619">
        <ele>620.3</ele>
        <time>2015-06-28T09:42:21Z</time>
      </trkpt>
      <trkpt lat="46.73436" lon="5.96186">
        <ele>620.4</ele>
        <time>2015-06-28T09:42:23Z</time>
      </trkpt>
      <trkpt lat="46.73447" lon="5.96181">
        <ele>620.5</ele>
        <time>2015-06-28T09:42:26Z</time>
      </trkpt>
      <trkpt lat="46.73459" lon="5.96173">
        <ele>620.6</ele>
        <time>2015-06-28T09:42:29Z</time>
      </trkpt>
      <trkpt lat="46.73469" lon="5.96164">
        <ele>620.7</ele>
        <time>2015-06-28T09:42:32Z</time>
      </trkpt>
      <trkpt lat="46.73479" lon="5.96155">
        <ele>620.8</ele>
        <time>2015-06-28T09:42:35Z</time>
      </trkpt>
      <trkpt lat="46.73487" lon="5.96148">
        <ele>620.9</ele>
        <time>2015-06-28T09:42:38Z</time>
      </trkpt>
      <trkpt lat="46.73498" lon="5.9614">
        <ele>621</ele>
        <time>2015-06-28T09:42:41Z</time>
      </trkpt>
      <trkpt lat="46.7351" lon="5.96133">
        <ele>621</ele>
        <time>2015-06-28T09:42:44Z</time>
      </trkpt>
      <trkpt lat="46.73521" lon="5.96124">
        <ele>621.1</ele>
        <time>2015-06-28T09:42:47Z</time>
      </trkpt>
      <trkpt lat="46.73533" lon="5.96118">
        <ele>621.3</ele>
        <time>2015-06-28T09:42:50Z</time>
      </trkpt>
      <trkpt lat="46.73544" lon="5.96112">
        <ele>621.4</ele>
        <time>2015-06-28T09:42:53Z</time>
      </trkpt>
      <trkpt lat="46.73554" lon="5.96103">
        <ele>621.6</ele>
        <time>2015-06-28T09:42:56Z</time>
      </trkpt>
      <trkpt lat="46.73564" lon="5.96097">
        <ele>621.7</ele>
        <time>2015-06-28T09:42:59Z</time>
      </trkpt>
      <trkpt lat="46.73573" lon="5.96092">
        <ele>621.9</ele>
        <time>2015-06-28T09:43:01Z</time>
      </trkpt>
      <trkpt lat="46.73582" lon="5.96084">
        <ele>622</ele>
        <time>2015-06-28T09:43:03Z</time>
      </trkpt>
      <trkpt lat="46.73594" lon="5.96078">
        <ele>622.2</ele>
        <time>2015-06-28T09:43:06Z</time>
      </trkpt>
      <trkpt lat="46.73605" lon="5.96074">
        <ele>622.3</ele>
        <time>2015-06-28T09:43:09Z</time>
      </trkpt>
      <trkpt lat="46.73618" lon="5.9607">
        <ele>622.4</ele>
        <time>2015-06-28T09:43:12Z</time>
      </trkpt>
      <trkpt lat="46.73631" lon="5.96064">
        <ele>622.4</ele>
        <time>2015-06-28T09:43:15Z</time>
      </trkpt>
      <trkpt lat="46.73643" lon="5.96058">
        <ele>622.4</ele>
        <time>2015-06-28T09:43:18Z</time>
      </trkpt>
      <trkpt lat="46.73656" lon="5.96052">
        <ele>622.4</ele>
        <time>2015-06-28T09:43:21Z</time>
      </trkpt>
      <trkpt lat="46.73667" lon="5.96045">
        <ele>622.4</ele>
        <time>2015-06-28T09:43:24Z</time>
      </trkpt>
      <trkpt lat="46.73679" lon="5.9604">
        <ele>622.4</ele>
        <time>2015-06-28T09:43:27Z</time>
      </trkpt>
      <trkpt lat="46.73689" lon="5.96035">
        <ele>622.5</ele>
        <time>2015-06-28T09:43:30Z</time>
      </trkpt>
      <trkpt lat="46.737" lon="5.9603">
        <ele>622.6</ele>
        <time>2015-06-28T09:43:34Z</time>
      </trkpt>
      <trkpt lat="46.73713" lon="5.96023">
        <ele>622.6</ele>
        <time>2015-06-28T09:43:37Z</time>
      </trkpt>
      <trkpt lat="46.73724" lon="5.96018">
        <ele>622.6</ele>
        <time>2015-06-28T09:43:39Z</time>
      </trkpt>
      <trkpt lat="46.73734" lon="5.96011">
        <ele>622.5</ele>
        <time>2015-06-28T09:43:41Z</time>
      </trkpt>
      <trkpt lat="46.73743" lon="5.96005">
        <ele>622.5</ele>
        <time>2015-06-28T09:43:43Z</time>
      </trkpt>
      <trkpt lat="46.73752" lon="5.95997">
        <ele>622.5</ele>
        <time>2015-06-28T09:43:45Z</time>
      </trkpt>
      <trkpt lat="46.7376" lon="5.9599">
        <ele>622.5</ele>
        <time>2015-06-28T09:43:47Z</time>
      </trkpt>
      <trkpt lat="46.73769" lon="5.95983">
        <ele>622.4</ele>
        <time>2015-06-28T09:43:49Z</time>
      </trkpt>
      <trkpt lat="46.73778" lon="5.95977">
        <ele>622.3</ele>
        <time>2015-06-28T09:43:51Z</time>
      </trkpt>
      <trkpt lat="46.73785" lon="5.95969">
        <ele>622.1</ele>
        <time>2015-06-28T09:43:53Z</time>
      </trkpt>
      <trkpt lat="46.73795" lon="5.95961">
        <ele>622</ele>
        <time>2015-06-28T09:43:55Z</time>
      </trkpt>
      <trkpt lat="46.73804" lon="5.95951">
        <ele>621.8</ele>
        <time>2015-06-28T09:43:57Z</time>
      </trkpt>
      <trkpt lat="46.73814" lon="5.95945">
        <ele>621.7</ele>
        <time>2015-06-28T09:43:59Z</time>
      </trkpt>
      <trkpt lat="46.73825" lon="5.95938">
        <ele>621.5</ele>
        <time>2015-06-28T09:44:01Z</time>
      </trkpt>
      <trkpt lat="46.73838" lon="5.95935">
        <ele>621.3</ele>
        <time>2015-06-28T09:44:03Z</time>
      </trkpt>
      <trkpt lat="46.7385" lon="5.95929">
        <ele>621</ele>
        <time>2015-06-28T09:44:05Z</time>
      </trkpt>
      <trkpt lat="46.73859" lon="5.95934">
        <ele>620.8</ele>
        <time>2015-06-28T09:44:06Z</time>
      </trkpt>
      <trkpt lat="46.73873" lon="5.95935">
        <ele>620.3</ele>
        <time>2015-06-28T09:44:08Z</time>
      </trkpt>
      <trkpt lat="46.73889" lon="5.95938">
        <ele>619.9</ele>
        <time>2015-06-28T09:44:10Z</time>
      </trkpt>
      <trkpt lat="46.73901" lon="5.95936">
        <ele>619.5</ele>
        <time>2015-06-28T09:44:12Z</time>
      </trkpt>
      <trkpt lat="46.73911" lon="5.95932">
        <ele>619.1</ele>
        <time>2015-06-28T09:44:14Z</time>
      </trkpt>
      <trkpt lat="46.73921" lon="5.95931">
        <ele>618.7</ele>
        <time>2015-06-28T09:44:16Z</time>
      </trkpt>
      <trkpt lat="46.73932" lon="5.9593">
        <ele>618.4</ele>
        <time>2015-06-28T09:44:18Z</time>
      </trkpt>
      <trkpt lat="46.73944" lon="5.95923">
        <ele>618</ele>
        <time>2015-06-28T09:44:20Z</time>
      </trkpt>
      <trkpt lat="46.73955" lon="5.95917">
        <ele>617.6</ele>
        <time>2015-06-28T09:44:22Z</time>
      </trkpt>
      <trkpt lat="46.73967" lon="5.95908">
        <ele>617.3</ele>
        <time>2015-06-28T09:44:24Z</time>
      </trkpt>
      <trkpt lat="46.73978" lon="5.95901">
        <ele>616.9</ele>
        <time>2015-06-28T09:44:26Z</time>
      </trkpt>
      <trkpt lat="46.73988" lon="5.95892">
        <ele>616.6</ele>
        <time>2015-06-28T09:44:28Z</time>
      </trkpt>
      <trkpt lat="46.73998" lon="5.95885">
        <ele>616.3</ele>
        <time>2015-06-28T09:44:30Z</time>
      </trkpt>
      <trkpt lat="46.74009" lon="5.95878">
        <ele>615.9</ele>
        <time>2015-06-28T09:44:32Z</time>
      </trkpt>
      <trkpt lat="46.74023" lon="5.95861">
        <ele>615.5</ele>
        <time>2015-06-28T09:44:34Z</time>
      </trkpt>
      <trkpt lat="46.74037" lon="5.9585">
        <ele>615.1</ele>
        <time>2015-06-28T09:44:36Z</time>
      </trkpt>
      <trkpt lat="46.74049" lon="5.9584">
        <ele>614.8</ele>
        <time>2015-06-28T09:44:38Z</time>
      </trkpt>
      <trkpt lat="46.74062" lon="5.95831">
        <ele>614.4</ele>
        <time>2015-06-28T09:44:40Z</time>
      </trkpt>
      <trkpt lat="46.74074" lon="5.95822">
        <ele>614</ele>
        <time>2015-06-28T09:44:42Z</time>
      </trkpt>
      <trkpt lat="46.74086" lon="5.95812">
        <ele>613.6</ele>
        <time>2015-06-28T09:44:44Z</time>
      </trkpt>
      <trkpt lat="46.74098" lon="5.95803">
        <ele>613.2</ele>
        <time>2015-06-28T09:44:46Z</time>
      </trkpt>
      <trkpt lat="46.7411" lon="5.95793">
        <ele>612.8</ele>
        <time>2015-06-28T09:44:48Z</time>
      </trkpt>
      <trkpt lat="46.74121" lon="5.95785">
        <ele>612.4</ele>
        <time>2015-06-28T09:44:50Z</time>
      </trkpt>
      <trkpt lat="46.74133" lon="5.95775">
        <ele>612.1</ele>
        <time>2015-06-28T09:44:52Z</time>
      </trkpt>
      <trkpt lat="46.74144" lon="5.95766">
        <ele>611.5</ele>
        <time>2015-06-28T09:44:54Z</time>
      </trkpt>
      <trkpt lat="46.74155" lon="5.95758">
        <ele>610.9</ele>
        <time>2015-06-28T09:44:56Z</time>
      </trkpt>
      <trkpt lat="46.74166" lon="5.9575">
        <ele>610.6</ele>
        <time>2015-06-28T09:44:58Z</time>
      </trkpt>
      <trkpt lat="46.74176" lon="5.95744">
        <ele>610.3</ele>
        <time>2015-06-28T09:45:00Z</time>
      </trkpt>
      <trkpt lat="46.74185" lon="5.95737">
        <ele>610.1</ele>
        <time>2015-06-28T09:45:02Z</time>
      </trkpt>
      <trkpt lat="46.74193" lon="5.9573">
        <ele>609.8</ele>
        <time>2015-06-28T09:45:04Z</time>
      </trkpt>
      <trkpt lat="46.74202" lon="5.95723">
        <ele>609.5</ele>
        <time>2015-06-28T09:45:06Z</time>
      </trkpt>
      <trkpt lat="46.7421" lon="5.95717">
        <ele>609.3</ele>
        <time>2015-06-28T09:45:08Z</time>
      </trkpt>
      <trkpt lat="46.74219" lon="5.95708">
        <ele>609</ele>
        <time>2015-06-28T09:45:10Z</time>
      </trkpt>
      <trkpt lat="46.74227" lon="5.957">
        <ele>608.7</ele>
        <time>2015-06-28T09:45:12Z</time>
      </trkpt>
      <trkpt lat="46.74235" lon="5.95694">
        <ele>608.4</ele>
        <time>2015-06-28T09:45:14Z</time>
      </trkpt>
      <trkpt lat="46.74243" lon="5.95686">
        <ele>608.2</ele>
        <time>2015-06-28T09:45:16Z</time>
      </trkpt>
      <trkpt lat="46.74254" lon="5.9568">
        <ele>607.8</ele>
        <time>2015-06-28T09:45:19Z</time>
      </trkpt>
      <trkpt lat="46.74262" lon="5.95671">
        <ele>607.2</ele>
        <time>2015-06-28T09:45:24Z</time>
      </trkpt>
      <trkpt lat="46.7427" lon="5.95662">
        <ele>606.7</ele>
        <time>2015-06-28T09:45:29Z</time>
      </trkpt>
      <trkpt lat="46.7428" lon="5.95656">
        <ele>606.4</ele>
        <time>2015-06-28T09:45:32Z</time>
      </trkpt>
      <trkpt lat="46.7429" lon="5.95653">
        <ele>606.2</ele>
        <time>2015-06-28T09:45:35Z</time>
      </trkpt>
      <trkpt lat="46.743" lon="5.95651">
        <ele>605.8</ele>
        <time>2015-06-28T09:45:38Z</time>
      </trkpt>
      <trkpt lat="46.74311" lon="5.95649">
        <ele>605.5</ele>
        <time>2015-06-28T09:45:41Z</time>
      </trkpt>
      <trkpt lat="46.74322" lon="5.95647">
        <ele>605.3</ele>
        <time>2015-06-28T09:45:44Z</time>
      </trkpt>
      <trkpt lat="46.74333" lon="5.95648">
        <ele>605.2</ele>
        <time>2015-06-28T09:45:47Z</time>
      </trkpt>
      <trkpt lat="46.74344" lon="5.95646">
        <ele>605.2</ele>
        <time>2015-06-28T09:45:50Z</time>
      </trkpt>
      <trkpt lat="46.74354" lon="5.95643">
        <ele>605.2</ele>
        <time>2015-06-28T09:45:53Z</time>
      </trkpt>
      <trkpt lat="46.74364" lon="5.95645">
        <ele>605.2</ele>
        <time>2015-06-28T09:45:56Z</time>
      </trkpt>
      <trkpt lat="46.74375" lon="5.95648">
        <ele>605.1</ele>
        <time>2015-06-28T09:45:59Z</time>
      </trkpt>
      <trkpt lat="46.74384" lon="5.95651">
        <ele>605.1</ele>
        <time>2015-06-28T09:46:02Z</time>
      </trkpt>
      <trkpt lat="46.74395" lon="5.95656">
        <ele>605.1</ele>
        <time>2015-06-28T09:46:05Z</time>
      </trkpt>
      <trkpt lat="46.74404" lon="5.95663">
        <ele>605.2</ele>
        <time>2015-06-28T09:46:08Z</time>
      </trkpt>
      <trkpt lat="46.74413" lon="5.9567">
        <ele>605.2</ele>
        <time>2015-06-28T09:46:11Z</time>
      </trkpt>
      <trkpt lat="46.74423" lon="5.95677">
        <ele>605.3</ele>
        <time>2015-06-28T09:46:14Z</time>
      </trkpt>
      <trkpt lat="46.74433" lon="5.95683">
        <ele>605.3</ele>
        <time>2015-06-28T09:46:17Z</time>
      </trkpt>
      <trkpt lat="46.74444" lon="5.95687">
        <ele>605.3</ele>
        <time>2015-06-28T09:46:20Z</time>
      </trkpt>
      <trkpt lat="46.74455" lon="5.95687">
        <ele>605.2</ele>
        <time>2015-06-28T09:46:23Z</time>
      </trkpt>
      <trkpt lat="46.74467" lon="5.95685">
        <ele>605.2</ele>
        <time>2015-06-28T09:46:26Z</time>
      </trkpt>
      <trkpt lat="46.74475" lon="5.95693">
        <ele>605.2</ele>
        <time>2015-06-28T09:46:28Z</time>
      </trkpt>
      <trkpt lat="46.74484" lon="5.95703">
        <ele>605.1</ele>
        <time>2015-06-28T09:46:30Z</time>
      </trkpt>
      <trkpt lat="46.74495" lon="5.95707">
        <ele>605.1</ele>
        <time>2015-06-28T09:46:33Z</time>
      </trkpt>
      <trkpt lat="46.74505" lon="5.95704">
        <ele>605.1</ele>
        <time>2015-06-28T09:46:36Z</time>
      </trkpt>
      <trkpt lat="46.74514" lon="5.95702">
        <ele>605.1</ele>
        <time>2015-06-28T09:46:39Z</time>
      </trkpt>
      <trkpt lat="46.74524" lon="5.95697">
        <ele>605.2</ele>
        <time>2015-06-28T09:46:42Z</time>
      </trkpt>
      <trkpt lat="46.74534" lon="5.95702">
        <ele>605.2</ele>
        <time>2015-06-28T09:46:44Z</time>
      </trkpt>
      <trkpt lat="46.74545" lon="5.957">
        <ele>605.1</ele>
        <time>2015-06-28T09:46:47Z</time>
      </trkpt>
      <trkpt lat="46.74557" lon="5.95694">
        <ele>605.1</ele>
        <time>2015-06-28T09:46:50Z</time>
      </trkpt>
      <trkpt lat="46.7457" lon="5.95699">
        <ele>605.1</ele>
        <time>2015-06-28T09:46:53Z</time>
      </trkpt>
      <trkpt lat="46.74581" lon="5.95699">
        <ele>605.2</ele>
        <time>2015-06-28T09:46:56Z</time>
      </trkpt>
      <trkpt lat="46.74593" lon="5.95698">
        <ele>605.3</ele>
        <time>2015-06-28T09:46:59Z</time>
      </trkpt>
      <trkpt lat="46.74605" lon="5.95692">
        <ele>605.3</ele>
        <time>2015-06-28T09:47:02Z</time>
      </trkpt>
      <trkpt lat="46.74616" lon="5.95689">
        <ele>605.4</ele>
        <time>2015-06-28T09:47:05Z</time>
      </trkpt>
      <trkpt lat="46.74628" lon="5.95683">
        <ele>605.4</ele>
        <time>2015-06-28T09:47:08Z</time>
      </trkpt>
      <trkpt lat="46.74639" lon="5.9568">
        <ele>605.4</ele>
        <time>2015-06-28T09:47:11Z</time>
      </trkpt>
      <trkpt lat="46.74652" lon="5.95678">
        <ele>605.4</ele>
        <time>2015-06-28T09:47:14Z</time>
      </trkpt>
      <trkpt lat="46.74663" lon="5.95675">
        <ele>605.5</ele>
        <time>2015-06-28T09:47:17Z</time>
      </trkpt>
      <trkpt lat="46.74675" lon="5.95671">
        <ele>605.5</ele>
        <time>2015-06-28T09:47:20Z</time>
      </trkpt>
      <trkpt lat="46.74685" lon="5.95672">
        <ele>605.6</ele>
        <time>2015-06-28T09:47:22Z</time>
      </trkpt>
      <trkpt lat="46.74696" lon="5.95667">
        <ele>605.7</ele>
        <time>2015-06-28T09:47:24Z</time>
      </trkpt>
      <trkpt lat="46.74705" lon="5.95669">
        <ele>605.7</ele>
        <time>2015-06-28T09:47:26Z</time>
      </trkpt>
      <trkpt lat="46.74714" lon="5.95668">
        <ele>605.8</ele>
        <time>2015-06-28T09:47:28Z</time>
      </trkpt>
      <trkpt lat="46.74727" lon="5.95664">
        <ele>606</ele>
        <time>2015-06-28T09:47:31Z</time>
      </trkpt>
      <trkpt lat="46.74734" lon="5.95656">
        <ele>606</ele>
        <time>2015-06-28T09:47:33Z</time>
      </trkpt>
      <trkpt lat="46.74743" lon="5.95642">
        <ele>606.2</ele>
        <time>2015-06-28T09:47:35Z</time>
      </trkpt>
      <trkpt lat="46.74751" lon="5.95635">
        <ele>606.3</ele>
        <time>2015-06-28T09:47:37Z</time>
      </trkpt>
      <trkpt lat="46.7476" lon="5.9563">
        <ele>606.4</ele>
        <time>2015-06-28T09:47:39Z</time>
      </trkpt>
      <trkpt lat="46.7477" lon="5.95626">
        <ele>606.7</ele>
        <time>2015-06-28T09:47:42Z</time>
      </trkpt>
      <trkpt lat="46.74779" lon="5.95618">
        <ele>606.9</ele>
        <time>2015-06-28T09:47:45Z</time>
      </trkpt>
      <trkpt lat="46.74789" lon="5.95607">
        <ele>607.1</ele>
        <time>2015-06-28T09:47:48Z</time>
      </trkpt>
      <trkpt lat="46.748" lon="5.95598">
        <ele>607.3</ele>
        <time>2015-06-28T09:47:51Z</time>
      </trkpt>
      <trkpt lat="46.74809" lon="5.95591">
        <ele>607.4</ele>
        <time>2015-06-28T09:47:54Z</time>
      </trkpt>
      <trkpt lat="46.74816" lon="5.95583">
        <ele>607.4</ele>
        <time>2015-06-28T09:47:56Z</time>
      </trkpt>
      <trkpt lat="46.74823" lon="5.95575">
        <ele>607.5</ele>
        <time>2015-06-28T09:47:58Z</time>
      </trkpt>
      <trkpt lat="46.74832" lon="5.95564">
        <ele>607.6</ele>
        <time>2015-06-28T09:48:01Z</time>
      </trkpt>
      <trkpt lat="46.74841" lon="5.95551">
        <ele>607.7</ele>
        <time>2015-06-28T09:48:04Z</time>
      </trkpt>
      <trkpt lat="46.7485" lon="5.95545">
        <ele>607.8</ele>
        <time>2015-06-28T09:48:06Z</time>
      </trkpt>
      <trkpt lat="46.74858" lon="5.95538">
        <ele>607.9</ele>
        <time>2015-06-28T09:48:09Z</time>
      </trkpt>
      <trkpt lat="46.74867" lon="5.95526">
        <ele>608</ele>
        <time>2015-06-28T09:48:12Z</time>
      </trkpt>
      <trkpt lat="46.74875" lon="5.95519">
        <ele>608.2</ele>
        <time>2015-06-28T09:48:15Z</time>
      </trkpt>
      <trkpt lat="46.74886" lon="5.95511">
        <ele>608.3</ele>
        <time>2015-06-28T09:48:18Z</time>
      </trkpt>
      <trkpt lat="46.74894" lon="5.955">
        <ele>608.5</ele>
        <time>2015-06-28T09:48:21Z</time>
      </trkpt>
      <trkpt lat="46.74902" lon="5.95491">
        <ele>608.6</ele>
        <time>2015-06-28T09:48:24Z</time>
      </trkpt>
      <trkpt lat="46.74911" lon="5.95481">
        <ele>608.8</ele>
        <time>2015-06-28T09:48:27Z</time>
      </trkpt>
      <trkpt lat="46.7492" lon="5.95472">
        <ele>609</ele>
        <time>2015-06-28T09:48:30Z</time>
      </trkpt>
      <trkpt lat="46.74927" lon="5.95463">
        <ele>609.1</ele>
        <time>2015-06-28T09:48:33Z</time>
      </trkpt>
      <trkpt lat="46.74934" lon="5.95453">
        <ele>609.2</ele>
        <time>2015-06-28T09:48:35Z</time>
      </trkpt>
      <trkpt lat="46.74941" lon="5.95438">
        <ele>609.3</ele>
        <time>2015-06-28T09:48:37Z</time>
      </trkpt>
      <trkpt lat="46.74948" lon="5.95431">
        <ele>609.3</ele>
        <time>2015-06-28T09:48:40Z</time>
      </trkpt>
      <trkpt lat="46.74956" lon="5.95422">
        <ele>609.5</ele>
        <time>2015-06-28T09:48:43Z</time>
      </trkpt>
      <trkpt lat="46.74966" lon="5.95415">
        <ele>609.8</ele>
        <time>2015-06-28T09:48:47Z</time>
      </trkpt>
      <trkpt lat="46.74973" lon="5.95406">
        <ele>610</ele>
        <time>2015-06-28T09:48:50Z</time>
      </trkpt>
      <trkpt lat="46.74981" lon="5.95398">
        <ele>610.1</ele>
        <time>2015-06-28T09:48:52Z</time>
      </trkpt>
      <trkpt lat="46.74991" lon="5.95391">
        <ele>610.2</ele>
        <time>2015-06-28T09:48:54Z</time>
      </trkpt>
      <trkpt lat="46.74999" lon="5.95385">
        <ele>610.4</ele>
        <time>2015-06-28T09:48:56Z</time>
      </trkpt>
      <trkpt lat="46.75008" lon="5.95376">
        <ele>610.5</ele>
        <time>2015-06-28T09:48:59Z</time>
      </trkpt>
      <trkpt lat="46.75017" lon="5.95366">
        <ele>610.7</ele>
        <time>2015-06-28T09:49:03Z</time>
      </trkpt>
      <trkpt lat="46.75027" lon="5.95354">
        <ele>610.8</ele>
        <time>2015-06-28T09:49:06Z</time>
      </trkpt>
      <trkpt lat="46.75036" lon="5.95344">
        <ele>610.8</ele>
        <time>2015-06-28T09:49:08Z</time>
      </trkpt>
      <trkpt lat="46.75045" lon="5.95336">
        <ele>610.9</ele>
        <time>2015-06-28T09:49:10Z</time>
      </trkpt>
      <trkpt lat="46.75056" lon="5.95324">
        <ele>611</ele>
        <time>2015-06-28T09:49:13Z</time>
      </trkpt>
      <trkpt lat="46.75063" lon="5.95315">
        <ele>611</ele>
        <time>2015-06-28T09:49:15Z</time>
      </trkpt>
      <trkpt lat="46.7507" lon="5.95307">
        <ele>611</ele>
        <time>2015-06-28T09:49:17Z</time>
      </trkpt>
      <trkpt lat="46.7508" lon="5.95298">
        <ele>611</ele>
        <time>2015-06-28T09:49:20Z</time>
      </trkpt>
      <trkpt lat="46.75091" lon="5.95291">
        <ele>611</ele>
        <time>2015-06-28T09:49:23Z</time>
      </trkpt>
      <trkpt lat="46.751" lon="5.95287">
        <ele>610.9</ele>
        <time>2015-06-28T09:49:27Z</time>
      </trkpt>
      <trkpt lat="46.7511" lon="5.9528">
        <ele>610.9</ele>
        <time>2015-06-28T09:49:30Z</time>
      </trkpt>
      <trkpt lat="46.7512" lon="5.95272">
        <ele>610.8</ele>
        <time>2015-06-28T09:49:33Z</time>
      </trkpt>
      <trkpt lat="46.75129" lon="5.95262">
        <ele>610.7</ele>
        <time>2015-06-28T09:49:35Z</time>
      </trkpt>
      <trkpt lat="46.75139" lon="5.95253">
        <ele>610.7</ele>
        <time>2015-06-28T09:49:37Z</time>
      </trkpt>
      <trkpt lat="46.75153" lon="5.95248">
        <ele>610.6</ele>
        <time>2015-06-28T09:49:39Z</time>
      </trkpt>
      <trkpt lat="46.75162" lon="5.95242">
        <ele>610.6</ele>
        <time>2015-06-28T09:49:41Z</time>
      </trkpt>
      <trkpt lat="46.75171" lon="5.95231">
        <ele>610.5</ele>
        <time>2015-06-28T09:49:44Z</time>
      </trkpt>
      <trkpt lat="46.75182" lon="5.9522">
        <ele>610.4</ele>
        <time>2015-06-28T09:49:47Z</time>
      </trkpt>
      <trkpt lat="46.75189" lon="5.95213">
        <ele>610.4</ele>
        <time>2015-06-28T09:49:49Z</time>
      </trkpt>
      <trkpt lat="46.75201" lon="5.95203">
        <ele>610.4</ele>
        <time>2015-06-28T09:49:52Z</time>
      </trkpt>
      <trkpt lat="46.75209" lon="5.95195">
        <ele>610.4</ele>
        <time>2015-06-28T09:49:54Z</time>
      </trkpt>
      <trkpt lat="46.75217" lon="5.95184">
        <ele>610.4</ele>
        <time>2015-06-28T09:49:57Z</time>
      </trkpt>
      <trkpt lat="46.75226" lon="5.95173">
        <ele>610.3</ele>
        <time>2015-06-28T09:50:00Z</time>
      </trkpt>
      <trkpt lat="46.75236" lon="5.9516">
        <ele>610.3</ele>
        <time>2015-06-28T09:50:03Z</time>
      </trkpt>
      <trkpt lat="46.75245" lon="5.95147">
        <ele>610.2</ele>
        <time>2015-06-28T09:50:06Z</time>
      </trkpt>
      <trkpt lat="46.75254" lon="5.95132">
        <ele>610.2</ele>
        <time>2015-06-28T09:50:09Z</time>
      </trkpt>
      <trkpt lat="46.75263" lon="5.95123">
        <ele>610.2</ele>
        <time>2015-06-28T09:50:11Z</time>
      </trkpt>
      <trkpt lat="46.75271" lon="5.95116">
        <ele>610.2</ele>
        <time>2015-06-28T09:50:13Z</time>
      </trkpt>
      <trkpt lat="46.75282" lon="5.9511">
        <ele>610.3</ele>
        <time>2015-06-28T09:50:16Z</time>
      </trkpt>
      <trkpt lat="46.75291" lon="5.95108">
        <ele>610.5</ele>
        <time>2015-06-28T09:50:19Z</time>
      </trkpt>
      <trkpt lat="46.75303" lon="5.95105">
        <ele>610.6</ele>
        <time>2015-06-28T09:50:22Z</time>
      </trkpt>
      <trkpt lat="46.75312" lon="5.95099">
        <ele>610.7</ele>
        <time>2015-06-28T09:50:25Z</time>
      </trkpt>
      <trkpt lat="46.75321" lon="5.95097">
        <ele>610.8</ele>
        <time>2015-06-28T09:50:28Z</time>
      </trkpt>
      <trkpt lat="46.75331" lon="5.95091">
        <ele>610.9</ele>
        <time>2015-06-28T09:50:31Z</time>
      </trkpt>
      <trkpt lat="46.7534" lon="5.95087">
        <ele>610.9</ele>
        <time>2015-06-28T09:50:33Z</time>
      </trkpt>
      <trkpt lat="46.75349" lon="5.95081">
        <ele>611</ele>
        <time>2015-06-28T09:50:35Z</time>
      </trkpt>
      <trkpt lat="46.7536" lon="5.95071">
        <ele>611.1</ele>
        <time>2015-06-28T09:50:38Z</time>
      </trkpt>
      <trkpt lat="46.75369" lon="5.95066">
        <ele>611.2</ele>
        <time>2015-06-28T09:50:40Z</time>
      </trkpt>
      <trkpt lat="46.75377" lon="5.95056">
        <ele>611.3</ele>
        <time>2015-06-28T09:50:42Z</time>
      </trkpt>
      <trkpt lat="46.75385" lon="5.95042">
        <ele>611.3</ele>
        <time>2015-06-28T09:50:45Z</time>
      </trkpt>
      <trkpt lat="46.75391" lon="5.95031">
        <ele>611.4</ele>
        <time>2015-06-28T09:50:47Z</time>
      </trkpt>
      <trkpt lat="46.75396" lon="5.95019">
        <ele>611.4</ele>
        <time>2015-06-28T09:50:49Z</time>
      </trkpt>
      <trkpt lat="46.75398" lon="5.95003">
        <ele>611.6</ele>
        <time>2015-06-28T09:50:52Z</time>
      </trkpt>
      <trkpt lat="46.75401" lon="5.94986">
        <ele>611.9</ele>
        <time>2015-06-28T09:50:55Z</time>
      </trkpt>
      <trkpt lat="46.75403" lon="5.9497">
        <ele>612</ele>
        <time>2015-06-28T09:50:58Z</time>
      </trkpt>
      <trkpt lat="46.75406" lon="5.94952">
        <ele>612.2</ele>
        <time>2015-06-28T09:51:01Z</time>
      </trkpt>
      <trkpt lat="46.7541" lon="5.94935">
        <ele>612.3</ele>
        <time>2015-06-28T09:51:04Z</time>
      </trkpt>
      <trkpt lat="46.7541" lon="5.94917">
        <ele>612.4</ele>
        <time>2015-06-28T09:51:07Z</time>
      </trkpt>
      <trkpt lat="46.75409" lon="5.94899">
        <ele>612.5</ele>
        <time>2015-06-28T09:51:10Z</time>
      </trkpt>
      <trkpt lat="46.75413" lon="5.94879">
        <ele>612.5</ele>
        <time>2015-06-28T09:51:12Z</time>
      </trkpt>
      <trkpt lat="46.75414" lon="5.94866">
        <ele>612.5</ele>
        <time>2015-06-28T09:51:14Z</time>
      </trkpt>
      <trkpt lat="46.75413" lon="5.94849">
        <ele>612.5</ele>
        <time>2015-06-28T09:51:17Z</time>
      </trkpt>
      <trkpt lat="46.7541" lon="5.94833">
        <ele>612.4</ele>
        <time>2015-06-28T09:51:20Z</time>
      </trkpt>
      <trkpt lat="46.75406" lon="5.9482">
        <ele>612.3</ele>
        <time>2015-06-28T09:51:23Z</time>
      </trkpt>
      <trkpt lat="46.75403" lon="5.94804">
        <ele>612.1</ele>
        <time>2015-06-28T09:51:26Z</time>
      </trkpt>
      <trkpt lat="46.75406" lon="5.94786">
        <ele>611.9</ele>
        <time>2015-06-28T09:51:29Z</time>
      </trkpt>
      <trkpt lat="46.75405" lon="5.94771">
        <ele>611.8</ele>
        <time>2015-06-28T09:51:32Z</time>
      </trkpt>
      <trkpt lat="46.75405" lon="5.94754">
        <ele>611.6</ele>
        <time>2015-06-28T09:51:35Z</time>
      </trkpt>
      <trkpt lat="46.75405" lon="5.94737">
        <ele>611.6</ele>
        <time>2015-06-28T09:51:38Z</time>
      </trkpt>
      <trkpt lat="46.75407" lon="5.94724">
        <ele>611.6</ele>
        <time>2015-06-28T09:51:40Z</time>
      </trkpt>
      <trkpt lat="46.75408" lon="5.94709">
        <ele>611.4</ele>
        <time>2015-06-28T09:51:42Z</time>
      </trkpt>
      <trkpt lat="46.75413" lon="5.94694">
        <ele>611.3</ele>
        <time>2015-06-28T09:51:44Z</time>
      </trkpt>
      <trkpt lat="46.75415" lon="5.94678">
        <ele>611.1</ele>
        <time>2015-06-28T09:51:46Z</time>
      </trkpt>
      <trkpt lat="46.75418" lon="5.94665">
        <ele>610.9</ele>
        <time>2015-06-28T09:51:48Z</time>
      </trkpt>
      <trkpt lat="46.7542" lon="5.94647">
        <ele>610.7</ele>
        <time>2015-06-28T09:51:51Z</time>
      </trkpt>
      <trkpt lat="46.75426" lon="5.94629">
        <ele>610.5</ele>
        <time>2015-06-28T09:51:54Z</time>
      </trkpt>
      <trkpt lat="46.75431" lon="5.94616">
        <ele>610.4</ele>
        <time>2015-06-28T09:51:56Z</time>
      </trkpt>
      <trkpt lat="46.75435" lon="5.94604">
        <ele>610.2</ele>
        <time>2015-06-28T09:51:58Z</time>
      </trkpt>
      <trkpt lat="46.7544" lon="5.94593">
        <ele>610</ele>
        <time>2015-06-28T09:52:00Z</time>
      </trkpt>
      <trkpt lat="46.75445" lon="5.9458">
        <ele>609.7</ele>
        <time>2015-06-28T09:52:03Z</time>
      </trkpt>
      <trkpt lat="46.75449" lon="5.94566">
        <ele>609.3</ele>
        <time>2015-06-28T09:52:06Z</time>
      </trkpt>
      <trkpt lat="46.75453" lon="5.94551">
        <ele>608.9</ele>
        <time>2015-06-28T09:52:09Z</time>
      </trkpt>
      <trkpt lat="46.75456" lon="5.94539">
        <ele>608.6</ele>
        <time>2015-06-28T09:52:11Z</time>
      </trkpt>
      <trkpt lat="46.75458" lon="5.94525">
        <ele>608.3</ele>
        <time>2015-06-28T09:52:13Z</time>
      </trkpt>
      <trkpt lat="46.7546" lon="5.94506">
        <ele>607.9</ele>
        <time>2015-06-28T09:52:16Z</time>
      </trkpt>
      <trkpt lat="46.75462" lon="5.9449">
        <ele>607.7</ele>
        <time>2015-06-28T09:52:18Z</time>
      </trkpt>
      <trkpt lat="46.75462" lon="5.94477">
        <ele>607.5</ele>
        <time>2015-06-28T09:52:20Z</time>
      </trkpt>
      <trkpt lat="46.75464" lon="5.94463">
        <ele>607.3</ele>
        <time>2015-06-28T09:52:22Z</time>
      </trkpt>
      <trkpt lat="46.75466" lon="5.94445">
        <ele>607</ele>
        <time>2015-06-28T09:52:25Z</time>
      </trkpt>
      <trkpt lat="46.75473" lon="5.9443">
        <ele>606.7</ele>
        <time>2015-06-28T09:52:28Z</time>
      </trkpt>
      <trkpt lat="46.75483" lon="5.94418">
        <ele>606.5</ele>
        <time>2015-06-28T09:52:30Z</time>
      </trkpt>
      <trkpt lat="46.75495" lon="5.94402">
        <ele>606.2</ele>
        <time>2015-06-28T09:52:32Z</time>
      </trkpt>
      <trkpt lat="46.75505" lon="5.94385">
        <ele>605.8</ele>
        <time>2015-06-28T09:52:34Z</time>
      </trkpt>
      <trkpt lat="46.7551" lon="5.94373">
        <ele>605.2</ele>
        <time>2015-06-28T09:52:36Z</time>
      </trkpt>
      <trkpt lat="46.75511" lon="5.94357">
        <ele>604.6</ele>
        <time>2015-06-28T09:52:38Z</time>
      </trkpt>
      <trkpt lat="46.75513" lon="5.94344">
        <ele>603.9</ele>
        <time>2015-06-28T09:52:40Z</time>
      </trkpt>
      <trkpt lat="46.75511" lon="5.94329">
        <ele>602.9</ele>
        <time>2015-06-28T09:52:43Z</time>
      </trkpt>
      <trkpt lat="46.7551" lon="5.94313">
        <ele>602.2</ele>
        <time>2015-06-28T09:52:45Z</time>
      </trkpt>
      <trkpt lat="46.75508" lon="5.94299">
        <ele>601.3</ele>
        <time>2015-06-28T09:52:48Z</time>
      </trkpt>
      <trkpt lat="46.7551" lon="5.94285">
        <ele>600.5</ele>
        <time>2015-06-28T09:52:51Z</time>
      </trkpt>
      <trkpt lat="46.75514" lon="5.94269">
        <ele>599.6</ele>
        <time>2015-06-28T09:52:54Z</time>
      </trkpt>
      <trkpt lat="46.75516" lon="5.94251">
        <ele>598.9</ele>
        <time>2015-06-28T09:52:57Z</time>
      </trkpt>
      <trkpt lat="46.75517" lon="5.94237">
        <ele>598.4</ele>
        <time>2015-06-28T09:52:59Z</time>
      </trkpt>
      <trkpt lat="46.75519" lon="5.94223">
        <ele>597.9</ele>
        <time>2015-06-28T09:53:01Z</time>
      </trkpt>
      <trkpt lat="46.75518" lon="5.94206">
        <ele>597.3</ele>
        <time>2015-06-28T09:53:03Z</time>
      </trkpt>
      <trkpt lat="46.75516" lon="5.94191">
        <ele>596.7</ele>
        <time>2015-06-28T09:53:05Z</time>
      </trkpt>
      <trkpt lat="46.75511" lon="5.94172">
        <ele>595.9</ele>
        <time>2015-06-28T09:53:08Z</time>
      </trkpt>
      <trkpt lat="46.75507" lon="5.94159">
        <ele>595.4</ele>
        <time>2015-06-28T09:53:10Z</time>
      </trkpt>
      <trkpt lat="46.75503" lon="5.94147">
        <ele>594.9</ele>
        <time>2015-06-28T09:53:12Z</time>
      </trkpt>
      <trkpt lat="46.75498" lon="5.94134">
        <ele>594.4</ele>
        <time>2015-06-28T09:53:14Z</time>
      </trkpt>
      <trkpt lat="46.75496" lon="5.94115">
        <ele>594</ele>
        <time>2015-06-28T09:53:16Z</time>
      </trkpt>
      <trkpt lat="46.75492" lon="5.941">
        <ele>593.6</ele>
        <time>2015-06-28T09:53:18Z</time>
      </trkpt>
      <trkpt lat="46.75487" lon="5.94085">
        <ele>593.3</ele>
        <time>2015-06-28T09:53:20Z</time>
      </trkpt>
      <trkpt lat="46.75484" lon="5.94069">
        <ele>592.9</ele>
        <time>2015-06-28T09:53:22Z</time>
      </trkpt>
      <trkpt lat="46.75479" lon="5.94052">
        <ele>592.5</ele>
        <time>2015-06-28T09:53:24Z</time>
      </trkpt>
      <trkpt lat="46.75474" lon="5.94036">
        <ele>592.1</ele>
        <time>2015-06-28T09:53:26Z</time>
      </trkpt>
      <trkpt lat="46.7547" lon="5.94023">
        <ele>591.7</ele>
        <time>2015-06-28T09:53:28Z</time>
      </trkpt>
      <trkpt lat="46.75466" lon="5.94009">
        <ele>591.4</ele>
        <time>2015-06-28T09:53:30Z</time>
      </trkpt>
      <trkpt lat="46.75463" lon="5.93995">
        <ele>591</ele>
        <time>2015-06-28T09:53:32Z</time>
      </trkpt>
      <trkpt lat="46.75457" lon="5.93982">
        <ele>590.7</ele>
        <time>2015-06-28T09:53:34Z</time>
      </trkpt>
      <trkpt lat="46.75451" lon="5.93969">
        <ele>590.3</ele>
        <time>2015-06-28T09:53:36Z</time>
      </trkpt>
      <trkpt lat="46.75444" lon="5.93959">
        <ele>589.9</ele>
        <time>2015-06-28T09:53:38Z</time>
      </trkpt>
      <trkpt lat="46.75437" lon="5.9395">
        <ele>589.5</ele>
        <time>2015-06-28T09:53:40Z</time>
      </trkpt>
      <trkpt lat="46.75429" lon="5.93943">
        <ele>589.2</ele>
        <time>2015-06-28T09:53:42Z</time>
      </trkpt>
      <trkpt lat="46.75421" lon="5.93934">
        <ele>588.9</ele>
        <time>2015-06-28T09:53:44Z</time>
      </trkpt>
      <trkpt lat="46.75415" lon="5.93921">
        <ele>588.7</ele>
        <time>2015-06-28T09:53:46Z</time>
      </trkpt>
      <trkpt lat="46.75406" lon="5.93906">
        <ele>588.4</ele>
        <time>2015-06-28T09:53:48Z</time>
      </trkpt>
      <trkpt lat="46.75399" lon="5.93895">
        <ele>588.1</ele>
        <time>2015-06-28T09:53:50Z</time>
      </trkpt>
      <trkpt lat="46.75391" lon="5.93886">
        <ele>587.9</ele>
        <time>2015-06-28T09:53:52Z</time>
      </trkpt>
      <trkpt lat="46.75382" lon="5.93878">
        <ele>587.5</ele>
        <time>2015-06-28T09:53:55Z</time>
      </trkpt>
      <trkpt lat="46.75374" lon="5.93868">
        <ele>587.1</ele>
        <time>2015-06-28T09:53:58Z</time>
      </trkpt>
      <trkpt lat="46.75366" lon="5.93856">
        <ele>586.7</ele>
        <time>2015-06-28T09:54:01Z</time>
      </trkpt>
      <trkpt lat="46.75359" lon="5.93842">
        <ele>586.4</ele>
        <time>2015-06-28T09:54:04Z</time>
      </trkpt>
      <trkpt lat="46.75348" lon="5.93836">
        <ele>585.9</ele>
        <time>2015-06-28T09:54:08Z</time>
      </trkpt>
      <trkpt lat="46.75336" lon="5.93839">
        <ele>585.5</ele>
        <time>2015-06-28T09:54:11Z</time>
      </trkpt>
      <trkpt lat="46.75325" lon="5.93843">
        <ele>585.2</ele>
        <time>2015-06-28T09:54:14Z</time>
      </trkpt>
      <trkpt lat="46.75313" lon="5.93849">
        <ele>584.9</ele>
        <time>2015-06-28T09:54:17Z</time>
      </trkpt>
      <trkpt lat="46.75302" lon="5.93849">
        <ele>584.7</ele>
        <time>2015-06-28T09:54:19Z</time>
      </trkpt>
      <trkpt lat="46.75292" lon="5.93848">
        <ele>584.5</ele>
        <time>2015-06-28T09:54:22Z</time>
      </trkpt>
      <trkpt lat="46.7528" lon="5.9385">
        <ele>584.2</ele>
        <time>2015-06-28T09:54:26Z</time>
      </trkpt>
      <trkpt lat="46.75271" lon="5.93857">
        <ele>584.2</ele>
        <time>2015-06-28T09:54:28Z</time>
      </trkpt>
      <trkpt lat="46.75263" lon="5.93866">
        <ele>584.2</ele>
        <time>2015-06-28T09:54:30Z</time>
      </trkpt>
      <trkpt lat="46.75253" lon="5.93876">
        <ele>584.3</ele>
        <time>2015-06-28T09:54:33Z</time>
      </trkpt>
      <trkpt lat="46.75247" lon="5.93887">
        <ele>584.4</ele>
        <time>2015-06-28T09:54:37Z</time>
      </trkpt>
      <trkpt lat="46.75239" lon="5.93894">
        <ele>584.8</ele>
        <time>2015-06-28T09:54:41Z</time>
      </trkpt>
      <trkpt lat="46.75229" lon="5.93898">
        <ele>585.4</ele>
        <time>2015-06-28T09:54:47Z</time>
      </trkpt>
      <trkpt lat="46.75219" lon="5.93892">
        <ele>585.9</ele>
        <time>2015-06-28T09:54:52Z</time>
      </trkpt>
      <trkpt lat="46.75206" lon="5.9389">
        <ele>586.2</ele>
        <time>2015-06-28T09:54:55Z</time>
      </trkpt>
      <trkpt lat="46.75196" lon="5.93891">
        <ele>586.4</ele>
        <time>2015-06-28T09:54:57Z</time>
      </trkpt>
      <trkpt lat="46.75187" lon="5.93891">
        <ele>586.7</ele>
        <time>2015-06-28T09:55:00Z</time>
      </trkpt>
      <trkpt lat="46.75177" lon="5.93887">
        <ele>587.1</ele>
        <time>2015-06-28T09:55:04Z</time>
      </trkpt>
      <trkpt lat="46.75167" lon="5.93884">
        <ele>587.4</ele>
        <time>2015-06-28T09:55:07Z</time>
      </trkpt>
      <trkpt lat="46.75155" lon="5.93881">
        <ele>587.5</ele>
        <time>2015-06-28T09:55:10Z</time>
      </trkpt>
      <trkpt lat="46.75144" lon="5.93887">
        <ele>587.7</ele>
        <time>2015-06-28T09:55:13Z</time>
      </trkpt>
      <trkpt lat="46.75135" lon="5.93891">
        <ele>587.7</ele>
        <time>2015-06-28T09:55:16Z</time>
      </trkpt>
      <trkpt lat="46.75126" lon="5.9389">
        <ele>587.8</ele>
        <time>2015-06-28T09:55:19Z</time>
      </trkpt>
      <trkpt lat="46.75109" lon="5.93886">
        <ele>587.9</ele>
        <time>2015-06-28T09:55:22Z</time>
      </trkpt>
      <trkpt lat="46.75097" lon="5.93884">
        <ele>587.9</ele>
        <time>2015-06-28T09:55:24Z</time>
      </trkpt>
      <trkpt lat="46.75088" lon="5.93881">
        <ele>587.9</ele>
        <time>2015-06-28T09:55:26Z</time>
      </trkpt>
      <trkpt lat="46.75078" lon="5.93877">
        <ele>587.9</ele>
        <time>2015-06-28T09:55:28Z</time>
      </trkpt>
      <trkpt lat="46.75069" lon="5.93872">
        <ele>587.9</ele>
        <time>2015-06-28T09:55:30Z</time>
      </trkpt>
      <trkpt lat="46.75056" lon="5.93864">
        <ele>587.8</ele>
        <time>2015-06-28T09:55:33Z</time>
      </trkpt>
      <trkpt lat="46.75048" lon="5.93858">
        <ele>587.7</ele>
        <time>2015-06-28T09:55:35Z</time>
      </trkpt>
      <trkpt lat="46.75038" lon="5.9385">
        <ele>587.6</ele>
        <time>2015-06-28T09:55:38Z</time>
      </trkpt>
      <trkpt lat="46.75027" lon="5.9384">
        <ele>587.5</ele>
        <time>2015-06-28T09:55:41Z</time>
      </trkpt>
      <trkpt lat="46.7502" lon="5.93832">
        <ele>587.3</ele>
        <time>2015-06-28T09:55:43Z</time>
      </trkpt>
      <trkpt lat="46.75013" lon="5.93823">
        <ele>587</ele>
        <time>2015-06-28T09:55:45Z</time>
      </trkpt>
      <trkpt lat="46.75005" lon="5.93812">
        <ele>586.8</ele>
        <time>2015-06-28T09:55:47Z</time>
      </trkpt>
      <trkpt lat="46.74997" lon="5.938">
        <ele>586.5</ele>
        <time>2015-06-28T09:55:49Z</time>
      </trkpt>
      <trkpt lat="46.74989" lon="5.93788">
        <ele>586.1</ele>
        <time>2015-06-28T09:55:51Z</time>
      </trkpt>
      <trkpt lat="46.74981" lon="5.93776">
        <ele>585.8</ele>
        <time>2015-06-28T09:55:53Z</time>
      </trkpt>
      <trkpt lat="46.74972" lon="5.93764">
        <ele>585.5</ele>
        <time>2015-06-28T09:55:55Z</time>
      </trkpt>
      <trkpt lat="46.74963" lon="5.93753">
        <ele>585.1</ele>
        <time>2015-06-28T09:55:57Z</time>
      </trkpt>
      <trkpt lat="46.74955" lon="5.93741">
        <ele>584.8</ele>
        <time>2015-06-28T09:55:59Z</time>
      </trkpt>
      <trkpt lat="46.74946" lon="5.93729">
        <ele>584.4</ele>
        <time>2015-06-28T09:56:01Z</time>
      </trkpt>
      <trkpt lat="46.74936" lon="5.93715">
        <ele>584</ele>
        <time>2015-06-28T09:56:03Z</time>
      </trkpt>
      <trkpt lat="46.74928" lon="5.93702">
        <ele>583.6</ele>
        <time>2015-06-28T09:56:05Z</time>
      </trkpt>
      <trkpt lat="46.74916" lon="5.93691">
        <ele>583.2</ele>
        <time>2015-06-28T09:56:07Z</time>
      </trkpt>
      <trkpt lat="46.74903" lon="5.93682">
        <ele>582.8</ele>
        <time>2015-06-28T09:56:09Z</time>
      </trkpt>
      <trkpt lat="46.74891" lon="5.9367">
        <ele>582.5</ele>
        <time>2015-06-28T09:56:11Z</time>
      </trkpt>
      <trkpt lat="46.74882" lon="5.93653">
        <ele>582.2</ele>
        <time>2015-06-28T09:56:13Z</time>
      </trkpt>
      <trkpt lat="46.74873" lon="5.93633">
        <ele>581.9</ele>
        <time>2015-06-28T09:56:15Z</time>
      </trkpt>
      <trkpt lat="46.74863" lon="5.93614">
        <ele>581.6</ele>
        <time>2015-06-28T09:56:17Z</time>
      </trkpt>
      <trkpt lat="46.74855" lon="5.93594">
        <ele>581.1</ele>
        <time>2015-06-28T09:56:19Z</time>
      </trkpt>
      <trkpt lat="46.74848" lon="5.93574">
        <ele>580.7</ele>
        <time>2015-06-28T09:56:21Z</time>
      </trkpt>
      <trkpt lat="46.74841" lon="5.93556">
        <ele>580.2</ele>
        <time>2015-06-28T09:56:23Z</time>
      </trkpt>
      <trkpt lat="46.74835" lon="5.9354">
        <ele>579.6</ele>
        <time>2015-06-28T09:56:25Z</time>
      </trkpt>
      <trkpt lat="46.74831" lon="5.93523">
        <ele>579.1</ele>
        <time>2015-06-28T09:56:27Z</time>
      </trkpt>
      <trkpt lat="46.74827" lon="5.93509">
        <ele>578.6</ele>
        <time>2015-06-28T09:56:29Z</time>
      </trkpt>
      <trkpt lat="46.74822" lon="5.93492">
        <ele>577.9</ele>
        <time>2015-06-28T09:56:32Z</time>
      </trkpt>
      <trkpt lat="46.74816" lon="5.93478">
        <ele>577.4</ele>
        <time>2015-06-28T09:56:35Z</time>
      </trkpt>
      <trkpt lat="46.74808" lon="5.93465">
        <ele>576.7</ele>
        <time>2015-06-28T09:56:39Z</time>
      </trkpt>
      <trkpt lat="46.74801" lon="5.93454">
        <ele>576.2</ele>
        <time>2015-06-28T09:56:43Z</time>
      </trkpt>
      <trkpt lat="46.74793" lon="5.93442">
        <ele>575.9</ele>
        <time>2015-06-28T09:56:46Z</time>
      </trkpt>
      <trkpt lat="46.74783" lon="5.9343">
        <ele>575.5</ele>
        <time>2015-06-28T09:56:49Z</time>
      </trkpt>
      <trkpt lat="46.74777" lon="5.9342">
        <ele>575.4</ele>
        <time>2015-06-28T09:56:51Z</time>
      </trkpt>
      <trkpt lat="46.74771" lon="5.93409">
        <ele>575.2</ele>
        <time>2015-06-28T09:56:53Z</time>
      </trkpt>
      <trkpt lat="46.74764" lon="5.93396">
        <ele>575.1</ele>
        <time>2015-06-28T09:56:55Z</time>
      </trkpt>
      <trkpt lat="46.74756" lon="5.93382">
        <ele>575</ele>
        <time>2015-06-28T09:56:57Z</time>
      </trkpt>
      <trkpt lat="46.74749" lon="5.93365">
        <ele>574.8</ele>
        <time>2015-06-28T09:56:59Z</time>
      </trkpt>
      <trkpt lat="46.74741" lon="5.93347">
        <ele>574.7</ele>
        <time>2015-06-28T09:57:01Z</time>
      </trkpt>
      <trkpt lat="46.74729" lon="5.9333">
        <ele>574.5</ele>
        <time>2015-06-28T09:57:03Z</time>
      </trkpt>
      <trkpt lat="46.74721" lon="5.93314">
        <ele>574.3</ele>
        <time>2015-06-28T09:57:05Z</time>
      </trkpt>
      <trkpt lat="46.74717" lon="5.93298">
        <ele>573.9</ele>
        <time>2015-06-28T09:57:07Z</time>
      </trkpt>
      <trkpt lat="46.74714" lon="5.93283">
        <ele>573.5</ele>
        <time>2015-06-28T09:57:09Z</time>
      </trkpt>
      <trkpt lat="46.74709" lon="5.93269">
        <ele>573.1</ele>
        <time>2015-06-28T09:57:11Z</time>
      </trkpt>
      <trkpt lat="46.74699" lon="5.93262">
        <ele>572.6</ele>
        <time>2015-06-28T09:57:13Z</time>
      </trkpt>
      <trkpt lat="46.74689" lon="5.93257">
        <ele>572.1</ele>
        <time>2015-06-28T09:57:15Z</time>
      </trkpt>
      <trkpt lat="46.74682" lon="5.93248">
        <ele>571.5</ele>
        <time>2015-06-28T09:57:17Z</time>
      </trkpt>
      <trkpt lat="46.74676" lon="5.93236">
        <ele>570.9</ele>
        <time>2015-06-28T09:57:19Z</time>
      </trkpt>
      <trkpt lat="46.7467" lon="5.93222">
        <ele>570.3</ele>
        <time>2015-06-28T09:57:21Z</time>
      </trkpt>
      <trkpt lat="46.74663" lon="5.93207">
        <ele>569.8</ele>
        <time>2015-06-28T09:57:23Z</time>
      </trkpt>
      <trkpt lat="46.74656" lon="5.93191">
        <ele>569.4</ele>
        <time>2015-06-28T09:57:25Z</time>
      </trkpt>
      <trkpt lat="46.74646" lon="5.93176">
        <ele>568.9</ele>
        <time>2015-06-28T09:57:27Z</time>
      </trkpt>
      <trkpt lat="46.74639" lon="5.9316">
        <ele>568.5</ele>
        <time>2015-06-28T09:57:29Z</time>
      </trkpt>
      <trkpt lat="46.74632" lon="5.93145">
        <ele>568.1</ele>
        <time>2015-06-28T09:57:31Z</time>
      </trkpt>
      <trkpt lat="46.74625" lon="5.93128">
        <ele>567.6</ele>
        <time>2015-06-28T09:57:33Z</time>
      </trkpt>
      <trkpt lat="46.74618" lon="5.93112">
        <ele>567.2</ele>
        <time>2015-06-28T09:57:35Z</time>
      </trkpt>
      <trkpt lat="46.74609" lon="5.93097">
        <ele>566.7</ele>
        <time>2015-06-28T09:57:37Z</time>
      </trkpt>
      <trkpt lat="46.746" lon="5.93082">
        <ele>566.3</ele>
        <time>2015-06-28T09:57:39Z</time>
      </trkpt>
      <trkpt lat="46.74588" lon="5.93068">
        <ele>565.8</ele>
        <time>2015-06-28T09:57:41Z</time>
      </trkpt>
      <trkpt lat="46.74577" lon="5.93054">
        <ele>565.4</ele>
        <time>2015-06-28T09:57:43Z</time>
      </trkpt>
      <trkpt lat="46.74566" lon="5.93039">
        <ele>564.9</ele>
        <time>2015-06-28T09:57:45Z</time>
      </trkpt>
      <trkpt lat="46.74555" lon="5.93026">
        <ele>564.5</ele>
        <time>2015-06-28T09:57:47Z</time>
      </trkpt>
      <trkpt lat="46.74543" lon="5.93013">
        <ele>564.1</ele>
        <time>2015-06-28T09:57:49Z</time>
      </trkpt>
      <trkpt lat="46.74532" lon="5.93">
        <ele>563.7</ele>
        <time>2015-06-28T09:57:51Z</time>
      </trkpt>
      <trkpt lat="46.74521" lon="5.92987">
        <ele>563.3</ele>
        <time>2015-06-28T09:57:53Z</time>
      </trkpt>
      <trkpt lat="46.7451" lon="5.92973">
        <ele>562.9</ele>
        <time>2015-06-28T09:57:55Z</time>
      </trkpt>
      <trkpt lat="46.74499" lon="5.92957">
        <ele>562.6</ele>
        <time>2015-06-28T09:57:57Z</time>
      </trkpt>
      <trkpt lat="46.74491" lon="5.92941">
        <ele>562.3</ele>
        <time>2015-06-28T09:57:59Z</time>
      </trkpt>
      <trkpt lat="46.7448" lon="5.92924">
        <ele>562</ele>
        <time>2015-06-28T09:58:01Z</time>
      </trkpt>
      <trkpt lat="46.74471" lon="5.92909">
        <ele>561.7</ele>
        <time>2015-06-28T09:58:03Z</time>
      </trkpt>
      <trkpt lat="46.74463" lon="5.92893">
        <ele>561.3</ele>
        <time>2015-06-28T09:58:05Z</time>
      </trkpt>
      <trkpt lat="46.74454" lon="5.92879">
        <ele>561</ele>
        <time>2015-06-28T09:58:07Z</time>
      </trkpt>
      <trkpt lat="46.74446" lon="5.92863">
        <ele>560.8</ele>
        <time>2015-06-28T09:58:09Z</time>
      </trkpt>
      <trkpt lat="46.74439" lon="5.92848">
        <ele>560.5</ele>
        <time>2015-06-28T09:58:11Z</time>
      </trkpt>
      <trkpt lat="46.74432" lon="5.92833">
        <ele>560.2</ele>
        <time>2015-06-28T09:58:13Z</time>
      </trkpt>
      <trkpt lat="46.74425" lon="5.92818">
        <ele>560</ele>
        <time>2015-06-28T09:58:15Z</time>
      </trkpt>
      <trkpt lat="46.74417" lon="5.92804">
        <ele>559.8</ele>
        <time>2015-06-28T09:58:17Z</time>
      </trkpt>
      <trkpt lat="46.7441" lon="5.92789">
        <ele>559.6</ele>
        <time>2015-06-28T09:58:19Z</time>
      </trkpt>
      <trkpt lat="46.74403" lon="5.92773">
        <ele>559.4</ele>
        <time>2015-06-28T09:58:21Z</time>
      </trkpt>
      <trkpt lat="46.74395" lon="5.92757">
        <ele>559.2</ele>
        <time>2015-06-28T09:58:23Z</time>
      </trkpt>
      <trkpt lat="46.74386" lon="5.9274">
        <ele>559</ele>
        <time>2015-06-28T09:58:25Z</time>
      </trkpt>
      <trkpt lat="46.74377" lon="5.92721">
        <ele>558.6</ele>
        <time>2015-06-28T09:58:27Z</time>
      </trkpt>
      <trkpt lat="46.74367" lon="5.92702">
        <ele>558.3</ele>
        <time>2015-06-28T09:58:29Z</time>
      </trkpt>
      <trkpt lat="46.74357" lon="5.92681">
        <ele>557.9</ele>
        <time>2015-06-28T09:58:31Z</time>
      </trkpt>
      <trkpt lat="46.74351" lon="5.9267">
        <ele>557.6</ele>
        <time>2015-06-28T09:58:32Z</time>
      </trkpt>
      <trkpt lat="46.74346" lon="5.92659">
        <ele>557.4</ele>
        <time>2015-06-28T09:58:33Z</time>
      </trkpt>
      <trkpt lat="46.74341" lon="5.92648">
        <ele>557.1</ele>
        <time>2015-06-28T09:58:34Z</time>
      </trkpt>
      <trkpt lat="46.74336" lon="5.92637">
        <ele>556.8</ele>
        <time>2015-06-28T09:58:35Z</time>
      </trkpt>
      <trkpt lat="46.74331" lon="5.92625">
        <ele>556.6</ele>
        <time>2015-06-28T09:58:36Z</time>
      </trkpt>
      <trkpt lat="46.74321" lon="5.92604">
        <ele>556.1</ele>
        <time>2015-06-28T09:58:38Z</time>
      </trkpt>
      <trkpt lat="46.7431" lon="5.92583">
        <ele>555.5</ele>
        <time>2015-06-28T09:58:40Z</time>
      </trkpt>
      <trkpt lat="46.743" lon="5.92564">
        <ele>555</ele>
        <time>2015-06-28T09:58:42Z</time>
      </trkpt>
      <trkpt lat="46.74291" lon="5.92545">
        <ele>554.4</ele>
        <time>2015-06-28T09:58:44Z</time>
      </trkpt>
      <trkpt lat="46.74283" lon="5.92527">
        <ele>553.9</ele>
        <time>2015-06-28T09:58:46Z</time>
      </trkpt>
      <trkpt lat="46.74274" lon="5.92509">
        <ele>553.4</ele>
        <time>2015-06-28T09:58:48Z</time>
      </trkpt>
      <trkpt lat="46.74264" lon="5.92491">
        <ele>552.8</ele>
        <time>2015-06-28T09:58:50Z</time>
      </trkpt>
      <trkpt lat="46.74254" lon="5.92474">
        <ele>552.3</ele>
        <time>2015-06-28T09:58:52Z</time>
      </trkpt>
      <trkpt lat="46.74246" lon="5.9246">
        <ele>551.8</ele>
        <time>2015-06-28T09:58:54Z</time>
      </trkpt>
      <trkpt lat="46.74239" lon="5.92442">
        <ele>551.3</ele>
        <time>2015-06-28T09:58:56Z</time>
      </trkpt>
      <trkpt lat="46.74238" lon="5.92419">
        <ele>550.8</ele>
        <time>2015-06-28T09:58:58Z</time>
      </trkpt>
      <trkpt lat="46.74245" lon="5.92398">
        <ele>550.4</ele>
        <time>2015-06-28T09:59:00Z</time>
      </trkpt>
      <trkpt lat="46.74252" lon="5.92378">
        <ele>549.8</ele>
        <time>2015-06-28T09:59:02Z</time>
      </trkpt>
      <trkpt lat="46.74258" lon="5.92357">
        <ele>549.3</ele>
        <time>2015-06-28T09:59:04Z</time>
      </trkpt>
      <trkpt lat="46.7426" lon="5.92332">
        <ele>548.7</ele>
        <time>2015-06-28T09:59:06Z</time>
      </trkpt>
      <trkpt lat="46.74261" lon="5.92309">
        <ele>548.2</ele>
        <time>2015-06-28T09:59:08Z</time>
      </trkpt>
      <trkpt lat="46.74263" lon="5.92288">
        <ele>547.7</ele>
        <time>2015-06-28T09:59:10Z</time>
      </trkpt>
      <trkpt lat="46.7427" lon="5.9227">
        <ele>547</ele>
        <time>2015-06-28T09:59:12Z</time>
      </trkpt>
      <trkpt lat="46.74277" lon="5.92253">
        <ele>546.5</ele>
        <time>2015-06-28T09:59:14Z</time>
      </trkpt>
      <trkpt lat="46.74279" lon="5.92232">
        <ele>545.9</ele>
        <time>2015-06-28T09:59:16Z</time>
      </trkpt>
      <trkpt lat="46.74279" lon="5.92214">
        <ele>545.5</ele>
        <time>2015-06-28T09:59:18Z</time>
      </trkpt>
      <trkpt lat="46.74284" lon="5.92198">
        <ele>545.1</ele>
        <time>2015-06-28T09:59:20Z</time>
      </trkpt>
      <trkpt lat="46.74292" lon="5.92183">
        <ele>544.7</ele>
        <time>2015-06-28T09:59:22Z</time>
      </trkpt>
      <trkpt lat="46.743" lon="5.92169">
        <ele>544.3</ele>
        <time>2015-06-28T09:59:24Z</time>
      </trkpt>
      <trkpt lat="46.74307" lon="5.92155">
        <ele>544</ele>
        <time>2015-06-28T09:59:26Z</time>
      </trkpt>
      <trkpt lat="46.74315" lon="5.9214">
        <ele>543.7</ele>
        <time>2015-06-28T09:59:28Z</time>
      </trkpt>
      <trkpt lat="46.74322" lon="5.92127">
        <ele>543.4</ele>
        <time>2015-06-28T09:59:30Z</time>
      </trkpt>
      <trkpt lat="46.7433" lon="5.92114">
        <ele>543.1</ele>
        <time>2015-06-28T09:59:32Z</time>
      </trkpt>
      <trkpt lat="46.74338" lon="5.921">
        <ele>542.9</ele>
        <time>2015-06-28T09:59:34Z</time>
      </trkpt>
      <trkpt lat="46.74348" lon="5.92089">
        <ele>542.5</ele>
        <time>2015-06-28T09:59:36Z</time>
      </trkpt>
      <trkpt lat="46.74359" lon="5.92081">
        <ele>542.1</ele>
        <time>2015-06-28T09:59:38Z</time>
      </trkpt>
      <trkpt lat="46.74371" lon="5.92076">
        <ele>541.7</ele>
        <time>2015-06-28T09:59:40Z</time>
      </trkpt>
      <trkpt lat="46.74382" lon="5.92074">
        <ele>541.4</ele>
        <time>2015-06-28T09:59:42Z</time>
      </trkpt>
      <trkpt lat="46.74393" lon="5.92075">
        <ele>541.1</ele>
        <time>2015-06-28T09:59:44Z</time>
      </trkpt>
      <trkpt lat="46.74403" lon="5.92079">
        <ele>540.8</ele>
        <time>2015-06-28T09:59:46Z</time>
      </trkpt>
      <trkpt lat="46.74412" lon="5.92084">
        <ele>540.6</ele>
        <time>2015-06-28T09:59:48Z</time>
      </trkpt>
      <trkpt lat="46.74421" lon="5.92092">
        <ele>540.3</ele>
        <time>2015-06-28T09:59:50Z</time>
      </trkpt>
      <trkpt lat="46.74429" lon="5.92099">
        <ele>540.1</ele>
        <time>2015-06-28T09:59:52Z</time>
      </trkpt>
      <trkpt lat="46.74438" lon="5.92107">
        <ele>539.9</ele>
        <time>2015-06-28T09:59:54Z</time>
      </trkpt>
      <trkpt lat="46.74447" lon="5.92114">
        <ele>539.7</ele>
        <time>2015-06-28T09:59:56Z</time>
      </trkpt>
      <trkpt lat="46.74456" lon="5.92121">
        <ele>539.6</ele>
        <time>2015-06-28T09:59:58Z</time>
      </trkpt>
      <trkpt lat="46.74464" lon="5.92128">
        <ele>539.4</ele>
        <time>2015-06-28T10:00:00Z</time>
      </trkpt>
      <trkpt lat="46.74472" lon="5.92136">
        <ele>539.2</ele>
        <time>2015-06-28T10:00:02Z</time>
      </trkpt>
      <trkpt lat="46.7448" lon="5.92144">
        <ele>539.1</ele>
        <time>2015-06-28T10:00:04Z</time>
      </trkpt>
      <trkpt lat="46.74489" lon="5.92151">
        <ele>539</ele>
        <time>2015-06-28T10:00:06Z</time>
      </trkpt>
      <trkpt lat="46.74498" lon="5.92158">
        <ele>538.8</ele>
        <time>2015-06-28T10:00:08Z</time>
      </trkpt>
      <trkpt lat="46.74507" lon="5.92165">
        <ele>538.7</ele>
        <time>2015-06-28T10:00:10Z</time>
      </trkpt>
      <trkpt lat="46.74516" lon="5.92172">
        <ele>538.6</ele>
        <time>2015-06-28T10:00:12Z</time>
      </trkpt>
      <trkpt lat="46.74525" lon="5.92179">
        <ele>538.5</ele>
        <time>2015-06-28T10:00:14Z</time>
      </trkpt>
      <trkpt lat="46.74534" lon="5.92187">
        <ele>538.4</ele>
        <time>2015-06-28T10:00:16Z</time>
      </trkpt>
      <trkpt lat="46.74543" lon="5.92194">
        <ele>538.3</ele>
        <time>2015-06-28T10:00:18Z</time>
      </trkpt>
      <trkpt lat="46.74553" lon="5.922">
        <ele>538.2</ele>
        <time>2015-06-28T10:00:20Z</time>
      </trkpt>
      <trkpt lat="46.74562" lon="5.92207">
        <ele>538.1</ele>
        <time>2015-06-28T10:00:22Z</time>
      </trkpt>
      <trkpt lat="46.74574" lon="5.92216">
        <ele>538</ele>
        <time>2015-06-28T10:00:25Z</time>
      </trkpt>
      <trkpt lat="46.74583" lon="5.9222">
        <ele>537.9</ele>
        <time>2015-06-28T10:00:27Z</time>
      </trkpt>
      <trkpt lat="46.74593" lon="5.92222">
        <ele>537.8</ele>
        <time>2015-06-28T10:00:29Z</time>
      </trkpt>
      <trkpt lat="46.74603" lon="5.92222">
        <ele>537.7</ele>
        <time>2015-06-28T10:00:31Z</time>
      </trkpt>
      <trkpt lat="46.74615" lon="5.92222">
        <ele>537.6</ele>
        <time>2015-06-28T10:00:33Z</time>
      </trkpt>
      <trkpt lat="46.74626" lon="5.9222">
        <ele>537.5</ele>
        <time>2015-06-28T10:00:35Z</time>
      </trkpt>
      <trkpt lat="46.74637" lon="5.92216">
        <ele>537.4</ele>
        <time>2015-06-28T10:00:37Z</time>
      </trkpt>
      <trkpt lat="46.74646" lon="5.92213">
        <ele>537.4</ele>
        <time>2015-06-28T10:00:39Z</time>
      </trkpt>
      <trkpt lat="46.74657" lon="5.9221">
        <ele>537.2</ele>
        <time>2015-06-28T10:00:42Z</time>
      </trkpt>
      <trkpt lat="46.74666" lon="5.92215">
        <ele>537</ele>
        <time>2015-06-28T10:00:47Z</time>
      </trkpt>
      <trkpt lat="46.74673" lon="5.92227">
        <ele>536.9</ele>
        <time>2015-06-28T10:00:51Z</time>
      </trkpt>
      <trkpt lat="46.74683" lon="5.92237">
        <ele>536.8</ele>
        <time>2015-06-28T10:00:54Z</time>
      </trkpt>
      <trkpt lat="46.74695" lon="5.9224">
        <ele>536.7</ele>
        <time>2015-06-28T10:00:57Z</time>
      </trkpt>
      <trkpt lat="46.74706" lon="5.92233">
        <ele>536.6</ele>
        <time>2015-06-28T10:01:00Z</time>
      </trkpt>
      <trkpt lat="46.74713" lon="5.92221">
        <ele>536.5</ele>
        <time>2015-06-28T10:01:03Z</time>
      </trkpt>
      <trkpt lat="46.74718" lon="5.92206">
        <ele>536.4</ele>
        <time>2015-06-28T10:01:06Z</time>
      </trkpt>
      <trkpt lat="46.74724" lon="5.9219">
        <ele>536.3</ele>
        <time>2015-06-28T10:01:09Z</time>
      </trkpt>
      <trkpt lat="46.74731" lon="5.92181">
        <ele>536.2</ele>
        <time>2015-06-28T10:01:11Z</time>
      </trkpt>
      <trkpt lat="46.7474" lon="5.92176">
        <ele>536.1</ele>
        <time>2015-06-28T10:01:13Z</time>
      </trkpt>
      <trkpt lat="46.74751" lon="5.92167">
        <ele>536</ele>
        <time>2015-06-28T10:01:16Z</time>
      </trkpt>
      <trkpt lat="46.74759" lon="5.92153">
        <ele>535.9</ele>
        <time>2015-06-28T10:01:19Z</time>
      </trkpt>
      <trkpt lat="46.74763" lon="5.92141">
        <ele>535.8</ele>
        <time>2015-06-28T10:01:21Z</time>
      </trkpt>
      <trkpt lat="46.74765" lon="5.92128">
        <ele>535.7</ele>
        <time>2015-06-28T10:01:23Z</time>
      </trkpt>
      <trkpt lat="46.74766" lon="5.92114">
        <ele>535.6</ele>
        <time>2015-06-28T10:01:25Z</time>
      </trkpt>
      <trkpt lat="46.74768" lon="5.92101">
        <ele>535.4</ele>
        <time>2015-06-28T10:01:27Z</time>
      </trkpt>
      <trkpt lat="46.74769" lon="5.92087">
        <ele>535.3</ele>
        <time>2015-06-28T10:01:29Z</time>
      </trkpt>
      <trkpt lat="46.74771" lon="5.92073">
        <ele>535.2</ele>
        <time>2015-06-28T10:01:31Z</time>
      </trkpt>
      <trkpt lat="46.74772" lon="5.9206">
        <ele>535.1</ele>
        <time>2015-06-28T10:01:33Z</time>
      </trkpt>
      <trkpt lat="46.74775" lon="5.92044">
        <ele>534.9</ele>
        <time>2015-06-28T10:01:35Z</time>
      </trkpt>
      <trkpt lat="46.74777" lon="5.92025">
        <ele>534.7</ele>
        <time>2015-06-28T10:01:38Z</time>
      </trkpt>
      <trkpt lat="46.74779" lon="5.92012">
        <ele>534.6</ele>
        <time>2015-06-28T10:01:40Z</time>
      </trkpt>
      <trkpt lat="46.7478" lon="5.91998">
        <ele>534.5</ele>
        <time>2015-06-28T10:01:42Z</time>
      </trkpt>
      <trkpt lat="46.74782" lon="5.91984">
        <ele>534.4</ele>
        <time>2015-06-28T10:01:44Z</time>
      </trkpt>
      <trkpt lat="46.74784" lon="5.9197">
        <ele>534.3</ele>
        <time>2015-06-28T10:01:46Z</time>
      </trkpt>
      <trkpt lat="46.74786" lon="5.91956">
        <ele>534.2</ele>
        <time>2015-06-28T10:01:48Z</time>
      </trkpt>
      <trkpt lat="46.74787" lon="5.91942">
        <ele>534.1</ele>
        <time>2015-06-28T10:01:50Z</time>
      </trkpt>
      <trkpt lat="46.74789" lon="5.91927">
        <ele>534</ele>
        <time>2015-06-28T10:01:52Z</time>
      </trkpt>
      <trkpt lat="46.74791" lon="5.91913">
        <ele>533.9</ele>
        <time>2015-06-28T10:01:54Z</time>
      </trkpt>
      <trkpt lat="46.74792" lon="5.91898">
        <ele>533.8</ele>
        <time>2015-06-28T10:01:56Z</time>
      </trkpt>
      <trkpt lat="46.74793" lon="5.91885">
        <ele>533.7</ele>
        <time>2015-06-28T10:01:58Z</time>
      </trkpt>
      <trkpt lat="46.74795" lon="5.9187">
        <ele>533.6</ele>
        <time>2015-06-28T10:02:00Z</time>
      </trkpt>
      <trkpt lat="46.74796" lon="5.91857">
        <ele>533.5</ele>
        <time>2015-06-28T10:02:02Z</time>
      </trkpt>
      <trkpt lat="46.74798" lon="5.91843">
        <ele>533.4</ele>
        <time>2015-06-28T10:02:04Z</time>
      </trkpt>
      <trkpt lat="46.748" lon="5.91829">
        <ele>533.3</ele>
        <time>2015-06-28T10:02:06Z</time>
      </trkpt>
      <trkpt lat="46.74802" lon="5.91815">
        <ele>533.2</ele>
        <time>2015-06-28T10:02:08Z</time>
      </trkpt>
      <trkpt lat="46.74804" lon="5.91795">
        <ele>533.1</ele>
        <time>2015-06-28T10:02:11Z</time>
      </trkpt>
      <trkpt lat="46.74806" lon="5.91781">
        <ele>532.9</ele>
        <time>2015-06-28T10:02:13Z</time>
      </trkpt>
      <trkpt lat="46.74807" lon="5.91767">
        <ele>532.6</ele>
        <time>2015-06-28T10:02:15Z</time>
      </trkpt>
      <trkpt lat="46.74809" lon="5.91753">
        <ele>532.4</ele>
        <time>2015-06-28T10:02:17Z</time>
      </trkpt>
      <trkpt lat="46.74811" lon="5.91738">
        <ele>532.1</ele>
        <time>2015-06-28T10:02:19Z</time>
      </trkpt>
      <trkpt lat="46.74813" lon="5.91724">
        <ele>531.9</ele>
        <time>2015-06-28T10:02:21Z</time>
      </trkpt>
      <trkpt lat="46.74814" lon="5.91709">
        <ele>531.7</ele>
        <time>2015-06-28T10:02:23Z</time>
      </trkpt>
      <trkpt lat="46.74816" lon="5.91694">
        <ele>531.5</ele>
        <time>2015-06-28T10:02:25Z</time>
      </trkpt>
      <trkpt lat="46.74817" lon="5.91679">
        <ele>531.3</ele>
        <time>2015-06-28T10:02:27Z</time>
      </trkpt>
      <trkpt lat="46.74816" lon="5.91663">
        <ele>531.1</ele>
        <time>2015-06-28T10:02:29Z</time>
      </trkpt>
      <trkpt lat="46.74814" lon="5.91648">
        <ele>530.9</ele>
        <time>2015-06-28T10:02:31Z</time>
      </trkpt>
      <trkpt lat="46.74811" lon="5.91633">
        <ele>530.8</ele>
        <time>2015-06-28T10:02:33Z</time>
      </trkpt>
      <trkpt lat="46.74807" lon="5.9162">
        <ele>530.6</ele>
        <time>2015-06-28T10:02:35Z</time>
      </trkpt>
      <trkpt lat="46.74804" lon="5.91607">
        <ele>530.4</ele>
        <time>2015-06-28T10:02:37Z</time>
      </trkpt>
      <trkpt lat="46.74801" lon="5.91594">
        <ele>530.1</ele>
        <time>2015-06-28T10:02:39Z</time>
      </trkpt>
      <trkpt lat="46.74799" lon="5.9158">
        <ele>529.9</ele>
        <time>2015-06-28T10:02:41Z</time>
      </trkpt>
      <trkpt lat="46.74797" lon="5.91567">
        <ele>529.7</ele>
        <time>2015-06-28T10:02:43Z</time>
      </trkpt>
      <trkpt lat="46.74795" lon="5.91554">
        <ele>529.5</ele>
        <time>2015-06-28T10:02:45Z</time>
      </trkpt>
      <trkpt lat="46.74793" lon="5.91541">
        <ele>529.3</ele>
        <time>2015-06-28T10:02:47Z</time>
      </trkpt>
      <trkpt lat="46.74792" lon="5.91527">
        <ele>529.1</ele>
        <time>2015-06-28T10:02:49Z</time>
      </trkpt>
      <trkpt lat="46.74792" lon="5.91514">
        <ele>528.9</ele>
        <time>2015-06-28T10:02:51Z</time>
      </trkpt>
      <trkpt lat="46.74792" lon="5.915">
        <ele>528.6</ele>
        <time>2015-06-28T10:02:53Z</time>
      </trkpt>
      <trkpt lat="46.74792" lon="5.91486">
        <ele>528.4</ele>
        <time>2015-06-28T10:02:55Z</time>
      </trkpt>
      <trkpt lat="46.74792" lon="5.91473">
        <ele>528.3</ele>
        <time>2015-06-28T10:02:57Z</time>
      </trkpt>
      <trkpt lat="46.74787" lon="5.91457">
        <ele>528</ele>
        <time>2015-06-28T10:03:00Z</time>
      </trkpt>
      <trkpt lat="46.74778" lon="5.91445">
        <ele>527.7</ele>
        <time>2015-06-28T10:03:03Z</time>
      </trkpt>
      <trkpt lat="46.74768" lon="5.91436">
        <ele>527.4</ele>
        <time>2015-06-28T10:03:06Z</time>
      </trkpt>
      <trkpt lat="46.74758" lon="5.91424">
        <ele>527.1</ele>
        <time>2015-06-28T10:03:09Z</time>
      </trkpt>
      <trkpt lat="46.74752" lon="5.91407">
        <ele>526.8</ele>
        <time>2015-06-28T10:03:12Z</time>
      </trkpt>
      <trkpt lat="46.74751" lon="5.91389">
        <ele>526.5</ele>
        <time>2015-06-28T10:03:15Z</time>
      </trkpt>
      <trkpt lat="46.74753" lon="5.91373">
        <ele>526.3</ele>
        <time>2015-06-28T10:03:18Z</time>
      </trkpt>
      <trkpt lat="46.74755" lon="5.91359">
        <ele>525.9</ele>
        <time>2015-06-28T10:03:21Z</time>
      </trkpt>
      <trkpt lat="46.74758" lon="5.91347">
        <ele>525.2</ele>
        <time>2015-06-28T10:03:27Z</time>
      </trkpt>
      <trkpt lat="46.74768" lon="5.91339">
        <ele>524.7</ele>
        <time>2015-06-28T10:03:33Z</time>
      </trkpt>
      <trkpt lat="46.74775" lon="5.9133">
        <ele>524.4</ele>
        <time>2015-06-28T10:03:37Z</time>
      </trkpt>
      <trkpt lat="46.74779" lon="5.91314">
        <ele>524.2</ele>
        <time>2015-06-28T10:03:41Z</time>
      </trkpt>
      <trkpt lat="46.74781" lon="5.91298">
        <ele>524</ele>
        <time>2015-06-28T10:03:45Z</time>
      </trkpt>
      <trkpt lat="46.74785" lon="5.91286">
        <ele>523.8</ele>
        <time>2015-06-28T10:03:50Z</time>
      </trkpt>
      <trkpt lat="46.74789" lon="5.91272">
        <ele>523.6</ele>
        <time>2015-06-28T10:03:55Z</time>
      </trkpt>
      <trkpt lat="46.7479" lon="5.91259">
        <ele>542.4</ele>
        <time>2015-06-28T10:34:52Z</time>
      </trkpt>
    </trkseg>
  </trk>
</gpx>